<?xml version="1.0" encoding="UTF-8" standalone="no" ?>
<gpx xmlns="http://www.topografix.com/GPX/1/1" xmlns:xsi="http://www.w3.org/2001/XMLSchema-instance" xsi:schemaLocation="http://www.topografix.com/GPX/1/1 http://www.topografix.com/GPX/1/1/gpx.xsd" version="1.1" creator="VisuGPX - https://www.visugpx.com">
  <metadata>
    <name>RoadTrip Moto Ecosse Juin 2021</name>
  </metadata>
  <trk>
    <name><![CDATA[J05 - Portree - Stornoway]]></name>
    <trkseg>
      <trkpt lat="57.41219" lon="-6.19529">
        <ele>7.9</ele>
        <time>2021-03-20T14:18:58Z</time>
      </trkpt>
      <trkpt lat="57.41206" lon="-6.19457">
        <ele>10.38</ele>
        <time>2021-03-20T14:19:02Z</time>
      </trkpt>
      <trkpt lat="57.412" lon="-6.1944">
        <ele>10.87</ele>
        <time>2021-03-20T14:19:06Z</time>
      </trkpt>
      <trkpt lat="57.41186" lon="-6.19432">
        <ele>10.25</ele>
        <time>2021-03-20T14:19:09Z</time>
      </trkpt>
      <trkpt lat="57.41177" lon="-6.19432">
        <ele>9.66</ele>
        <time>2021-03-20T14:19:13Z</time>
      </trkpt>
      <trkpt lat="57.41153" lon="-6.19441">
        <ele>8.26</ele>
        <time>2021-03-20T14:19:17Z</time>
      </trkpt>
      <trkpt lat="57.41151" lon="-6.19412">
        <ele>10.35</ele>
        <time>2021-03-20T14:19:21Z</time>
      </trkpt>
      <trkpt lat="57.41156" lon="-6.19398">
        <ele>11.38</ele>
        <time>2021-03-20T14:19:26Z</time>
      </trkpt>
      <trkpt lat="57.41199" lon="-6.19373">
        <ele>14.8</ele>
        <time>2021-03-20T14:19:30Z</time>
      </trkpt>
      <trkpt lat="57.41227" lon="-6.19361">
        <ele>16.18</ele>
        <time>2021-03-20T14:19:35Z</time>
      </trkpt>
      <trkpt lat="57.41213" lon="-6.19279">
        <ele>16.02</ele>
        <time>2021-03-20T14:19:40Z</time>
      </trkpt>
      <trkpt lat="57.41214" lon="-6.19262">
        <ele>15.42</ele>
        <time>2021-03-20T14:19:45Z</time>
      </trkpt>
      <trkpt lat="57.41216" lon="-6.19257">
        <ele>15.27</ele>
        <time>2021-03-20T14:19:51Z</time>
      </trkpt>
      <trkpt lat="57.41264" lon="-6.19232">
        <ele>17.89</ele>
        <time>2021-03-20T14:19:56Z</time>
      </trkpt>
      <trkpt lat="57.41296" lon="-6.1921">
        <ele>20.92</ele>
        <time>2021-03-20T14:20:01Z</time>
      </trkpt>
      <trkpt lat="57.41296" lon="-6.19201">
        <ele>21</ele>
        <time>2021-03-20T14:20:05Z</time>
      </trkpt>
      <trkpt lat="57.41293" lon="-6.19166">
        <ele>20.17</ele>
        <time>2021-03-20T14:20:10Z</time>
      </trkpt>
      <trkpt lat="57.41292" lon="-6.19131">
        <ele>19.95</ele>
        <time>2021-03-20T14:20:14Z</time>
      </trkpt>
      <trkpt lat="57.41312" lon="-6.18996">
        <ele>16.7</ele>
        <time>2021-03-20T14:20:18Z</time>
      </trkpt>
      <trkpt lat="57.41315" lon="-6.18987">
        <ele>16.71</ele>
        <time>2021-03-20T14:20:23Z</time>
      </trkpt>
      <trkpt lat="57.41322" lon="-6.18978">
        <ele>17.09</ele>
        <time>2021-03-20T14:20:27Z</time>
      </trkpt>
      <trkpt lat="57.4138" lon="-6.18948">
        <ele>21.06</ele>
        <time>2021-03-20T14:20:31Z</time>
      </trkpt>
      <trkpt lat="57.41394" lon="-6.18943">
        <ele>20.95</ele>
        <time>2021-03-20T14:20:35Z</time>
      </trkpt>
      <trkpt lat="57.41421" lon="-6.18946">
        <ele>22.03</ele>
        <time>2021-03-20T14:20:40Z</time>
      </trkpt>
      <trkpt lat="57.4145" lon="-6.18964">
        <ele>23.77</ele>
        <time>2021-03-20T14:20:44Z</time>
      </trkpt>
      <trkpt lat="57.41511" lon="-6.19026">
        <ele>28.95</ele>
        <time>2021-03-20T14:20:48Z</time>
      </trkpt>
      <trkpt lat="57.41587" lon="-6.19098">
        <ele>29.78</ele>
        <time>2021-03-20T14:20:52Z</time>
      </trkpt>
      <trkpt lat="57.41604" lon="-6.19112">
        <ele>28.89</ele>
        <time>2021-03-20T14:20:57Z</time>
      </trkpt>
      <trkpt lat="57.41646" lon="-6.19136">
        <ele>31.58</ele>
        <time>2021-03-20T14:21:01Z</time>
      </trkpt>
      <trkpt lat="57.41668" lon="-6.19143">
        <ele>32.53</ele>
        <time>2021-03-20T14:21:05Z</time>
      </trkpt>
      <trkpt lat="57.41702" lon="-6.19148">
        <ele>35.14</ele>
        <time>2021-03-20T14:21:09Z</time>
      </trkpt>
      <trkpt lat="57.41754" lon="-6.19147">
        <ele>36.48</ele>
        <time>2021-03-20T14:21:14Z</time>
      </trkpt>
      <trkpt lat="57.41771" lon="-6.1916">
        <ele>36.78</ele>
        <time>2021-03-20T14:21:18Z</time>
      </trkpt>
      <trkpt lat="57.41816" lon="-6.19218">
        <ele>36.97</ele>
        <time>2021-03-20T14:21:22Z</time>
      </trkpt>
      <trkpt lat="57.4184" lon="-6.19241">
        <ele>37.4</ele>
        <time>2021-03-20T14:21:26Z</time>
      </trkpt>
      <trkpt lat="57.41875" lon="-6.19265">
        <ele>38.76</ele>
        <time>2021-03-20T14:21:31Z</time>
      </trkpt>
      <trkpt lat="57.41933" lon="-6.19297">
        <ele>40.26</ele>
        <time>2021-03-20T14:21:35Z</time>
      </trkpt>
      <trkpt lat="57.4196" lon="-6.19301">
        <ele>41.37</ele>
        <time>2021-03-20T14:21:39Z</time>
      </trkpt>
      <trkpt lat="57.41977" lon="-6.19297">
        <ele>42.04</ele>
        <time>2021-03-20T14:21:43Z</time>
      </trkpt>
      <trkpt lat="57.41994" lon="-6.19289">
        <ele>42.94</ele>
        <time>2021-03-20T14:21:48Z</time>
      </trkpt>
      <trkpt lat="57.42002" lon="-6.19277">
        <ele>43.11</ele>
        <time>2021-03-20T14:21:52Z</time>
      </trkpt>
      <trkpt lat="57.42035" lon="-6.19192">
        <ele>45.41</ele>
        <time>2021-03-20T14:21:56Z</time>
      </trkpt>
      <trkpt lat="57.42057" lon="-6.1915">
        <ele>45.52</ele>
        <time>2021-03-20T14:22:00Z</time>
      </trkpt>
      <trkpt lat="57.42173" lon="-6.18974">
        <ele>53.5</ele>
        <time>2021-03-20T14:22:05Z</time>
      </trkpt>
      <trkpt lat="57.42228" lon="-6.18932">
        <ele>56.07</ele>
        <time>2021-03-20T14:22:09Z</time>
      </trkpt>
      <trkpt lat="57.42242" lon="-6.18929">
        <ele>57.27</ele>
        <time>2021-03-20T14:22:13Z</time>
      </trkpt>
      <trkpt lat="57.42325" lon="-6.1893">
        <ele>61.17</ele>
        <time>2021-03-20T14:22:17Z</time>
      </trkpt>
      <trkpt lat="57.42351" lon="-6.18913">
        <ele>62.75</ele>
        <time>2021-03-20T14:22:22Z</time>
      </trkpt>
      <trkpt lat="57.42366" lon="-6.18885">
        <ele>63.85</ele>
        <time>2021-03-20T14:22:26Z</time>
      </trkpt>
      <trkpt lat="57.42373" lon="-6.18852">
        <ele>65</ele>
        <time>2021-03-20T14:22:30Z</time>
      </trkpt>
      <trkpt lat="57.42387" lon="-6.18803">
        <ele>66.7</ele>
        <time>2021-03-20T14:22:34Z</time>
      </trkpt>
      <trkpt lat="57.42405" lon="-6.18785">
        <ele>68.66</ele>
        <time>2021-03-20T14:22:39Z</time>
      </trkpt>
      <trkpt lat="57.42432" lon="-6.18766">
        <ele>70.98</ele>
        <time>2021-03-20T14:22:43Z</time>
      </trkpt>
      <trkpt lat="57.42568" lon="-6.18723">
        <ele>73.42</ele>
        <time>2021-03-20T14:22:47Z</time>
      </trkpt>
      <trkpt lat="57.42662" lon="-6.18689">
        <ele>76.81</ele>
        <time>2021-03-20T14:22:51Z</time>
      </trkpt>
      <trkpt lat="57.42711" lon="-6.18673">
        <ele>79.43</ele>
        <time>2021-03-20T14:22:56Z</time>
      </trkpt>
      <trkpt lat="57.42794" lon="-6.18679">
        <ele>82.18</ele>
        <time>2021-03-20T14:23:00Z</time>
      </trkpt>
      <trkpt lat="57.42813" lon="-6.18677">
        <ele>83.66</ele>
        <time>2021-03-20T14:23:04Z</time>
      </trkpt>
      <trkpt lat="57.42859" lon="-6.18657">
        <ele>86.82</ele>
        <time>2021-03-20T14:23:08Z</time>
      </trkpt>
      <trkpt lat="57.42906" lon="-6.18621">
        <ele>87.81</ele>
        <time>2021-03-20T14:23:13Z</time>
      </trkpt>
      <trkpt lat="57.42918" lon="-6.18601">
        <ele>88.12</ele>
        <time>2021-03-20T14:23:17Z</time>
      </trkpt>
      <trkpt lat="57.4293" lon="-6.1857">
        <ele>89.19</ele>
        <time>2021-03-20T14:23:21Z</time>
      </trkpt>
      <trkpt lat="57.42943" lon="-6.18518">
        <ele>89.93</ele>
        <time>2021-03-20T14:23:25Z</time>
      </trkpt>
      <trkpt lat="57.42949" lon="-6.18424">
        <ele>90.36</ele>
        <time>2021-03-20T14:23:30Z</time>
      </trkpt>
      <trkpt lat="57.42955" lon="-6.18381">
        <ele>91.13</ele>
        <time>2021-03-20T14:23:34Z</time>
      </trkpt>
      <trkpt lat="57.42967" lon="-6.18331">
        <ele>92.61</ele>
        <time>2021-03-20T14:23:38Z</time>
      </trkpt>
      <trkpt lat="57.42977" lon="-6.18301">
        <ele>93.35</ele>
        <time>2021-03-20T14:23:42Z</time>
      </trkpt>
      <trkpt lat="57.42986" lon="-6.18287">
        <ele>94.18</ele>
        <time>2021-03-20T14:23:47Z</time>
      </trkpt>
      <trkpt lat="57.43006" lon="-6.18271">
        <ele>95.71</ele>
        <time>2021-03-20T14:23:51Z</time>
      </trkpt>
      <trkpt lat="57.43034" lon="-6.18253">
        <ele>97.75</ele>
        <time>2021-03-20T14:23:55Z</time>
      </trkpt>
      <trkpt lat="57.43136" lon="-6.18207">
        <ele>102.07</ele>
        <time>2021-03-20T14:23:59Z</time>
      </trkpt>
      <trkpt lat="57.43172" lon="-6.18197">
        <ele>102.85</ele>
        <time>2021-03-20T14:24:04Z</time>
      </trkpt>
      <trkpt lat="57.43281" lon="-6.18183">
        <ele>104</ele>
        <time>2021-03-20T14:24:08Z</time>
      </trkpt>
      <trkpt lat="57.43741" lon="-6.18262">
        <ele>112.7</ele>
        <time>2021-03-20T14:24:12Z</time>
      </trkpt>
      <trkpt lat="57.43776" lon="-6.18261">
        <ele>112.82</ele>
        <time>2021-03-20T14:24:16Z</time>
      </trkpt>
      <trkpt lat="57.43796" lon="-6.18249">
        <ele>114.12</ele>
        <time>2021-03-20T14:24:21Z</time>
      </trkpt>
      <trkpt lat="57.43829" lon="-6.18219">
        <ele>114.53</ele>
        <time>2021-03-20T14:24:25Z</time>
      </trkpt>
      <trkpt lat="57.43879" lon="-6.18192">
        <ele>117.83</ele>
        <time>2021-03-20T14:24:29Z</time>
      </trkpt>
      <trkpt lat="57.43892" lon="-6.18186">
        <ele>118.9</ele>
        <time>2021-03-20T14:24:33Z</time>
      </trkpt>
      <trkpt lat="57.43906" lon="-6.18185">
        <ele>120.58</ele>
        <time>2021-03-20T14:24:38Z</time>
      </trkpt>
      <trkpt lat="57.43947" lon="-6.18197">
        <ele>123.22</ele>
        <time>2021-03-20T14:24:42Z</time>
      </trkpt>
      <trkpt lat="57.43967" lon="-6.18206">
        <ele>125.07</ele>
        <time>2021-03-20T14:24:46Z</time>
      </trkpt>
      <trkpt lat="57.44003" lon="-6.18232">
        <ele>127.15</ele>
        <time>2021-03-20T14:24:50Z</time>
      </trkpt>
      <trkpt lat="57.44018" lon="-6.18241">
        <ele>127.34</ele>
        <time>2021-03-20T14:24:55Z</time>
      </trkpt>
      <trkpt lat="57.44048" lon="-6.18245">
        <ele>127.37</ele>
        <time>2021-03-20T14:24:59Z</time>
      </trkpt>
      <trkpt lat="57.44105" lon="-6.18245">
        <ele>128.51</ele>
        <time>2021-03-20T14:25:03Z</time>
      </trkpt>
      <trkpt lat="57.44167" lon="-6.18228">
        <ele>132.33</ele>
        <time>2021-03-20T14:25:07Z</time>
      </trkpt>
      <trkpt lat="57.44342" lon="-6.18174">
        <ele>137.51</ele>
        <time>2021-03-20T14:25:12Z</time>
      </trkpt>
      <trkpt lat="57.44383" lon="-6.18151">
        <ele>138.57</ele>
        <time>2021-03-20T14:25:16Z</time>
      </trkpt>
      <trkpt lat="57.44469" lon="-6.18111">
        <ele>139</ele>
        <time>2021-03-20T14:25:20Z</time>
      </trkpt>
      <trkpt lat="57.44512" lon="-6.18071">
        <ele>139.68</ele>
        <time>2021-03-20T14:25:24Z</time>
      </trkpt>
      <trkpt lat="57.44598" lon="-6.17985">
        <ele>139.78</ele>
        <time>2021-03-20T14:25:29Z</time>
      </trkpt>
      <trkpt lat="57.44609" lon="-6.17978">
        <ele>140.65</ele>
        <time>2021-03-20T14:25:33Z</time>
      </trkpt>
      <trkpt lat="57.44624" lon="-6.17975">
        <ele>141.83</ele>
        <time>2021-03-20T14:25:37Z</time>
      </trkpt>
      <trkpt lat="57.44703" lon="-6.17985">
        <ele>146.13</ele>
        <time>2021-03-20T14:25:41Z</time>
      </trkpt>
      <trkpt lat="57.44744" lon="-6.17988">
        <ele>148.98</ele>
        <time>2021-03-20T14:25:46Z</time>
      </trkpt>
      <trkpt lat="57.4479" lon="-6.17983">
        <ele>152.67</ele>
        <time>2021-03-20T14:25:50Z</time>
      </trkpt>
      <trkpt lat="57.44868" lon="-6.17962">
        <ele>156.63</ele>
        <time>2021-03-20T14:25:54Z</time>
      </trkpt>
      <trkpt lat="57.44899" lon="-6.1796">
        <ele>157.13</ele>
        <time>2021-03-20T14:25:58Z</time>
      </trkpt>
      <trkpt lat="57.4494" lon="-6.17967">
        <ele>158.63</ele>
        <time>2021-03-20T14:26:03Z</time>
      </trkpt>
      <trkpt lat="57.44988" lon="-6.17983">
        <ele>158.01</ele>
        <time>2021-03-20T14:26:07Z</time>
      </trkpt>
      <trkpt lat="57.45082" lon="-6.1805">
        <ele>157.94</ele>
        <time>2021-03-20T14:26:11Z</time>
      </trkpt>
      <trkpt lat="57.45313" lon="-6.18146">
        <ele>165.25</ele>
        <time>2021-03-20T14:26:16Z</time>
      </trkpt>
      <trkpt lat="57.45313" lon="-6.18146">
        <ele>165.25</ele>
        <time>2021-03-20T14:26:16Z</time>
      </trkpt>
      <trkpt lat="57.45338" lon="-6.18156">
        <ele>167.67</ele>
        <time>2021-03-20T14:26:19Z</time>
      </trkpt>
      <trkpt lat="57.45426" lon="-6.18177">
        <ele>169.48</ele>
        <time>2021-03-20T14:26:23Z</time>
      </trkpt>
      <trkpt lat="57.456" lon="-6.18225">
        <ele>164.62</ele>
        <time>2021-03-20T14:26:27Z</time>
      </trkpt>
      <trkpt lat="57.4575" lon="-6.18277">
        <ele>160.94</ele>
        <time>2021-03-20T14:26:30Z</time>
      </trkpt>
      <trkpt lat="57.45771" lon="-6.18289">
        <ele>160.04</ele>
        <time>2021-03-20T14:26:34Z</time>
      </trkpt>
      <trkpt lat="57.45858" lon="-6.18387">
        <ele>153.54</ele>
        <time>2021-03-20T14:26:38Z</time>
      </trkpt>
      <trkpt lat="57.45878" lon="-6.184">
        <ele>152.64</ele>
        <time>2021-03-20T14:26:41Z</time>
      </trkpt>
      <trkpt lat="57.46039" lon="-6.18436">
        <ele>148.59</ele>
        <time>2021-03-20T14:26:45Z</time>
      </trkpt>
      <trkpt lat="57.46066" lon="-6.18436">
        <ele>147.28</ele>
        <time>2021-03-20T14:26:49Z</time>
      </trkpt>
      <trkpt lat="57.46084" lon="-6.18443">
        <ele>147.8</ele>
        <time>2021-03-20T14:26:52Z</time>
      </trkpt>
      <trkpt lat="57.46136" lon="-6.18448">
        <ele>146.34</ele>
        <time>2021-03-20T14:26:56Z</time>
      </trkpt>
      <trkpt lat="57.46148" lon="-6.18447">
        <ele>144.97</ele>
        <time>2021-03-20T14:27:00Z</time>
      </trkpt>
      <trkpt lat="57.4617" lon="-6.18452">
        <ele>144.79</ele>
        <time>2021-03-20T14:27:03Z</time>
      </trkpt>
      <trkpt lat="57.4621" lon="-6.18468">
        <ele>148.17</ele>
        <time>2021-03-20T14:27:07Z</time>
      </trkpt>
      <trkpt lat="57.46238" lon="-6.18471">
        <ele>148.8</ele>
        <time>2021-03-20T14:27:11Z</time>
      </trkpt>
      <trkpt lat="57.463" lon="-6.18469">
        <ele>147.59</ele>
        <time>2021-03-20T14:27:14Z</time>
      </trkpt>
      <trkpt lat="57.46346" lon="-6.18472">
        <ele>147.47</ele>
        <time>2021-03-20T14:27:18Z</time>
      </trkpt>
      <trkpt lat="57.46419" lon="-6.18458">
        <ele>145.4</ele>
        <time>2021-03-20T14:27:22Z</time>
      </trkpt>
      <trkpt lat="57.46445" lon="-6.18462">
        <ele>144.88</ele>
        <time>2021-03-20T14:27:25Z</time>
      </trkpt>
      <trkpt lat="57.4649" lon="-6.18473">
        <ele>144.44</ele>
        <time>2021-03-20T14:27:29Z</time>
      </trkpt>
      <trkpt lat="57.4658" lon="-6.1851">
        <ele>146.14</ele>
        <time>2021-03-20T14:27:33Z</time>
      </trkpt>
      <trkpt lat="57.46605" lon="-6.18509">
        <ele>146.01</ele>
        <time>2021-03-20T14:27:36Z</time>
      </trkpt>
      <trkpt lat="57.46644" lon="-6.18501">
        <ele>145.81</ele>
        <time>2021-03-20T14:27:40Z</time>
      </trkpt>
      <trkpt lat="57.46701" lon="-6.18471">
        <ele>148.02</ele>
        <time>2021-03-20T14:27:44Z</time>
      </trkpt>
      <trkpt lat="57.46759" lon="-6.18458">
        <ele>152.63</ele>
        <time>2021-03-20T14:27:47Z</time>
      </trkpt>
      <trkpt lat="57.46793" lon="-6.18434">
        <ele>150.98</ele>
        <time>2021-03-20T14:27:51Z</time>
      </trkpt>
      <trkpt lat="57.46828" lon="-6.18419">
        <ele>148.56</ele>
        <time>2021-03-20T14:27:55Z</time>
      </trkpt>
      <trkpt lat="57.4689" lon="-6.18387">
        <ele>150.73</ele>
        <time>2021-03-20T14:27:58Z</time>
      </trkpt>
      <trkpt lat="57.46923" lon="-6.18373">
        <ele>151.05</ele>
        <time>2021-03-20T14:28:02Z</time>
      </trkpt>
      <trkpt lat="57.46958" lon="-6.18362">
        <ele>153.66</ele>
        <time>2021-03-20T14:28:06Z</time>
      </trkpt>
      <trkpt lat="57.47051" lon="-6.18321">
        <ele>151.42</ele>
        <time>2021-03-20T14:28:09Z</time>
      </trkpt>
      <trkpt lat="57.47192" lon="-6.18255">
        <ele>146.63</ele>
        <time>2021-03-20T14:28:13Z</time>
      </trkpt>
      <trkpt lat="57.47261" lon="-6.18219">
        <ele>144.27</ele>
        <time>2021-03-20T14:28:17Z</time>
      </trkpt>
      <trkpt lat="57.47346" lon="-6.18191">
        <ele>142.77</ele>
        <time>2021-03-20T14:28:20Z</time>
      </trkpt>
      <trkpt lat="57.47369" lon="-6.18181">
        <ele>142.4</ele>
        <time>2021-03-20T14:28:24Z</time>
      </trkpt>
      <trkpt lat="57.4742" lon="-6.18144">
        <ele>142.29</ele>
        <time>2021-03-20T14:28:28Z</time>
      </trkpt>
      <trkpt lat="57.47544" lon="-6.18079">
        <ele>146.44</ele>
        <time>2021-03-20T14:28:31Z</time>
      </trkpt>
      <trkpt lat="57.4759" lon="-6.18046">
        <ele>149.48</ele>
        <time>2021-03-20T14:28:35Z</time>
      </trkpt>
      <trkpt lat="57.47626" lon="-6.18014">
        <ele>152.16</ele>
        <time>2021-03-20T14:28:39Z</time>
      </trkpt>
      <trkpt lat="57.47668" lon="-6.17982">
        <ele>154.78</ele>
        <time>2021-03-20T14:28:42Z</time>
      </trkpt>
      <trkpt lat="57.47696" lon="-6.17975">
        <ele>155.22</ele>
        <time>2021-03-20T14:28:46Z</time>
      </trkpt>
      <trkpt lat="57.47722" lon="-6.17975">
        <ele>156.18</ele>
        <time>2021-03-20T14:28:50Z</time>
      </trkpt>
      <trkpt lat="57.47795" lon="-6.18003">
        <ele>155.57</ele>
        <time>2021-03-20T14:28:53Z</time>
      </trkpt>
      <trkpt lat="57.47882" lon="-6.18025">
        <ele>153.09</ele>
        <time>2021-03-20T14:28:57Z</time>
      </trkpt>
      <trkpt lat="57.47907" lon="-6.1803">
        <ele>151.78</ele>
        <time>2021-03-20T14:29:01Z</time>
      </trkpt>
      <trkpt lat="57.47928" lon="-6.18028">
        <ele>150.61</ele>
        <time>2021-03-20T14:29:04Z</time>
      </trkpt>
      <trkpt lat="57.47942" lon="-6.18023">
        <ele>149.92</ele>
        <time>2021-03-20T14:29:08Z</time>
      </trkpt>
      <trkpt lat="57.47972" lon="-6.18009">
        <ele>149.63</ele>
        <time>2021-03-20T14:29:12Z</time>
      </trkpt>
      <trkpt lat="57.48001" lon="-6.17981">
        <ele>150.35</ele>
        <time>2021-03-20T14:29:15Z</time>
      </trkpt>
      <trkpt lat="57.48036" lon="-6.1793">
        <ele>151.4</ele>
        <time>2021-03-20T14:29:19Z</time>
      </trkpt>
      <trkpt lat="57.48115" lon="-6.17835">
        <ele>151.27</ele>
        <time>2021-03-20T14:29:23Z</time>
      </trkpt>
      <trkpt lat="57.48198" lon="-6.17743">
        <ele>151.76</ele>
        <time>2021-03-20T14:29:26Z</time>
      </trkpt>
      <trkpt lat="57.48313" lon="-6.17637">
        <ele>151.05</ele>
        <time>2021-03-20T14:29:30Z</time>
      </trkpt>
      <trkpt lat="57.48394" lon="-6.17574">
        <ele>149.34</ele>
        <time>2021-03-20T14:29:34Z</time>
      </trkpt>
      <trkpt lat="57.4851" lon="-6.17497">
        <ele>152.49</ele>
        <time>2021-03-20T14:29:37Z</time>
      </trkpt>
      <trkpt lat="57.48733" lon="-6.17382">
        <ele>155.51</ele>
        <time>2021-03-20T14:29:41Z</time>
      </trkpt>
      <trkpt lat="57.48768" lon="-6.17359">
        <ele>156.06</ele>
        <time>2021-03-20T14:29:45Z</time>
      </trkpt>
      <trkpt lat="57.48876" lon="-6.17275">
        <ele>153.37</ele>
        <time>2021-03-20T14:29:48Z</time>
      </trkpt>
      <trkpt lat="57.48918" lon="-6.17248">
        <ele>152.92</ele>
        <time>2021-03-20T14:29:52Z</time>
      </trkpt>
      <trkpt lat="57.4896" lon="-6.17228">
        <ele>152.99</ele>
        <time>2021-03-20T14:29:56Z</time>
      </trkpt>
      <trkpt lat="57.49027" lon="-6.17201">
        <ele>151.75</ele>
        <time>2021-03-20T14:29:59Z</time>
      </trkpt>
      <trkpt lat="57.49108" lon="-6.17171">
        <ele>145.43</ele>
        <time>2021-03-20T14:30:03Z</time>
      </trkpt>
      <trkpt lat="57.49168" lon="-6.17138">
        <ele>143.07</ele>
        <time>2021-03-20T14:30:07Z</time>
      </trkpt>
      <trkpt lat="57.49206" lon="-6.17105">
        <ele>144.82</ele>
        <time>2021-03-20T14:30:11Z</time>
      </trkpt>
      <trkpt lat="57.49268" lon="-6.17039">
        <ele>148.67</ele>
        <time>2021-03-20T14:30:14Z</time>
      </trkpt>
      <trkpt lat="57.49325" lon="-6.16981">
        <ele>149.01</ele>
        <time>2021-03-20T14:30:18Z</time>
      </trkpt>
      <trkpt lat="57.49364" lon="-6.16933">
        <ele>149.97</ele>
        <time>2021-03-20T14:30:22Z</time>
      </trkpt>
      <trkpt lat="57.49382" lon="-6.16901">
        <ele>151.45</ele>
        <time>2021-03-20T14:30:25Z</time>
      </trkpt>
      <trkpt lat="57.49395" lon="-6.16863">
        <ele>153.07</ele>
        <time>2021-03-20T14:30:29Z</time>
      </trkpt>
      <trkpt lat="57.49404" lon="-6.16813">
        <ele>154.36</ele>
        <time>2021-03-20T14:30:33Z</time>
      </trkpt>
      <trkpt lat="57.49408" lon="-6.16763">
        <ele>153.95</ele>
        <time>2021-03-20T14:30:36Z</time>
      </trkpt>
      <trkpt lat="57.49407" lon="-6.16703">
        <ele>152.13</ele>
        <time>2021-03-20T14:30:40Z</time>
      </trkpt>
      <trkpt lat="57.49408" lon="-6.16637">
        <ele>151.13</ele>
        <time>2021-03-20T14:30:44Z</time>
      </trkpt>
      <trkpt lat="57.49418" lon="-6.16564">
        <ele>152.27</ele>
        <time>2021-03-20T14:30:47Z</time>
      </trkpt>
      <trkpt lat="57.49429" lon="-6.16515">
        <ele>154.11</ele>
        <time>2021-03-20T14:30:51Z</time>
      </trkpt>
      <trkpt lat="57.4953" lon="-6.16194">
        <ele>159.38</ele>
        <time>2021-03-20T14:30:55Z</time>
      </trkpt>
      <trkpt lat="57.49559" lon="-6.16127">
        <ele>159.42</ele>
        <time>2021-03-20T14:30:58Z</time>
      </trkpt>
      <trkpt lat="57.49631" lon="-6.16033">
        <ele>166.2</ele>
        <time>2021-03-20T14:31:02Z</time>
      </trkpt>
      <trkpt lat="57.49819" lon="-6.15831">
        <ele>169.76</ele>
        <time>2021-03-20T14:31:06Z</time>
      </trkpt>
      <trkpt lat="57.49856" lon="-6.15797">
        <ele>169.73</ele>
        <time>2021-03-20T14:31:09Z</time>
      </trkpt>
      <trkpt lat="57.49939" lon="-6.15731">
        <ele>171.81</ele>
        <time>2021-03-20T14:31:13Z</time>
      </trkpt>
      <trkpt lat="57.5002" lon="-6.15658">
        <ele>175.5</ele>
        <time>2021-03-20T14:31:17Z</time>
      </trkpt>
      <trkpt lat="57.50106" lon="-6.15565">
        <ele>177.14</ele>
        <time>2021-03-20T14:31:20Z</time>
      </trkpt>
      <trkpt lat="57.50279" lon="-6.1536">
        <ele>180.11</ele>
        <time>2021-03-20T14:31:24Z</time>
      </trkpt>
      <trkpt lat="57.50322" lon="-6.15325">
        <ele>181.67</ele>
        <time>2021-03-20T14:31:28Z</time>
      </trkpt>
      <trkpt lat="57.50398" lon="-6.15278">
        <ele>179.02</ele>
        <time>2021-03-20T14:31:31Z</time>
      </trkpt>
      <trkpt lat="57.50711" lon="-6.15145">
        <ele>183.59</ele>
        <time>2021-03-20T14:31:35Z</time>
      </trkpt>
      <trkpt lat="57.50788" lon="-6.15125">
        <ele>184.85</ele>
        <time>2021-03-20T14:31:39Z</time>
      </trkpt>
      <trkpt lat="57.50868" lon="-6.15111">
        <ele>186.24</ele>
        <time>2021-03-20T14:31:42Z</time>
      </trkpt>
      <trkpt lat="57.50923" lon="-6.15111">
        <ele>186</ele>
        <time>2021-03-20T14:31:46Z</time>
      </trkpt>
      <trkpt lat="57.51075" lon="-6.15118">
        <ele>185.45</ele>
        <time>2021-03-20T14:31:50Z</time>
      </trkpt>
      <trkpt lat="57.5123" lon="-6.15132">
        <ele>191.17</ele>
        <time>2021-03-20T14:31:53Z</time>
      </trkpt>
      <trkpt lat="57.51261" lon="-6.15139">
        <ele>191</ele>
        <time>2021-03-20T14:31:57Z</time>
      </trkpt>
      <trkpt lat="57.5129" lon="-6.15159">
        <ele>191</ele>
        <time>2021-03-20T14:32:01Z</time>
      </trkpt>
      <trkpt lat="57.51348" lon="-6.1522">
        <ele>190.4</ele>
        <time>2021-03-20T14:32:04Z</time>
      </trkpt>
      <trkpt lat="57.51386" lon="-6.15248">
        <ele>190.09</ele>
        <time>2021-03-20T14:32:08Z</time>
      </trkpt>
      <trkpt lat="57.51404" lon="-6.15256">
        <ele>190.3</ele>
        <time>2021-03-20T14:32:12Z</time>
      </trkpt>
      <trkpt lat="57.51435" lon="-6.15258">
        <ele>189.78</ele>
        <time>2021-03-20T14:32:15Z</time>
      </trkpt>
      <trkpt lat="57.5148" lon="-6.15244">
        <ele>189.84</ele>
        <time>2021-03-20T14:32:19Z</time>
      </trkpt>
      <trkpt lat="57.51525" lon="-6.15219">
        <ele>189.77</ele>
        <time>2021-03-20T14:32:23Z</time>
      </trkpt>
      <trkpt lat="57.51557" lon="-6.15206">
        <ele>189.76</ele>
        <time>2021-03-20T14:32:26Z</time>
      </trkpt>
      <trkpt lat="57.51599" lon="-6.152">
        <ele>187.05</ele>
        <time>2021-03-20T14:32:30Z</time>
      </trkpt>
      <trkpt lat="57.51635" lon="-6.15208">
        <ele>184.72</ele>
        <time>2021-03-20T14:32:34Z</time>
      </trkpt>
      <trkpt lat="57.5168" lon="-6.15239">
        <ele>183.62</ele>
        <time>2021-03-20T14:32:37Z</time>
      </trkpt>
      <trkpt lat="57.51742" lon="-6.15288">
        <ele>184.34</ele>
        <time>2021-03-20T14:32:41Z</time>
      </trkpt>
      <trkpt lat="57.51784" lon="-6.15311">
        <ele>183.94</ele>
        <time>2021-03-20T14:32:45Z</time>
      </trkpt>
      <trkpt lat="57.51824" lon="-6.15322">
        <ele>182.91</ele>
        <time>2021-03-20T14:32:48Z</time>
      </trkpt>
      <trkpt lat="57.51906" lon="-6.15335">
        <ele>181.85</ele>
        <time>2021-03-20T14:32:52Z</time>
      </trkpt>
      <trkpt lat="57.52031" lon="-6.15349">
        <ele>176.32</ele>
        <time>2021-03-20T14:32:56Z</time>
      </trkpt>
      <trkpt lat="57.52117" lon="-6.15365">
        <ele>168.69</ele>
        <time>2021-03-20T14:32:59Z</time>
      </trkpt>
      <trkpt lat="57.52117" lon="-6.15365">
        <ele>168.69</ele>
        <time>2021-03-20T14:32:59Z</time>
      </trkpt>
      <trkpt lat="57.52409" lon="-6.15424">
        <ele>150.88</ele>
        <time>2021-03-20T14:33:03Z</time>
      </trkpt>
      <trkpt lat="57.52501" lon="-6.1545">
        <ele>140.49</ele>
        <time>2021-03-20T14:33:07Z</time>
      </trkpt>
      <trkpt lat="57.52538" lon="-6.15474">
        <ele>137.96</ele>
        <time>2021-03-20T14:33:11Z</time>
      </trkpt>
      <trkpt lat="57.52627" lon="-6.15572">
        <ele>128.14</ele>
        <time>2021-03-20T14:33:14Z</time>
      </trkpt>
      <trkpt lat="57.52717" lon="-6.15644">
        <ele>120.39</ele>
        <time>2021-03-20T14:33:18Z</time>
      </trkpt>
      <trkpt lat="57.52753" lon="-6.15664">
        <ele>122.82</ele>
        <time>2021-03-20T14:33:22Z</time>
      </trkpt>
      <trkpt lat="57.5278" lon="-6.15667">
        <ele>123.35</ele>
        <time>2021-03-20T14:33:26Z</time>
      </trkpt>
      <trkpt lat="57.52804" lon="-6.15656">
        <ele>125.55</ele>
        <time>2021-03-20T14:33:29Z</time>
      </trkpt>
      <trkpt lat="57.5283" lon="-6.15629">
        <ele>127.27</ele>
        <time>2021-03-20T14:33:33Z</time>
      </trkpt>
      <trkpt lat="57.52929" lon="-6.15481">
        <ele>129.67</ele>
        <time>2021-03-20T14:33:37Z</time>
      </trkpt>
      <trkpt lat="57.52972" lon="-6.15404">
        <ele>132.36</ele>
        <time>2021-03-20T14:33:41Z</time>
      </trkpt>
      <trkpt lat="57.53016" lon="-6.15307">
        <ele>128.67</ele>
        <time>2021-03-20T14:33:44Z</time>
      </trkpt>
      <trkpt lat="57.53124" lon="-6.15019">
        <ele>113.57</ele>
        <time>2021-03-20T14:33:48Z</time>
      </trkpt>
      <trkpt lat="57.53149" lon="-6.14965">
        <ele>110.61</ele>
        <time>2021-03-20T14:33:52Z</time>
      </trkpt>
      <trkpt lat="57.53182" lon="-6.14915">
        <ele>108.88</ele>
        <time>2021-03-20T14:33:56Z</time>
      </trkpt>
      <trkpt lat="57.53242" lon="-6.14859">
        <ele>107.71</ele>
        <time>2021-03-20T14:33:59Z</time>
      </trkpt>
      <trkpt lat="57.53311" lon="-6.14813">
        <ele>107.24</ele>
        <time>2021-03-20T14:34:03Z</time>
      </trkpt>
      <trkpt lat="57.53352" lon="-6.14795">
        <ele>106.78</ele>
        <time>2021-03-20T14:34:07Z</time>
      </trkpt>
      <trkpt lat="57.53377" lon="-6.14793">
        <ele>107.45</ele>
        <time>2021-03-20T14:34:10Z</time>
      </trkpt>
      <trkpt lat="57.53402" lon="-6.14795">
        <ele>107.88</ele>
        <time>2021-03-20T14:34:14Z</time>
      </trkpt>
      <trkpt lat="57.53435" lon="-6.14807">
        <ele>108.5</ele>
        <time>2021-03-20T14:34:18Z</time>
      </trkpt>
      <trkpt lat="57.53538" lon="-6.14873">
        <ele>107.95</ele>
        <time>2021-03-20T14:34:22Z</time>
      </trkpt>
      <trkpt lat="57.53566" lon="-6.14883">
        <ele>106.55</ele>
        <time>2021-03-20T14:34:25Z</time>
      </trkpt>
      <trkpt lat="57.53602" lon="-6.1488">
        <ele>108.32</ele>
        <time>2021-03-20T14:34:29Z</time>
      </trkpt>
      <trkpt lat="57.53637" lon="-6.14857">
        <ele>111.46</ele>
        <time>2021-03-20T14:34:33Z</time>
      </trkpt>
      <trkpt lat="57.53674" lon="-6.14819">
        <ele>112.69</ele>
        <time>2021-03-20T14:34:37Z</time>
      </trkpt>
      <trkpt lat="57.53744" lon="-6.14733">
        <ele>115.98</ele>
        <time>2021-03-20T14:34:40Z</time>
      </trkpt>
      <trkpt lat="57.53842" lon="-6.14629">
        <ele>123.21</ele>
        <time>2021-03-20T14:34:44Z</time>
      </trkpt>
      <trkpt lat="57.53914" lon="-6.14584">
        <ele>127.71</ele>
        <time>2021-03-20T14:34:48Z</time>
      </trkpt>
      <trkpt lat="57.53976" lon="-6.14556">
        <ele>131.4</ele>
        <time>2021-03-20T14:34:52Z</time>
      </trkpt>
      <trkpt lat="57.54026" lon="-6.14542">
        <ele>133.99</ele>
        <time>2021-03-20T14:34:55Z</time>
      </trkpt>
      <trkpt lat="57.54077" lon="-6.14537">
        <ele>137.69</ele>
        <time>2021-03-20T14:34:59Z</time>
      </trkpt>
      <trkpt lat="57.54111" lon="-6.14539">
        <ele>140.37</ele>
        <time>2021-03-20T14:35:03Z</time>
      </trkpt>
      <trkpt lat="57.54143" lon="-6.14545">
        <ele>143.91</ele>
        <time>2021-03-20T14:35:06Z</time>
      </trkpt>
      <trkpt lat="57.54199" lon="-6.14565">
        <ele>148.91</ele>
        <time>2021-03-20T14:35:10Z</time>
      </trkpt>
      <trkpt lat="57.54261" lon="-6.146">
        <ele>152.6</ele>
        <time>2021-03-20T14:35:14Z</time>
      </trkpt>
      <trkpt lat="57.54355" lon="-6.1467">
        <ele>156.19</ele>
        <time>2021-03-20T14:35:18Z</time>
      </trkpt>
      <trkpt lat="57.54457" lon="-6.14753">
        <ele>159.32</ele>
        <time>2021-03-20T14:35:21Z</time>
      </trkpt>
      <trkpt lat="57.54513" lon="-6.14788">
        <ele>157.92</ele>
        <time>2021-03-20T14:35:25Z</time>
      </trkpt>
      <trkpt lat="57.5457" lon="-6.14814">
        <ele>157.43</ele>
        <time>2021-03-20T14:35:29Z</time>
      </trkpt>
      <trkpt lat="57.54656" lon="-6.14831">
        <ele>160.47</ele>
        <time>2021-03-20T14:35:33Z</time>
      </trkpt>
      <trkpt lat="57.54719" lon="-6.14829">
        <ele>162.73</ele>
        <time>2021-03-20T14:35:36Z</time>
      </trkpt>
      <trkpt lat="57.54781" lon="-6.1482">
        <ele>164</ele>
        <time>2021-03-20T14:35:40Z</time>
      </trkpt>
      <trkpt lat="57.54865" lon="-6.1483">
        <ele>160.33</ele>
        <time>2021-03-20T14:35:44Z</time>
      </trkpt>
      <trkpt lat="57.54921" lon="-6.14852">
        <ele>157.72</ele>
        <time>2021-03-20T14:35:48Z</time>
      </trkpt>
      <trkpt lat="57.55016" lon="-6.1491">
        <ele>158.38</ele>
        <time>2021-03-20T14:35:51Z</time>
      </trkpt>
      <trkpt lat="57.55225" lon="-6.15068">
        <ele>149.47</ele>
        <time>2021-03-20T14:35:55Z</time>
      </trkpt>
      <trkpt lat="57.55571" lon="-6.15322">
        <ele>130.18</ele>
        <time>2021-03-20T14:35:59Z</time>
      </trkpt>
      <trkpt lat="57.55656" lon="-6.15367">
        <ele>123.76</ele>
        <time>2021-03-20T14:36:03Z</time>
      </trkpt>
      <trkpt lat="57.559" lon="-6.15457">
        <ele>100.81</ele>
        <time>2021-03-20T14:36:06Z</time>
      </trkpt>
      <trkpt lat="57.55938" lon="-6.15463">
        <ele>98.45</ele>
        <time>2021-03-20T14:36:10Z</time>
      </trkpt>
      <trkpt lat="57.56108" lon="-6.15455">
        <ele>86.42</ele>
        <time>2021-03-20T14:36:14Z</time>
      </trkpt>
      <trkpt lat="57.56148" lon="-6.15466">
        <ele>85.79</ele>
        <time>2021-03-20T14:36:17Z</time>
      </trkpt>
      <trkpt lat="57.56222" lon="-6.15509">
        <ele>84.31</ele>
        <time>2021-03-20T14:36:21Z</time>
      </trkpt>
      <trkpt lat="57.56422" lon="-6.15648">
        <ele>63.38</ele>
        <time>2021-03-20T14:36:25Z</time>
      </trkpt>
      <trkpt lat="57.56465" lon="-6.15657">
        <ele>59.51</ele>
        <time>2021-03-20T14:36:29Z</time>
      </trkpt>
      <trkpt lat="57.56492" lon="-6.15654">
        <ele>56.84</ele>
        <time>2021-03-20T14:36:32Z</time>
      </trkpt>
      <trkpt lat="57.56506" lon="-6.15647">
        <ele>56.22</ele>
        <time>2021-03-20T14:36:36Z</time>
      </trkpt>
      <trkpt lat="57.56538" lon="-6.15618">
        <ele>59.18</ele>
        <time>2021-03-20T14:36:40Z</time>
      </trkpt>
      <trkpt lat="57.56559" lon="-6.15588">
        <ele>63</ele>
        <time>2021-03-20T14:36:44Z</time>
      </trkpt>
      <trkpt lat="57.56581" lon="-6.15536">
        <ele>66.53</ele>
        <time>2021-03-20T14:36:47Z</time>
      </trkpt>
      <trkpt lat="57.56623" lon="-6.15394">
        <ele>67.72</ele>
        <time>2021-03-20T14:36:51Z</time>
      </trkpt>
      <trkpt lat="57.56643" lon="-6.15343">
        <ele>73.91</ele>
        <time>2021-03-20T14:36:55Z</time>
      </trkpt>
      <trkpt lat="57.56664" lon="-6.15302">
        <ele>80.39</ele>
        <time>2021-03-20T14:36:59Z</time>
      </trkpt>
      <trkpt lat="57.56693" lon="-6.15256">
        <ele>84.86</ele>
        <time>2021-03-20T14:37:02Z</time>
      </trkpt>
      <trkpt lat="57.56731" lon="-6.15213">
        <ele>87.61</ele>
        <time>2021-03-20T14:37:06Z</time>
      </trkpt>
      <trkpt lat="57.5677" lon="-6.15185">
        <ele>89.36</ele>
        <time>2021-03-20T14:37:10Z</time>
      </trkpt>
      <trkpt lat="57.56804" lon="-6.15168">
        <ele>89.96</ele>
        <time>2021-03-20T14:37:14Z</time>
      </trkpt>
      <trkpt lat="57.56844" lon="-6.15159">
        <ele>92.74</ele>
        <time>2021-03-20T14:37:17Z</time>
      </trkpt>
      <trkpt lat="57.56883" lon="-6.15163">
        <ele>94</ele>
        <time>2021-03-20T14:37:21Z</time>
      </trkpt>
      <trkpt lat="57.56919" lon="-6.15173">
        <ele>94.67</ele>
        <time>2021-03-20T14:37:25Z</time>
      </trkpt>
      <trkpt lat="57.57196" lon="-6.15328">
        <ele>94.94</ele>
        <time>2021-03-20T14:37:28Z</time>
      </trkpt>
      <trkpt lat="57.57352" lon="-6.15434">
        <ele>90</ele>
        <time>2021-03-20T14:37:32Z</time>
      </trkpt>
      <trkpt lat="57.57395" lon="-6.15457">
        <ele>88.68</ele>
        <time>2021-03-20T14:37:36Z</time>
      </trkpt>
      <trkpt lat="57.57446" lon="-6.15474">
        <ele>86.91</ele>
        <time>2021-03-20T14:37:40Z</time>
      </trkpt>
      <trkpt lat="57.57544" lon="-6.15495">
        <ele>84.81</ele>
        <time>2021-03-20T14:37:43Z</time>
      </trkpt>
      <trkpt lat="57.57591" lon="-6.15512">
        <ele>84.73</ele>
        <time>2021-03-20T14:37:47Z</time>
      </trkpt>
      <trkpt lat="57.57636" lon="-6.15545">
        <ele>83.9</ele>
        <time>2021-03-20T14:37:51Z</time>
      </trkpt>
      <trkpt lat="57.57818" lon="-6.15702">
        <ele>76.18</ele>
        <time>2021-03-20T14:37:55Z</time>
      </trkpt>
      <trkpt lat="57.57854" lon="-6.15725">
        <ele>75.78</ele>
        <time>2021-03-20T14:37:58Z</time>
      </trkpt>
      <trkpt lat="57.57893" lon="-6.15745">
        <ele>73.32</ele>
        <time>2021-03-20T14:38:02Z</time>
      </trkpt>
      <trkpt lat="57.57941" lon="-6.15763">
        <ele>72.06</ele>
        <time>2021-03-20T14:38:06Z</time>
      </trkpt>
      <trkpt lat="57.5799" lon="-6.15771">
        <ele>70.75</ele>
        <time>2021-03-20T14:38:10Z</time>
      </trkpt>
      <trkpt lat="57.5838" lon="-6.15779">
        <ele>73.36</ele>
        <time>2021-03-20T14:38:13Z</time>
      </trkpt>
      <trkpt lat="57.58437" lon="-6.15773">
        <ele>76.73</ele>
        <time>2021-03-20T14:38:17Z</time>
      </trkpt>
      <trkpt lat="57.58466" lon="-6.15765">
        <ele>77.35</ele>
        <time>2021-03-20T14:38:21Z</time>
      </trkpt>
      <trkpt lat="57.58607" lon="-6.15716">
        <ele>85.18</ele>
        <time>2021-03-20T14:38:24Z</time>
      </trkpt>
      <trkpt lat="57.58708" lon="-6.15712">
        <ele>87.85</ele>
        <time>2021-03-20T14:38:28Z</time>
      </trkpt>
      <trkpt lat="57.58743" lon="-6.15717">
        <ele>88.19</ele>
        <time>2021-03-20T14:38:32Z</time>
      </trkpt>
      <trkpt lat="57.58798" lon="-6.15735">
        <ele>88.54</ele>
        <time>2021-03-20T14:38:36Z</time>
      </trkpt>
      <trkpt lat="57.5908" lon="-6.15858">
        <ele>86.23</ele>
        <time>2021-03-20T14:38:39Z</time>
      </trkpt>
      <trkpt lat="57.5918" lon="-6.15938">
        <ele>83.54</ele>
        <time>2021-03-20T14:38:43Z</time>
      </trkpt>
      <trkpt lat="57.59249" lon="-6.15967">
        <ele>81.06</ele>
        <time>2021-03-20T14:38:47Z</time>
      </trkpt>
      <trkpt lat="57.59353" lon="-6.15977">
        <ele>76.89</ele>
        <time>2021-03-20T14:38:51Z</time>
      </trkpt>
      <trkpt lat="57.5939" lon="-6.15987">
        <ele>75.55</ele>
        <time>2021-03-20T14:38:54Z</time>
      </trkpt>
      <trkpt lat="57.59441" lon="-6.16013">
        <ele>76.92</ele>
        <time>2021-03-20T14:38:58Z</time>
      </trkpt>
      <trkpt lat="57.59566" lon="-6.16099">
        <ele>82.77</ele>
        <time>2021-03-20T14:39:02Z</time>
      </trkpt>
      <trkpt lat="57.59884" lon="-6.16325">
        <ele>78</ele>
        <time>2021-03-20T14:39:06Z</time>
      </trkpt>
      <trkpt lat="57.59961" lon="-6.16391">
        <ele>81.12</ele>
        <time>2021-03-20T14:39:09Z</time>
      </trkpt>
      <trkpt lat="57.60039" lon="-6.16467">
        <ele>80.78</ele>
        <time>2021-03-20T14:39:13Z</time>
      </trkpt>
      <trkpt lat="57.60116" lon="-6.16556">
        <ele>77.22</ele>
        <time>2021-03-20T14:39:17Z</time>
      </trkpt>
      <trkpt lat="57.60204" lon="-6.16675">
        <ele>72.69</ele>
        <time>2021-03-20T14:39:21Z</time>
      </trkpt>
      <trkpt lat="57.60276" lon="-6.1678">
        <ele>69.93</ele>
        <time>2021-03-20T14:39:24Z</time>
      </trkpt>
      <trkpt lat="57.60439" lon="-6.17008">
        <ele>65.56</ele>
        <time>2021-03-20T14:39:28Z</time>
      </trkpt>
      <trkpt lat="57.60482" lon="-6.17061">
        <ele>65.12</ele>
        <time>2021-03-20T14:39:32Z</time>
      </trkpt>
      <trkpt lat="57.60516" lon="-6.17091">
        <ele>64.54</ele>
        <time>2021-03-20T14:39:35Z</time>
      </trkpt>
      <trkpt lat="57.60606" lon="-6.17159">
        <ele>62.64</ele>
        <time>2021-03-20T14:39:39Z</time>
      </trkpt>
      <trkpt lat="57.60656" lon="-6.17207">
        <ele>59.92</ele>
        <time>2021-03-20T14:39:43Z</time>
      </trkpt>
      <trkpt lat="57.60747" lon="-6.17318">
        <ele>57.98</ele>
        <time>2021-03-20T14:39:47Z</time>
      </trkpt>
      <trkpt lat="57.60808" lon="-6.17385">
        <ele>56.44</ele>
        <time>2021-03-20T14:39:50Z</time>
      </trkpt>
      <trkpt lat="57.60847" lon="-6.17416">
        <ele>56.09</ele>
        <time>2021-03-20T14:39:54Z</time>
      </trkpt>
      <trkpt lat="57.6095" lon="-6.17462">
        <ele>53</ele>
        <time>2021-03-20T14:39:58Z</time>
      </trkpt>
      <trkpt lat="57.6101" lon="-6.17496">
        <ele>54.34</ele>
        <time>2021-03-20T14:40:02Z</time>
      </trkpt>
      <trkpt lat="57.61044" lon="-6.17525">
        <ele>55.2</ele>
        <time>2021-03-20T14:40:05Z</time>
      </trkpt>
      <trkpt lat="57.61104" lon="-6.17586">
        <ele>62.02</ele>
        <time>2021-03-20T14:40:09Z</time>
      </trkpt>
      <trkpt lat="57.61163" lon="-6.17659">
        <ele>68.42</ele>
        <time>2021-03-20T14:40:13Z</time>
      </trkpt>
      <trkpt lat="57.61225" lon="-6.17748">
        <ele>71.29</ele>
        <time>2021-03-20T14:40:17Z</time>
      </trkpt>
      <trkpt lat="57.61273" lon="-6.17823">
        <ele>73.82</ele>
        <time>2021-03-20T14:40:20Z</time>
      </trkpt>
      <trkpt lat="57.61286" lon="-6.17851">
        <ele>75.14</ele>
        <time>2021-03-20T14:40:24Z</time>
      </trkpt>
      <trkpt lat="57.61331" lon="-6.17934">
        <ele>79.33</ele>
        <time>2021-03-20T14:40:28Z</time>
      </trkpt>
      <trkpt lat="57.61379" lon="-6.18048">
        <ele>78.17</ele>
        <time>2021-03-20T14:40:32Z</time>
      </trkpt>
      <trkpt lat="57.61418" lon="-6.18166">
        <ele>78.06</ele>
        <time>2021-03-20T14:40:35Z</time>
      </trkpt>
      <trkpt lat="57.61561" lon="-6.18751">
        <ele>73.19</ele>
        <time>2021-03-20T14:40:39Z</time>
      </trkpt>
      <trkpt lat="57.61598" lon="-6.18858">
        <ele>73.51</ele>
        <time>2021-03-20T14:40:43Z</time>
      </trkpt>
      <trkpt lat="57.61696" lon="-6.19093">
        <ele>86.08</ele>
        <time>2021-03-20T14:40:46Z</time>
      </trkpt>
      <trkpt lat="57.6179" lon="-6.19326">
        <ele>92.33</ele>
        <time>2021-03-20T14:40:50Z</time>
      </trkpt>
      <trkpt lat="57.61819" lon="-6.19395">
        <ele>93.29</ele>
        <time>2021-03-20T14:40:54Z</time>
      </trkpt>
      <trkpt lat="57.61857" lon="-6.19465">
        <ele>93.11</ele>
        <time>2021-03-20T14:40:58Z</time>
      </trkpt>
      <trkpt lat="57.61909" lon="-6.19544">
        <ele>92.85</ele>
        <time>2021-03-20T14:41:01Z</time>
      </trkpt>
      <trkpt lat="57.61987" lon="-6.19639">
        <ele>88.96</ele>
        <time>2021-03-20T14:41:05Z</time>
      </trkpt>
      <trkpt lat="57.62113" lon="-6.19799">
        <ele>78.63</ele>
        <time>2021-03-20T14:41:09Z</time>
      </trkpt>
      <trkpt lat="57.622" lon="-6.19914">
        <ele>67.01</ele>
        <time>2021-03-20T14:41:13Z</time>
      </trkpt>
      <trkpt lat="57.62288" lon="-6.20042">
        <ele>60.48</ele>
        <time>2021-03-20T14:41:16Z</time>
      </trkpt>
      <trkpt lat="57.62402" lon="-6.20218">
        <ele>53.78</ele>
        <time>2021-03-20T14:41:20Z</time>
      </trkpt>
      <trkpt lat="57.62456" lon="-6.20308">
        <ele>49.26</ele>
        <time>2021-03-20T14:41:24Z</time>
      </trkpt>
      <trkpt lat="57.62519" lon="-6.20429">
        <ele>43.09</ele>
        <time>2021-03-20T14:41:28Z</time>
      </trkpt>
      <trkpt lat="57.62662" lon="-6.20726">
        <ele>27.31</ele>
        <time>2021-03-20T14:41:31Z</time>
      </trkpt>
      <trkpt lat="57.62724" lon="-6.20831">
        <ele>27</ele>
        <time>2021-03-20T14:41:35Z</time>
      </trkpt>
      <trkpt lat="57.62773" lon="-6.20893">
        <ele>26.51</ele>
        <time>2021-03-20T14:41:39Z</time>
      </trkpt>
      <trkpt lat="57.62816" lon="-6.20944">
        <ele>26.19</ele>
        <time>2021-03-20T14:41:43Z</time>
      </trkpt>
      <trkpt lat="57.62907" lon="-6.21031">
        <ele>22.83</ele>
        <time>2021-03-20T14:41:46Z</time>
      </trkpt>
      <trkpt lat="57.62939" lon="-6.21072">
        <ele>22.57</ele>
        <time>2021-03-20T14:41:50Z</time>
      </trkpt>
      <trkpt lat="57.6299" lon="-6.21158">
        <ele>21.09</ele>
        <time>2021-03-20T14:41:54Z</time>
      </trkpt>
      <trkpt lat="57.63018" lon="-6.21224">
        <ele>21.76</ele>
        <time>2021-03-20T14:41:57Z</time>
      </trkpt>
      <trkpt lat="57.63045" lon="-6.21301">
        <ele>24.1</ele>
        <time>2021-03-20T14:42:01Z</time>
      </trkpt>
      <trkpt lat="57.63088" lon="-6.21457">
        <ele>28.1</ele>
        <time>2021-03-20T14:42:05Z</time>
      </trkpt>
      <trkpt lat="57.63102" lon="-6.21528">
        <ele>29.35</ele>
        <time>2021-03-20T14:42:09Z</time>
      </trkpt>
      <trkpt lat="57.6311" lon="-6.21597">
        <ele>31.53</ele>
        <time>2021-03-20T14:42:12Z</time>
      </trkpt>
      <trkpt lat="57.63115" lon="-6.21652">
        <ele>34.31</ele>
        <time>2021-03-20T14:42:16Z</time>
      </trkpt>
      <trkpt lat="57.63117" lon="-6.21715">
        <ele>35.77</ele>
        <time>2021-03-20T14:42:20Z</time>
      </trkpt>
      <trkpt lat="57.63116" lon="-6.21816">
        <ele>33.29</ele>
        <time>2021-03-20T14:42:24Z</time>
      </trkpt>
      <trkpt lat="57.63052" lon="-6.22822">
        <ele>22.36</ele>
        <time>2021-03-20T14:42:27Z</time>
      </trkpt>
      <trkpt lat="57.63046" lon="-6.22901">
        <ele>20.66</ele>
        <time>2021-03-20T14:42:31Z</time>
      </trkpt>
      <trkpt lat="57.63025" lon="-6.23102">
        <ele>19.82</ele>
        <time>2021-03-20T14:42:35Z</time>
      </trkpt>
      <trkpt lat="57.62997" lon="-6.23309">
        <ele>16.31</ele>
        <time>2021-03-20T14:42:39Z</time>
      </trkpt>
      <trkpt lat="57.62967" lon="-6.23496">
        <ele>16.34</ele>
        <time>2021-03-20T14:42:42Z</time>
      </trkpt>
      <trkpt lat="57.62955" lon="-6.2359">
        <ele>17.62</ele>
        <time>2021-03-20T14:42:46Z</time>
      </trkpt>
      <trkpt lat="57.62953" lon="-6.23636">
        <ele>18.58</ele>
        <time>2021-03-20T14:42:50Z</time>
      </trkpt>
      <trkpt lat="57.62955" lon="-6.23682">
        <ele>19.5</ele>
        <time>2021-03-20T14:42:53Z</time>
      </trkpt>
      <trkpt lat="57.62964" lon="-6.23734">
        <ele>21.32</ele>
        <time>2021-03-20T14:42:57Z</time>
      </trkpt>
      <trkpt lat="57.62983" lon="-6.23798">
        <ele>23.07</ele>
        <time>2021-03-20T14:43:01Z</time>
      </trkpt>
      <trkpt lat="57.63026" lon="-6.239">
        <ele>23.47</ele>
        <time>2021-03-20T14:43:05Z</time>
      </trkpt>
      <trkpt lat="57.63067" lon="-6.2398">
        <ele>25.7</ele>
        <time>2021-03-20T14:43:08Z</time>
      </trkpt>
      <trkpt lat="57.63089" lon="-6.24028">
        <ele>28.59</ele>
        <time>2021-03-20T14:43:12Z</time>
      </trkpt>
      <trkpt lat="57.63099" lon="-6.24055">
        <ele>30.22</ele>
        <time>2021-03-20T14:43:16Z</time>
      </trkpt>
      <trkpt lat="57.63143" lon="-6.24202">
        <ele>41.63</ele>
        <time>2021-03-20T14:43:20Z</time>
      </trkpt>
      <trkpt lat="57.63155" lon="-6.24227">
        <ele>43.5</ele>
        <time>2021-03-20T14:43:23Z</time>
      </trkpt>
      <trkpt lat="57.63166" lon="-6.2424">
        <ele>45.54</ele>
        <time>2021-03-20T14:43:27Z</time>
      </trkpt>
      <trkpt lat="57.63176" lon="-6.24245">
        <ele>46.57</ele>
        <time>2021-03-20T14:43:31Z</time>
      </trkpt>
      <trkpt lat="57.63189" lon="-6.24245">
        <ele>47.56</ele>
        <time>2021-03-20T14:43:35Z</time>
      </trkpt>
      <trkpt lat="57.63202" lon="-6.24241">
        <ele>48</ele>
        <time>2021-03-20T14:43:38Z</time>
      </trkpt>
      <trkpt lat="57.63209" lon="-6.24235">
        <ele>48</ele>
        <time>2021-03-20T14:43:42Z</time>
      </trkpt>
      <trkpt lat="57.63234" lon="-6.24202">
        <ele>48.41</ele>
        <time>2021-03-20T14:43:46Z</time>
      </trkpt>
      <trkpt lat="57.63259" lon="-6.24161">
        <ele>48.34</ele>
        <time>2021-03-20T14:43:50Z</time>
      </trkpt>
      <trkpt lat="57.63294" lon="-6.24132">
        <ele>48.77</ele>
        <time>2021-03-20T14:43:53Z</time>
      </trkpt>
      <trkpt lat="57.63407" lon="-6.24092">
        <ele>48.15</ele>
        <time>2021-03-20T14:43:57Z</time>
      </trkpt>
      <trkpt lat="57.63447" lon="-6.24075">
        <ele>48.32</ele>
        <time>2021-03-20T14:44:01Z</time>
      </trkpt>
      <trkpt lat="57.63526" lon="-6.24034">
        <ele>51.76</ele>
        <time>2021-03-20T14:44:04Z</time>
      </trkpt>
      <trkpt lat="57.63545" lon="-6.24031">
        <ele>52.64</ele>
        <time>2021-03-20T14:44:08Z</time>
      </trkpt>
      <trkpt lat="57.63563" lon="-6.24035">
        <ele>54.32</ele>
        <time>2021-03-20T14:44:12Z</time>
      </trkpt>
      <trkpt lat="57.63668" lon="-6.24078">
        <ele>61.9</ele>
        <time>2021-03-20T14:44:16Z</time>
      </trkpt>
      <trkpt lat="57.63689" lon="-6.24093">
        <ele>63.62</ele>
        <time>2021-03-20T14:44:19Z</time>
      </trkpt>
      <trkpt lat="57.63724" lon="-6.24129">
        <ele>68.06</ele>
        <time>2021-03-20T14:44:23Z</time>
      </trkpt>
      <trkpt lat="57.63769" lon="-6.24155">
        <ele>66.25</ele>
        <time>2021-03-20T14:44:27Z</time>
      </trkpt>
      <trkpt lat="57.63802" lon="-6.24169">
        <ele>65.53</ele>
        <time>2021-03-20T14:44:31Z</time>
      </trkpt>
      <trkpt lat="57.63819" lon="-6.24169">
        <ele>64.81</ele>
        <time>2021-03-20T14:44:34Z</time>
      </trkpt>
      <trkpt lat="57.63858" lon="-6.24155">
        <ele>63.66</ele>
        <time>2021-03-20T14:44:38Z</time>
      </trkpt>
      <trkpt lat="57.63885" lon="-6.24162">
        <ele>62.11</ele>
        <time>2021-03-20T14:44:42Z</time>
      </trkpt>
      <trkpt lat="57.63926" lon="-6.24195">
        <ele>62.33</ele>
        <time>2021-03-20T14:44:46Z</time>
      </trkpt>
      <trkpt lat="57.63969" lon="-6.24233">
        <ele>63.56</ele>
        <time>2021-03-20T14:44:49Z</time>
      </trkpt>
      <trkpt lat="57.63986" lon="-6.24243">
        <ele>64.38</ele>
        <time>2021-03-20T14:44:53Z</time>
      </trkpt>
      <trkpt lat="57.64021" lon="-6.24257">
        <ele>65.28</ele>
        <time>2021-03-20T14:44:57Z</time>
      </trkpt>
      <trkpt lat="57.64047" lon="-6.24263">
        <ele>65.72</ele>
        <time>2021-03-20T14:45:01Z</time>
      </trkpt>
      <trkpt lat="57.64068" lon="-6.24263">
        <ele>66.05</ele>
        <time>2021-03-20T14:45:04Z</time>
      </trkpt>
      <trkpt lat="57.64089" lon="-6.24255">
        <ele>66.65</ele>
        <time>2021-03-20T14:45:08Z</time>
      </trkpt>
      <trkpt lat="57.64125" lon="-6.2423">
        <ele>68.58</ele>
        <time>2021-03-20T14:45:12Z</time>
      </trkpt>
      <trkpt lat="57.6416" lon="-6.2421">
        <ele>69.87</ele>
        <time>2021-03-20T14:45:15Z</time>
      </trkpt>
      <trkpt lat="57.64218" lon="-6.24191">
        <ele>72.6</ele>
        <time>2021-03-20T14:45:19Z</time>
      </trkpt>
      <trkpt lat="57.64247" lon="-6.24187">
        <ele>73.62</ele>
        <time>2021-03-20T14:45:23Z</time>
      </trkpt>
      <trkpt lat="57.64269" lon="-6.24193">
        <ele>73.94</ele>
        <time>2021-03-20T14:45:27Z</time>
      </trkpt>
      <trkpt lat="57.64328" lon="-6.24196">
        <ele>75.95</ele>
        <time>2021-03-20T14:45:30Z</time>
      </trkpt>
      <trkpt lat="57.6447" lon="-6.24216">
        <ele>80.63</ele>
        <time>2021-03-20T14:45:34Z</time>
      </trkpt>
      <trkpt lat="57.64492" lon="-6.24224">
        <ele>79.71</ele>
        <time>2021-03-20T14:45:38Z</time>
      </trkpt>
      <trkpt lat="57.64539" lon="-6.24262">
        <ele>77.65</ele>
        <time>2021-03-20T14:45:42Z</time>
      </trkpt>
      <trkpt lat="57.64601" lon="-6.24298">
        <ele>76.27</ele>
        <time>2021-03-20T14:45:45Z</time>
      </trkpt>
      <trkpt lat="57.64626" lon="-6.24309">
        <ele>77.43</ele>
        <time>2021-03-20T14:45:49Z</time>
      </trkpt>
      <trkpt lat="57.64672" lon="-6.2431">
        <ele>78.48</ele>
        <time>2021-03-20T14:45:53Z</time>
      </trkpt>
      <trkpt lat="57.64689" lon="-6.24324">
        <ele>79.95</ele>
        <time>2021-03-20T14:45:57Z</time>
      </trkpt>
      <trkpt lat="57.64751" lon="-6.24382">
        <ele>81.17</ele>
        <time>2021-03-20T14:46:00Z</time>
      </trkpt>
      <trkpt lat="57.64778" lon="-6.244">
        <ele>80.81</ele>
        <time>2021-03-20T14:46:04Z</time>
      </trkpt>
      <trkpt lat="57.64803" lon="-6.24413">
        <ele>78.96</ele>
        <time>2021-03-20T14:46:08Z</time>
      </trkpt>
      <trkpt lat="57.64815" lon="-6.24416">
        <ele>78.92</ele>
        <time>2021-03-20T14:46:11Z</time>
      </trkpt>
      <trkpt lat="57.64833" lon="-6.24412">
        <ele>78.49</ele>
        <time>2021-03-20T14:46:15Z</time>
      </trkpt>
      <trkpt lat="57.64867" lon="-6.24381">
        <ele>77.18</ele>
        <time>2021-03-20T14:46:19Z</time>
      </trkpt>
      <trkpt lat="57.64886" lon="-6.2437">
        <ele>75.62</ele>
        <time>2021-03-20T14:46:23Z</time>
      </trkpt>
      <trkpt lat="57.64898" lon="-6.24366">
        <ele>74.29</ele>
        <time>2021-03-20T14:46:26Z</time>
      </trkpt>
      <trkpt lat="57.64915" lon="-6.24368">
        <ele>73.76</ele>
        <time>2021-03-20T14:46:30Z</time>
      </trkpt>
      <trkpt lat="57.64965" lon="-6.24399">
        <ele>74.55</ele>
        <time>2021-03-20T14:46:34Z</time>
      </trkpt>
      <trkpt lat="57.65039" lon="-6.24423">
        <ele>74.38</ele>
        <time>2021-03-20T14:46:38Z</time>
      </trkpt>
      <trkpt lat="57.65076" lon="-6.24433">
        <ele>75.33</ele>
        <time>2021-03-20T14:46:41Z</time>
      </trkpt>
      <trkpt lat="57.65104" lon="-6.24433">
        <ele>76.64</ele>
        <time>2021-03-20T14:46:45Z</time>
      </trkpt>
      <trkpt lat="57.65126" lon="-6.24427">
        <ele>77.83</ele>
        <time>2021-03-20T14:46:49Z</time>
      </trkpt>
      <trkpt lat="57.6516" lon="-6.24407">
        <ele>80.39</ele>
        <time>2021-03-20T14:46:53Z</time>
      </trkpt>
      <trkpt lat="57.65183" lon="-6.24404">
        <ele>82.06</ele>
        <time>2021-03-20T14:46:56Z</time>
      </trkpt>
      <trkpt lat="57.65263" lon="-6.24411">
        <ele>85.34</ele>
        <time>2021-03-20T14:47:00Z</time>
      </trkpt>
      <trkpt lat="57.65286" lon="-6.24421">
        <ele>85.86</ele>
        <time>2021-03-20T14:47:04Z</time>
      </trkpt>
      <trkpt lat="57.65314" lon="-6.24446">
        <ele>86.05</ele>
        <time>2021-03-20T14:47:08Z</time>
      </trkpt>
      <trkpt lat="57.65349" lon="-6.24484">
        <ele>87.25</ele>
        <time>2021-03-20T14:47:11Z</time>
      </trkpt>
      <trkpt lat="57.65363" lon="-6.24507">
        <ele>88.59</ele>
        <time>2021-03-20T14:47:15Z</time>
      </trkpt>
      <trkpt lat="57.65375" lon="-6.24531">
        <ele>90.52</ele>
        <time>2021-03-20T14:47:19Z</time>
      </trkpt>
      <trkpt lat="57.65384" lon="-6.24556">
        <ele>91.46</ele>
        <time>2021-03-20T14:47:22Z</time>
      </trkpt>
      <trkpt lat="57.65443" lon="-6.24791">
        <ele>94.31</ele>
        <time>2021-03-20T14:47:26Z</time>
      </trkpt>
      <trkpt lat="57.65482" lon="-6.25029">
        <ele>98.38</ele>
        <time>2021-03-20T14:47:30Z</time>
      </trkpt>
      <trkpt lat="57.65493" lon="-6.25077">
        <ele>99.19</ele>
        <time>2021-03-20T14:47:34Z</time>
      </trkpt>
      <trkpt lat="57.65505" lon="-6.25108">
        <ele>99</ele>
        <time>2021-03-20T14:47:37Z</time>
      </trkpt>
      <trkpt lat="57.65523" lon="-6.25131">
        <ele>99.26</ele>
        <time>2021-03-20T14:47:41Z</time>
      </trkpt>
      <trkpt lat="57.65539" lon="-6.25142">
        <ele>99</ele>
        <time>2021-03-20T14:47:45Z</time>
      </trkpt>
      <trkpt lat="57.65591" lon="-6.25156">
        <ele>99.32</ele>
        <time>2021-03-20T14:47:49Z</time>
      </trkpt>
      <trkpt lat="57.65608" lon="-6.25165">
        <ele>99.07</ele>
        <time>2021-03-20T14:47:52Z</time>
      </trkpt>
      <trkpt lat="57.65636" lon="-6.25194">
        <ele>99.21</ele>
        <time>2021-03-20T14:47:56Z</time>
      </trkpt>
      <trkpt lat="57.65663" lon="-6.25231">
        <ele>96.73</ele>
        <time>2021-03-20T14:48:00Z</time>
      </trkpt>
      <trkpt lat="57.65685" lon="-6.25273">
        <ele>96.53</ele>
        <time>2021-03-20T14:48:04Z</time>
      </trkpt>
      <trkpt lat="57.65698" lon="-6.2531">
        <ele>96.93</ele>
        <time>2021-03-20T14:48:07Z</time>
      </trkpt>
      <trkpt lat="57.6571" lon="-6.25335">
        <ele>97.08</ele>
        <time>2021-03-20T14:48:11Z</time>
      </trkpt>
      <trkpt lat="57.65778" lon="-6.25402">
        <ele>98.94</ele>
        <time>2021-03-20T14:48:15Z</time>
      </trkpt>
      <trkpt lat="57.65873" lon="-6.25561">
        <ele>89.55</ele>
        <time>2021-03-20T14:48:19Z</time>
      </trkpt>
      <trkpt lat="57.65891" lon="-6.25586">
        <ele>88.02</ele>
        <time>2021-03-20T14:48:22Z</time>
      </trkpt>
      <trkpt lat="57.65904" lon="-6.25594">
        <ele>87.82</ele>
        <time>2021-03-20T14:48:26Z</time>
      </trkpt>
      <trkpt lat="57.6592" lon="-6.25593">
        <ele>87.4</ele>
        <time>2021-03-20T14:48:30Z</time>
      </trkpt>
      <trkpt lat="57.65954" lon="-6.25582">
        <ele>86.48</ele>
        <time>2021-03-20T14:48:33Z</time>
      </trkpt>
      <trkpt lat="57.6597" lon="-6.2558">
        <ele>85.67</ele>
        <time>2021-03-20T14:48:37Z</time>
      </trkpt>
      <trkpt lat="57.65992" lon="-6.25591">
        <ele>84.76</ele>
        <time>2021-03-20T14:48:41Z</time>
      </trkpt>
      <trkpt lat="57.66028" lon="-6.25618">
        <ele>81.48</ele>
        <time>2021-03-20T14:48:45Z</time>
      </trkpt>
      <trkpt lat="57.66077" lon="-6.25661">
        <ele>79.28</ele>
        <time>2021-03-20T14:48:48Z</time>
      </trkpt>
      <trkpt lat="57.6609" lon="-6.25681">
        <ele>78.92</ele>
        <time>2021-03-20T14:48:52Z</time>
      </trkpt>
      <trkpt lat="57.66145" lon="-6.25796">
        <ele>78.09</ele>
        <time>2021-03-20T14:48:56Z</time>
      </trkpt>
      <trkpt lat="57.66171" lon="-6.25844">
        <ele>74.81</ele>
        <time>2021-03-20T14:49:00Z</time>
      </trkpt>
      <trkpt lat="57.66192" lon="-6.25873">
        <ele>74.08</ele>
        <time>2021-03-20T14:49:03Z</time>
      </trkpt>
      <trkpt lat="57.66205" lon="-6.25882">
        <ele>74.1</ele>
        <time>2021-03-20T14:49:07Z</time>
      </trkpt>
      <trkpt lat="57.66218" lon="-6.25884">
        <ele>73.78</ele>
        <time>2021-03-20T14:49:11Z</time>
      </trkpt>
      <trkpt lat="57.66236" lon="-6.25878">
        <ele>73.24</ele>
        <time>2021-03-20T14:49:15Z</time>
      </trkpt>
      <trkpt lat="57.66252" lon="-6.25861">
        <ele>72.07</ele>
        <time>2021-03-20T14:49:18Z</time>
      </trkpt>
      <trkpt lat="57.66266" lon="-6.25838">
        <ele>70.12</ele>
        <time>2021-03-20T14:49:22Z</time>
      </trkpt>
      <trkpt lat="57.6631" lon="-6.25804">
        <ele>70.13</ele>
        <time>2021-03-20T14:49:26Z</time>
      </trkpt>
      <trkpt lat="57.66341" lon="-6.25772">
        <ele>69.77</ele>
        <time>2021-03-20T14:49:30Z</time>
      </trkpt>
      <trkpt lat="57.6636" lon="-6.25741">
        <ele>70.13</ele>
        <time>2021-03-20T14:49:33Z</time>
      </trkpt>
      <trkpt lat="57.66384" lon="-6.25686">
        <ele>67.68</ele>
        <time>2021-03-20T14:49:37Z</time>
      </trkpt>
      <trkpt lat="57.66398" lon="-6.25666">
        <ele>66.24</ele>
        <time>2021-03-20T14:49:41Z</time>
      </trkpt>
      <trkpt lat="57.66406" lon="-6.25661">
        <ele>66.14</ele>
        <time>2021-03-20T14:49:44Z</time>
      </trkpt>
      <trkpt lat="57.66422" lon="-6.25661">
        <ele>67</ele>
        <time>2021-03-20T14:49:48Z</time>
      </trkpt>
      <trkpt lat="57.66436" lon="-6.25666">
        <ele>68.34</ele>
        <time>2021-03-20T14:49:52Z</time>
      </trkpt>
      <trkpt lat="57.66453" lon="-6.25685">
        <ele>70.72</ele>
        <time>2021-03-20T14:49:56Z</time>
      </trkpt>
      <trkpt lat="57.66483" lon="-6.25726">
        <ele>72.54</ele>
        <time>2021-03-20T14:49:59Z</time>
      </trkpt>
      <trkpt lat="57.66501" lon="-6.25746">
        <ele>73</ele>
        <time>2021-03-20T14:50:03Z</time>
      </trkpt>
      <trkpt lat="57.66517" lon="-6.25755">
        <ele>73</ele>
        <time>2021-03-20T14:50:07Z</time>
      </trkpt>
      <trkpt lat="57.66538" lon="-6.25755">
        <ele>73.66</ele>
        <time>2021-03-20T14:50:11Z</time>
      </trkpt>
      <trkpt lat="57.66556" lon="-6.25747">
        <ele>75.12</ele>
        <time>2021-03-20T14:50:14Z</time>
      </trkpt>
      <trkpt lat="57.6661" lon="-6.25713">
        <ele>76.98</ele>
        <time>2021-03-20T14:50:18Z</time>
      </trkpt>
      <trkpt lat="57.66625" lon="-6.25711">
        <ele>77.71</ele>
        <time>2021-03-20T14:50:22Z</time>
      </trkpt>
      <trkpt lat="57.66645" lon="-6.25714">
        <ele>78.81</ele>
        <time>2021-03-20T14:50:26Z</time>
      </trkpt>
      <trkpt lat="57.66723" lon="-6.25776">
        <ele>80.27</ele>
        <time>2021-03-20T14:50:29Z</time>
      </trkpt>
      <trkpt lat="57.66914" lon="-6.25997">
        <ele>81.98</ele>
        <time>2021-03-20T14:50:33Z</time>
      </trkpt>
      <trkpt lat="57.6694" lon="-6.2602">
        <ele>80.45</ele>
        <time>2021-03-20T14:50:37Z</time>
      </trkpt>
      <trkpt lat="57.66964" lon="-6.26035">
        <ele>78.59</ele>
        <time>2021-03-20T14:50:40Z</time>
      </trkpt>
      <trkpt lat="57.67083" lon="-6.26076">
        <ele>76.26</ele>
        <time>2021-03-20T14:50:44Z</time>
      </trkpt>
      <trkpt lat="57.67181" lon="-6.2609">
        <ele>67.44</ele>
        <time>2021-03-20T14:50:48Z</time>
      </trkpt>
      <trkpt lat="57.67197" lon="-6.261">
        <ele>65.72</ele>
        <time>2021-03-20T14:50:52Z</time>
      </trkpt>
      <trkpt lat="57.67211" lon="-6.26115">
        <ele>64.07</ele>
        <time>2021-03-20T14:50:55Z</time>
      </trkpt>
      <trkpt lat="57.67222" lon="-6.26132">
        <ele>62.31</ele>
        <time>2021-03-20T14:50:59Z</time>
      </trkpt>
      <trkpt lat="57.67248" lon="-6.26207">
        <ele>59.13</ele>
        <time>2021-03-20T14:51:03Z</time>
      </trkpt>
      <trkpt lat="57.67259" lon="-6.26236">
        <ele>57.17</ele>
        <time>2021-03-20T14:51:07Z</time>
      </trkpt>
      <trkpt lat="57.67283" lon="-6.26276">
        <ele>53.87</ele>
        <time>2021-03-20T14:51:10Z</time>
      </trkpt>
      <trkpt lat="57.67492" lon="-6.26498">
        <ele>46.31</ele>
        <time>2021-03-20T14:51:14Z</time>
      </trkpt>
      <trkpt lat="57.67523" lon="-6.26528">
        <ele>46</ele>
        <time>2021-03-20T14:51:18Z</time>
      </trkpt>
      <trkpt lat="57.67582" lon="-6.26575">
        <ele>47.96</ele>
        <time>2021-03-20T14:51:22Z</time>
      </trkpt>
      <trkpt lat="57.67603" lon="-6.26603">
        <ele>48.7</ele>
        <time>2021-03-20T14:51:25Z</time>
      </trkpt>
      <trkpt lat="57.67627" lon="-6.26657">
        <ele>50</ele>
        <time>2021-03-20T14:51:29Z</time>
      </trkpt>
      <trkpt lat="57.6771" lon="-6.26813">
        <ele>55.15</ele>
        <time>2021-03-20T14:51:33Z</time>
      </trkpt>
      <trkpt lat="57.67723" lon="-6.26845">
        <ele>56.01</ele>
        <time>2021-03-20T14:51:37Z</time>
      </trkpt>
      <trkpt lat="57.67729" lon="-6.26887">
        <ele>56.51</ele>
        <time>2021-03-20T14:51:40Z</time>
      </trkpt>
      <trkpt lat="57.67732" lon="-6.26926">
        <ele>57.83</ele>
        <time>2021-03-20T14:51:44Z</time>
      </trkpt>
      <trkpt lat="57.67739" lon="-6.26971">
        <ele>59.75</ele>
        <time>2021-03-20T14:51:48Z</time>
      </trkpt>
      <trkpt lat="57.67768" lon="-6.27087">
        <ele>63.6</ele>
        <time>2021-03-20T14:51:51Z</time>
      </trkpt>
      <trkpt lat="57.67817" lon="-6.27232">
        <ele>67.23</ele>
        <time>2021-03-20T14:51:55Z</time>
      </trkpt>
      <trkpt lat="57.6792" lon="-6.27474">
        <ele>71.52</ele>
        <time>2021-03-20T14:51:59Z</time>
      </trkpt>
      <trkpt lat="57.67929" lon="-6.27505">
        <ele>72.8</ele>
        <time>2021-03-20T14:52:03Z</time>
      </trkpt>
      <trkpt lat="57.67944" lon="-6.27594">
        <ele>73.49</ele>
        <time>2021-03-20T14:52:06Z</time>
      </trkpt>
      <trkpt lat="57.67956" lon="-6.27638">
        <ele>72.79</ele>
        <time>2021-03-20T14:52:10Z</time>
      </trkpt>
      <trkpt lat="57.67971" lon="-6.27667">
        <ele>72.91</ele>
        <time>2021-03-20T14:52:14Z</time>
      </trkpt>
      <trkpt lat="57.6801" lon="-6.27721">
        <ele>73.13</ele>
        <time>2021-03-20T14:52:18Z</time>
      </trkpt>
      <trkpt lat="57.68022" lon="-6.27745">
        <ele>73.61</ele>
        <time>2021-03-20T14:52:21Z</time>
      </trkpt>
      <trkpt lat="57.6808" lon="-6.2793">
        <ele>72.32</ele>
        <time>2021-03-20T14:52:25Z</time>
      </trkpt>
      <trkpt lat="57.68096" lon="-6.28004">
        <ele>71.88</ele>
        <time>2021-03-20T14:52:29Z</time>
      </trkpt>
      <trkpt lat="57.6811" lon="-6.28103">
        <ele>72.91</ele>
        <time>2021-03-20T14:52:33Z</time>
      </trkpt>
      <trkpt lat="57.68124" lon="-6.28259">
        <ele>70.85</ele>
        <time>2021-03-20T14:52:36Z</time>
      </trkpt>
      <trkpt lat="57.68143" lon="-6.28409">
        <ele>68.37</ele>
        <time>2021-03-20T14:52:40Z</time>
      </trkpt>
      <trkpt lat="57.68146" lon="-6.28461">
        <ele>68.24</ele>
        <time>2021-03-20T14:52:44Z</time>
      </trkpt>
      <trkpt lat="57.68143" lon="-6.28522">
        <ele>67.34</ele>
        <time>2021-03-20T14:52:48Z</time>
      </trkpt>
      <trkpt lat="57.68127" lon="-6.28725">
        <ele>60.32</ele>
        <time>2021-03-20T14:52:51Z</time>
      </trkpt>
      <trkpt lat="57.68124" lon="-6.28769">
        <ele>59.52</ele>
        <time>2021-03-20T14:52:55Z</time>
      </trkpt>
      <trkpt lat="57.68125" lon="-6.28811">
        <ele>59.01</ele>
        <time>2021-03-20T14:52:59Z</time>
      </trkpt>
      <trkpt lat="57.68155" lon="-6.29077">
        <ele>57.35</ele>
        <time>2021-03-20T14:53:02Z</time>
      </trkpt>
      <trkpt lat="57.6816" lon="-6.2922">
        <ele>54.68</ele>
        <time>2021-03-20T14:53:06Z</time>
      </trkpt>
      <trkpt lat="57.68165" lon="-6.29266">
        <ele>53.19</ele>
        <time>2021-03-20T14:53:10Z</time>
      </trkpt>
      <trkpt lat="57.68173" lon="-6.2932">
        <ele>53.9</ele>
        <time>2021-03-20T14:53:14Z</time>
      </trkpt>
      <trkpt lat="57.68184" lon="-6.29388">
        <ele>54.37</ele>
        <time>2021-03-20T14:53:17Z</time>
      </trkpt>
      <trkpt lat="57.68193" lon="-6.29456">
        <ele>53.61</ele>
        <time>2021-03-20T14:53:21Z</time>
      </trkpt>
      <trkpt lat="57.682" lon="-6.29535">
        <ele>52.16</ele>
        <time>2021-03-20T14:53:25Z</time>
      </trkpt>
      <trkpt lat="57.68207" lon="-6.29576">
        <ele>51.11</ele>
        <time>2021-03-20T14:53:29Z</time>
      </trkpt>
      <trkpt lat="57.68225" lon="-6.29643">
        <ele>49.46</ele>
        <time>2021-03-20T14:53:32Z</time>
      </trkpt>
      <trkpt lat="57.68257" lon="-6.2982">
        <ele>44.83</ele>
        <time>2021-03-20T14:53:36Z</time>
      </trkpt>
      <trkpt lat="57.68257" lon="-6.2982">
        <ele>44.83</ele>
        <time>2021-03-20T14:53:36Z</time>
      </trkpt>
      <trkpt lat="57.68268" lon="-6.29869">
        <ele>43.44</ele>
        <time>2021-03-20T14:53:39Z</time>
      </trkpt>
      <trkpt lat="57.68284" lon="-6.2992">
        <ele>41.08</ele>
        <time>2021-03-20T14:53:43Z</time>
      </trkpt>
      <trkpt lat="57.68307" lon="-6.29969">
        <ele>37.81</ele>
        <time>2021-03-20T14:53:46Z</time>
      </trkpt>
      <trkpt lat="57.6833" lon="-6.3001">
        <ele>35.71</ele>
        <time>2021-03-20T14:53:49Z</time>
      </trkpt>
      <trkpt lat="57.68353" lon="-6.30042">
        <ele>33.87</ele>
        <time>2021-03-20T14:53:52Z</time>
      </trkpt>
      <trkpt lat="57.68368" lon="-6.30068">
        <ele>32.55</ele>
        <time>2021-03-20T14:53:55Z</time>
      </trkpt>
      <trkpt lat="57.68377" lon="-6.30098">
        <ele>31.17</ele>
        <time>2021-03-20T14:53:59Z</time>
      </trkpt>
      <trkpt lat="57.68385" lon="-6.30134">
        <ele>29.02</ele>
        <time>2021-03-20T14:54:02Z</time>
      </trkpt>
      <trkpt lat="57.68442" lon="-6.30544">
        <ele>13.26</ele>
        <time>2021-03-20T14:54:05Z</time>
      </trkpt>
      <trkpt lat="57.68453" lon="-6.30607">
        <ele>14.72</ele>
        <time>2021-03-20T14:54:08Z</time>
      </trkpt>
      <trkpt lat="57.68468" lon="-6.30727">
        <ele>13.02</ele>
        <time>2021-03-20T14:54:12Z</time>
      </trkpt>
      <trkpt lat="57.68472" lon="-6.30771">
        <ele>13.04</ele>
        <time>2021-03-20T14:54:15Z</time>
      </trkpt>
      <trkpt lat="57.68474" lon="-6.30822">
        <ele>13.84</ele>
        <time>2021-03-20T14:54:18Z</time>
      </trkpt>
      <trkpt lat="57.68468" lon="-6.30993">
        <ele>15.43</ele>
        <time>2021-03-20T14:54:21Z</time>
      </trkpt>
      <trkpt lat="57.68465" lon="-6.31279">
        <ele>15.02</ele>
        <time>2021-03-20T14:54:25Z</time>
      </trkpt>
      <trkpt lat="57.6846" lon="-6.31329">
        <ele>14.7</ele>
        <time>2021-03-20T14:54:28Z</time>
      </trkpt>
      <trkpt lat="57.68448" lon="-6.31397">
        <ele>15.33</ele>
        <time>2021-03-20T14:54:31Z</time>
      </trkpt>
      <trkpt lat="57.68423" lon="-6.31518">
        <ele>15.65</ele>
        <time>2021-03-20T14:54:34Z</time>
      </trkpt>
      <trkpt lat="57.683" lon="-6.32086">
        <ele>17.87</ele>
        <time>2021-03-20T14:54:38Z</time>
      </trkpt>
      <trkpt lat="57.6829" lon="-6.32123">
        <ele>18.67</ele>
        <time>2021-03-20T14:54:41Z</time>
      </trkpt>
      <trkpt lat="57.68279" lon="-6.32151">
        <ele>19.98</ele>
        <time>2021-03-20T14:54:44Z</time>
      </trkpt>
      <trkpt lat="57.68234" lon="-6.32219">
        <ele>22.28</ele>
        <time>2021-03-20T14:54:47Z</time>
      </trkpt>
      <trkpt lat="57.6822" lon="-6.32249">
        <ele>22.87</ele>
        <time>2021-03-20T14:54:50Z</time>
      </trkpt>
      <trkpt lat="57.68216" lon="-6.32276">
        <ele>23.72</ele>
        <time>2021-03-20T14:54:54Z</time>
      </trkpt>
      <trkpt lat="57.68217" lon="-6.32302">
        <ele>24.53</ele>
        <time>2021-03-20T14:54:57Z</time>
      </trkpt>
      <trkpt lat="57.68222" lon="-6.3233">
        <ele>25.89</ele>
        <time>2021-03-20T14:55:00Z</time>
      </trkpt>
      <trkpt lat="57.68236" lon="-6.32366">
        <ele>26.34</ele>
        <time>2021-03-20T14:55:03Z</time>
      </trkpt>
      <trkpt lat="57.68299" lon="-6.32509">
        <ele>31.52</ele>
        <time>2021-03-20T14:55:07Z</time>
      </trkpt>
      <trkpt lat="57.68314" lon="-6.32532">
        <ele>32.27</ele>
        <time>2021-03-20T14:55:10Z</time>
      </trkpt>
      <trkpt lat="57.68382" lon="-6.3261">
        <ele>36.32</ele>
        <time>2021-03-20T14:55:13Z</time>
      </trkpt>
      <trkpt lat="57.68395" lon="-6.32627">
        <ele>36.45</ele>
        <time>2021-03-20T14:55:16Z</time>
      </trkpt>
      <trkpt lat="57.68404" lon="-6.32644">
        <ele>36.47</ele>
        <time>2021-03-20T14:55:20Z</time>
      </trkpt>
      <trkpt lat="57.68412" lon="-6.32665">
        <ele>36.54</ele>
        <time>2021-03-20T14:55:23Z</time>
      </trkpt>
      <trkpt lat="57.68417" lon="-6.32691">
        <ele>36.14</ele>
        <time>2021-03-20T14:55:26Z</time>
      </trkpt>
      <trkpt lat="57.68416" lon="-6.32713">
        <ele>35.89</ele>
        <time>2021-03-20T14:55:29Z</time>
      </trkpt>
      <trkpt lat="57.68412" lon="-6.32739">
        <ele>35.56</ele>
        <time>2021-03-20T14:55:32Z</time>
      </trkpt>
      <trkpt lat="57.68393" lon="-6.32794">
        <ele>34.91</ele>
        <time>2021-03-20T14:55:36Z</time>
      </trkpt>
      <trkpt lat="57.68351" lon="-6.32906">
        <ele>38.24</ele>
        <time>2021-03-20T14:55:39Z</time>
      </trkpt>
      <trkpt lat="57.68304" lon="-6.33023">
        <ele>38.94</ele>
        <time>2021-03-20T14:55:42Z</time>
      </trkpt>
      <trkpt lat="57.68294" lon="-6.33054">
        <ele>38.6</ele>
        <time>2021-03-20T14:55:45Z</time>
      </trkpt>
      <trkpt lat="57.68292" lon="-6.33075">
        <ele>38.86</ele>
        <time>2021-03-20T14:55:49Z</time>
      </trkpt>
      <trkpt lat="57.68291" lon="-6.33105">
        <ele>39</ele>
        <time>2021-03-20T14:55:52Z</time>
      </trkpt>
      <trkpt lat="57.68292" lon="-6.33141">
        <ele>39.49</ele>
        <time>2021-03-20T14:55:55Z</time>
      </trkpt>
      <trkpt lat="57.68305" lon="-6.33383">
        <ele>40.17</ele>
        <time>2021-03-20T14:55:58Z</time>
      </trkpt>
      <trkpt lat="57.68305" lon="-6.33425">
        <ele>39.03</ele>
        <time>2021-03-20T14:56:02Z</time>
      </trkpt>
      <trkpt lat="57.68301" lon="-6.33465">
        <ele>37.87</ele>
        <time>2021-03-20T14:56:05Z</time>
      </trkpt>
      <trkpt lat="57.68275" lon="-6.33615">
        <ele>42.03</ele>
        <time>2021-03-20T14:56:08Z</time>
      </trkpt>
      <trkpt lat="57.68255" lon="-6.33831">
        <ele>37.28</ele>
        <time>2021-03-20T14:56:11Z</time>
      </trkpt>
      <trkpt lat="57.68247" lon="-6.33868">
        <ele>36.9</ele>
        <time>2021-03-20T14:56:15Z</time>
      </trkpt>
      <trkpt lat="57.68242" lon="-6.33883">
        <ele>38.08</ele>
        <time>2021-03-20T14:56:18Z</time>
      </trkpt>
      <trkpt lat="57.68231" lon="-6.33904">
        <ele>39.29</ele>
        <time>2021-03-20T14:56:21Z</time>
      </trkpt>
      <trkpt lat="57.68192" lon="-6.33961">
        <ele>42.7</ele>
        <time>2021-03-20T14:56:24Z</time>
      </trkpt>
      <trkpt lat="57.68148" lon="-6.34007">
        <ele>44.07</ele>
        <time>2021-03-20T14:56:27Z</time>
      </trkpt>
      <trkpt lat="57.68139" lon="-6.34023">
        <ele>44.15</ele>
        <time>2021-03-20T14:56:31Z</time>
      </trkpt>
      <trkpt lat="57.68132" lon="-6.34044">
        <ele>43.92</ele>
        <time>2021-03-20T14:56:34Z</time>
      </trkpt>
      <trkpt lat="57.6813" lon="-6.34066">
        <ele>43.26</ele>
        <time>2021-03-20T14:56:37Z</time>
      </trkpt>
      <trkpt lat="57.68132" lon="-6.34098">
        <ele>42.5</ele>
        <time>2021-03-20T14:56:40Z</time>
      </trkpt>
      <trkpt lat="57.68136" lon="-6.34117">
        <ele>42.21</ele>
        <time>2021-03-20T14:56:44Z</time>
      </trkpt>
      <trkpt lat="57.68181" lon="-6.34314">
        <ele>31.06</ele>
        <time>2021-03-20T14:56:47Z</time>
      </trkpt>
      <trkpt lat="57.68196" lon="-6.3437">
        <ele>28.69</ele>
        <time>2021-03-20T14:56:50Z</time>
      </trkpt>
      <trkpt lat="57.68204" lon="-6.34402">
        <ele>27.52</ele>
        <time>2021-03-20T14:56:53Z</time>
      </trkpt>
      <trkpt lat="57.68208" lon="-6.34437">
        <ele>26.62</ele>
        <time>2021-03-20T14:56:57Z</time>
      </trkpt>
      <trkpt lat="57.68207" lon="-6.34459">
        <ele>25.92</ele>
        <time>2021-03-20T14:57:00Z</time>
      </trkpt>
      <trkpt lat="57.68201" lon="-6.34482">
        <ele>24.95</ele>
        <time>2021-03-20T14:57:03Z</time>
      </trkpt>
      <trkpt lat="57.68194" lon="-6.34499">
        <ele>23.97</ele>
        <time>2021-03-20T14:57:06Z</time>
      </trkpt>
      <trkpt lat="57.68183" lon="-6.34513">
        <ele>21.91</ele>
        <time>2021-03-20T14:57:09Z</time>
      </trkpt>
      <trkpt lat="57.68165" lon="-6.34523">
        <ele>18.14</ele>
        <time>2021-03-20T14:57:13Z</time>
      </trkpt>
      <trkpt lat="57.68149" lon="-6.3452">
        <ele>14.92</ele>
        <time>2021-03-20T14:57:16Z</time>
      </trkpt>
      <trkpt lat="57.68138" lon="-6.34514">
        <ele>13.4</ele>
        <time>2021-03-20T14:57:19Z</time>
      </trkpt>
      <trkpt lat="57.68117" lon="-6.34496">
        <ele>12.2</ele>
        <time>2021-03-20T14:57:22Z</time>
      </trkpt>
      <trkpt lat="57.68077" lon="-6.34453">
        <ele>11.38</ele>
        <time>2021-03-20T14:57:26Z</time>
      </trkpt>
      <trkpt lat="57.68055" lon="-6.34439">
        <ele>10.4</ele>
        <time>2021-03-20T14:57:29Z</time>
      </trkpt>
      <trkpt lat="57.68036" lon="-6.34434">
        <ele>10.35</ele>
        <time>2021-03-20T14:57:32Z</time>
      </trkpt>
      <trkpt lat="57.68025" lon="-6.34434">
        <ele>10.18</ele>
        <time>2021-03-20T14:57:35Z</time>
      </trkpt>
      <trkpt lat="57.67901" lon="-6.34505">
        <ele>9.12</ele>
        <time>2021-03-20T14:57:39Z</time>
      </trkpt>
      <trkpt lat="57.67841" lon="-6.34556">
        <ele>7.72</ele>
        <time>2021-03-20T14:57:42Z</time>
      </trkpt>
      <trkpt lat="57.67687" lon="-6.34678">
        <ele>9.79</ele>
        <time>2021-03-20T14:57:45Z</time>
      </trkpt>
      <trkpt lat="57.67577" lon="-6.34798">
        <ele>17.4</ele>
        <time>2021-03-20T14:57:48Z</time>
      </trkpt>
      <trkpt lat="57.67556" lon="-6.34833">
        <ele>17.93</ele>
        <time>2021-03-20T14:57:51Z</time>
      </trkpt>
      <trkpt lat="57.67527" lon="-6.34918">
        <ele>17.1</ele>
        <time>2021-03-20T14:57:55Z</time>
      </trkpt>
      <trkpt lat="57.67507" lon="-6.34984">
        <ele>18.11</ele>
        <time>2021-03-20T14:57:58Z</time>
      </trkpt>
      <trkpt lat="57.67486" lon="-6.35034">
        <ele>19.37</ele>
        <time>2021-03-20T14:58:01Z</time>
      </trkpt>
      <trkpt lat="57.67445" lon="-6.35099">
        <ele>18.31</ele>
        <time>2021-03-20T14:58:04Z</time>
      </trkpt>
      <trkpt lat="57.67351" lon="-6.35235">
        <ele>15.97</ele>
        <time>2021-03-20T14:58:08Z</time>
      </trkpt>
      <trkpt lat="57.67331" lon="-6.35268">
        <ele>13.07</ele>
        <time>2021-03-20T14:58:11Z</time>
      </trkpt>
      <trkpt lat="57.67309" lon="-6.35293">
        <ele>11.47</ele>
        <time>2021-03-20T14:58:14Z</time>
      </trkpt>
      <trkpt lat="57.67281" lon="-6.35306">
        <ele>10.88</ele>
        <time>2021-03-20T14:58:17Z</time>
      </trkpt>
      <trkpt lat="57.67252" lon="-6.35306">
        <ele>10.97</ele>
        <time>2021-03-20T14:58:21Z</time>
      </trkpt>
      <trkpt lat="57.67213" lon="-6.35299">
        <ele>11.74</ele>
        <time>2021-03-20T14:58:24Z</time>
      </trkpt>
      <trkpt lat="57.67128" lon="-6.35291">
        <ele>15.6</ele>
        <time>2021-03-20T14:58:27Z</time>
      </trkpt>
      <trkpt lat="57.67104" lon="-6.35292">
        <ele>16.45</ele>
        <time>2021-03-20T14:58:30Z</time>
      </trkpt>
      <trkpt lat="57.67037" lon="-6.35317">
        <ele>24.1</ele>
        <time>2021-03-20T14:58:34Z</time>
      </trkpt>
      <trkpt lat="57.67003" lon="-6.35348">
        <ele>28.04</ele>
        <time>2021-03-20T14:58:37Z</time>
      </trkpt>
      <trkpt lat="57.66917" lon="-6.35403">
        <ele>36.43</ele>
        <time>2021-03-20T14:58:40Z</time>
      </trkpt>
      <trkpt lat="57.66901" lon="-6.3542">
        <ele>38.74</ele>
        <time>2021-03-20T14:58:43Z</time>
      </trkpt>
      <trkpt lat="57.66884" lon="-6.35441">
        <ele>40.67</ele>
        <time>2021-03-20T14:58:46Z</time>
      </trkpt>
      <trkpt lat="57.6684" lon="-6.35537">
        <ele>38.43</ele>
        <time>2021-03-20T14:58:50Z</time>
      </trkpt>
      <trkpt lat="57.66803" lon="-6.356">
        <ele>42.82</ele>
        <time>2021-03-20T14:58:53Z</time>
      </trkpt>
      <trkpt lat="57.66732" lon="-6.3567">
        <ele>48.09</ele>
        <time>2021-03-20T14:58:56Z</time>
      </trkpt>
      <trkpt lat="57.66627" lon="-6.35785">
        <ele>45.69</ele>
        <time>2021-03-20T14:58:59Z</time>
      </trkpt>
      <trkpt lat="57.66607" lon="-6.35817">
        <ele>48.18</ele>
        <time>2021-03-20T14:59:03Z</time>
      </trkpt>
      <trkpt lat="57.66567" lon="-6.35928">
        <ele>51.74</ele>
        <time>2021-03-20T14:59:06Z</time>
      </trkpt>
      <trkpt lat="57.66549" lon="-6.35962">
        <ele>52.78</ele>
        <time>2021-03-20T14:59:09Z</time>
      </trkpt>
      <trkpt lat="57.66513" lon="-6.3602">
        <ele>53.29</ele>
        <time>2021-03-20T14:59:12Z</time>
      </trkpt>
      <trkpt lat="57.66506" lon="-6.36027">
        <ele>53.96</ele>
        <time>2021-03-20T14:59:16Z</time>
      </trkpt>
      <trkpt lat="57.66487" lon="-6.36034">
        <ele>57.38</ele>
        <time>2021-03-20T14:59:19Z</time>
      </trkpt>
      <trkpt lat="57.6647" lon="-6.36054">
        <ele>59.95</ele>
        <time>2021-03-20T14:59:22Z</time>
      </trkpt>
      <trkpt lat="57.66464" lon="-6.36065">
        <ele>61.28</ele>
        <time>2021-03-20T14:59:25Z</time>
      </trkpt>
      <trkpt lat="57.66457" lon="-6.36082">
        <ele>62.57</ele>
        <time>2021-03-20T14:59:28Z</time>
      </trkpt>
      <trkpt lat="57.66443" lon="-6.36133">
        <ele>64.18</ele>
        <time>2021-03-20T14:59:32Z</time>
      </trkpt>
      <trkpt lat="57.6643" lon="-6.36171">
        <ele>65.61</ele>
        <time>2021-03-20T14:59:35Z</time>
      </trkpt>
      <trkpt lat="57.66391" lon="-6.36254">
        <ele>75.89</ele>
        <time>2021-03-20T14:59:38Z</time>
      </trkpt>
      <trkpt lat="57.66381" lon="-6.3628">
        <ele>75.84</ele>
        <time>2021-03-20T14:59:41Z</time>
      </trkpt>
      <trkpt lat="57.66347" lon="-6.36418">
        <ele>76.84</ele>
        <time>2021-03-20T14:59:45Z</time>
      </trkpt>
      <trkpt lat="57.6634" lon="-6.36457">
        <ele>76.91</ele>
        <time>2021-03-20T14:59:48Z</time>
      </trkpt>
      <trkpt lat="57.66334" lon="-6.3648">
        <ele>78.19</ele>
        <time>2021-03-20T14:59:51Z</time>
      </trkpt>
      <trkpt lat="57.66327" lon="-6.36498">
        <ele>78.54</ele>
        <time>2021-03-20T14:59:54Z</time>
      </trkpt>
      <trkpt lat="57.66283" lon="-6.36586">
        <ele>80.03</ele>
        <time>2021-03-20T14:59:58Z</time>
      </trkpt>
      <trkpt lat="57.66273" lon="-6.36599">
        <ele>80.77</ele>
        <time>2021-03-20T15:00:01Z</time>
      </trkpt>
      <trkpt lat="57.66236" lon="-6.36628">
        <ele>81.26</ele>
        <time>2021-03-20T15:00:04Z</time>
      </trkpt>
      <trkpt lat="57.66211" lon="-6.36664">
        <ele>80.04</ele>
        <time>2021-03-20T15:00:07Z</time>
      </trkpt>
      <trkpt lat="57.66174" lon="-6.36733">
        <ele>80.44</ele>
        <time>2021-03-20T15:00:11Z</time>
      </trkpt>
      <trkpt lat="57.66141" lon="-6.36805">
        <ele>79.92</ele>
        <time>2021-03-20T15:00:14Z</time>
      </trkpt>
      <trkpt lat="57.66083" lon="-6.36955">
        <ele>77.29</ele>
        <time>2021-03-20T15:00:17Z</time>
      </trkpt>
      <trkpt lat="57.66002" lon="-6.37177">
        <ele>73.46</ele>
        <time>2021-03-20T15:00:20Z</time>
      </trkpt>
      <trkpt lat="57.65981" lon="-6.37221">
        <ele>74.36</ele>
        <time>2021-03-20T15:00:23Z</time>
      </trkpt>
      <trkpt lat="57.65927" lon="-6.37309">
        <ele>73.38</ele>
        <time>2021-03-20T15:00:27Z</time>
      </trkpt>
      <trkpt lat="57.65914" lon="-6.37322">
        <ele>73.04</ele>
        <time>2021-03-20T15:00:30Z</time>
      </trkpt>
      <trkpt lat="57.65821" lon="-6.37397">
        <ele>70.41</ele>
        <time>2021-03-20T15:00:33Z</time>
      </trkpt>
      <trkpt lat="57.6578" lon="-6.37441">
        <ele>69.03</ele>
        <time>2021-03-20T15:00:36Z</time>
      </trkpt>
      <trkpt lat="57.65492" lon="-6.37823">
        <ele>62.3</ele>
        <time>2021-03-20T15:00:40Z</time>
      </trkpt>
      <trkpt lat="57.65393" lon="-6.37928">
        <ele>59.4</ele>
        <time>2021-03-20T15:00:43Z</time>
      </trkpt>
      <trkpt lat="57.65346" lon="-6.37974">
        <ele>57.93</ele>
        <time>2021-03-20T15:00:46Z</time>
      </trkpt>
      <trkpt lat="57.65307" lon="-6.37997">
        <ele>57.13</ele>
        <time>2021-03-20T15:00:49Z</time>
      </trkpt>
      <trkpt lat="57.65251" lon="-6.38015">
        <ele>53.96</ele>
        <time>2021-03-20T15:00:53Z</time>
      </trkpt>
      <trkpt lat="57.65193" lon="-6.38021">
        <ele>51.43</ele>
        <time>2021-03-20T15:00:56Z</time>
      </trkpt>
      <trkpt lat="57.64914" lon="-6.38024">
        <ele>49.11</ele>
        <time>2021-03-20T15:00:59Z</time>
      </trkpt>
      <trkpt lat="57.64886" lon="-6.3802">
        <ele>50</ele>
        <time>2021-03-20T15:01:02Z</time>
      </trkpt>
      <trkpt lat="57.64828" lon="-6.38018">
        <ele>50.57</ele>
        <time>2021-03-20T15:01:05Z</time>
      </trkpt>
      <trkpt lat="57.6473" lon="-6.37988">
        <ele>54.72</ele>
        <time>2021-03-20T15:01:09Z</time>
      </trkpt>
      <trkpt lat="57.64697" lon="-6.37974">
        <ele>55.91</ele>
        <time>2021-03-20T15:01:12Z</time>
      </trkpt>
      <trkpt lat="57.64242" lon="-6.37697">
        <ele>63</ele>
        <time>2021-03-20T15:01:15Z</time>
      </trkpt>
      <trkpt lat="57.64192" lon="-6.37675">
        <ele>64.06</ele>
        <time>2021-03-20T15:01:18Z</time>
      </trkpt>
      <trkpt lat="57.64138" lon="-6.37663">
        <ele>66.05</ele>
        <time>2021-03-20T15:01:22Z</time>
      </trkpt>
      <trkpt lat="57.63729" lon="-6.37633">
        <ele>77.36</ele>
        <time>2021-03-20T15:01:25Z</time>
      </trkpt>
      <trkpt lat="57.63673" lon="-6.37635">
        <ele>78.14</ele>
        <time>2021-03-20T15:01:28Z</time>
      </trkpt>
      <trkpt lat="57.63546" lon="-6.37647">
        <ele>79.79</ele>
        <time>2021-03-20T15:01:31Z</time>
      </trkpt>
      <trkpt lat="57.63496" lon="-6.37656">
        <ele>78.79</ele>
        <time>2021-03-20T15:01:35Z</time>
      </trkpt>
      <trkpt lat="57.63407" lon="-6.37684">
        <ele>77.46</ele>
        <time>2021-03-20T15:01:38Z</time>
      </trkpt>
      <trkpt lat="57.63284" lon="-6.37732">
        <ele>75.19</ele>
        <time>2021-03-20T15:01:41Z</time>
      </trkpt>
      <trkpt lat="57.63105" lon="-6.37815">
        <ele>71.29</ele>
        <time>2021-03-20T15:01:44Z</time>
      </trkpt>
      <trkpt lat="57.63026" lon="-6.37848">
        <ele>67.88</ele>
        <time>2021-03-20T15:01:47Z</time>
      </trkpt>
      <trkpt lat="57.62991" lon="-6.37846">
        <ele>66.75</ele>
        <time>2021-03-20T15:01:51Z</time>
      </trkpt>
      <trkpt lat="57.62868" lon="-6.37808">
        <ele>59.15</ele>
        <time>2021-03-20T15:01:54Z</time>
      </trkpt>
      <trkpt lat="57.62723" lon="-6.37768">
        <ele>57.38</ele>
        <time>2021-03-20T15:01:57Z</time>
      </trkpt>
      <trkpt lat="57.62671" lon="-6.37758">
        <ele>60.79</ele>
        <time>2021-03-20T15:02:00Z</time>
      </trkpt>
      <trkpt lat="57.62466" lon="-6.37732">
        <ele>57.84</ele>
        <time>2021-03-20T15:02:04Z</time>
      </trkpt>
      <trkpt lat="57.62412" lon="-6.37734">
        <ele>57.79</ele>
        <time>2021-03-20T15:02:07Z</time>
      </trkpt>
      <trkpt lat="57.62318" lon="-6.37746">
        <ele>58.09</ele>
        <time>2021-03-20T15:02:10Z</time>
      </trkpt>
      <trkpt lat="57.62262" lon="-6.37757">
        <ele>57.49</ele>
        <time>2021-03-20T15:02:13Z</time>
      </trkpt>
      <trkpt lat="57.62199" lon="-6.37767">
        <ele>52.84</ele>
        <time>2021-03-20T15:02:17Z</time>
      </trkpt>
      <trkpt lat="57.62184" lon="-6.37761">
        <ele>51.63</ele>
        <time>2021-03-20T15:02:20Z</time>
      </trkpt>
      <trkpt lat="57.62176" lon="-6.37749">
        <ele>51.05</ele>
        <time>2021-03-20T15:02:23Z</time>
      </trkpt>
      <trkpt lat="57.62168" lon="-6.37723">
        <ele>51.12</ele>
        <time>2021-03-20T15:02:26Z</time>
      </trkpt>
      <trkpt lat="57.62166" lon="-6.37677">
        <ele>51.53</ele>
        <time>2021-03-20T15:02:30Z</time>
      </trkpt>
      <trkpt lat="57.62169" lon="-6.37566">
        <ele>53.15</ele>
        <time>2021-03-20T15:02:33Z</time>
      </trkpt>
      <trkpt lat="57.62161" lon="-6.37519">
        <ele>52.72</ele>
        <time>2021-03-20T15:02:36Z</time>
      </trkpt>
      <trkpt lat="57.62146" lon="-6.37481">
        <ele>52.45</ele>
        <time>2021-03-20T15:02:39Z</time>
      </trkpt>
      <trkpt lat="57.62118" lon="-6.37444">
        <ele>51.48</ele>
        <time>2021-03-20T15:02:42Z</time>
      </trkpt>
      <trkpt lat="57.62068" lon="-6.37387">
        <ele>50.97</ele>
        <time>2021-03-20T15:02:46Z</time>
      </trkpt>
      <trkpt lat="57.62016" lon="-6.37336">
        <ele>49.47</ele>
        <time>2021-03-20T15:02:49Z</time>
      </trkpt>
      <trkpt lat="57.61988" lon="-6.37296">
        <ele>50.33</ele>
        <time>2021-03-20T15:02:52Z</time>
      </trkpt>
      <trkpt lat="57.61977" lon="-6.37284">
        <ele>50.77</ele>
        <time>2021-03-20T15:02:55Z</time>
      </trkpt>
      <trkpt lat="57.61964" lon="-6.37276">
        <ele>51</ele>
        <time>2021-03-20T15:02:59Z</time>
      </trkpt>
      <trkpt lat="57.61854" lon="-6.37218">
        <ele>52.75</ele>
        <time>2021-03-20T15:03:02Z</time>
      </trkpt>
      <trkpt lat="57.61794" lon="-6.372">
        <ele>50.92</ele>
        <time>2021-03-20T15:03:05Z</time>
      </trkpt>
      <trkpt lat="57.61702" lon="-6.37197">
        <ele>50.1</ele>
        <time>2021-03-20T15:03:08Z</time>
      </trkpt>
      <trkpt lat="57.61669" lon="-6.37179">
        <ele>50.26</ele>
        <time>2021-03-20T15:03:12Z</time>
      </trkpt>
      <trkpt lat="57.61617" lon="-6.3714">
        <ele>51.95</ele>
        <time>2021-03-20T15:03:15Z</time>
      </trkpt>
      <trkpt lat="57.6158" lon="-6.37124">
        <ele>53.71</ele>
        <time>2021-03-20T15:03:18Z</time>
      </trkpt>
      <trkpt lat="57.61557" lon="-6.37121">
        <ele>54.93</ele>
        <time>2021-03-20T15:03:21Z</time>
      </trkpt>
      <trkpt lat="57.61534" lon="-6.37123">
        <ele>54.74</ele>
        <time>2021-03-20T15:03:24Z</time>
      </trkpt>
      <trkpt lat="57.61481" lon="-6.37117">
        <ele>57.92</ele>
        <time>2021-03-20T15:03:28Z</time>
      </trkpt>
      <trkpt lat="57.61393" lon="-6.37097">
        <ele>58.53</ele>
        <time>2021-03-20T15:03:31Z</time>
      </trkpt>
      <trkpt lat="57.61339" lon="-6.37092">
        <ele>61.97</ele>
        <time>2021-03-20T15:03:34Z</time>
      </trkpt>
      <trkpt lat="57.61285" lon="-6.37109">
        <ele>64.72</ele>
        <time>2021-03-20T15:03:37Z</time>
      </trkpt>
      <trkpt lat="57.61217" lon="-6.37151">
        <ele>67.85</ele>
        <time>2021-03-20T15:03:41Z</time>
      </trkpt>
      <trkpt lat="57.61146" lon="-6.37254">
        <ele>70.11</ele>
        <time>2021-03-20T15:03:44Z</time>
      </trkpt>
      <trkpt lat="57.61108" lon="-6.37299">
        <ele>72.99</ele>
        <time>2021-03-20T15:03:47Z</time>
      </trkpt>
      <trkpt lat="57.61079" lon="-6.37323">
        <ele>73.43</ele>
        <time>2021-03-20T15:03:50Z</time>
      </trkpt>
      <trkpt lat="57.60994" lon="-6.3737">
        <ele>75.74</ele>
        <time>2021-03-20T15:03:54Z</time>
      </trkpt>
      <trkpt lat="57.60974" lon="-6.37375">
        <ele>77.31</ele>
        <time>2021-03-20T15:03:57Z</time>
      </trkpt>
      <trkpt lat="57.60835" lon="-6.374">
        <ele>82.34</ele>
        <time>2021-03-20T15:04:00Z</time>
      </trkpt>
      <trkpt lat="57.60785" lon="-6.37413">
        <ele>86.41</ele>
        <time>2021-03-20T15:04:03Z</time>
      </trkpt>
      <trkpt lat="57.6069" lon="-6.37474">
        <ele>90.29</ele>
        <time>2021-03-20T15:04:07Z</time>
      </trkpt>
      <trkpt lat="57.60633" lon="-6.37502">
        <ele>94.58</ele>
        <time>2021-03-20T15:04:10Z</time>
      </trkpt>
      <trkpt lat="57.60599" lon="-6.37523">
        <ele>96.61</ele>
        <time>2021-03-20T15:04:13Z</time>
      </trkpt>
      <trkpt lat="57.60531" lon="-6.37599">
        <ele>99.05</ele>
        <time>2021-03-20T15:04:16Z</time>
      </trkpt>
      <trkpt lat="57.60416" lon="-6.37687">
        <ele>104.16</ele>
        <time>2021-03-20T15:04:19Z</time>
      </trkpt>
      <trkpt lat="57.60375" lon="-6.37715">
        <ele>104.17</ele>
        <time>2021-03-20T15:04:23Z</time>
      </trkpt>
      <trkpt lat="57.60312" lon="-6.37749">
        <ele>105.62</ele>
        <time>2021-03-20T15:04:26Z</time>
      </trkpt>
      <trkpt lat="57.60234" lon="-6.37784">
        <ele>107.93</ele>
        <time>2021-03-20T15:04:29Z</time>
      </trkpt>
      <trkpt lat="57.60213" lon="-6.37789">
        <ele>107.88</ele>
        <time>2021-03-20T15:04:32Z</time>
      </trkpt>
      <trkpt lat="57.60206" lon="-6.3779">
        <ele>107.96</ele>
        <time>2021-03-20T15:04:36Z</time>
      </trkpt>
      <trkpt lat="57.60187" lon="-6.37783">
        <ele>108.08</ele>
        <time>2021-03-20T15:04:39Z</time>
      </trkpt>
      <trkpt lat="57.59946" lon="-6.3761">
        <ele>111.13</ele>
        <time>2021-03-20T15:04:42Z</time>
      </trkpt>
      <trkpt lat="57.59893" lon="-6.37591">
        <ele>110.73</ele>
        <time>2021-03-20T15:04:45Z</time>
      </trkpt>
      <trkpt lat="57.59823" lon="-6.37582">
        <ele>110.09</ele>
        <time>2021-03-20T15:04:49Z</time>
      </trkpt>
      <trkpt lat="57.59736" lon="-6.37564">
        <ele>110.54</ele>
        <time>2021-03-20T15:04:52Z</time>
      </trkpt>
      <trkpt lat="57.59696" lon="-6.37541">
        <ele>109.57</ele>
        <time>2021-03-20T15:04:55Z</time>
      </trkpt>
      <trkpt lat="57.59591" lon="-6.37466">
        <ele>107.47</ele>
        <time>2021-03-20T15:04:58Z</time>
      </trkpt>
      <trkpt lat="57.59503" lon="-6.37398">
        <ele>106.8</ele>
        <time>2021-03-20T15:05:01Z</time>
      </trkpt>
      <trkpt lat="57.59427" lon="-6.37333">
        <ele>103.38</ele>
        <time>2021-03-20T15:05:05Z</time>
      </trkpt>
      <trkpt lat="57.59405" lon="-6.37321">
        <ele>101.72</ele>
        <time>2021-03-20T15:05:08Z</time>
      </trkpt>
      <trkpt lat="57.59379" lon="-6.37323">
        <ele>98.82</ele>
        <time>2021-03-20T15:05:11Z</time>
      </trkpt>
      <trkpt lat="57.59356" lon="-6.37332">
        <ele>95.8</ele>
        <time>2021-03-20T15:05:14Z</time>
      </trkpt>
      <trkpt lat="57.59332" lon="-6.37351">
        <ele>91.66</ele>
        <time>2021-03-20T15:05:18Z</time>
      </trkpt>
      <trkpt lat="57.59317" lon="-6.37376">
        <ele>87.5</ele>
        <time>2021-03-20T15:05:21Z</time>
      </trkpt>
      <trkpt lat="57.59305" lon="-6.37403">
        <ele>86.24</ele>
        <time>2021-03-20T15:05:24Z</time>
      </trkpt>
      <trkpt lat="57.59291" lon="-6.37471">
        <ele>88.64</ele>
        <time>2021-03-20T15:05:27Z</time>
      </trkpt>
      <trkpt lat="57.59284" lon="-6.37494">
        <ele>89</ele>
        <time>2021-03-20T15:05:31Z</time>
      </trkpt>
      <trkpt lat="57.59244" lon="-6.3755">
        <ele>83.5</ele>
        <time>2021-03-20T15:05:34Z</time>
      </trkpt>
      <trkpt lat="57.59223" lon="-6.37589">
        <ele>81.45</ele>
        <time>2021-03-20T15:05:37Z</time>
      </trkpt>
      <trkpt lat="57.59173" lon="-6.37701">
        <ele>79.14</ele>
        <time>2021-03-20T15:05:40Z</time>
      </trkpt>
      <trkpt lat="57.59138" lon="-6.37769">
        <ele>75.34</ele>
        <time>2021-03-20T15:05:44Z</time>
      </trkpt>
      <trkpt lat="57.59082" lon="-6.37895">
        <ele>82.71</ele>
        <time>2021-03-20T15:05:47Z</time>
      </trkpt>
      <trkpt lat="57.59061" lon="-6.37938">
        <ele>81.76</ele>
        <time>2021-03-20T15:05:50Z</time>
      </trkpt>
      <trkpt lat="57.59052" lon="-6.37949">
        <ele>80.33</ele>
        <time>2021-03-20T15:05:53Z</time>
      </trkpt>
      <trkpt lat="57.59049" lon="-6.37945">
        <ele>78.18</ele>
        <time>2021-03-20T15:05:56Z</time>
      </trkpt>
      <trkpt lat="57.59049" lon="-6.37936">
        <ele>76.52</ele>
        <time>2021-03-20T15:06:00Z</time>
      </trkpt>
      <trkpt lat="57.59053" lon="-6.37919">
        <ele>75</ele>
        <time>2021-03-20T15:06:03Z</time>
      </trkpt>
      <trkpt lat="57.59096" lon="-6.37819">
        <ele>71.57</ele>
        <time>2021-03-20T15:06:06Z</time>
      </trkpt>
      <trkpt lat="57.59155" lon="-6.3765">
        <ele>63.02</ele>
        <time>2021-03-20T15:06:09Z</time>
      </trkpt>
      <trkpt lat="57.59201" lon="-6.37497">
        <ele>58.05</ele>
        <time>2021-03-20T15:06:13Z</time>
      </trkpt>
      <trkpt lat="57.59214" lon="-6.37447">
        <ele>55.53</ele>
        <time>2021-03-20T15:06:16Z</time>
      </trkpt>
      <trkpt lat="57.59227" lon="-6.37366">
        <ele>54.59</ele>
        <time>2021-03-20T15:06:19Z</time>
      </trkpt>
      <trkpt lat="57.59233" lon="-6.37308">
        <ele>53.54</ele>
        <time>2021-03-20T15:06:22Z</time>
      </trkpt>
      <trkpt lat="57.59233" lon="-6.37252">
        <ele>51.09</ele>
        <time>2021-03-20T15:06:26Z</time>
      </trkpt>
      <trkpt lat="57.59232" lon="-6.37187">
        <ele>47.7</ele>
        <time>2021-03-20T15:06:29Z</time>
      </trkpt>
      <trkpt lat="57.59228" lon="-6.37141">
        <ele>45.66</ele>
        <time>2021-03-20T15:06:32Z</time>
      </trkpt>
      <trkpt lat="57.59214" lon="-6.37042">
        <ele>43.69</ele>
        <time>2021-03-20T15:06:35Z</time>
      </trkpt>
      <trkpt lat="57.59212" lon="-6.37018">
        <ele>43.21</ele>
        <time>2021-03-20T15:06:38Z</time>
      </trkpt>
      <trkpt lat="57.59212" lon="-6.36956">
        <ele>43.53</ele>
        <time>2021-03-20T15:06:42Z</time>
      </trkpt>
      <trkpt lat="57.59207" lon="-6.36872">
        <ele>40.49</ele>
        <time>2021-03-20T15:06:45Z</time>
      </trkpt>
      <trkpt lat="57.59189" lon="-6.36729">
        <ele>34.77</ele>
        <time>2021-03-20T15:06:48Z</time>
      </trkpt>
      <trkpt lat="57.59187" lon="-6.36684">
        <ele>32.41</ele>
        <time>2021-03-20T15:06:51Z</time>
      </trkpt>
      <trkpt lat="57.59189" lon="-6.36625">
        <ele>31.85</ele>
        <time>2021-03-20T15:06:55Z</time>
      </trkpt>
      <trkpt lat="57.59195" lon="-6.36538">
        <ele>29.37</ele>
        <time>2021-03-20T15:06:58Z</time>
      </trkpt>
      <trkpt lat="57.59201" lon="-6.36478">
        <ele>29.06</ele>
        <time>2021-03-20T15:07:01Z</time>
      </trkpt>
      <trkpt lat="57.5921" lon="-6.36417">
        <ele>29.33</ele>
        <time>2021-03-20T15:07:04Z</time>
      </trkpt>
      <trkpt lat="57.59215" lon="-6.36316">
        <ele>26.98</ele>
        <time>2021-03-20T15:07:08Z</time>
      </trkpt>
      <trkpt lat="57.59223" lon="-6.36237">
        <ele>22.9</ele>
        <time>2021-03-20T15:07:11Z</time>
      </trkpt>
      <trkpt lat="57.59232" lon="-6.36187">
        <ele>22.42</ele>
        <time>2021-03-20T15:07:14Z</time>
      </trkpt>
      <trkpt lat="57.59235" lon="-6.36147">
        <ele>22.51</ele>
        <time>2021-03-20T15:07:17Z</time>
      </trkpt>
      <trkpt lat="57.59234" lon="-6.36109">
        <ele>23.64</ele>
        <time>2021-03-20T15:07:20Z</time>
      </trkpt>
      <trkpt lat="57.59215" lon="-6.359">
        <ele>24.4</ele>
        <time>2021-03-20T15:07:24Z</time>
      </trkpt>
      <trkpt lat="57.59197" lon="-6.35899">
        <ele>21.47</ele>
        <time>2021-03-20T15:07:26Z</time>
      </trkpt>
      <trkpt lat="57.59193" lon="-6.35941">
        <ele>20.77</ele>
        <time>2021-03-20T15:07:33Z</time>
      </trkpt>
      <trkpt lat="57.5917" lon="-6.36074">
        <ele>18.96</ele>
        <time>2021-03-20T15:07:39Z</time>
      </trkpt>
      <trkpt lat="57.5917" lon="-6.36074">
        <ele>18.96</ele>
        <time>2021-03-20T15:07:39Z</time>
      </trkpt>
      <trkpt lat="57.59141" lon="-6.36247">
        <ele>11.33</ele>
        <time>2021-03-20T15:07:47Z</time>
      </trkpt>
      <trkpt lat="57.59123" lon="-6.36443">
        <ele>12.15</ele>
        <time>2021-03-20T15:07:54Z</time>
      </trkpt>
      <trkpt lat="57.59117" lon="-6.366">
        <ele>14.97</ele>
        <time>2021-03-20T15:08:02Z</time>
      </trkpt>
      <trkpt lat="57.59109" lon="-6.3675">
        <ele>13.55</ele>
        <time>2021-03-20T15:08:10Z</time>
      </trkpt>
      <trkpt lat="57.59098" lon="-6.36846">
        <ele>11.89</ele>
        <time>2021-03-20T15:08:17Z</time>
      </trkpt>
      <trkpt lat="57.59089" lon="-6.36909">
        <ele>11.52</ele>
        <time>2021-03-20T15:08:25Z</time>
      </trkpt>
      <trkpt lat="57.59078" lon="-6.3697">
        <ele>11.09</ele>
        <time>2021-03-20T15:08:33Z</time>
      </trkpt>
      <trkpt lat="57.59043" lon="-6.37101">
        <ele>8.81</ele>
        <time>2021-03-20T15:08:40Z</time>
      </trkpt>
      <trkpt lat="57.58997" lon="-6.37231">
        <ele>7.38</ele>
        <time>2021-03-20T15:08:48Z</time>
      </trkpt>
      <trkpt lat="57.58962" lon="-6.37312">
        <ele>7.99</ele>
        <time>2021-03-20T15:08:56Z</time>
      </trkpt>
      <trkpt lat="57.58918" lon="-6.37402">
        <ele>9.04</ele>
        <time>2021-03-20T15:09:03Z</time>
      </trkpt>
      <trkpt lat="57.58889" lon="-6.37454">
        <ele>7.26</ele>
        <time>2021-03-20T15:09:11Z</time>
      </trkpt>
      <trkpt lat="57.58889" lon="-6.37454">
        <ele>7.26</ele>
        <time>2021-03-20T15:09:11Z</time>
      </trkpt>
      <trkpt lat="57.58842" lon="-6.37521">
        <ele>8.12</ele>
        <time>2021-03-20T15:09:18Z</time>
      </trkpt>
      <trkpt lat="57.58808" lon="-6.37558">
        <ele>5.59</ele>
        <time>2021-03-20T15:09:26Z</time>
      </trkpt>
      <trkpt lat="57.58759" lon="-6.37613">
        <ele>6.35</ele>
        <time>2021-03-20T15:09:33Z</time>
      </trkpt>
      <trkpt lat="57.58683" lon="-6.37675">
        <ele>5.29</ele>
        <time>2021-03-20T15:09:41Z</time>
      </trkpt>
      <trkpt lat="57.58661" lon="-6.37687">
        <ele>5.58</ele>
        <time>2021-03-20T15:09:48Z</time>
      </trkpt>
      <trkpt lat="57.58649" lon="-6.37682">
        <ele>5.18</ele>
        <time>2021-03-20T15:09:56Z</time>
      </trkpt>
      <trkpt lat="57.5864" lon="-6.37664">
        <ele>4.9</ele>
        <time>2021-03-20T15:10:03Z</time>
      </trkpt>
      <trkpt lat="57.58636" lon="-6.37633">
        <ele>3.77</ele>
        <time>2021-03-20T15:10:11Z</time>
      </trkpt>
      <trkpt lat="57.58628" lon="-6.37574">
        <ele>2.87</ele>
        <time>2021-03-20T15:10:18Z</time>
      </trkpt>
      <trkpt lat="57.58602" lon="-6.37416">
        <ele>1</ele>
        <time>2021-03-20T15:10:26Z</time>
      </trkpt>
      <trkpt lat="57.586" lon="-6.37361">
        <ele>1</ele>
        <time>2021-03-20T15:10:33Z</time>
      </trkpt>
      <trkpt lat="57.58582" lon="-6.37238">
        <ele>1</ele>
        <time>2021-03-20T15:10:41Z</time>
      </trkpt>
      <trkpt lat="57.58568" lon="-6.37185">
        <ele>9.9</ele>
        <time>2021-03-20T15:10:48Z</time>
      </trkpt>
      <trkpt lat="57.58525" lon="-6.3718">
        <ele>6.88</ele>
        <time>2021-03-20T15:10:56Z</time>
      </trkpt>
      <trkpt lat="57.58518" lon="-6.37179">
        <ele>6.87</ele>
        <time>2021-03-20T15:16:06Z</time>
      </trkpt>
      <trkpt lat="57.58455" lon="-6.37124">
        <ele>6.87</ele>
        <time>2021-03-20T15:21:17Z</time>
      </trkpt>
      <trkpt lat="57.58369" lon="-6.37122">
        <ele>6.86</ele>
        <time>2021-03-20T15:26:27Z</time>
      </trkpt>
      <trkpt lat="57.58221" lon="-6.37204">
        <ele>6.85</ele>
        <time>2021-03-20T15:31:38Z</time>
      </trkpt>
      <trkpt lat="57.58142" lon="-6.37504">
        <ele>6.83</ele>
        <time>2021-03-20T15:36:48Z</time>
      </trkpt>
      <trkpt lat="57.581" lon="-6.38242">
        <ele>6.78</ele>
        <time>2021-03-20T15:41:58Z</time>
      </trkpt>
      <trkpt lat="57.58099" lon="-6.38881">
        <ele>6.74</ele>
        <time>2021-03-20T15:47:09Z</time>
      </trkpt>
      <trkpt lat="57.58265" lon="-6.40397">
        <ele>6.62</ele>
        <time>2021-03-20T15:52:19Z</time>
      </trkpt>
      <trkpt lat="57.5829" lon="-6.40513">
        <ele>6.61</ele>
        <time>2021-03-20T15:57:30Z</time>
      </trkpt>
      <trkpt lat="57.58326" lon="-6.40578">
        <ele>6.61</ele>
        <time>2021-03-20T16:02:40Z</time>
      </trkpt>
      <trkpt lat="57.62407" lon="-6.46096">
        <ele>6.1</ele>
        <time>2021-03-20T16:07:51Z</time>
      </trkpt>
      <trkpt lat="57.70426" lon="-6.55583">
        <ele>5.11</ele>
        <time>2021-03-20T16:13:01Z</time>
      </trkpt>
      <trkpt lat="57.75585" lon="-6.61535">
        <ele>4.48</ele>
        <time>2021-03-20T16:18:12Z</time>
      </trkpt>
      <trkpt lat="57.81642" lon="-6.68622">
        <ele>3.73</ele>
        <time>2021-03-20T16:23:22Z</time>
      </trkpt>
      <trkpt lat="57.85109" lon="-6.7256">
        <ele>3.31</ele>
        <time>2021-03-20T16:28:33Z</time>
      </trkpt>
      <trkpt lat="57.85938" lon="-6.74085">
        <ele>3.17</ele>
        <time>2021-03-20T16:33:43Z</time>
      </trkpt>
      <trkpt lat="57.87" lon="-6.75664">
        <ele>3.02</ele>
        <time>2021-03-20T16:38:54Z</time>
      </trkpt>
      <trkpt lat="57.87227" lon="-6.75932">
        <ele>2.99</ele>
        <time>2021-03-20T16:44:04Z</time>
      </trkpt>
      <trkpt lat="57.87475" lon="-6.76043">
        <ele>2.98</ele>
        <time>2021-03-20T16:49:14Z</time>
      </trkpt>
      <trkpt lat="57.88031" lon="-6.76067">
        <ele>2.95</ele>
        <time>2021-03-20T16:54:25Z</time>
      </trkpt>
      <trkpt lat="57.8834" lon="-6.76139">
        <ele>2.94</ele>
        <time>2021-03-20T16:59:35Z</time>
      </trkpt>
      <trkpt lat="57.88488" lon="-6.76222">
        <ele>2.93</ele>
        <time>2021-03-20T17:04:46Z</time>
      </trkpt>
      <trkpt lat="57.88628" lon="-6.76409">
        <ele>2.91</ele>
        <time>2021-03-20T17:09:56Z</time>
      </trkpt>
      <trkpt lat="57.89231" lon="-6.78351">
        <ele>2.75</ele>
        <time>2021-03-20T17:15:07Z</time>
      </trkpt>
      <trkpt lat="57.89463" lon="-6.79302">
        <ele>2.67</ele>
        <time>2021-03-20T17:20:17Z</time>
      </trkpt>
      <trkpt lat="57.89549" lon="-6.79545">
        <ele>2.65</ele>
        <time>2021-03-20T17:25:28Z</time>
      </trkpt>
      <trkpt lat="57.89705" lon="-6.79935">
        <ele>2.61</ele>
        <time>2021-03-20T17:30:38Z</time>
      </trkpt>
      <trkpt lat="57.89726" lon="-6.79989">
        <ele>2.37</ele>
        <time>2021-03-20T17:35:49Z</time>
      </trkpt>
      <trkpt lat="57.89736" lon="-6.79998">
        <ele>3.45</ele>
        <time>2021-03-20T17:40:59Z</time>
      </trkpt>
      <trkpt lat="57.89768" lon="-6.80008">
        <ele>7.66</ele>
        <time>2021-03-20T17:46:10Z</time>
      </trkpt>
      <trkpt lat="57.89767" lon="-6.80104">
        <ele>8.51</ele>
        <time>2021-03-20T17:46:14Z</time>
      </trkpt>
      <trkpt lat="57.89775" lon="-6.80205">
        <ele>7.36</ele>
        <time>2021-03-20T17:46:18Z</time>
      </trkpt>
      <trkpt lat="57.898" lon="-6.80337">
        <ele>7.01</ele>
        <time>2021-03-20T17:46:22Z</time>
      </trkpt>
      <trkpt lat="57.89802" lon="-6.80364">
        <ele>6.47</ele>
        <time>2021-03-20T17:46:26Z</time>
      </trkpt>
      <trkpt lat="57.89805" lon="-6.8045">
        <ele>5.75</ele>
        <time>2021-03-20T17:46:30Z</time>
      </trkpt>
      <trkpt lat="57.89809" lon="-6.80476">
        <ele>5.52</ele>
        <time>2021-03-20T17:46:34Z</time>
      </trkpt>
      <trkpt lat="57.89816" lon="-6.80498">
        <ele>6.52</ele>
        <time>2021-03-20T17:46:38Z</time>
      </trkpt>
      <trkpt lat="57.89822" lon="-6.80507">
        <ele>7.28</ele>
        <time>2021-03-20T17:46:43Z</time>
      </trkpt>
      <trkpt lat="57.89828" lon="-6.80508">
        <ele>8.04</ele>
        <time>2021-03-20T17:46:47Z</time>
      </trkpt>
      <trkpt lat="57.89833" lon="-6.80533">
        <ele>7.8</ele>
        <time>2021-03-20T17:46:48Z</time>
      </trkpt>
      <trkpt lat="57.89835" lon="-6.80558">
        <ele>7.22</ele>
        <time>2021-03-20T17:46:49Z</time>
      </trkpt>
      <trkpt lat="57.89834" lon="-6.80569">
        <ele>7.11</ele>
        <time>2021-03-20T17:46:50Z</time>
      </trkpt>
      <trkpt lat="57.89831" lon="-6.8058">
        <ele>7.05</ele>
        <time>2021-03-20T17:46:52Z</time>
      </trkpt>
      <trkpt lat="57.89826" lon="-6.80591">
        <ele>7.4</ele>
        <time>2021-03-20T17:46:53Z</time>
      </trkpt>
      <trkpt lat="57.8982" lon="-6.806">
        <ele>8.07</ele>
        <time>2021-03-20T17:46:54Z</time>
      </trkpt>
      <trkpt lat="57.89814" lon="-6.80613">
        <ele>9.35</ele>
        <time>2021-03-20T17:46:55Z</time>
      </trkpt>
      <trkpt lat="57.8983" lon="-6.80661">
        <ele>11.58</ele>
        <time>2021-03-20T17:46:59Z</time>
      </trkpt>
      <trkpt lat="57.8983" lon="-6.80661">
        <ele>11.58</ele>
        <time>2021-03-20T17:46:59Z</time>
      </trkpt>
      <trkpt lat="57.89843" lon="-6.80703">
        <ele>13.82</ele>
        <time>2021-03-20T17:47:04Z</time>
      </trkpt>
      <trkpt lat="57.89884" lon="-6.80845">
        <ele>18.77</ele>
        <time>2021-03-20T17:47:08Z</time>
      </trkpt>
      <trkpt lat="57.89897" lon="-6.80881">
        <ele>19.49</ele>
        <time>2021-03-20T17:47:13Z</time>
      </trkpt>
      <trkpt lat="57.89975" lon="-6.81026">
        <ele>10.14</ele>
        <time>2021-03-20T17:47:17Z</time>
      </trkpt>
      <trkpt lat="57.90053" lon="-6.81182">
        <ele>6.34</ele>
        <time>2021-03-20T17:47:22Z</time>
      </trkpt>
      <trkpt lat="57.9007" lon="-6.81221">
        <ele>7.58</ele>
        <time>2021-03-20T17:47:26Z</time>
      </trkpt>
      <trkpt lat="57.90111" lon="-6.81329">
        <ele>8.18</ele>
        <time>2021-03-20T17:47:31Z</time>
      </trkpt>
      <trkpt lat="57.90123" lon="-6.81353">
        <ele>7.68</ele>
        <time>2021-03-20T17:47:35Z</time>
      </trkpt>
      <trkpt lat="57.90209" lon="-6.81499">
        <ele>7.62</ele>
        <time>2021-03-20T17:47:40Z</time>
      </trkpt>
      <trkpt lat="57.90252" lon="-6.8157">
        <ele>8.27</ele>
        <time>2021-03-20T17:47:44Z</time>
      </trkpt>
      <trkpt lat="57.90261" lon="-6.81591">
        <ele>8.52</ele>
        <time>2021-03-20T17:47:49Z</time>
      </trkpt>
      <trkpt lat="57.90269" lon="-6.81618">
        <ele>8.33</ele>
        <time>2021-03-20T17:47:53Z</time>
      </trkpt>
      <trkpt lat="57.90344" lon="-6.81915">
        <ele>8.39</ele>
        <time>2021-03-20T17:47:58Z</time>
      </trkpt>
      <trkpt lat="57.9036" lon="-6.81969">
        <ele>10.86</ele>
        <time>2021-03-20T17:48:02Z</time>
      </trkpt>
      <trkpt lat="57.90375" lon="-6.82005">
        <ele>12.1</ele>
        <time>2021-03-20T17:48:06Z</time>
      </trkpt>
      <trkpt lat="57.90422" lon="-6.82089">
        <ele>14.57</ele>
        <time>2021-03-20T17:48:11Z</time>
      </trkpt>
      <trkpt lat="57.90439" lon="-6.82129">
        <ele>14.84</ele>
        <time>2021-03-20T17:48:15Z</time>
      </trkpt>
      <trkpt lat="57.90462" lon="-6.822">
        <ele>14.26</ele>
        <time>2021-03-20T17:48:20Z</time>
      </trkpt>
      <trkpt lat="57.9053" lon="-6.82421">
        <ele>17.19</ele>
        <time>2021-03-20T17:48:24Z</time>
      </trkpt>
      <trkpt lat="57.90583" lon="-6.82562">
        <ele>17.7</ele>
        <time>2021-03-20T17:48:29Z</time>
      </trkpt>
      <trkpt lat="57.90607" lon="-6.82636">
        <ele>18.44</ele>
        <time>2021-03-20T17:48:33Z</time>
      </trkpt>
      <trkpt lat="57.90639" lon="-6.82761">
        <ele>18.4</ele>
        <time>2021-03-20T17:48:38Z</time>
      </trkpt>
      <trkpt lat="57.9066" lon="-6.82862">
        <ele>17.11</ele>
        <time>2021-03-20T17:48:42Z</time>
      </trkpt>
      <trkpt lat="57.907" lon="-6.83121">
        <ele>16.61</ele>
        <time>2021-03-20T17:48:47Z</time>
      </trkpt>
      <trkpt lat="57.90713" lon="-6.83197">
        <ele>16.31</ele>
        <time>2021-03-20T17:48:51Z</time>
      </trkpt>
      <trkpt lat="57.9073" lon="-6.83254">
        <ele>15.97</ele>
        <time>2021-03-20T17:48:56Z</time>
      </trkpt>
      <trkpt lat="57.90799" lon="-6.83427">
        <ele>15.08</ele>
        <time>2021-03-20T17:49:00Z</time>
      </trkpt>
      <trkpt lat="57.90826" lon="-6.8351">
        <ele>12.63</ele>
        <time>2021-03-20T17:49:05Z</time>
      </trkpt>
      <trkpt lat="57.9085" lon="-6.83568">
        <ele>11.08</ele>
        <time>2021-03-20T17:49:09Z</time>
      </trkpt>
      <trkpt lat="57.90892" lon="-6.83642">
        <ele>10.91</ele>
        <time>2021-03-20T17:49:14Z</time>
      </trkpt>
      <trkpt lat="57.90908" lon="-6.83686">
        <ele>12.4</ele>
        <time>2021-03-20T17:49:18Z</time>
      </trkpt>
      <trkpt lat="57.90953" lon="-6.83877">
        <ele>11.15</ele>
        <time>2021-03-20T17:49:23Z</time>
      </trkpt>
      <trkpt lat="57.91012" lon="-6.84098">
        <ele>13.15</ele>
        <time>2021-03-20T17:49:27Z</time>
      </trkpt>
      <trkpt lat="57.91041" lon="-6.84174">
        <ele>13.47</ele>
        <time>2021-03-20T17:49:32Z</time>
      </trkpt>
      <trkpt lat="57.91053" lon="-6.84202">
        <ele>14.23</ele>
        <time>2021-03-20T17:49:36Z</time>
      </trkpt>
      <trkpt lat="57.91076" lon="-6.84245">
        <ele>15.86</ele>
        <time>2021-03-20T17:49:41Z</time>
      </trkpt>
      <trkpt lat="57.91142" lon="-6.84347">
        <ele>18.19</ele>
        <time>2021-03-20T17:49:45Z</time>
      </trkpt>
      <trkpt lat="57.91184" lon="-6.84406">
        <ele>21.36</ele>
        <time>2021-03-20T17:49:50Z</time>
      </trkpt>
      <trkpt lat="57.9122" lon="-6.84445">
        <ele>23.36</ele>
        <time>2021-03-20T17:49:54Z</time>
      </trkpt>
      <trkpt lat="57.91284" lon="-6.84507">
        <ele>21.88</ele>
        <time>2021-03-20T17:49:59Z</time>
      </trkpt>
      <trkpt lat="57.91366" lon="-6.84612">
        <ele>26</ele>
        <time>2021-03-20T17:50:03Z</time>
      </trkpt>
      <trkpt lat="57.91417" lon="-6.84666">
        <ele>26.16</ele>
        <time>2021-03-20T17:50:08Z</time>
      </trkpt>
      <trkpt lat="57.91545" lon="-6.84784">
        <ele>33.4</ele>
        <time>2021-03-20T17:50:12Z</time>
      </trkpt>
      <trkpt lat="57.91663" lon="-6.84904">
        <ele>43.64</ele>
        <time>2021-03-20T17:50:17Z</time>
      </trkpt>
      <trkpt lat="57.9168" lon="-6.84919">
        <ele>45.46</ele>
        <time>2021-03-20T17:50:21Z</time>
      </trkpt>
      <trkpt lat="57.91709" lon="-6.84938">
        <ele>48.16</ele>
        <time>2021-03-20T17:50:26Z</time>
      </trkpt>
      <trkpt lat="57.91734" lon="-6.84954">
        <ele>49.1</ele>
        <time>2021-03-20T17:50:30Z</time>
      </trkpt>
      <trkpt lat="57.9176" lon="-6.84962">
        <ele>49.51</ele>
        <time>2021-03-20T17:50:35Z</time>
      </trkpt>
      <trkpt lat="57.9188" lon="-6.84976">
        <ele>48.64</ele>
        <time>2021-03-20T17:50:39Z</time>
      </trkpt>
      <trkpt lat="57.91929" lon="-6.84978">
        <ele>46.9</ele>
        <time>2021-03-20T17:50:44Z</time>
      </trkpt>
      <trkpt lat="57.91972" lon="-6.84977">
        <ele>44.32</ele>
        <time>2021-03-20T17:50:48Z</time>
      </trkpt>
      <trkpt lat="57.92005" lon="-6.84967">
        <ele>43.52</ele>
        <time>2021-03-20T17:50:52Z</time>
      </trkpt>
      <trkpt lat="57.92049" lon="-6.84947">
        <ele>41.73</ele>
        <time>2021-03-20T17:50:57Z</time>
      </trkpt>
      <trkpt lat="57.92091" lon="-6.84915">
        <ele>39.33</ele>
        <time>2021-03-20T17:51:01Z</time>
      </trkpt>
      <trkpt lat="57.92241" lon="-6.84763">
        <ele>36.72</ele>
        <time>2021-03-20T17:51:06Z</time>
      </trkpt>
      <trkpt lat="57.92268" lon="-6.84741">
        <ele>36.15</ele>
        <time>2021-03-20T17:51:10Z</time>
      </trkpt>
      <trkpt lat="57.92298" lon="-6.84722">
        <ele>34.96</ele>
        <time>2021-03-20T17:51:15Z</time>
      </trkpt>
      <trkpt lat="57.92327" lon="-6.84709">
        <ele>34.42</ele>
        <time>2021-03-20T17:51:19Z</time>
      </trkpt>
      <trkpt lat="57.92386" lon="-6.84691">
        <ele>35.38</ele>
        <time>2021-03-20T17:51:24Z</time>
      </trkpt>
      <trkpt lat="57.92416" lon="-6.8469">
        <ele>34.48</ele>
        <time>2021-03-20T17:51:28Z</time>
      </trkpt>
      <trkpt lat="57.9244" lon="-6.84693">
        <ele>34.09</ele>
        <time>2021-03-20T17:51:33Z</time>
      </trkpt>
      <trkpt lat="57.92454" lon="-6.84691">
        <ele>33.89</ele>
        <time>2021-03-20T17:51:37Z</time>
      </trkpt>
      <trkpt lat="57.92493" lon="-6.84671">
        <ele>32.42</ele>
        <time>2021-03-20T17:51:42Z</time>
      </trkpt>
      <trkpt lat="57.9251" lon="-6.84658">
        <ele>30.72</ele>
        <time>2021-03-20T17:51:46Z</time>
      </trkpt>
      <trkpt lat="57.92555" lon="-6.84587">
        <ele>28.76</ele>
        <time>2021-03-20T17:51:51Z</time>
      </trkpt>
      <trkpt lat="57.92618" lon="-6.84463">
        <ele>24.03</ele>
        <time>2021-03-20T17:51:55Z</time>
      </trkpt>
      <trkpt lat="57.92644" lon="-6.84396">
        <ele>22.52</ele>
        <time>2021-03-20T17:52:00Z</time>
      </trkpt>
      <trkpt lat="57.92664" lon="-6.84318">
        <ele>22.3</ele>
        <time>2021-03-20T17:52:04Z</time>
      </trkpt>
      <trkpt lat="57.9272" lon="-6.84031">
        <ele>19.54</ele>
        <time>2021-03-20T17:52:09Z</time>
      </trkpt>
      <trkpt lat="57.92729" lon="-6.83977">
        <ele>18.93</ele>
        <time>2021-03-20T17:52:13Z</time>
      </trkpt>
      <trkpt lat="57.92759" lon="-6.83698">
        <ele>22.58</ele>
        <time>2021-03-20T17:52:18Z</time>
      </trkpt>
      <trkpt lat="57.92767" lon="-6.8365">
        <ele>23.38</ele>
        <time>2021-03-20T17:52:22Z</time>
      </trkpt>
      <trkpt lat="57.92782" lon="-6.83573">
        <ele>24.39</ele>
        <time>2021-03-20T17:52:27Z</time>
      </trkpt>
      <trkpt lat="57.92809" lon="-6.83487">
        <ele>31.48</ele>
        <time>2021-03-20T17:52:31Z</time>
      </trkpt>
      <trkpt lat="57.92845" lon="-6.83406">
        <ele>41.59</ele>
        <time>2021-03-20T17:52:36Z</time>
      </trkpt>
      <trkpt lat="57.92892" lon="-6.83335">
        <ele>49.98</ele>
        <time>2021-03-20T17:52:40Z</time>
      </trkpt>
      <trkpt lat="57.93078" lon="-6.83107">
        <ele>75.47</ele>
        <time>2021-03-20T17:52:45Z</time>
      </trkpt>
      <trkpt lat="57.9313" lon="-6.83052">
        <ele>82.15</ele>
        <time>2021-03-20T17:52:49Z</time>
      </trkpt>
      <trkpt lat="57.93176" lon="-6.8301">
        <ele>86.06</ele>
        <time>2021-03-20T17:52:54Z</time>
      </trkpt>
      <trkpt lat="57.93216" lon="-6.82986">
        <ele>89.07</ele>
        <time>2021-03-20T17:52:58Z</time>
      </trkpt>
      <trkpt lat="57.93243" lon="-6.82978">
        <ele>90.97</ele>
        <time>2021-03-20T17:53:03Z</time>
      </trkpt>
      <trkpt lat="57.93265" lon="-6.82975">
        <ele>92.71</ele>
        <time>2021-03-20T17:53:07Z</time>
      </trkpt>
      <trkpt lat="57.93331" lon="-6.82989">
        <ele>95.38</ele>
        <time>2021-03-20T17:53:12Z</time>
      </trkpt>
      <trkpt lat="57.93525" lon="-6.82958">
        <ele>116.5</ele>
        <time>2021-03-20T17:53:16Z</time>
      </trkpt>
      <trkpt lat="57.93554" lon="-6.82945">
        <ele>120.83</ele>
        <time>2021-03-20T17:53:21Z</time>
      </trkpt>
      <trkpt lat="57.93578" lon="-6.82925">
        <ele>124.47</ele>
        <time>2021-03-20T17:53:25Z</time>
      </trkpt>
      <trkpt lat="57.93666" lon="-6.82813">
        <ele>133.18</ele>
        <time>2021-03-20T17:53:29Z</time>
      </trkpt>
      <trkpt lat="57.93726" lon="-6.82732">
        <ele>140.84</ele>
        <time>2021-03-20T17:53:34Z</time>
      </trkpt>
      <trkpt lat="57.93726" lon="-6.82732">
        <ele>140.84</ele>
        <time>2021-03-20T17:53:34Z</time>
      </trkpt>
      <trkpt lat="57.93881" lon="-6.82514">
        <ele>143.29</ele>
        <time>2021-03-20T17:53:37Z</time>
      </trkpt>
      <trkpt lat="57.93913" lon="-6.82466">
        <ele>145.5</ele>
        <time>2021-03-20T17:53:40Z</time>
      </trkpt>
      <trkpt lat="57.93943" lon="-6.82412">
        <ele>146.58</ele>
        <time>2021-03-20T17:53:44Z</time>
      </trkpt>
      <trkpt lat="57.93962" lon="-6.82373">
        <ele>147.56</ele>
        <time>2021-03-20T17:53:47Z</time>
      </trkpt>
      <trkpt lat="57.93998" lon="-6.82283">
        <ele>148.91</ele>
        <time>2021-03-20T17:53:50Z</time>
      </trkpt>
      <trkpt lat="57.94076" lon="-6.82024">
        <ele>151.65</ele>
        <time>2021-03-20T17:53:53Z</time>
      </trkpt>
      <trkpt lat="57.94095" lon="-6.8197">
        <ele>151.29</ele>
        <time>2021-03-20T17:53:56Z</time>
      </trkpt>
      <trkpt lat="57.94125" lon="-6.81899">
        <ele>150.99</ele>
        <time>2021-03-20T17:54:00Z</time>
      </trkpt>
      <trkpt lat="57.9414" lon="-6.81866">
        <ele>151.46</ele>
        <time>2021-03-20T17:54:03Z</time>
      </trkpt>
      <trkpt lat="57.94159" lon="-6.81832">
        <ele>152.67</ele>
        <time>2021-03-20T17:54:06Z</time>
      </trkpt>
      <trkpt lat="57.94198" lon="-6.81774">
        <ele>151.59</ele>
        <time>2021-03-20T17:54:09Z</time>
      </trkpt>
      <trkpt lat="57.94224" lon="-6.8174">
        <ele>152.11</ele>
        <time>2021-03-20T17:54:13Z</time>
      </trkpt>
      <trkpt lat="57.94306" lon="-6.81642">
        <ele>153.31</ele>
        <time>2021-03-20T17:54:16Z</time>
      </trkpt>
      <trkpt lat="57.94328" lon="-6.81613">
        <ele>153.42</ele>
        <time>2021-03-20T17:54:19Z</time>
      </trkpt>
      <trkpt lat="57.94364" lon="-6.81557">
        <ele>157.06</ele>
        <time>2021-03-20T17:54:22Z</time>
      </trkpt>
      <trkpt lat="57.94392" lon="-6.81493">
        <ele>157.65</ele>
        <time>2021-03-20T17:54:25Z</time>
      </trkpt>
      <trkpt lat="57.94426" lon="-6.81399">
        <ele>162.77</ele>
        <time>2021-03-20T17:54:29Z</time>
      </trkpt>
      <trkpt lat="57.9446" lon="-6.81287">
        <ele>168.36</ele>
        <time>2021-03-20T17:54:32Z</time>
      </trkpt>
      <trkpt lat="57.94481" lon="-6.81193">
        <ele>170.55</ele>
        <time>2021-03-20T17:54:35Z</time>
      </trkpt>
      <trkpt lat="57.94491" lon="-6.81112">
        <ele>171.3</ele>
        <time>2021-03-20T17:54:38Z</time>
      </trkpt>
      <trkpt lat="57.94495" lon="-6.81054">
        <ele>172.77</ele>
        <time>2021-03-20T17:54:41Z</time>
      </trkpt>
      <trkpt lat="57.94496" lon="-6.80981">
        <ele>175.72</ele>
        <time>2021-03-20T17:54:45Z</time>
      </trkpt>
      <trkpt lat="57.94495" lon="-6.80831">
        <ele>179.33</ele>
        <time>2021-03-20T17:54:48Z</time>
      </trkpt>
      <trkpt lat="57.94497" lon="-6.80713">
        <ele>183.39</ele>
        <time>2021-03-20T17:54:51Z</time>
      </trkpt>
      <trkpt lat="57.94508" lon="-6.80553">
        <ele>185.41</ele>
        <time>2021-03-20T17:54:54Z</time>
      </trkpt>
      <trkpt lat="57.94516" lon="-6.80422">
        <ele>188.08</ele>
        <time>2021-03-20T17:54:57Z</time>
      </trkpt>
      <trkpt lat="57.94519" lon="-6.80313">
        <ele>191.58</ele>
        <time>2021-03-20T17:55:01Z</time>
      </trkpt>
      <trkpt lat="57.94519" lon="-6.80187">
        <ele>194.71</ele>
        <time>2021-03-20T17:55:04Z</time>
      </trkpt>
      <trkpt lat="57.94442" lon="-6.79317">
        <ele>186</ele>
        <time>2021-03-20T17:55:07Z</time>
      </trkpt>
      <trkpt lat="57.9443" lon="-6.79212">
        <ele>186.81</ele>
        <time>2021-03-20T17:55:10Z</time>
      </trkpt>
      <trkpt lat="57.94422" lon="-6.79105">
        <ele>183.59</ele>
        <time>2021-03-20T17:55:14Z</time>
      </trkpt>
      <trkpt lat="57.94417" lon="-6.79015">
        <ele>180.54</ele>
        <time>2021-03-20T17:55:17Z</time>
      </trkpt>
      <trkpt lat="57.94417" lon="-6.78911">
        <ele>177.79</ele>
        <time>2021-03-20T17:55:20Z</time>
      </trkpt>
      <trkpt lat="57.94422" lon="-6.78828">
        <ele>177</ele>
        <time>2021-03-20T17:55:23Z</time>
      </trkpt>
      <trkpt lat="57.9443" lon="-6.78753">
        <ele>177.5</ele>
        <time>2021-03-20T17:55:26Z</time>
      </trkpt>
      <trkpt lat="57.9444" lon="-6.78693">
        <ele>177.79</ele>
        <time>2021-03-20T17:55:30Z</time>
      </trkpt>
      <trkpt lat="57.94451" lon="-6.78637">
        <ele>176.15</ele>
        <time>2021-03-20T17:55:33Z</time>
      </trkpt>
      <trkpt lat="57.94472" lon="-6.78552">
        <ele>174.9</ele>
        <time>2021-03-20T17:55:36Z</time>
      </trkpt>
      <trkpt lat="57.94494" lon="-6.78486">
        <ele>173.65</ele>
        <time>2021-03-20T17:55:39Z</time>
      </trkpt>
      <trkpt lat="57.9454" lon="-6.78372">
        <ele>167.89</ele>
        <time>2021-03-20T17:55:42Z</time>
      </trkpt>
      <trkpt lat="57.94575" lon="-6.78289">
        <ele>164.37</ele>
        <time>2021-03-20T17:55:46Z</time>
      </trkpt>
      <trkpt lat="57.94599" lon="-6.78241">
        <ele>163.08</ele>
        <time>2021-03-20T17:55:49Z</time>
      </trkpt>
      <trkpt lat="57.94621" lon="-6.782">
        <ele>162.55</ele>
        <time>2021-03-20T17:55:52Z</time>
      </trkpt>
      <trkpt lat="57.9466" lon="-6.78141">
        <ele>160.85</ele>
        <time>2021-03-20T17:55:55Z</time>
      </trkpt>
      <trkpt lat="57.94672" lon="-6.78126">
        <ele>160.88</ele>
        <time>2021-03-20T17:55:58Z</time>
      </trkpt>
      <trkpt lat="57.94715" lon="-6.78076">
        <ele>161.31</ele>
        <time>2021-03-20T17:56:02Z</time>
      </trkpt>
      <trkpt lat="57.94741" lon="-6.78053">
        <ele>159.92</ele>
        <time>2021-03-20T17:56:05Z</time>
      </trkpt>
      <trkpt lat="57.94766" lon="-6.78035">
        <ele>159.26</ele>
        <time>2021-03-20T17:56:08Z</time>
      </trkpt>
      <trkpt lat="57.94898" lon="-6.77969">
        <ele>157.82</ele>
        <time>2021-03-20T17:56:11Z</time>
      </trkpt>
      <trkpt lat="57.94947" lon="-6.77942">
        <ele>157.92</ele>
        <time>2021-03-20T17:56:15Z</time>
      </trkpt>
      <trkpt lat="57.94991" lon="-6.77914">
        <ele>156.85</ele>
        <time>2021-03-20T17:56:18Z</time>
      </trkpt>
      <trkpt lat="57.95037" lon="-6.77878">
        <ele>156.34</ele>
        <time>2021-03-20T17:56:21Z</time>
      </trkpt>
      <trkpt lat="57.95079" lon="-6.77842">
        <ele>155.44</ele>
        <time>2021-03-20T17:56:24Z</time>
      </trkpt>
      <trkpt lat="57.95131" lon="-6.77791">
        <ele>153.46</ele>
        <time>2021-03-20T17:56:27Z</time>
      </trkpt>
      <trkpt lat="57.95221" lon="-6.77684">
        <ele>152.14</ele>
        <time>2021-03-20T17:56:31Z</time>
      </trkpt>
      <trkpt lat="57.95268" lon="-6.77613">
        <ele>151.46</ele>
        <time>2021-03-20T17:56:34Z</time>
      </trkpt>
      <trkpt lat="57.95323" lon="-6.77522">
        <ele>151.59</ele>
        <time>2021-03-20T17:56:37Z</time>
      </trkpt>
      <trkpt lat="57.95361" lon="-6.77452">
        <ele>150.48</ele>
        <time>2021-03-20T17:56:40Z</time>
      </trkpt>
      <trkpt lat="57.95509" lon="-6.77141">
        <ele>149.36</ele>
        <time>2021-03-20T17:56:43Z</time>
      </trkpt>
      <trkpt lat="57.95563" lon="-6.77025">
        <ele>147.38</ele>
        <time>2021-03-20T17:56:47Z</time>
      </trkpt>
      <trkpt lat="57.95581" lon="-6.76978">
        <ele>146.29</ele>
        <time>2021-03-20T17:56:50Z</time>
      </trkpt>
      <trkpt lat="57.95601" lon="-6.7691">
        <ele>141.54</ele>
        <time>2021-03-20T17:56:53Z</time>
      </trkpt>
      <trkpt lat="57.9561" lon="-6.76869">
        <ele>139.97</ele>
        <time>2021-03-20T17:56:56Z</time>
      </trkpt>
      <trkpt lat="57.9562" lon="-6.76814">
        <ele>140.28</ele>
        <time>2021-03-20T17:56:59Z</time>
      </trkpt>
      <trkpt lat="57.95626" lon="-6.76764">
        <ele>141</ele>
        <time>2021-03-20T17:57:03Z</time>
      </trkpt>
      <trkpt lat="57.95631" lon="-6.76709">
        <ele>143.04</ele>
        <time>2021-03-20T17:57:06Z</time>
      </trkpt>
      <trkpt lat="57.95633" lon="-6.76653">
        <ele>145.03</ele>
        <time>2021-03-20T17:57:09Z</time>
      </trkpt>
      <trkpt lat="57.95632" lon="-6.76584">
        <ele>145.66</ele>
        <time>2021-03-20T17:57:12Z</time>
      </trkpt>
      <trkpt lat="57.95626" lon="-6.76519">
        <ele>144.63</ele>
        <time>2021-03-20T17:57:15Z</time>
      </trkpt>
      <trkpt lat="57.95608" lon="-6.76385">
        <ele>143.1</ele>
        <time>2021-03-20T17:57:19Z</time>
      </trkpt>
      <trkpt lat="57.95603" lon="-6.76313">
        <ele>142.72</ele>
        <time>2021-03-20T17:57:22Z</time>
      </trkpt>
      <trkpt lat="57.95602" lon="-6.76259">
        <ele>142.25</ele>
        <time>2021-03-20T17:57:25Z</time>
      </trkpt>
      <trkpt lat="57.95603" lon="-6.76135">
        <ele>142.64</ele>
        <time>2021-03-20T17:57:28Z</time>
      </trkpt>
      <trkpt lat="57.9561" lon="-6.76028">
        <ele>141.76</ele>
        <time>2021-03-20T17:57:32Z</time>
      </trkpt>
      <trkpt lat="57.95621" lon="-6.75946">
        <ele>138.98</ele>
        <time>2021-03-20T17:57:35Z</time>
      </trkpt>
      <trkpt lat="57.9563" lon="-6.75873">
        <ele>140.12</ele>
        <time>2021-03-20T17:57:38Z</time>
      </trkpt>
      <trkpt lat="57.95639" lon="-6.75758">
        <ele>141.12</ele>
        <time>2021-03-20T17:57:41Z</time>
      </trkpt>
      <trkpt lat="57.9566" lon="-6.75623">
        <ele>139.86</ele>
        <time>2021-03-20T17:57:44Z</time>
      </trkpt>
      <trkpt lat="57.95719" lon="-6.75269">
        <ele>141.79</ele>
        <time>2021-03-20T17:57:48Z</time>
      </trkpt>
      <trkpt lat="57.95734" lon="-6.75196">
        <ele>143.17</ele>
        <time>2021-03-20T17:57:51Z</time>
      </trkpt>
      <trkpt lat="57.95759" lon="-6.75096">
        <ele>142.6</ele>
        <time>2021-03-20T17:57:54Z</time>
      </trkpt>
      <trkpt lat="57.95787" lon="-6.75003">
        <ele>141.23</ele>
        <time>2021-03-20T17:57:57Z</time>
      </trkpt>
      <trkpt lat="57.9583" lon="-6.74872">
        <ele>140.14</ele>
        <time>2021-03-20T17:58:00Z</time>
      </trkpt>
      <trkpt lat="57.95862" lon="-6.74793">
        <ele>140.74</ele>
        <time>2021-03-20T17:58:04Z</time>
      </trkpt>
      <trkpt lat="57.959" lon="-6.74711">
        <ele>139.08</ele>
        <time>2021-03-20T17:58:07Z</time>
      </trkpt>
      <trkpt lat="57.95925" lon="-6.74665">
        <ele>140.69</ele>
        <time>2021-03-20T17:58:10Z</time>
      </trkpt>
      <trkpt lat="57.95947" lon="-6.74633">
        <ele>141.85</ele>
        <time>2021-03-20T17:58:13Z</time>
      </trkpt>
      <trkpt lat="57.9598" lon="-6.74595">
        <ele>144.52</ele>
        <time>2021-03-20T17:58:16Z</time>
      </trkpt>
      <trkpt lat="57.96027" lon="-6.74558">
        <ele>147.1</ele>
        <time>2021-03-20T17:58:20Z</time>
      </trkpt>
      <trkpt lat="57.96084" lon="-6.74528">
        <ele>147.01</ele>
        <time>2021-03-20T17:58:23Z</time>
      </trkpt>
      <trkpt lat="57.96186" lon="-6.74501">
        <ele>153.45</ele>
        <time>2021-03-20T17:58:26Z</time>
      </trkpt>
      <trkpt lat="57.96236" lon="-6.74493">
        <ele>157.38</ele>
        <time>2021-03-20T17:58:29Z</time>
      </trkpt>
      <trkpt lat="57.96282" lon="-6.74501">
        <ele>162.38</ele>
        <time>2021-03-20T17:58:33Z</time>
      </trkpt>
      <trkpt lat="57.96341" lon="-6.74517">
        <ele>166.66</ele>
        <time>2021-03-20T17:58:36Z</time>
      </trkpt>
      <trkpt lat="57.96389" lon="-6.74544">
        <ele>169.01</ele>
        <time>2021-03-20T17:58:39Z</time>
      </trkpt>
      <trkpt lat="57.96427" lon="-6.74571">
        <ele>170.18</ele>
        <time>2021-03-20T17:58:42Z</time>
      </trkpt>
      <trkpt lat="57.96485" lon="-6.74627">
        <ele>170.31</ele>
        <time>2021-03-20T17:58:45Z</time>
      </trkpt>
      <trkpt lat="57.96601" lon="-6.74756">
        <ele>163.66</ele>
        <time>2021-03-20T17:58:49Z</time>
      </trkpt>
      <trkpt lat="57.96751" lon="-6.74906">
        <ele>152.39</ele>
        <time>2021-03-20T17:58:52Z</time>
      </trkpt>
      <trkpt lat="57.96784" lon="-6.7493">
        <ele>151.3</ele>
        <time>2021-03-20T17:58:55Z</time>
      </trkpt>
      <trkpt lat="57.96792" lon="-6.74933">
        <ele>150.89</ele>
        <time>2021-03-20T17:58:58Z</time>
      </trkpt>
      <trkpt lat="57.96839" lon="-6.7496">
        <ele>149.11</ele>
        <time>2021-03-20T17:59:01Z</time>
      </trkpt>
      <trkpt lat="57.96899" lon="-6.74987">
        <ele>151.19</ele>
        <time>2021-03-20T17:59:05Z</time>
      </trkpt>
      <trkpt lat="57.96957" lon="-6.74995">
        <ele>154.16</ele>
        <time>2021-03-20T17:59:08Z</time>
      </trkpt>
      <trkpt lat="57.97011" lon="-6.74994">
        <ele>154.5</ele>
        <time>2021-03-20T17:59:11Z</time>
      </trkpt>
      <trkpt lat="57.97074" lon="-6.74981">
        <ele>151.41</ele>
        <time>2021-03-20T17:59:14Z</time>
      </trkpt>
      <trkpt lat="57.97247" lon="-6.74903">
        <ele>163.37</ele>
        <time>2021-03-20T17:59:17Z</time>
      </trkpt>
      <trkpt lat="57.97316" lon="-6.74884">
        <ele>170.68</ele>
        <time>2021-03-20T17:59:21Z</time>
      </trkpt>
      <trkpt lat="57.97723" lon="-6.74816">
        <ele>191</ele>
        <time>2021-03-20T17:59:24Z</time>
      </trkpt>
      <trkpt lat="57.97808" lon="-6.74811">
        <ele>189.19</ele>
        <time>2021-03-20T17:59:27Z</time>
      </trkpt>
      <trkpt lat="57.97856" lon="-6.74821">
        <ele>188.18</ele>
        <time>2021-03-20T17:59:30Z</time>
      </trkpt>
      <trkpt lat="57.97896" lon="-6.74835">
        <ele>189.58</ele>
        <time>2021-03-20T17:59:34Z</time>
      </trkpt>
      <trkpt lat="57.97961" lon="-6.74868">
        <ele>196.86</ele>
        <time>2021-03-20T17:59:37Z</time>
      </trkpt>
      <trkpt lat="57.98059" lon="-6.74946">
        <ele>200.03</ele>
        <time>2021-03-20T17:59:40Z</time>
      </trkpt>
      <trkpt lat="57.98147" lon="-6.75031">
        <ele>194.39</ele>
        <time>2021-03-20T17:59:43Z</time>
      </trkpt>
      <trkpt lat="57.9828" lon="-6.75146">
        <ele>177.71</ele>
        <time>2021-03-20T17:59:46Z</time>
      </trkpt>
      <trkpt lat="57.98304" lon="-6.75159">
        <ele>175.07</ele>
        <time>2021-03-20T17:59:50Z</time>
      </trkpt>
      <trkpt lat="57.98336" lon="-6.75165">
        <ele>173.09</ele>
        <time>2021-03-20T17:59:53Z</time>
      </trkpt>
      <trkpt lat="57.98368" lon="-6.75165">
        <ele>171.48</ele>
        <time>2021-03-20T17:59:56Z</time>
      </trkpt>
      <trkpt lat="57.98384" lon="-6.7516">
        <ele>170.17</ele>
        <time>2021-03-20T17:59:59Z</time>
      </trkpt>
      <trkpt lat="57.9846" lon="-6.75116">
        <ele>164.2</ele>
        <time>2021-03-20T18:00:02Z</time>
      </trkpt>
      <trkpt lat="57.9851" lon="-6.75073">
        <ele>160.9</ele>
        <time>2021-03-20T18:00:06Z</time>
      </trkpt>
      <trkpt lat="57.98544" lon="-6.75028">
        <ele>156.79</ele>
        <time>2021-03-20T18:00:09Z</time>
      </trkpt>
      <trkpt lat="57.98593" lon="-6.74958">
        <ele>148.77</ele>
        <time>2021-03-20T18:00:12Z</time>
      </trkpt>
      <trkpt lat="57.98607" lon="-6.74933">
        <ele>146.54</ele>
        <time>2021-03-20T18:00:15Z</time>
      </trkpt>
      <trkpt lat="57.98617" lon="-6.74893">
        <ele>145.56</ele>
        <time>2021-03-20T18:00:18Z</time>
      </trkpt>
      <trkpt lat="57.98625" lon="-6.74834">
        <ele>144.9</ele>
        <time>2021-03-20T18:00:22Z</time>
      </trkpt>
      <trkpt lat="57.9863" lon="-6.74812">
        <ele>143.96</ele>
        <time>2021-03-20T18:00:25Z</time>
      </trkpt>
      <trkpt lat="57.98641" lon="-6.74779">
        <ele>142.75</ele>
        <time>2021-03-20T18:00:28Z</time>
      </trkpt>
      <trkpt lat="57.98651" lon="-6.74761">
        <ele>141.67</ele>
        <time>2021-03-20T18:00:31Z</time>
      </trkpt>
      <trkpt lat="57.98664" lon="-6.74749">
        <ele>140.29</ele>
        <time>2021-03-20T18:00:35Z</time>
      </trkpt>
      <trkpt lat="57.98682" lon="-6.74742">
        <ele>138.69</ele>
        <time>2021-03-20T18:00:38Z</time>
      </trkpt>
      <trkpt lat="57.98696" lon="-6.74741">
        <ele>137.15</ele>
        <time>2021-03-20T18:00:41Z</time>
      </trkpt>
      <trkpt lat="57.98719" lon="-6.74748">
        <ele>134.43</ele>
        <time>2021-03-20T18:00:44Z</time>
      </trkpt>
      <trkpt lat="57.98804" lon="-6.74786">
        <ele>126.5</ele>
        <time>2021-03-20T18:00:47Z</time>
      </trkpt>
      <trkpt lat="57.98822" lon="-6.74805">
        <ele>125.76</ele>
        <time>2021-03-20T18:00:51Z</time>
      </trkpt>
      <trkpt lat="57.98837" lon="-6.74839">
        <ele>124.49</ele>
        <time>2021-03-20T18:00:54Z</time>
      </trkpt>
      <trkpt lat="57.98846" lon="-6.74876">
        <ele>122.15</ele>
        <time>2021-03-20T18:00:57Z</time>
      </trkpt>
      <trkpt lat="57.98846" lon="-6.74914">
        <ele>119.51</ele>
        <time>2021-03-20T18:01:00Z</time>
      </trkpt>
      <trkpt lat="57.98842" lon="-6.74949">
        <ele>118.48</ele>
        <time>2021-03-20T18:01:03Z</time>
      </trkpt>
      <trkpt lat="57.98832" lon="-6.74987">
        <ele>117.21</ele>
        <time>2021-03-20T18:01:07Z</time>
      </trkpt>
      <trkpt lat="57.9882" lon="-6.75017">
        <ele>116.66</ele>
        <time>2021-03-20T18:01:10Z</time>
      </trkpt>
      <trkpt lat="57.98778" lon="-6.75097">
        <ele>114</ele>
        <time>2021-03-20T18:01:13Z</time>
      </trkpt>
      <trkpt lat="57.98746" lon="-6.75169">
        <ele>111.29</ele>
        <time>2021-03-20T18:01:16Z</time>
      </trkpt>
      <trkpt lat="57.98724" lon="-6.75241">
        <ele>108.57</ele>
        <time>2021-03-20T18:01:19Z</time>
      </trkpt>
      <trkpt lat="57.98716" lon="-6.75273">
        <ele>107.05</ele>
        <time>2021-03-20T18:01:23Z</time>
      </trkpt>
      <trkpt lat="57.987" lon="-6.75378">
        <ele>101.69</ele>
        <time>2021-03-20T18:01:26Z</time>
      </trkpt>
      <trkpt lat="57.98656" lon="-6.75724">
        <ele>85.71</ele>
        <time>2021-03-20T18:01:29Z</time>
      </trkpt>
      <trkpt lat="57.9865" lon="-6.75787">
        <ele>83.87</ele>
        <time>2021-03-20T18:01:32Z</time>
      </trkpt>
      <trkpt lat="57.98644" lon="-6.76173">
        <ele>66.58</ele>
        <time>2021-03-20T18:01:36Z</time>
      </trkpt>
      <trkpt lat="57.98642" lon="-6.7635">
        <ele>60.77</ele>
        <time>2021-03-20T18:01:39Z</time>
      </trkpt>
      <trkpt lat="57.98637" lon="-6.76426">
        <ele>57.87</ele>
        <time>2021-03-20T18:01:42Z</time>
      </trkpt>
      <trkpt lat="57.98629" lon="-6.76516">
        <ele>53.73</ele>
        <time>2021-03-20T18:01:45Z</time>
      </trkpt>
      <trkpt lat="57.98629" lon="-6.76542">
        <ele>52.58</ele>
        <time>2021-03-20T18:01:48Z</time>
      </trkpt>
      <trkpt lat="57.98641" lon="-6.7659">
        <ele>50</ele>
        <time>2021-03-20T18:01:52Z</time>
      </trkpt>
      <trkpt lat="57.98664" lon="-6.7665">
        <ele>49.11</ele>
        <time>2021-03-20T18:01:55Z</time>
      </trkpt>
      <trkpt lat="57.98689" lon="-6.7671">
        <ele>48.19</ele>
        <time>2021-03-20T18:01:58Z</time>
      </trkpt>
      <trkpt lat="57.9872" lon="-6.76765">
        <ele>45.56</ele>
        <time>2021-03-20T18:02:01Z</time>
      </trkpt>
      <trkpt lat="57.98736" lon="-6.76783">
        <ele>43.79</ele>
        <time>2021-03-20T18:02:04Z</time>
      </trkpt>
      <trkpt lat="57.9878" lon="-6.76818">
        <ele>40.48</ele>
        <time>2021-03-20T18:02:08Z</time>
      </trkpt>
      <trkpt lat="57.98808" lon="-6.76837">
        <ele>38.77</ele>
        <time>2021-03-20T18:02:11Z</time>
      </trkpt>
      <trkpt lat="57.98847" lon="-6.76851">
        <ele>35.74</ele>
        <time>2021-03-20T18:02:14Z</time>
      </trkpt>
      <trkpt lat="57.98877" lon="-6.76853">
        <ele>33.81</ele>
        <time>2021-03-20T18:02:17Z</time>
      </trkpt>
      <trkpt lat="57.98905" lon="-6.76847">
        <ele>33.5</ele>
        <time>2021-03-20T18:02:20Z</time>
      </trkpt>
      <trkpt lat="57.9893" lon="-6.76837">
        <ele>34.12</ele>
        <time>2021-03-20T18:02:24Z</time>
      </trkpt>
      <trkpt lat="57.98975" lon="-6.76773">
        <ele>33.82</ele>
        <time>2021-03-20T18:02:26Z</time>
      </trkpt>
      <trkpt lat="57.98991" lon="-6.76757">
        <ele>33.33</ele>
        <time>2021-03-20T18:02:29Z</time>
      </trkpt>
      <trkpt lat="57.99002" lon="-6.76751">
        <ele>33.08</ele>
        <time>2021-03-20T18:02:32Z</time>
      </trkpt>
      <trkpt lat="57.99014" lon="-6.76749">
        <ele>32.9</ele>
        <time>2021-03-20T18:02:34Z</time>
      </trkpt>
      <trkpt lat="57.99029" lon="-6.76753">
        <ele>33.4</ele>
        <time>2021-03-20T18:02:37Z</time>
      </trkpt>
      <trkpt lat="57.99056" lon="-6.76729">
        <ele>31.73</ele>
        <time>2021-03-20T18:02:40Z</time>
      </trkpt>
      <trkpt lat="57.99081" lon="-6.76702">
        <ele>31.39</ele>
        <time>2021-03-20T18:02:43Z</time>
      </trkpt>
      <trkpt lat="57.99122" lon="-6.76649">
        <ele>29.76</ele>
        <time>2021-03-20T18:02:46Z</time>
      </trkpt>
      <trkpt lat="57.99139" lon="-6.76623">
        <ele>29.46</ele>
        <time>2021-03-20T18:02:49Z</time>
      </trkpt>
      <trkpt lat="57.99156" lon="-6.76589">
        <ele>29.46</ele>
        <time>2021-03-20T18:02:52Z</time>
      </trkpt>
      <trkpt lat="57.99198" lon="-6.76483">
        <ele>30.52</ele>
        <time>2021-03-20T18:02:55Z</time>
      </trkpt>
      <trkpt lat="57.99216" lon="-6.76449">
        <ele>29.31</ele>
        <time>2021-03-20T18:02:58Z</time>
      </trkpt>
      <trkpt lat="57.99247" lon="-6.76402">
        <ele>30.18</ele>
        <time>2021-03-20T18:03:01Z</time>
      </trkpt>
      <trkpt lat="57.99288" lon="-6.76346">
        <ele>31.01</ele>
        <time>2021-03-20T18:03:04Z</time>
      </trkpt>
      <trkpt lat="57.99319" lon="-6.76313">
        <ele>30.95</ele>
        <time>2021-03-20T18:03:07Z</time>
      </trkpt>
      <trkpt lat="57.99554" lon="-6.76095">
        <ele>28.27</ele>
        <time>2021-03-20T18:03:10Z</time>
      </trkpt>
      <trkpt lat="57.99593" lon="-6.76061">
        <ele>30.97</ele>
        <time>2021-03-20T18:03:13Z</time>
      </trkpt>
      <trkpt lat="57.99651" lon="-6.76018">
        <ele>32.47</ele>
        <time>2021-03-20T18:03:16Z</time>
      </trkpt>
      <trkpt lat="57.9971" lon="-6.75992">
        <ele>29.91</ele>
        <time>2021-03-20T18:03:19Z</time>
      </trkpt>
      <trkpt lat="57.99763" lon="-6.75983">
        <ele>27.8</ele>
        <time>2021-03-20T18:03:22Z</time>
      </trkpt>
      <trkpt lat="57.998" lon="-6.75983">
        <ele>27.53</ele>
        <time>2021-03-20T18:03:25Z</time>
      </trkpt>
      <trkpt lat="57.998" lon="-6.75983">
        <ele>27.53</ele>
        <time>2021-03-20T18:03:25Z</time>
      </trkpt>
      <trkpt lat="57.99855" lon="-6.75983">
        <ele>27.26</ele>
        <time>2021-03-20T18:03:29Z</time>
      </trkpt>
      <trkpt lat="57.99916" lon="-6.75968">
        <ele>26.78</ele>
        <time>2021-03-20T18:03:33Z</time>
      </trkpt>
      <trkpt lat="57.99958" lon="-6.75945">
        <ele>27.01</ele>
        <time>2021-03-20T18:03:37Z</time>
      </trkpt>
      <trkpt lat="57.9999" lon="-6.75921">
        <ele>26.37</ele>
        <time>2021-03-20T18:03:41Z</time>
      </trkpt>
      <trkpt lat="58.00116" lon="-6.75808">
        <ele>22</ele>
        <time>2021-03-20T18:03:45Z</time>
      </trkpt>
      <trkpt lat="58.00128" lon="-6.758">
        <ele>21.81</ele>
        <time>2021-03-20T18:03:49Z</time>
      </trkpt>
      <trkpt lat="58.00148" lon="-6.75795">
        <ele>21.3</ele>
        <time>2021-03-20T18:03:53Z</time>
      </trkpt>
      <trkpt lat="58.00167" lon="-6.75799">
        <ele>20.7</ele>
        <time>2021-03-20T18:03:57Z</time>
      </trkpt>
      <trkpt lat="58.00182" lon="-6.75807">
        <ele>19.95</ele>
        <time>2021-03-20T18:04:00Z</time>
      </trkpt>
      <trkpt lat="58.00203" lon="-6.75827">
        <ele>18.59</ele>
        <time>2021-03-20T18:04:04Z</time>
      </trkpt>
      <trkpt lat="58.00219" lon="-6.75853">
        <ele>17.86</ele>
        <time>2021-03-20T18:04:08Z</time>
      </trkpt>
      <trkpt lat="58.00233" lon="-6.75895">
        <ele>17.61</ele>
        <time>2021-03-20T18:04:12Z</time>
      </trkpt>
      <trkpt lat="58.0024" lon="-6.75942">
        <ele>18</ele>
        <time>2021-03-20T18:04:16Z</time>
      </trkpt>
      <trkpt lat="58.00243" lon="-6.76006">
        <ele>15.87</ele>
        <time>2021-03-20T18:04:20Z</time>
      </trkpt>
      <trkpt lat="58.00241" lon="-6.76131">
        <ele>15.77</ele>
        <time>2021-03-20T18:04:24Z</time>
      </trkpt>
      <trkpt lat="58.00243" lon="-6.76181">
        <ele>16.06</ele>
        <time>2021-03-20T18:04:28Z</time>
      </trkpt>
      <trkpt lat="58.00249" lon="-6.7626">
        <ele>17.23</ele>
        <time>2021-03-20T18:04:32Z</time>
      </trkpt>
      <trkpt lat="58.00267" lon="-6.76414">
        <ele>15.9</ele>
        <time>2021-03-20T18:04:36Z</time>
      </trkpt>
      <trkpt lat="58.00273" lon="-6.76438">
        <ele>14.87</ele>
        <time>2021-03-20T18:04:40Z</time>
      </trkpt>
      <trkpt lat="58.0028" lon="-6.76456">
        <ele>14.27</ele>
        <time>2021-03-20T18:04:43Z</time>
      </trkpt>
      <trkpt lat="58.00296" lon="-6.76483">
        <ele>13.93</ele>
        <time>2021-03-20T18:04:47Z</time>
      </trkpt>
      <trkpt lat="58.00322" lon="-6.76496">
        <ele>15.03</ele>
        <time>2021-03-20T18:04:51Z</time>
      </trkpt>
      <trkpt lat="58.00342" lon="-6.76494">
        <ele>16.71</ele>
        <time>2021-03-20T18:04:55Z</time>
      </trkpt>
      <trkpt lat="58.00356" lon="-6.76486">
        <ele>17.92</ele>
        <time>2021-03-20T18:04:59Z</time>
      </trkpt>
      <trkpt lat="58.00368" lon="-6.76474">
        <ele>18.55</ele>
        <time>2021-03-20T18:05:03Z</time>
      </trkpt>
      <trkpt lat="58.00381" lon="-6.7645">
        <ele>17.85</ele>
        <time>2021-03-20T18:05:07Z</time>
      </trkpt>
      <trkpt lat="58.00406" lon="-6.76375">
        <ele>18.01</ele>
        <time>2021-03-20T18:05:11Z</time>
      </trkpt>
      <trkpt lat="58.00506" lon="-6.76051">
        <ele>18.69</ele>
        <time>2021-03-20T18:05:15Z</time>
      </trkpt>
      <trkpt lat="58.00653" lon="-6.75593">
        <ele>27.05</ele>
        <time>2021-03-20T18:05:19Z</time>
      </trkpt>
      <trkpt lat="58.00693" lon="-6.75507">
        <ele>29.2</ele>
        <time>2021-03-20T18:05:23Z</time>
      </trkpt>
      <trkpt lat="58.00764" lon="-6.75395">
        <ele>32.5</ele>
        <time>2021-03-20T18:05:27Z</time>
      </trkpt>
      <trkpt lat="58.00779" lon="-6.75361">
        <ele>32.08</ele>
        <time>2021-03-20T18:05:30Z</time>
      </trkpt>
      <trkpt lat="58.00787" lon="-6.7533">
        <ele>30.08</ele>
        <time>2021-03-20T18:05:34Z</time>
      </trkpt>
      <trkpt lat="58.00794" lon="-6.75292">
        <ele>28.3</ele>
        <time>2021-03-20T18:05:38Z</time>
      </trkpt>
      <trkpt lat="58.00802" lon="-6.75218">
        <ele>30.34</ele>
        <time>2021-03-20T18:05:42Z</time>
      </trkpt>
      <trkpt lat="58.00805" lon="-6.75163">
        <ele>32.85</ele>
        <time>2021-03-20T18:05:46Z</time>
      </trkpt>
      <trkpt lat="58.00796" lon="-6.74912">
        <ele>31.4</ele>
        <time>2021-03-20T18:05:50Z</time>
      </trkpt>
      <trkpt lat="58.00795" lon="-6.74834">
        <ele>29.72</ele>
        <time>2021-03-20T18:05:54Z</time>
      </trkpt>
      <trkpt lat="58.00801" lon="-6.74741">
        <ele>29.77</ele>
        <time>2021-03-20T18:05:58Z</time>
      </trkpt>
      <trkpt lat="58.00807" lon="-6.74678">
        <ele>29.79</ele>
        <time>2021-03-20T18:06:02Z</time>
      </trkpt>
      <trkpt lat="58.00825" lon="-6.74575">
        <ele>29.22</ele>
        <time>2021-03-20T18:06:06Z</time>
      </trkpt>
      <trkpt lat="58.00851" lon="-6.74494">
        <ele>28.56</ele>
        <time>2021-03-20T18:06:10Z</time>
      </trkpt>
      <trkpt lat="58.00882" lon="-6.74412">
        <ele>27.34</ele>
        <time>2021-03-20T18:06:13Z</time>
      </trkpt>
      <trkpt lat="58.00957" lon="-6.74258">
        <ele>32.89</ele>
        <time>2021-03-20T18:06:17Z</time>
      </trkpt>
      <trkpt lat="58.00996" lon="-6.74172">
        <ele>35.42</ele>
        <time>2021-03-20T18:06:21Z</time>
      </trkpt>
      <trkpt lat="58.01069" lon="-6.73979">
        <ele>39.33</ele>
        <time>2021-03-20T18:06:25Z</time>
      </trkpt>
      <trkpt lat="58.01155" lon="-6.73739">
        <ele>43.51</ele>
        <time>2021-03-20T18:06:29Z</time>
      </trkpt>
      <trkpt lat="58.01185" lon="-6.73661">
        <ele>44.98</ele>
        <time>2021-03-20T18:06:33Z</time>
      </trkpt>
      <trkpt lat="58.0123" lon="-6.73576">
        <ele>47.08</ele>
        <time>2021-03-20T18:06:37Z</time>
      </trkpt>
      <trkpt lat="58.01271" lon="-6.73524">
        <ele>49.9</ele>
        <time>2021-03-20T18:06:41Z</time>
      </trkpt>
      <trkpt lat="58.01317" lon="-6.73473">
        <ele>54.2</ele>
        <time>2021-03-20T18:06:45Z</time>
      </trkpt>
      <trkpt lat="58.0136" lon="-6.73442">
        <ele>56.71</ele>
        <time>2021-03-20T18:06:49Z</time>
      </trkpt>
      <trkpt lat="58.01463" lon="-6.73399">
        <ele>56.75</ele>
        <time>2021-03-20T18:06:53Z</time>
      </trkpt>
      <trkpt lat="58.0171" lon="-6.73309">
        <ele>58.38</ele>
        <time>2021-03-20T18:06:57Z</time>
      </trkpt>
      <trkpt lat="58.01863" lon="-6.73258">
        <ele>47.62</ele>
        <time>2021-03-20T18:07:00Z</time>
      </trkpt>
      <trkpt lat="58.01967" lon="-6.73208">
        <ele>46</ele>
        <time>2021-03-20T18:07:04Z</time>
      </trkpt>
      <trkpt lat="58.02049" lon="-6.7316">
        <ele>46.52</ele>
        <time>2021-03-20T18:07:08Z</time>
      </trkpt>
      <trkpt lat="58.02118" lon="-6.73113">
        <ele>49.07</ele>
        <time>2021-03-20T18:07:12Z</time>
      </trkpt>
      <trkpt lat="58.02194" lon="-6.73056">
        <ele>45.05</ele>
        <time>2021-03-20T18:07:16Z</time>
      </trkpt>
      <trkpt lat="58.02251" lon="-6.73007">
        <ele>44.51</ele>
        <time>2021-03-20T18:07:20Z</time>
      </trkpt>
      <trkpt lat="58.0239" lon="-6.72867">
        <ele>43.05</ele>
        <time>2021-03-20T18:07:24Z</time>
      </trkpt>
      <trkpt lat="58.02696" lon="-6.72534">
        <ele>49</ele>
        <time>2021-03-20T18:07:28Z</time>
      </trkpt>
      <trkpt lat="58.02721" lon="-6.72509">
        <ele>49</ele>
        <time>2021-03-20T18:07:32Z</time>
      </trkpt>
      <trkpt lat="58.02747" lon="-6.72488">
        <ele>49</ele>
        <time>2021-03-20T18:07:36Z</time>
      </trkpt>
      <trkpt lat="58.02791" lon="-6.72459">
        <ele>48.06</ele>
        <time>2021-03-20T18:07:40Z</time>
      </trkpt>
      <trkpt lat="58.02821" lon="-6.72442">
        <ele>46.43</ele>
        <time>2021-03-20T18:07:44Z</time>
      </trkpt>
      <trkpt lat="58.02909" lon="-6.72403">
        <ele>45.86</ele>
        <time>2021-03-20T18:07:47Z</time>
      </trkpt>
      <trkpt lat="58.02948" lon="-6.72391">
        <ele>45.88</ele>
        <time>2021-03-20T18:07:51Z</time>
      </trkpt>
      <trkpt lat="58.02999" lon="-6.72385">
        <ele>45</ele>
        <time>2021-03-20T18:07:55Z</time>
      </trkpt>
      <trkpt lat="58.03099" lon="-6.72398">
        <ele>46.37</ele>
        <time>2021-03-20T18:07:59Z</time>
      </trkpt>
      <trkpt lat="58.03185" lon="-6.7242">
        <ele>48.81</ele>
        <time>2021-03-20T18:08:03Z</time>
      </trkpt>
      <trkpt lat="58.03233" lon="-6.72421">
        <ele>48.38</ele>
        <time>2021-03-20T18:08:07Z</time>
      </trkpt>
      <trkpt lat="58.0326" lon="-6.72416">
        <ele>47.7</ele>
        <time>2021-03-20T18:08:11Z</time>
      </trkpt>
      <trkpt lat="58.03309" lon="-6.72398">
        <ele>47.49</ele>
        <time>2021-03-20T18:08:15Z</time>
      </trkpt>
      <trkpt lat="58.03335" lon="-6.72382">
        <ele>46.45</ele>
        <time>2021-03-20T18:08:19Z</time>
      </trkpt>
      <trkpt lat="58.03383" lon="-6.72344">
        <ele>45.74</ele>
        <time>2021-03-20T18:08:23Z</time>
      </trkpt>
      <trkpt lat="58.03432" lon="-6.72292">
        <ele>41.78</ele>
        <time>2021-03-20T18:08:27Z</time>
      </trkpt>
      <trkpt lat="58.0347" lon="-6.7224">
        <ele>38.75</ele>
        <time>2021-03-20T18:08:30Z</time>
      </trkpt>
      <trkpt lat="58.03504" lon="-6.72183">
        <ele>35.91</ele>
        <time>2021-03-20T18:08:34Z</time>
      </trkpt>
      <trkpt lat="58.03596" lon="-6.72059">
        <ele>29.51</ele>
        <time>2021-03-20T18:08:38Z</time>
      </trkpt>
      <trkpt lat="58.03653" lon="-6.71988">
        <ele>24.01</ele>
        <time>2021-03-20T18:08:42Z</time>
      </trkpt>
      <trkpt lat="58.03675" lon="-6.71971">
        <ele>22.69</ele>
        <time>2021-03-20T18:08:46Z</time>
      </trkpt>
      <trkpt lat="58.03691" lon="-6.71964">
        <ele>22.14</ele>
        <time>2021-03-20T18:08:50Z</time>
      </trkpt>
      <trkpt lat="58.03741" lon="-6.71949">
        <ele>20.31</ele>
        <time>2021-03-20T18:08:54Z</time>
      </trkpt>
      <trkpt lat="58.03756" lon="-6.71939">
        <ele>20</ele>
        <time>2021-03-20T18:08:58Z</time>
      </trkpt>
      <trkpt lat="58.0377" lon="-6.71926">
        <ele>20</ele>
        <time>2021-03-20T18:09:02Z</time>
      </trkpt>
      <trkpt lat="58.03785" lon="-6.71908">
        <ele>20.08</ele>
        <time>2021-03-20T18:09:06Z</time>
      </trkpt>
      <trkpt lat="58.03873" lon="-6.71747">
        <ele>21.1</ele>
        <time>2021-03-20T18:09:10Z</time>
      </trkpt>
      <trkpt lat="58.03904" lon="-6.717">
        <ele>23.35</ele>
        <time>2021-03-20T18:09:14Z</time>
      </trkpt>
      <trkpt lat="58.03959" lon="-6.71669">
        <ele>25.46</ele>
        <time>2021-03-20T18:09:17Z</time>
      </trkpt>
      <trkpt lat="58.04025" lon="-6.71665">
        <ele>29.06</ele>
        <time>2021-03-20T18:09:21Z</time>
      </trkpt>
      <trkpt lat="58.04093" lon="-6.71665">
        <ele>31.16</ele>
        <time>2021-03-20T18:09:25Z</time>
      </trkpt>
      <trkpt lat="58.04171" lon="-6.71654">
        <ele>30.72</ele>
        <time>2021-03-20T18:09:29Z</time>
      </trkpt>
      <trkpt lat="58.04222" lon="-6.71621">
        <ele>30.31</ele>
        <time>2021-03-20T18:09:33Z</time>
      </trkpt>
      <trkpt lat="58.04434" lon="-6.71364">
        <ele>28.37</ele>
        <time>2021-03-20T18:09:37Z</time>
      </trkpt>
      <trkpt lat="58.04768" lon="-6.70974">
        <ele>20.35</ele>
        <time>2021-03-20T18:09:41Z</time>
      </trkpt>
      <trkpt lat="58.05278" lon="-6.70384">
        <ele>7</ele>
        <time>2021-03-20T18:09:45Z</time>
      </trkpt>
      <trkpt lat="58.05396" lon="-6.70239">
        <ele>8</ele>
        <time>2021-03-20T18:09:49Z</time>
      </trkpt>
      <trkpt lat="58.05744" lon="-6.69832">
        <ele>6</ele>
        <time>2021-03-20T18:09:53Z</time>
      </trkpt>
      <trkpt lat="58.05809" lon="-6.69762">
        <ele>5</ele>
        <time>2021-03-20T18:09:57Z</time>
      </trkpt>
      <trkpt lat="58.05842" lon="-6.69706">
        <ele>5.3</ele>
        <time>2021-03-20T18:10:01Z</time>
      </trkpt>
      <trkpt lat="58.05859" lon="-6.69671">
        <ele>5.93</ele>
        <time>2021-03-20T18:10:04Z</time>
      </trkpt>
      <trkpt lat="58.05879" lon="-6.69619">
        <ele>6.45</ele>
        <time>2021-03-20T18:10:08Z</time>
      </trkpt>
      <trkpt lat="58.05893" lon="-6.69567">
        <ele>7.35</ele>
        <time>2021-03-20T18:10:12Z</time>
      </trkpt>
      <trkpt lat="58.05903" lon="-6.6952">
        <ele>8.62</ele>
        <time>2021-03-20T18:10:16Z</time>
      </trkpt>
      <trkpt lat="58.05913" lon="-6.6942">
        <ele>9.76</ele>
        <time>2021-03-20T18:10:20Z</time>
      </trkpt>
      <trkpt lat="58.05912" lon="-6.69316">
        <ele>10.51</ele>
        <time>2021-03-20T18:10:24Z</time>
      </trkpt>
      <trkpt lat="58.05896" lon="-6.69209">
        <ele>11.07</ele>
        <time>2021-03-20T18:10:28Z</time>
      </trkpt>
      <trkpt lat="58.0587" lon="-6.69099">
        <ele>11.45</ele>
        <time>2021-03-20T18:10:32Z</time>
      </trkpt>
      <trkpt lat="58.0586" lon="-6.69004">
        <ele>12.7</ele>
        <time>2021-03-20T18:10:36Z</time>
      </trkpt>
      <trkpt lat="58.0586" lon="-6.68935">
        <ele>12.84</ele>
        <time>2021-03-20T18:10:40Z</time>
      </trkpt>
      <trkpt lat="58.05865" lon="-6.68871">
        <ele>14.39</ele>
        <time>2021-03-20T18:10:44Z</time>
      </trkpt>
      <trkpt lat="58.05867" lon="-6.68682">
        <ele>17.3</ele>
        <time>2021-03-20T18:10:47Z</time>
      </trkpt>
      <trkpt lat="58.05872" lon="-6.68615">
        <ele>19.38</ele>
        <time>2021-03-20T18:10:51Z</time>
      </trkpt>
      <trkpt lat="58.05898" lon="-6.68474">
        <ele>21.3</ele>
        <time>2021-03-20T18:10:55Z</time>
      </trkpt>
      <trkpt lat="58.05911" lon="-6.68395">
        <ele>22.05</ele>
        <time>2021-03-20T18:10:59Z</time>
      </trkpt>
      <trkpt lat="58.05931" lon="-6.68209">
        <ele>23.55</ele>
        <time>2021-03-20T18:11:03Z</time>
      </trkpt>
      <trkpt lat="58.0594" lon="-6.68098">
        <ele>25.5</ele>
        <time>2021-03-20T18:11:07Z</time>
      </trkpt>
      <trkpt lat="58.05977" lon="-6.67693">
        <ele>24.28</ele>
        <time>2021-03-20T18:11:11Z</time>
      </trkpt>
      <trkpt lat="58.0603" lon="-6.67265">
        <ele>24.12</ele>
        <time>2021-03-20T18:11:15Z</time>
      </trkpt>
      <trkpt lat="58.06045" lon="-6.67172">
        <ele>26.23</ele>
        <time>2021-03-20T18:11:19Z</time>
      </trkpt>
      <trkpt lat="58.06063" lon="-6.67076">
        <ele>26.53</ele>
        <time>2021-03-20T18:11:23Z</time>
      </trkpt>
      <trkpt lat="58.0616" lon="-6.66597">
        <ele>30.29</ele>
        <time>2021-03-20T18:11:27Z</time>
      </trkpt>
      <trkpt lat="58.06193" lon="-6.66471">
        <ele>32.7</ele>
        <time>2021-03-20T18:11:31Z</time>
      </trkpt>
      <trkpt lat="58.0622" lon="-6.66409">
        <ele>34.47</ele>
        <time>2021-03-20T18:11:34Z</time>
      </trkpt>
      <trkpt lat="58.06267" lon="-6.66341">
        <ele>34.88</ele>
        <time>2021-03-20T18:11:38Z</time>
      </trkpt>
      <trkpt lat="58.06306" lon="-6.66315">
        <ele>35</ele>
        <time>2021-03-20T18:11:42Z</time>
      </trkpt>
      <trkpt lat="58.06326" lon="-6.66295">
        <ele>34.63</ele>
        <time>2021-03-20T18:11:46Z</time>
      </trkpt>
      <trkpt lat="58.06453" lon="-6.66224">
        <ele>32.46</ele>
        <time>2021-03-20T18:11:50Z</time>
      </trkpt>
      <trkpt lat="58.06584" lon="-6.66163">
        <ele>27.11</ele>
        <time>2021-03-20T18:11:54Z</time>
      </trkpt>
      <trkpt lat="58.06637" lon="-6.66131">
        <ele>26.7</ele>
        <time>2021-03-20T18:11:58Z</time>
      </trkpt>
      <trkpt lat="58.06655" lon="-6.66114">
        <ele>26.68</ele>
        <time>2021-03-20T18:12:02Z</time>
      </trkpt>
      <trkpt lat="58.06669" lon="-6.66095">
        <ele>26.41</ele>
        <time>2021-03-20T18:12:06Z</time>
      </trkpt>
      <trkpt lat="58.06732" lon="-6.65991">
        <ele>25.65</ele>
        <time>2021-03-20T18:12:10Z</time>
      </trkpt>
      <trkpt lat="58.06839" lon="-6.65887">
        <ele>23.62</ele>
        <time>2021-03-20T18:12:14Z</time>
      </trkpt>
      <trkpt lat="58.06932" lon="-6.65774">
        <ele>24.06</ele>
        <time>2021-03-20T18:12:18Z</time>
      </trkpt>
      <trkpt lat="58.0715" lon="-6.65498">
        <ele>18.64</ele>
        <time>2021-03-20T18:12:21Z</time>
      </trkpt>
      <trkpt lat="58.07228" lon="-6.65382">
        <ele>19</ele>
        <time>2021-03-20T18:12:25Z</time>
      </trkpt>
      <trkpt lat="58.07322" lon="-6.65305">
        <ele>19.43</ele>
        <time>2021-03-20T18:12:29Z</time>
      </trkpt>
      <trkpt lat="58.07422" lon="-6.65236">
        <ele>24.21</ele>
        <time>2021-03-20T18:12:33Z</time>
      </trkpt>
      <trkpt lat="58.07733" lon="-6.65013">
        <ele>23.34</ele>
        <time>2021-03-20T18:12:37Z</time>
      </trkpt>
      <trkpt lat="58.07864" lon="-6.649">
        <ele>21.48</ele>
        <time>2021-03-20T18:12:41Z</time>
      </trkpt>
      <trkpt lat="58.07971" lon="-6.64798">
        <ele>20.39</ele>
        <time>2021-03-20T18:12:45Z</time>
      </trkpt>
      <trkpt lat="58.08026" lon="-6.64742">
        <ele>17.72</ele>
        <time>2021-03-20T18:12:49Z</time>
      </trkpt>
      <trkpt lat="58.08105" lon="-6.64656">
        <ele>13.22</ele>
        <time>2021-03-20T18:12:53Z</time>
      </trkpt>
      <trkpt lat="58.08196" lon="-6.64551">
        <ele>12</ele>
        <time>2021-03-20T18:12:57Z</time>
      </trkpt>
      <trkpt lat="58.08315" lon="-6.6438">
        <ele>11</ele>
        <time>2021-03-20T18:13:01Z</time>
      </trkpt>
      <trkpt lat="58.08426" lon="-6.6419">
        <ele>14.5</ele>
        <time>2021-03-20T18:13:04Z</time>
      </trkpt>
      <trkpt lat="58.08509" lon="-6.64043">
        <ele>17</ele>
        <time>2021-03-20T18:13:08Z</time>
      </trkpt>
      <trkpt lat="58.08563" lon="-6.63929">
        <ele>17</ele>
        <time>2021-03-20T18:13:12Z</time>
      </trkpt>
      <trkpt lat="58.08609" lon="-6.63811">
        <ele>16.09</ele>
        <time>2021-03-20T18:13:16Z</time>
      </trkpt>
      <trkpt lat="58.08634" lon="-6.63735">
        <ele>16.18</ele>
        <time>2021-03-20T18:13:20Z</time>
      </trkpt>
      <trkpt lat="58.08656" lon="-6.63652">
        <ele>15</ele>
        <time>2021-03-20T18:13:24Z</time>
      </trkpt>
      <trkpt lat="58.08712" lon="-6.63382">
        <ele>18.9</ele>
        <time>2021-03-20T18:13:28Z</time>
      </trkpt>
      <trkpt lat="58.08752" lon="-6.6318">
        <ele>24.68</ele>
        <time>2021-03-20T18:13:32Z</time>
      </trkpt>
      <trkpt lat="58.08775" lon="-6.62972">
        <ele>27.54</ele>
        <time>2021-03-20T18:13:36Z</time>
      </trkpt>
      <trkpt lat="58.08781" lon="-6.62936">
        <ele>29.47</ele>
        <time>2021-03-20T18:13:40Z</time>
      </trkpt>
      <trkpt lat="58.08796" lon="-6.62877">
        <ele>31.68</ele>
        <time>2021-03-20T18:13:44Z</time>
      </trkpt>
      <trkpt lat="58.0882" lon="-6.62818">
        <ele>32.95</ele>
        <time>2021-03-20T18:13:48Z</time>
      </trkpt>
      <trkpt lat="58.08858" lon="-6.62739">
        <ele>36.01</ele>
        <time>2021-03-20T18:13:51Z</time>
      </trkpt>
      <trkpt lat="58.08881" lon="-6.62685">
        <ele>37.55</ele>
        <time>2021-03-20T18:13:55Z</time>
      </trkpt>
      <trkpt lat="58.08895" lon="-6.62645">
        <ele>38.66</ele>
        <time>2021-03-20T18:13:59Z</time>
      </trkpt>
      <trkpt lat="58.08905" lon="-6.62603">
        <ele>39.75</ele>
        <time>2021-03-20T18:14:03Z</time>
      </trkpt>
      <trkpt lat="58.08919" lon="-6.62511">
        <ele>41.78</ele>
        <time>2021-03-20T18:14:07Z</time>
      </trkpt>
      <trkpt lat="58.08962" lon="-6.62164">
        <ele>38.2</ele>
        <time>2021-03-20T18:14:11Z</time>
      </trkpt>
      <trkpt lat="58.08965" lon="-6.62119">
        <ele>37.46</ele>
        <time>2021-03-20T18:14:15Z</time>
      </trkpt>
      <trkpt lat="58.08958" lon="-6.61908">
        <ele>37.12</ele>
        <time>2021-03-20T18:14:19Z</time>
      </trkpt>
      <trkpt lat="58.08958" lon="-6.61859">
        <ele>37.45</ele>
        <time>2021-03-20T18:14:23Z</time>
      </trkpt>
      <trkpt lat="58.08961" lon="-6.6181">
        <ele>37.93</ele>
        <time>2021-03-20T18:14:27Z</time>
      </trkpt>
      <trkpt lat="58.08966" lon="-6.61758">
        <ele>38.34</ele>
        <time>2021-03-20T18:14:31Z</time>
      </trkpt>
      <trkpt lat="58.0898" lon="-6.61681">
        <ele>37.45</ele>
        <time>2021-03-20T18:14:34Z</time>
      </trkpt>
      <trkpt lat="58.09025" lon="-6.61451">
        <ele>38.74</ele>
        <time>2021-03-20T18:14:38Z</time>
      </trkpt>
      <trkpt lat="58.09061" lon="-6.61284">
        <ele>39.65</ele>
        <time>2021-03-20T18:14:42Z</time>
      </trkpt>
      <trkpt lat="58.09125" lon="-6.6102">
        <ele>39.69</ele>
        <time>2021-03-20T18:14:46Z</time>
      </trkpt>
      <trkpt lat="58.09137" lon="-6.60941">
        <ele>39.81</ele>
        <time>2021-03-20T18:14:50Z</time>
      </trkpt>
      <trkpt lat="58.0914" lon="-6.60887">
        <ele>41.04</ele>
        <time>2021-03-20T18:14:54Z</time>
      </trkpt>
      <trkpt lat="58.0914" lon="-6.60774">
        <ele>45.23</ele>
        <time>2021-03-20T18:14:58Z</time>
      </trkpt>
      <trkpt lat="58.09144" lon="-6.60595">
        <ele>51.62</ele>
        <time>2021-03-20T18:15:02Z</time>
      </trkpt>
      <trkpt lat="58.09156" lon="-6.60265">
        <ele>62.12</ele>
        <time>2021-03-20T18:15:06Z</time>
      </trkpt>
      <trkpt lat="58.09159" lon="-6.60226">
        <ele>63.53</ele>
        <time>2021-03-20T18:15:10Z</time>
      </trkpt>
      <trkpt lat="58.0917" lon="-6.60144">
        <ele>63.75</ele>
        <time>2021-03-20T18:15:14Z</time>
      </trkpt>
      <trkpt lat="58.09184" lon="-6.59908">
        <ele>65.18</ele>
        <time>2021-03-20T18:15:18Z</time>
      </trkpt>
      <trkpt lat="58.09192" lon="-6.59851">
        <ele>64.4</ele>
        <time>2021-03-20T18:15:21Z</time>
      </trkpt>
      <trkpt lat="58.09224" lon="-6.59685">
        <ele>62.63</ele>
        <time>2021-03-20T18:15:25Z</time>
      </trkpt>
      <trkpt lat="58.09233" lon="-6.59603">
        <ele>59.96</ele>
        <time>2021-03-20T18:15:29Z</time>
      </trkpt>
      <trkpt lat="58.0924" lon="-6.59551">
        <ele>58.76</ele>
        <time>2021-03-20T18:15:33Z</time>
      </trkpt>
      <trkpt lat="58.0925" lon="-6.59518">
        <ele>59.32</ele>
        <time>2021-03-20T18:15:37Z</time>
      </trkpt>
      <trkpt lat="58.09328" lon="-6.59316">
        <ele>53.67</ele>
        <time>2021-03-20T18:15:41Z</time>
      </trkpt>
      <trkpt lat="58.09343" lon="-6.59268">
        <ele>52.67</ele>
        <time>2021-03-20T18:15:45Z</time>
      </trkpt>
      <trkpt lat="58.0936" lon="-6.59153">
        <ele>49.4</ele>
        <time>2021-03-20T18:15:49Z</time>
      </trkpt>
      <trkpt lat="58.09374" lon="-6.591">
        <ele>48.77</ele>
        <time>2021-03-20T18:15:53Z</time>
      </trkpt>
      <trkpt lat="58.0939" lon="-6.59016">
        <ele>46.2</ele>
        <time>2021-03-20T18:15:57Z</time>
      </trkpt>
      <trkpt lat="58.09412" lon="-6.58842">
        <ele>39.13</ele>
        <time>2021-03-20T18:16:01Z</time>
      </trkpt>
      <trkpt lat="58.09417" lon="-6.58779">
        <ele>40.01</ele>
        <time>2021-03-20T18:16:05Z</time>
      </trkpt>
      <trkpt lat="58.09429" lon="-6.58703">
        <ele>42.29</ele>
        <time>2021-03-20T18:16:08Z</time>
      </trkpt>
      <trkpt lat="58.09452" lon="-6.5862">
        <ele>45.85</ele>
        <time>2021-03-20T18:16:12Z</time>
      </trkpt>
      <trkpt lat="58.09483" lon="-6.58523">
        <ele>45.56</ele>
        <time>2021-03-20T18:16:16Z</time>
      </trkpt>
      <trkpt lat="58.09571" lon="-6.58282">
        <ele>34.61</ele>
        <time>2021-03-20T18:16:20Z</time>
      </trkpt>
      <trkpt lat="58.09637" lon="-6.58129">
        <ele>35.93</ele>
        <time>2021-03-20T18:16:24Z</time>
      </trkpt>
      <trkpt lat="58.0966" lon="-6.58079">
        <ele>34.71</ele>
        <time>2021-03-20T18:16:28Z</time>
      </trkpt>
      <trkpt lat="58.09725" lon="-6.57964">
        <ele>29.69</ele>
        <time>2021-03-20T18:16:32Z</time>
      </trkpt>
      <trkpt lat="58.09745" lon="-6.5791">
        <ele>28.18</ele>
        <time>2021-03-20T18:16:36Z</time>
      </trkpt>
      <trkpt lat="58.09755" lon="-6.57849">
        <ele>27.53</ele>
        <time>2021-03-20T18:16:40Z</time>
      </trkpt>
      <trkpt lat="58.09758" lon="-6.57808">
        <ele>26.26</ele>
        <time>2021-03-20T18:16:44Z</time>
      </trkpt>
      <trkpt lat="58.09756" lon="-6.57774">
        <ele>25</ele>
        <time>2021-03-20T18:16:48Z</time>
      </trkpt>
      <trkpt lat="58.09748" lon="-6.57712">
        <ele>23.98</ele>
        <time>2021-03-20T18:16:51Z</time>
      </trkpt>
      <trkpt lat="58.09745" lon="-6.5768">
        <ele>23.11</ele>
        <time>2021-03-20T18:16:55Z</time>
      </trkpt>
      <trkpt lat="58.09745" lon="-6.57646">
        <ele>22.5</ele>
        <time>2021-03-20T18:16:59Z</time>
      </trkpt>
      <trkpt lat="58.09754" lon="-6.57593">
        <ele>22.67</ele>
        <time>2021-03-20T18:17:03Z</time>
      </trkpt>
      <trkpt lat="58.09798" lon="-6.57475">
        <ele>27.43</ele>
        <time>2021-03-20T18:17:07Z</time>
      </trkpt>
      <trkpt lat="58.09811" lon="-6.57414">
        <ele>27.52</ele>
        <time>2021-03-20T18:17:11Z</time>
      </trkpt>
      <trkpt lat="58.09831" lon="-6.57276">
        <ele>27.24</ele>
        <time>2021-03-20T18:17:15Z</time>
      </trkpt>
      <trkpt lat="58.09856" lon="-6.57077">
        <ele>19.76</ele>
        <time>2021-03-20T18:17:19Z</time>
      </trkpt>
      <trkpt lat="58.09862" lon="-6.56989">
        <ele>19.5</ele>
        <time>2021-03-20T18:17:23Z</time>
      </trkpt>
      <trkpt lat="58.09865" lon="-6.56813">
        <ele>19.91</ele>
        <time>2021-03-20T18:17:27Z</time>
      </trkpt>
      <trkpt lat="58.09872" lon="-6.56695">
        <ele>17.14</ele>
        <time>2021-03-20T18:17:31Z</time>
      </trkpt>
      <trkpt lat="58.09884" lon="-6.56635">
        <ele>15.45</ele>
        <time>2021-03-20T18:17:35Z</time>
      </trkpt>
      <trkpt lat="58.09918" lon="-6.56533">
        <ele>15.3</ele>
        <time>2021-03-20T18:17:38Z</time>
      </trkpt>
      <trkpt lat="58.09968" lon="-6.56438">
        <ele>16.73</ele>
        <time>2021-03-20T18:17:42Z</time>
      </trkpt>
      <trkpt lat="58.10105" lon="-6.56155">
        <ele>22</ele>
        <time>2021-03-20T18:17:46Z</time>
      </trkpt>
      <trkpt lat="58.10145" lon="-6.56083">
        <ele>20.19</ele>
        <time>2021-03-20T18:17:50Z</time>
      </trkpt>
      <trkpt lat="58.10193" lon="-6.56014">
        <ele>18.49</ele>
        <time>2021-03-20T18:17:54Z</time>
      </trkpt>
      <trkpt lat="58.10302" lon="-6.5589">
        <ele>10</ele>
        <time>2021-03-20T18:17:58Z</time>
      </trkpt>
      <trkpt lat="58.1033" lon="-6.55848">
        <ele>10</ele>
        <time>2021-03-20T18:18:02Z</time>
      </trkpt>
      <trkpt lat="58.10352" lon="-6.55797">
        <ele>9.54</ele>
        <time>2021-03-20T18:18:06Z</time>
      </trkpt>
      <trkpt lat="58.10362" lon="-6.55759">
        <ele>10.08</ele>
        <time>2021-03-20T18:18:10Z</time>
      </trkpt>
      <trkpt lat="58.10421" lon="-6.55428">
        <ele>17.36</ele>
        <time>2021-03-20T18:18:14Z</time>
      </trkpt>
      <trkpt lat="58.10431" lon="-6.5538">
        <ele>17.06</ele>
        <time>2021-03-20T18:18:18Z</time>
      </trkpt>
      <trkpt lat="58.10455" lon="-6.55299">
        <ele>17.52</ele>
        <time>2021-03-20T18:18:22Z</time>
      </trkpt>
      <trkpt lat="58.10489" lon="-6.55209">
        <ele>16.85</ele>
        <time>2021-03-20T18:18:25Z</time>
      </trkpt>
      <trkpt lat="58.105" lon="-6.55169">
        <ele>16.22</ele>
        <time>2021-03-20T18:18:29Z</time>
      </trkpt>
      <trkpt lat="58.10509" lon="-6.55131">
        <ele>15.73</ele>
        <time>2021-03-20T18:18:33Z</time>
      </trkpt>
      <trkpt lat="58.10525" lon="-6.55039">
        <ele>15.72</ele>
        <time>2021-03-20T18:18:37Z</time>
      </trkpt>
      <trkpt lat="58.10544" lon="-6.54894">
        <ele>14.38</ele>
        <time>2021-03-20T18:18:41Z</time>
      </trkpt>
      <trkpt lat="58.10554" lon="-6.54794">
        <ele>13.47</ele>
        <time>2021-03-20T18:18:45Z</time>
      </trkpt>
      <trkpt lat="58.10558" lon="-6.54716">
        <ele>13.19</ele>
        <time>2021-03-20T18:18:49Z</time>
      </trkpt>
      <trkpt lat="58.10586" lon="-6.54314">
        <ele>21.26</ele>
        <time>2021-03-20T18:18:53Z</time>
      </trkpt>
      <trkpt lat="58.10594" lon="-6.54185">
        <ele>25.58</ele>
        <time>2021-03-20T18:18:57Z</time>
      </trkpt>
      <trkpt lat="58.10594" lon="-6.54121">
        <ele>26.37</ele>
        <time>2021-03-20T18:19:01Z</time>
      </trkpt>
      <trkpt lat="58.10591" lon="-6.54062">
        <ele>25.64</ele>
        <time>2021-03-20T18:19:05Z</time>
      </trkpt>
      <trkpt lat="58.10566" lon="-6.53785">
        <ele>25.57</ele>
        <time>2021-03-20T18:19:08Z</time>
      </trkpt>
      <trkpt lat="58.10564" lon="-6.53728">
        <ele>26.36</ele>
        <time>2021-03-20T18:19:12Z</time>
      </trkpt>
      <trkpt lat="58.10564" lon="-6.53672">
        <ele>27.76</ele>
        <time>2021-03-20T18:19:16Z</time>
      </trkpt>
      <trkpt lat="58.10567" lon="-6.53625">
        <ele>28.61</ele>
        <time>2021-03-20T18:19:20Z</time>
      </trkpt>
      <trkpt lat="58.10576" lon="-6.53566">
        <ele>29.96</ele>
        <time>2021-03-20T18:19:24Z</time>
      </trkpt>
      <trkpt lat="58.106" lon="-6.53478">
        <ele>33.21</ele>
        <time>2021-03-20T18:19:28Z</time>
      </trkpt>
      <trkpt lat="58.10642" lon="-6.53338">
        <ele>36.12</ele>
        <time>2021-03-20T18:19:32Z</time>
      </trkpt>
      <trkpt lat="58.10656" lon="-6.53271">
        <ele>36.63</ele>
        <time>2021-03-20T18:19:36Z</time>
      </trkpt>
      <trkpt lat="58.10661" lon="-6.53225">
        <ele>37.69</ele>
        <time>2021-03-20T18:19:40Z</time>
      </trkpt>
      <trkpt lat="58.10662" lon="-6.53181">
        <ele>39.4</ele>
        <time>2021-03-20T18:19:44Z</time>
      </trkpt>
      <trkpt lat="58.10661" lon="-6.53134">
        <ele>40.37</ele>
        <time>2021-03-20T18:19:48Z</time>
      </trkpt>
      <trkpt lat="58.10655" lon="-6.53084">
        <ele>41.41</ele>
        <time>2021-03-20T18:19:52Z</time>
      </trkpt>
      <trkpt lat="58.10647" lon="-6.53043">
        <ele>41.69</ele>
        <time>2021-03-20T18:19:55Z</time>
      </trkpt>
      <trkpt lat="58.1063" lon="-6.52985">
        <ele>42.33</ele>
        <time>2021-03-20T18:19:59Z</time>
      </trkpt>
      <trkpt lat="58.10596" lon="-6.52894">
        <ele>43.14</ele>
        <time>2021-03-20T18:20:03Z</time>
      </trkpt>
      <trkpt lat="58.10573" lon="-6.52811">
        <ele>42.36</ele>
        <time>2021-03-20T18:20:07Z</time>
      </trkpt>
      <trkpt lat="58.10559" lon="-6.52741">
        <ele>41.87</ele>
        <time>2021-03-20T18:20:11Z</time>
      </trkpt>
      <trkpt lat="58.10552" lon="-6.52684">
        <ele>42</ele>
        <time>2021-03-20T18:20:15Z</time>
      </trkpt>
      <trkpt lat="58.10546" lon="-6.52606">
        <ele>41.94</ele>
        <time>2021-03-20T18:20:19Z</time>
      </trkpt>
      <trkpt lat="58.10546" lon="-6.52546">
        <ele>40.32</ele>
        <time>2021-03-20T18:20:23Z</time>
      </trkpt>
      <trkpt lat="58.10573" lon="-6.52054">
        <ele>34.46</ele>
        <time>2021-03-20T18:20:27Z</time>
      </trkpt>
      <trkpt lat="58.10584" lon="-6.51969">
        <ele>34.01</ele>
        <time>2021-03-20T18:20:31Z</time>
      </trkpt>
      <trkpt lat="58.10606" lon="-6.51873">
        <ele>32.53</ele>
        <time>2021-03-20T18:20:35Z</time>
      </trkpt>
      <trkpt lat="58.1071" lon="-6.51466">
        <ele>25.32</ele>
        <time>2021-03-20T18:20:38Z</time>
      </trkpt>
      <trkpt lat="58.10719" lon="-6.51435">
        <ele>24.87</ele>
        <time>2021-03-20T18:20:42Z</time>
      </trkpt>
      <trkpt lat="58.10765" lon="-6.51296">
        <ele>28.36</ele>
        <time>2021-03-20T18:20:46Z</time>
      </trkpt>
      <trkpt lat="58.10826" lon="-6.51196">
        <ele>30</ele>
        <time>2021-03-20T18:20:50Z</time>
      </trkpt>
      <trkpt lat="58.10903" lon="-6.51107">
        <ele>32.42</ele>
        <time>2021-03-20T18:20:54Z</time>
      </trkpt>
      <trkpt lat="58.10986" lon="-6.51015">
        <ele>32.49</ele>
        <time>2021-03-20T18:20:58Z</time>
      </trkpt>
      <trkpt lat="58.11088" lon="-6.50962">
        <ele>37.55</ele>
        <time>2021-03-20T18:21:02Z</time>
      </trkpt>
      <trkpt lat="58.11131" lon="-6.50962">
        <ele>38.64</ele>
        <time>2021-03-20T18:21:06Z</time>
      </trkpt>
      <trkpt lat="58.1117" lon="-6.50984">
        <ele>38.31</ele>
        <time>2021-03-20T18:21:10Z</time>
      </trkpt>
      <trkpt lat="58.11209" lon="-6.51019">
        <ele>37.65</ele>
        <time>2021-03-20T18:21:14Z</time>
      </trkpt>
      <trkpt lat="58.11276" lon="-6.51087">
        <ele>37.12</ele>
        <time>2021-03-20T18:21:18Z</time>
      </trkpt>
      <trkpt lat="58.11384" lon="-6.51237">
        <ele>40.21</ele>
        <time>2021-03-20T18:21:22Z</time>
      </trkpt>
      <trkpt lat="58.11432" lon="-6.51275">
        <ele>40.41</ele>
        <time>2021-03-20T18:21:25Z</time>
      </trkpt>
      <trkpt lat="58.11463" lon="-6.51278">
        <ele>40.01</ele>
        <time>2021-03-20T18:21:29Z</time>
      </trkpt>
      <trkpt lat="58.11496" lon="-6.51267">
        <ele>41.35</ele>
        <time>2021-03-20T18:21:33Z</time>
      </trkpt>
      <trkpt lat="58.11544" lon="-6.51232">
        <ele>42.58</ele>
        <time>2021-03-20T18:21:37Z</time>
      </trkpt>
      <trkpt lat="58.11576" lon="-6.51204">
        <ele>42.8</ele>
        <time>2021-03-20T18:21:41Z</time>
      </trkpt>
      <trkpt lat="58.11649" lon="-6.51107">
        <ele>43.42</ele>
        <time>2021-03-20T18:21:45Z</time>
      </trkpt>
      <trkpt lat="58.1167" lon="-6.51084">
        <ele>43.16</ele>
        <time>2021-03-20T18:21:49Z</time>
      </trkpt>
      <trkpt lat="58.11691" lon="-6.51075">
        <ele>43.04</ele>
        <time>2021-03-20T18:21:53Z</time>
      </trkpt>
      <trkpt lat="58.11716" lon="-6.51078">
        <ele>42.05</ele>
        <time>2021-03-20T18:21:57Z</time>
      </trkpt>
      <trkpt lat="58.11744" lon="-6.511">
        <ele>41.57</ele>
        <time>2021-03-20T18:22:01Z</time>
      </trkpt>
      <trkpt lat="58.11848" lon="-6.51211">
        <ele>37.51</ele>
        <time>2021-03-20T18:22:05Z</time>
      </trkpt>
      <trkpt lat="58.11872" lon="-6.51227">
        <ele>36.41</ele>
        <time>2021-03-20T18:22:09Z</time>
      </trkpt>
      <trkpt lat="58.11894" lon="-6.51233">
        <ele>35.49</ele>
        <time>2021-03-20T18:22:12Z</time>
      </trkpt>
      <trkpt lat="58.11915" lon="-6.51225">
        <ele>35.93</ele>
        <time>2021-03-20T18:22:16Z</time>
      </trkpt>
      <trkpt lat="58.11933" lon="-6.51209">
        <ele>36</ele>
        <time>2021-03-20T18:22:20Z</time>
      </trkpt>
      <trkpt lat="58.11952" lon="-6.51183">
        <ele>35.58</ele>
        <time>2021-03-20T18:22:24Z</time>
      </trkpt>
      <trkpt lat="58.12011" lon="-6.51078">
        <ele>35.08</ele>
        <time>2021-03-20T18:22:28Z</time>
      </trkpt>
      <trkpt lat="58.12032" lon="-6.51048">
        <ele>36.15</ele>
        <time>2021-03-20T18:22:32Z</time>
      </trkpt>
      <trkpt lat="58.12055" lon="-6.51027">
        <ele>37.04</ele>
        <time>2021-03-20T18:22:36Z</time>
      </trkpt>
      <trkpt lat="58.12078" lon="-6.51018">
        <ele>38.17</ele>
        <time>2021-03-20T18:22:40Z</time>
      </trkpt>
      <trkpt lat="58.12101" lon="-6.51016">
        <ele>39.04</ele>
        <time>2021-03-20T18:22:44Z</time>
      </trkpt>
      <trkpt lat="58.12173" lon="-6.51039">
        <ele>44.21</ele>
        <time>2021-03-20T18:22:48Z</time>
      </trkpt>
      <trkpt lat="58.12234" lon="-6.5103">
        <ele>45.43</ele>
        <time>2021-03-20T18:22:52Z</time>
      </trkpt>
      <trkpt lat="58.12266" lon="-6.51019">
        <ele>46.31</ele>
        <time>2021-03-20T18:22:55Z</time>
      </trkpt>
      <trkpt lat="58.12292" lon="-6.51003">
        <ele>46.44</ele>
        <time>2021-03-20T18:22:59Z</time>
      </trkpt>
      <trkpt lat="58.12314" lon="-6.50979">
        <ele>46.54</ele>
        <time>2021-03-20T18:23:03Z</time>
      </trkpt>
      <trkpt lat="58.12334" lon="-6.50943">
        <ele>45.98</ele>
        <time>2021-03-20T18:23:07Z</time>
      </trkpt>
      <trkpt lat="58.124" lon="-6.50812">
        <ele>45</ele>
        <time>2021-03-20T18:23:11Z</time>
      </trkpt>
      <trkpt lat="58.12426" lon="-6.50774">
        <ele>46</ele>
        <time>2021-03-20T18:23:15Z</time>
      </trkpt>
      <trkpt lat="58.12455" lon="-6.50751">
        <ele>46.37</ele>
        <time>2021-03-20T18:23:19Z</time>
      </trkpt>
      <trkpt lat="58.1248" lon="-6.50743">
        <ele>47.54</ele>
        <time>2021-03-20T18:23:23Z</time>
      </trkpt>
      <trkpt lat="58.12531" lon="-6.50744">
        <ele>49.2</ele>
        <time>2021-03-20T18:23:27Z</time>
      </trkpt>
      <trkpt lat="58.12554" lon="-6.5074">
        <ele>49.34</ele>
        <time>2021-03-20T18:23:31Z</time>
      </trkpt>
      <trkpt lat="58.12741" lon="-6.50684">
        <ele>47.28</ele>
        <time>2021-03-20T18:23:35Z</time>
      </trkpt>
      <trkpt lat="58.13063" lon="-6.5058">
        <ele>42.01</ele>
        <time>2021-03-20T18:23:39Z</time>
      </trkpt>
      <trkpt lat="58.13106" lon="-6.50562">
        <ele>42.11</ele>
        <time>2021-03-20T18:23:42Z</time>
      </trkpt>
      <trkpt lat="58.13132" lon="-6.50559">
        <ele>41.37</ele>
        <time>2021-03-20T18:23:46Z</time>
      </trkpt>
      <trkpt lat="58.13157" lon="-6.50571">
        <ele>40.6</ele>
        <time>2021-03-20T18:23:50Z</time>
      </trkpt>
      <trkpt lat="58.13228" lon="-6.5064">
        <ele>41.97</ele>
        <time>2021-03-20T18:23:54Z</time>
      </trkpt>
      <trkpt lat="58.13259" lon="-6.50665">
        <ele>42.94</ele>
        <time>2021-03-20T18:23:58Z</time>
      </trkpt>
      <trkpt lat="58.13354" lon="-6.5069">
        <ele>39.92</ele>
        <time>2021-03-20T18:24:02Z</time>
      </trkpt>
      <trkpt lat="58.13378" lon="-6.50704">
        <ele>39.12</ele>
        <time>2021-03-20T18:24:06Z</time>
      </trkpt>
      <trkpt lat="58.13433" lon="-6.50755">
        <ele>39.93</ele>
        <time>2021-03-20T18:24:10Z</time>
      </trkpt>
      <trkpt lat="58.13433" lon="-6.50755">
        <ele>39.93</ele>
        <time>2021-03-20T18:24:10Z</time>
      </trkpt>
      <trkpt lat="58.13448" lon="-6.50769">
        <ele>40.74</ele>
        <time>2021-03-20T18:24:14Z</time>
      </trkpt>
      <trkpt lat="58.13491" lon="-6.50798">
        <ele>43.56</ele>
        <time>2021-03-20T18:24:17Z</time>
      </trkpt>
      <trkpt lat="58.13556" lon="-6.50869">
        <ele>45.04</ele>
        <time>2021-03-20T18:24:21Z</time>
      </trkpt>
      <trkpt lat="58.13717" lon="-6.5091">
        <ele>41.98</ele>
        <time>2021-03-20T18:24:24Z</time>
      </trkpt>
      <trkpt lat="58.13741" lon="-6.5091">
        <ele>43.24</ele>
        <time>2021-03-20T18:24:28Z</time>
      </trkpt>
      <trkpt lat="58.13766" lon="-6.50899">
        <ele>42.37</ele>
        <time>2021-03-20T18:24:32Z</time>
      </trkpt>
      <trkpt lat="58.138" lon="-6.50873">
        <ele>40.67</ele>
        <time>2021-03-20T18:24:35Z</time>
      </trkpt>
      <trkpt lat="58.13836" lon="-6.50837">
        <ele>37.56</ele>
        <time>2021-03-20T18:24:39Z</time>
      </trkpt>
      <trkpt lat="58.13853" lon="-6.50829">
        <ele>38.26</ele>
        <time>2021-03-20T18:24:42Z</time>
      </trkpt>
      <trkpt lat="58.13873" lon="-6.50829">
        <ele>38.42</ele>
        <time>2021-03-20T18:24:46Z</time>
      </trkpt>
      <trkpt lat="58.13896" lon="-6.50841">
        <ele>37.93</ele>
        <time>2021-03-20T18:24:50Z</time>
      </trkpt>
      <trkpt lat="58.13946" lon="-6.50898">
        <ele>33.74</ele>
        <time>2021-03-20T18:24:53Z</time>
      </trkpt>
      <trkpt lat="58.13965" lon="-6.50913">
        <ele>36.18</ele>
        <time>2021-03-20T18:24:57Z</time>
      </trkpt>
      <trkpt lat="58.13992" lon="-6.50916">
        <ele>38.35</ele>
        <time>2021-03-20T18:25:00Z</time>
      </trkpt>
      <trkpt lat="58.14016" lon="-6.50908">
        <ele>39.9</ele>
        <time>2021-03-20T18:25:04Z</time>
      </trkpt>
      <trkpt lat="58.14038" lon="-6.5089">
        <ele>41.54</ele>
        <time>2021-03-20T18:25:07Z</time>
      </trkpt>
      <trkpt lat="58.14061" lon="-6.50858">
        <ele>42.37</ele>
        <time>2021-03-20T18:25:11Z</time>
      </trkpt>
      <trkpt lat="58.14106" lon="-6.50779">
        <ele>41.67</ele>
        <time>2021-03-20T18:25:15Z</time>
      </trkpt>
      <trkpt lat="58.14129" lon="-6.50749">
        <ele>41.97</ele>
        <time>2021-03-20T18:25:18Z</time>
      </trkpt>
      <trkpt lat="58.14153" lon="-6.50738">
        <ele>42.08</ele>
        <time>2021-03-20T18:25:22Z</time>
      </trkpt>
      <trkpt lat="58.14176" lon="-6.50739">
        <ele>42.26</ele>
        <time>2021-03-20T18:25:25Z</time>
      </trkpt>
      <trkpt lat="58.14196" lon="-6.50752">
        <ele>41.83</ele>
        <time>2021-03-20T18:25:29Z</time>
      </trkpt>
      <trkpt lat="58.14227" lon="-6.50787">
        <ele>38.72</ele>
        <time>2021-03-20T18:25:33Z</time>
      </trkpt>
      <trkpt lat="58.14275" lon="-6.50817">
        <ele>35.11</ele>
        <time>2021-03-20T18:25:36Z</time>
      </trkpt>
      <trkpt lat="58.14426" lon="-6.50899">
        <ele>28.01</ele>
        <time>2021-03-20T18:25:40Z</time>
      </trkpt>
      <trkpt lat="58.14453" lon="-6.50907">
        <ele>27.33</ele>
        <time>2021-03-20T18:25:43Z</time>
      </trkpt>
      <trkpt lat="58.14495" lon="-6.50911">
        <ele>26.97</ele>
        <time>2021-03-20T18:25:47Z</time>
      </trkpt>
      <trkpt lat="58.14521" lon="-6.5091">
        <ele>27.77</ele>
        <time>2021-03-20T18:25:50Z</time>
      </trkpt>
      <trkpt lat="58.14543" lon="-6.509">
        <ele>28.56</ele>
        <time>2021-03-20T18:25:54Z</time>
      </trkpt>
      <trkpt lat="58.14567" lon="-6.50878">
        <ele>29</ele>
        <time>2021-03-20T18:25:58Z</time>
      </trkpt>
      <trkpt lat="58.14602" lon="-6.50828">
        <ele>29</ele>
        <time>2021-03-20T18:26:01Z</time>
      </trkpt>
      <trkpt lat="58.14644" lon="-6.50773">
        <ele>26.61</ele>
        <time>2021-03-20T18:26:05Z</time>
      </trkpt>
      <trkpt lat="58.14933" lon="-6.50433">
        <ele>33.59</ele>
        <time>2021-03-20T18:26:08Z</time>
      </trkpt>
      <trkpt lat="58.15159" lon="-6.50195">
        <ele>46.19</ele>
        <time>2021-03-20T18:26:12Z</time>
      </trkpt>
      <trkpt lat="58.15514" lon="-6.49833">
        <ele>67.55</ele>
        <time>2021-03-20T18:26:16Z</time>
      </trkpt>
      <trkpt lat="58.15517" lon="-6.49853">
        <ele>68.51</ele>
        <time>2021-03-20T18:26:21Z</time>
      </trkpt>
      <trkpt lat="58.15513" lon="-6.49899">
        <ele>69.55</ele>
        <time>2021-03-20T18:26:27Z</time>
      </trkpt>
      <trkpt lat="58.15489" lon="-6.50106">
        <ele>68.81</ele>
        <time>2021-03-20T18:26:33Z</time>
      </trkpt>
      <trkpt lat="58.15481" lon="-6.50202">
        <ele>67.92</ele>
        <time>2021-03-20T18:26:38Z</time>
      </trkpt>
      <trkpt lat="58.15474" lon="-6.50332">
        <ele>67.2</ele>
        <time>2021-03-20T18:26:44Z</time>
      </trkpt>
      <trkpt lat="58.15472" lon="-6.50399">
        <ele>66.01</ele>
        <time>2021-03-20T18:26:50Z</time>
      </trkpt>
      <trkpt lat="58.15473" lon="-6.50475">
        <ele>65.07</ele>
        <time>2021-03-20T18:26:55Z</time>
      </trkpt>
      <trkpt lat="58.15495" lon="-6.50866">
        <ele>62.83</ele>
        <time>2021-03-20T18:27:01Z</time>
      </trkpt>
      <trkpt lat="58.15509" lon="-6.50962">
        <ele>62.01</ele>
        <time>2021-03-20T18:27:07Z</time>
      </trkpt>
      <trkpt lat="58.15531" lon="-6.51054">
        <ele>62.11</ele>
        <time>2021-03-20T18:27:12Z</time>
      </trkpt>
      <trkpt lat="58.15561" lon="-6.51173">
        <ele>61.34</ele>
        <time>2021-03-20T18:27:18Z</time>
      </trkpt>
      <trkpt lat="58.15595" lon="-6.51284">
        <ele>61.51</ele>
        <time>2021-03-20T18:27:24Z</time>
      </trkpt>
      <trkpt lat="58.15618" lon="-6.51342">
        <ele>60.97</ele>
        <time>2021-03-20T18:27:30Z</time>
      </trkpt>
      <trkpt lat="58.15678" lon="-6.51457">
        <ele>59.69</ele>
        <time>2021-03-20T18:27:35Z</time>
      </trkpt>
      <trkpt lat="58.15712" lon="-6.51534">
        <ele>58.42</ele>
        <time>2021-03-20T18:27:41Z</time>
      </trkpt>
      <trkpt lat="58.1573" lon="-6.51583">
        <ele>57.26</ele>
        <time>2021-03-20T18:27:47Z</time>
      </trkpt>
      <trkpt lat="58.15744" lon="-6.51665">
        <ele>57.58</ele>
        <time>2021-03-20T18:27:52Z</time>
      </trkpt>
      <trkpt lat="58.15746" lon="-6.51684">
        <ele>57.82</ele>
        <time>2021-03-20T18:27:58Z</time>
      </trkpt>
      <trkpt lat="58.1584" lon="-6.52659">
        <ele>56.74</ele>
        <time>2021-03-20T18:28:04Z</time>
      </trkpt>
      <trkpt lat="58.15846" lon="-6.52703">
        <ele>55.61</ele>
        <time>2021-03-20T18:28:09Z</time>
      </trkpt>
      <trkpt lat="58.15856" lon="-6.52747">
        <ele>53.83</ele>
        <time>2021-03-20T18:28:15Z</time>
      </trkpt>
      <trkpt lat="58.15873" lon="-6.52794">
        <ele>52.73</ele>
        <time>2021-03-20T18:28:21Z</time>
      </trkpt>
      <trkpt lat="58.15895" lon="-6.52836">
        <ele>52.41</ele>
        <time>2021-03-20T18:28:26Z</time>
      </trkpt>
      <trkpt lat="58.15943" lon="-6.5291">
        <ele>52.61</ele>
        <time>2021-03-20T18:28:32Z</time>
      </trkpt>
      <trkpt lat="58.15962" lon="-6.52954">
        <ele>51.94</ele>
        <time>2021-03-20T18:28:38Z</time>
      </trkpt>
      <trkpt lat="58.15979" lon="-6.53012">
        <ele>51.61</ele>
        <time>2021-03-20T18:28:44Z</time>
      </trkpt>
      <trkpt lat="58.15999" lon="-6.53119">
        <ele>50.65</ele>
        <time>2021-03-20T18:28:49Z</time>
      </trkpt>
      <trkpt lat="58.16025" lon="-6.53241">
        <ele>50.98</ele>
        <time>2021-03-20T18:28:55Z</time>
      </trkpt>
      <trkpt lat="58.16048" lon="-6.53323">
        <ele>51.58</ele>
        <time>2021-03-20T18:29:01Z</time>
      </trkpt>
      <trkpt lat="58.16081" lon="-6.53405">
        <ele>51.2</ele>
        <time>2021-03-20T18:29:06Z</time>
      </trkpt>
      <trkpt lat="58.16179" lon="-6.53608">
        <ele>55.42</ele>
        <time>2021-03-20T18:29:12Z</time>
      </trkpt>
      <trkpt lat="58.16207" lon="-6.53671">
        <ele>56.21</ele>
        <time>2021-03-20T18:29:18Z</time>
      </trkpt>
      <trkpt lat="58.16248" lon="-6.53776">
        <ele>55.99</ele>
        <time>2021-03-20T18:29:23Z</time>
      </trkpt>
      <trkpt lat="58.16285" lon="-6.53858">
        <ele>54.11</ele>
        <time>2021-03-20T18:29:29Z</time>
      </trkpt>
      <trkpt lat="58.16365" lon="-6.54011">
        <ele>50.77</ele>
        <time>2021-03-20T18:29:35Z</time>
      </trkpt>
      <trkpt lat="58.16434" lon="-6.54157">
        <ele>52.25</ele>
        <time>2021-03-20T18:29:40Z</time>
      </trkpt>
      <trkpt lat="58.1645" lon="-6.54208">
        <ele>52.21</ele>
        <time>2021-03-20T18:29:46Z</time>
      </trkpt>
      <trkpt lat="58.16462" lon="-6.54263">
        <ele>52.64</ele>
        <time>2021-03-20T18:29:52Z</time>
      </trkpt>
      <trkpt lat="58.16467" lon="-6.5433">
        <ele>52.8</ele>
        <time>2021-03-20T18:29:57Z</time>
      </trkpt>
      <trkpt lat="58.16481" lon="-6.54851">
        <ele>58.62</ele>
        <time>2021-03-20T18:30:03Z</time>
      </trkpt>
      <trkpt lat="58.16487" lon="-6.54919">
        <ele>59.06</ele>
        <time>2021-03-20T18:30:09Z</time>
      </trkpt>
      <trkpt lat="58.16542" lon="-6.55334">
        <ele>63.49</ele>
        <time>2021-03-20T18:30:15Z</time>
      </trkpt>
      <trkpt lat="58.16554" lon="-6.55445">
        <ele>63.71</ele>
        <time>2021-03-20T18:30:20Z</time>
      </trkpt>
      <trkpt lat="58.16586" lon="-6.55894">
        <ele>70.34</ele>
        <time>2021-03-20T18:30:26Z</time>
      </trkpt>
      <trkpt lat="58.16593" lon="-6.55966">
        <ele>70.61</ele>
        <time>2021-03-20T18:30:32Z</time>
      </trkpt>
      <trkpt lat="58.16605" lon="-6.56021">
        <ele>71.09</ele>
        <time>2021-03-20T18:30:37Z</time>
      </trkpt>
      <trkpt lat="58.16613" lon="-6.56047">
        <ele>71.46</ele>
        <time>2021-03-20T18:30:43Z</time>
      </trkpt>
      <trkpt lat="58.16624" lon="-6.56078">
        <ele>71.61</ele>
        <time>2021-03-20T18:30:49Z</time>
      </trkpt>
      <trkpt lat="58.1664" lon="-6.56108">
        <ele>72.21</ele>
        <time>2021-03-20T18:30:54Z</time>
      </trkpt>
      <trkpt lat="58.16687" lon="-6.56167">
        <ele>75.13</ele>
        <time>2021-03-20T18:31:00Z</time>
      </trkpt>
      <trkpt lat="58.16763" lon="-6.56253">
        <ele>77.26</ele>
        <time>2021-03-20T18:31:06Z</time>
      </trkpt>
      <trkpt lat="58.16773" lon="-6.56269">
        <ele>77.76</ele>
        <time>2021-03-20T18:31:11Z</time>
      </trkpt>
      <trkpt lat="58.16785" lon="-6.56297">
        <ele>78.09</ele>
        <time>2021-03-20T18:31:17Z</time>
      </trkpt>
      <trkpt lat="58.16795" lon="-6.56334">
        <ele>78.52</ele>
        <time>2021-03-20T18:31:23Z</time>
      </trkpt>
      <trkpt lat="58.16814" lon="-6.56427">
        <ele>79.19</ele>
        <time>2021-03-20T18:31:28Z</time>
      </trkpt>
      <trkpt lat="58.16831" lon="-6.56488">
        <ele>80.15</ele>
        <time>2021-03-20T18:31:34Z</time>
      </trkpt>
      <trkpt lat="58.16886" lon="-6.56651">
        <ele>85.46</ele>
        <time>2021-03-20T18:31:40Z</time>
      </trkpt>
      <trkpt lat="58.16911" lon="-6.56699">
        <ele>87.27</ele>
        <time>2021-03-20T18:31:46Z</time>
      </trkpt>
      <trkpt lat="58.16932" lon="-6.5673">
        <ele>87.27</ele>
        <time>2021-03-20T18:31:51Z</time>
      </trkpt>
      <trkpt lat="58.16962" lon="-6.56763">
        <ele>88.42</ele>
        <time>2021-03-20T18:31:57Z</time>
      </trkpt>
      <trkpt lat="58.17018" lon="-6.56833">
        <ele>89.95</ele>
        <time>2021-03-20T18:32:03Z</time>
      </trkpt>
      <trkpt lat="58.17054" lon="-6.5689">
        <ele>90.79</ele>
        <time>2021-03-20T18:32:08Z</time>
      </trkpt>
      <trkpt lat="58.17069" lon="-6.56918">
        <ele>90.88</ele>
        <time>2021-03-20T18:32:14Z</time>
      </trkpt>
      <trkpt lat="58.17094" lon="-6.56978">
        <ele>90.74</ele>
        <time>2021-03-20T18:32:20Z</time>
      </trkpt>
      <trkpt lat="58.17105" lon="-6.57012">
        <ele>91.89</ele>
        <time>2021-03-20T18:32:25Z</time>
      </trkpt>
      <trkpt lat="58.17115" lon="-6.57054">
        <ele>93.27</ele>
        <time>2021-03-20T18:32:31Z</time>
      </trkpt>
      <trkpt lat="58.1713" lon="-6.57138">
        <ele>95.06</ele>
        <time>2021-03-20T18:32:37Z</time>
      </trkpt>
      <trkpt lat="58.17161" lon="-6.57386">
        <ele>97.4</ele>
        <time>2021-03-20T18:32:42Z</time>
      </trkpt>
      <trkpt lat="58.17175" lon="-6.57668">
        <ele>93.59</ele>
        <time>2021-03-20T18:32:48Z</time>
      </trkpt>
      <trkpt lat="58.17192" lon="-6.5807">
        <ele>93.85</ele>
        <time>2021-03-20T18:32:54Z</time>
      </trkpt>
      <trkpt lat="58.17203" lon="-6.58278">
        <ele>95.62</ele>
        <time>2021-03-20T18:33:00Z</time>
      </trkpt>
      <trkpt lat="58.17206" lon="-6.58364">
        <ele>96.24</ele>
        <time>2021-03-20T18:33:05Z</time>
      </trkpt>
      <trkpt lat="58.17222" lon="-6.58716">
        <ele>98.02</ele>
        <time>2021-03-20T18:33:11Z</time>
      </trkpt>
      <trkpt lat="58.17229" lon="-6.58793">
        <ele>98.18</ele>
        <time>2021-03-20T18:33:17Z</time>
      </trkpt>
      <trkpt lat="58.17274" lon="-6.59146">
        <ele>88.61</ele>
        <time>2021-03-20T18:33:22Z</time>
      </trkpt>
      <trkpt lat="58.17337" lon="-6.59747">
        <ele>75.45</ele>
        <time>2021-03-20T18:33:28Z</time>
      </trkpt>
      <trkpt lat="58.17445" lon="-6.60918">
        <ele>77.03</ele>
        <time>2021-03-20T18:33:34Z</time>
      </trkpt>
      <trkpt lat="58.17452" lon="-6.60974">
        <ele>75.47</ele>
        <time>2021-03-20T18:33:39Z</time>
      </trkpt>
      <trkpt lat="58.17461" lon="-6.61025">
        <ele>73.42</ele>
        <time>2021-03-20T18:33:45Z</time>
      </trkpt>
      <trkpt lat="58.17471" lon="-6.61064">
        <ele>72.28</ele>
        <time>2021-03-20T18:33:51Z</time>
      </trkpt>
      <trkpt lat="58.17496" lon="-6.61138">
        <ele>70.72</ele>
        <time>2021-03-20T18:33:56Z</time>
      </trkpt>
      <trkpt lat="58.17532" lon="-6.61271">
        <ele>73.3</ele>
        <time>2021-03-20T18:34:02Z</time>
      </trkpt>
      <trkpt lat="58.17625" lon="-6.61667">
        <ele>68.5</ele>
        <time>2021-03-20T18:34:08Z</time>
      </trkpt>
      <trkpt lat="58.17645" lon="-6.61773">
        <ele>68.47</ele>
        <time>2021-03-20T18:34:13Z</time>
      </trkpt>
      <trkpt lat="58.17659" lon="-6.61877">
        <ele>67.03</ele>
        <time>2021-03-20T18:34:19Z</time>
      </trkpt>
      <trkpt lat="58.17694" lon="-6.62244">
        <ele>63.2</ele>
        <time>2021-03-20T18:34:25Z</time>
      </trkpt>
      <trkpt lat="58.17844" lon="-6.63757">
        <ele>48</ele>
        <time>2021-03-20T18:34:31Z</time>
      </trkpt>
      <trkpt lat="58.17936" lon="-6.64649">
        <ele>45.31</ele>
        <time>2021-03-20T18:34:36Z</time>
      </trkpt>
      <trkpt lat="58.18076" lon="-6.65916">
        <ele>41.04</ele>
        <time>2021-03-20T18:34:42Z</time>
      </trkpt>
      <trkpt lat="58.18095" lon="-6.66069">
        <ele>35.09</ele>
        <time>2021-03-20T18:34:48Z</time>
      </trkpt>
      <trkpt lat="58.18105" lon="-6.66131">
        <ele>32.52</ele>
        <time>2021-03-20T18:34:53Z</time>
      </trkpt>
      <trkpt lat="58.18124" lon="-6.66208">
        <ele>29.06</ele>
        <time>2021-03-20T18:34:59Z</time>
      </trkpt>
      <trkpt lat="58.18242" lon="-6.66652">
        <ele>28.7</ele>
        <time>2021-03-20T18:35:05Z</time>
      </trkpt>
      <trkpt lat="58.18359" lon="-6.67079">
        <ele>36.84</ele>
        <time>2021-03-20T18:35:10Z</time>
      </trkpt>
      <trkpt lat="58.18437" lon="-6.67406">
        <ele>40.73</ele>
        <time>2021-03-20T18:35:16Z</time>
      </trkpt>
      <trkpt lat="58.18536" lon="-6.67749">
        <ele>42.32</ele>
        <time>2021-03-20T18:35:22Z</time>
      </trkpt>
      <trkpt lat="58.18574" lon="-6.67939">
        <ele>38.12</ele>
        <time>2021-03-20T18:35:27Z</time>
      </trkpt>
      <trkpt lat="58.18615" lon="-6.68214">
        <ele>37.14</ele>
        <time>2021-03-20T18:35:33Z</time>
      </trkpt>
      <trkpt lat="58.18663" lon="-6.68562">
        <ele>34.7</ele>
        <time>2021-03-20T18:35:39Z</time>
      </trkpt>
      <trkpt lat="58.1873" lon="-6.69015">
        <ele>34.48</ele>
        <time>2021-03-20T18:35:44Z</time>
      </trkpt>
      <trkpt lat="58.18784" lon="-6.69404">
        <ele>28.45</ele>
        <time>2021-03-20T18:35:50Z</time>
      </trkpt>
      <trkpt lat="58.18812" lon="-6.6972">
        <ele>26.23</ele>
        <time>2021-03-20T18:35:56Z</time>
      </trkpt>
      <trkpt lat="58.18819" lon="-6.69897">
        <ele>25.47</ele>
        <time>2021-03-20T18:36:02Z</time>
      </trkpt>
      <trkpt lat="58.18817" lon="-6.69973">
        <ele>25.42</ele>
        <time>2021-03-20T18:36:07Z</time>
      </trkpt>
      <trkpt lat="58.18811" lon="-6.7006">
        <ele>26.2</ele>
        <time>2021-03-20T18:36:13Z</time>
      </trkpt>
      <trkpt lat="58.18793" lon="-6.70223">
        <ele>26.67</ele>
        <time>2021-03-20T18:36:19Z</time>
      </trkpt>
      <trkpt lat="58.18793" lon="-6.70263">
        <ele>25.13</ele>
        <time>2021-03-20T18:36:24Z</time>
      </trkpt>
      <trkpt lat="58.18795" lon="-6.70311">
        <ele>23.77</ele>
        <time>2021-03-20T18:36:30Z</time>
      </trkpt>
      <trkpt lat="58.18803" lon="-6.70367">
        <ele>23.47</ele>
        <time>2021-03-20T18:36:36Z</time>
      </trkpt>
      <trkpt lat="58.18815" lon="-6.70414">
        <ele>23.43</ele>
        <time>2021-03-20T18:36:41Z</time>
      </trkpt>
      <trkpt lat="58.18829" lon="-6.70451">
        <ele>25.13</ele>
        <time>2021-03-20T18:36:47Z</time>
      </trkpt>
      <trkpt lat="58.18855" lon="-6.70501">
        <ele>27.07</ele>
        <time>2021-03-20T18:36:53Z</time>
      </trkpt>
      <trkpt lat="58.1893" lon="-6.70594">
        <ele>27.09</ele>
        <time>2021-03-20T18:36:58Z</time>
      </trkpt>
      <trkpt lat="58.19055" lon="-6.70724">
        <ele>23.95</ele>
        <time>2021-03-20T18:37:04Z</time>
      </trkpt>
      <trkpt lat="58.1912" lon="-6.70807">
        <ele>22.32</ele>
        <time>2021-03-20T18:37:10Z</time>
      </trkpt>
      <trkpt lat="58.19156" lon="-6.70857">
        <ele>22.23</ele>
        <time>2021-03-20T18:37:16Z</time>
      </trkpt>
      <trkpt lat="58.19222" lon="-6.70996">
        <ele>22.99</ele>
        <time>2021-03-20T18:37:21Z</time>
      </trkpt>
      <trkpt lat="58.19244" lon="-6.71057">
        <ele>24.85</ele>
        <time>2021-03-20T18:37:27Z</time>
      </trkpt>
      <trkpt lat="58.19269" lon="-6.71144">
        <ele>27</ele>
        <time>2021-03-20T18:37:33Z</time>
      </trkpt>
      <trkpt lat="58.19316" lon="-6.71343">
        <ele>29.59</ele>
        <time>2021-03-20T18:37:38Z</time>
      </trkpt>
      <trkpt lat="58.19334" lon="-6.71407">
        <ele>30.05</ele>
        <time>2021-03-20T18:37:44Z</time>
      </trkpt>
      <trkpt lat="58.19364" lon="-6.71493">
        <ele>32.19</ele>
        <time>2021-03-20T18:37:50Z</time>
      </trkpt>
      <trkpt lat="58.19401" lon="-6.71576">
        <ele>32.1</ele>
        <time>2021-03-20T18:37:55Z</time>
      </trkpt>
      <trkpt lat="58.1943" lon="-6.71631">
        <ele>31.78</ele>
        <time>2021-03-20T18:38:01Z</time>
      </trkpt>
      <trkpt lat="58.19546" lon="-6.71808">
        <ele>32.64</ele>
        <time>2021-03-20T18:38:07Z</time>
      </trkpt>
      <trkpt lat="58.19577" lon="-6.71865">
        <ele>32</ele>
        <time>2021-03-20T18:38:12Z</time>
      </trkpt>
      <trkpt lat="58.1961" lon="-6.71937">
        <ele>31</ele>
        <time>2021-03-20T18:38:18Z</time>
      </trkpt>
      <trkpt lat="58.1964" lon="-6.7202">
        <ele>29.33</ele>
        <time>2021-03-20T18:38:24Z</time>
      </trkpt>
      <trkpt lat="58.19671" lon="-6.72127">
        <ele>27.16</ele>
        <time>2021-03-20T18:38:29Z</time>
      </trkpt>
      <trkpt lat="58.19778" lon="-6.72605">
        <ele>14.99</ele>
        <time>2021-03-20T18:38:35Z</time>
      </trkpt>
      <trkpt lat="58.19804" lon="-6.72734">
        <ele>13.52</ele>
        <time>2021-03-20T18:38:41Z</time>
      </trkpt>
      <trkpt lat="58.19817" lon="-6.72822">
        <ele>10.42</ele>
        <time>2021-03-20T18:38:47Z</time>
      </trkpt>
      <trkpt lat="58.19851" lon="-6.73097">
        <ele>9</ele>
        <time>2021-03-20T18:38:52Z</time>
      </trkpt>
      <trkpt lat="58.19858" lon="-6.73128">
        <ele>9.07</ele>
        <time>2021-03-20T18:38:58Z</time>
      </trkpt>
      <trkpt lat="58.19872" lon="-6.73163">
        <ele>8.62</ele>
        <time>2021-03-20T18:39:04Z</time>
      </trkpt>
      <trkpt lat="58.19884" lon="-6.73182">
        <ele>8.17</ele>
        <time>2021-03-20T18:39:09Z</time>
      </trkpt>
      <trkpt lat="58.19899" lon="-6.73195">
        <ele>8</ele>
        <time>2021-03-20T18:39:15Z</time>
      </trkpt>
      <trkpt lat="58.20362" lon="-6.73509">
        <ele>5.01</ele>
        <time>2021-03-20T18:39:21Z</time>
      </trkpt>
      <trkpt lat="58.20561" lon="-6.73629">
        <ele>6.22</ele>
        <time>2021-03-20T18:39:26Z</time>
      </trkpt>
      <trkpt lat="58.20657" lon="-6.73693">
        <ele>9.46</ele>
        <time>2021-03-20T18:39:32Z</time>
      </trkpt>
      <trkpt lat="58.20775" lon="-6.73766">
        <ele>8.59</ele>
        <time>2021-03-20T18:39:38Z</time>
      </trkpt>
      <trkpt lat="58.20821" lon="-6.73792">
        <ele>8.52</ele>
        <time>2021-03-20T18:39:43Z</time>
      </trkpt>
      <trkpt lat="58.20895" lon="-6.73822">
        <ele>9.02</ele>
        <time>2021-03-20T18:39:49Z</time>
      </trkpt>
      <trkpt lat="58.20965" lon="-6.73843">
        <ele>9.27</ele>
        <time>2021-03-20T18:39:55Z</time>
      </trkpt>
      <trkpt lat="58.21026" lon="-6.73852">
        <ele>10.29</ele>
        <time>2021-03-20T18:40:01Z</time>
      </trkpt>
      <trkpt lat="58.21105" lon="-6.73851">
        <ele>10.35</ele>
        <time>2021-03-20T18:40:06Z</time>
      </trkpt>
      <trkpt lat="58.21257" lon="-6.73843">
        <ele>9.67</ele>
        <time>2021-03-20T18:40:12Z</time>
      </trkpt>
      <trkpt lat="58.21313" lon="-6.73853">
        <ele>9.28</ele>
        <time>2021-03-20T18:40:18Z</time>
      </trkpt>
      <trkpt lat="58.2134" lon="-6.7387">
        <ele>8.52</ele>
        <time>2021-03-20T18:40:23Z</time>
      </trkpt>
      <trkpt lat="58.21386" lon="-6.73914">
        <ele>8.01</ele>
        <time>2021-03-20T18:40:29Z</time>
      </trkpt>
      <trkpt lat="58.21409" lon="-6.73851">
        <ele>9.81</ele>
        <time>2021-03-20T18:40:33Z</time>
      </trkpt>
      <trkpt lat="58.21415" lon="-6.73827">
        <ele>10</ele>
        <time>2021-03-20T18:40:36Z</time>
      </trkpt>
      <trkpt lat="58.21418" lon="-6.73809">
        <ele>10.05</ele>
        <time>2021-03-20T18:40:40Z</time>
      </trkpt>
      <trkpt lat="58.21421" lon="-6.7377">
        <ele>11.18</ele>
        <time>2021-03-20T18:40:43Z</time>
      </trkpt>
      <trkpt lat="58.21434" lon="-6.73729">
        <ele>13.48</ele>
        <time>2021-03-20T18:40:47Z</time>
      </trkpt>
      <trkpt lat="58.21446" lon="-6.737">
        <ele>15.06</ele>
        <time>2021-03-20T18:40:50Z</time>
      </trkpt>
      <trkpt lat="58.21452" lon="-6.73693">
        <ele>15.27</ele>
        <time>2021-03-20T18:40:54Z</time>
      </trkpt>
      <trkpt lat="58.21476" lon="-6.73699">
        <ele>16.12</ele>
        <time>2021-03-20T18:40:58Z</time>
      </trkpt>
      <trkpt lat="58.21521" lon="-6.73727">
        <ele>18.18</ele>
        <time>2021-03-20T18:41:01Z</time>
      </trkpt>
      <trkpt lat="58.21564" lon="-6.73746">
        <ele>18.48</ele>
        <time>2021-03-20T18:41:05Z</time>
      </trkpt>
      <trkpt lat="58.21584" lon="-6.73765">
        <ele>18.51</ele>
        <time>2021-03-20T18:41:08Z</time>
      </trkpt>
      <trkpt lat="58.21688" lon="-6.73817">
        <ele>22.37</ele>
        <time>2021-03-20T18:41:12Z</time>
      </trkpt>
      <trkpt lat="58.21721" lon="-6.73837">
        <ele>22.85</ele>
        <time>2021-03-20T18:41:15Z</time>
      </trkpt>
      <trkpt lat="58.21791" lon="-6.73866">
        <ele>25.3</ele>
        <time>2021-03-20T18:41:19Z</time>
      </trkpt>
      <trkpt lat="58.21817" lon="-6.73889">
        <ele>25.42</ele>
        <time>2021-03-20T18:41:22Z</time>
      </trkpt>
      <trkpt lat="58.21948" lon="-6.73968">
        <ele>28.38</ele>
        <time>2021-03-20T18:41:26Z</time>
      </trkpt>
      <trkpt lat="58.21975" lon="-6.73981">
        <ele>30.21</ele>
        <time>2021-03-20T18:41:30Z</time>
      </trkpt>
      <trkpt lat="58.21981" lon="-6.73991">
        <ele>30.61</ele>
        <time>2021-03-20T18:41:33Z</time>
      </trkpt>
      <trkpt lat="58.21998" lon="-6.74038">
        <ele>30.86</ele>
        <time>2021-03-20T18:41:37Z</time>
      </trkpt>
      <trkpt lat="58.22019" lon="-6.74075">
        <ele>33.3</ele>
        <time>2021-03-20T18:41:40Z</time>
      </trkpt>
      <trkpt lat="58.22034" lon="-6.7412">
        <ele>34.56</ele>
        <time>2021-03-20T18:41:44Z</time>
      </trkpt>
      <trkpt lat="58.22045" lon="-6.74144">
        <ele>35.69</ele>
        <time>2021-03-20T18:41:47Z</time>
      </trkpt>
      <trkpt lat="58.22051" lon="-6.74169">
        <ele>36.07</ele>
        <time>2021-03-20T18:41:51Z</time>
      </trkpt>
      <trkpt lat="58.22061" lon="-6.74237">
        <ele>38.54</ele>
        <time>2021-03-20T18:41:55Z</time>
      </trkpt>
      <trkpt lat="58.2206" lon="-6.74276">
        <ele>39.8</ele>
        <time>2021-03-20T18:41:58Z</time>
      </trkpt>
      <trkpt lat="58.2205" lon="-6.7436">
        <ele>41.19</ele>
        <time>2021-03-20T18:42:02Z</time>
      </trkpt>
      <trkpt lat="58.22049" lon="-6.74417">
        <ele>41.22</ele>
        <time>2021-03-20T18:42:05Z</time>
      </trkpt>
      <trkpt lat="58.22054" lon="-6.74449">
        <ele>41.04</ele>
        <time>2021-03-20T18:42:09Z</time>
      </trkpt>
      <trkpt lat="58.22061" lon="-6.74473">
        <ele>41</ele>
        <time>2021-03-20T18:42:12Z</time>
      </trkpt>
      <trkpt lat="58.22073" lon="-6.74491">
        <ele>41</ele>
        <time>2021-03-20T18:42:16Z</time>
      </trkpt>
      <trkpt lat="58.22082" lon="-6.74511">
        <ele>40.6</ele>
        <time>2021-03-20T18:42:20Z</time>
      </trkpt>
      <trkpt lat="58.22087" lon="-6.74532">
        <ele>40.24</ele>
        <time>2021-03-20T18:42:23Z</time>
      </trkpt>
      <trkpt lat="58.22089" lon="-6.74554">
        <ele>40.43</ele>
        <time>2021-03-20T18:42:27Z</time>
      </trkpt>
      <trkpt lat="58.22099" lon="-6.74707">
        <ele>38</ele>
        <time>2021-03-20T18:42:30Z</time>
      </trkpt>
      <trkpt lat="58.22099" lon="-6.74745">
        <ele>37.19</ele>
        <time>2021-03-20T18:42:34Z</time>
      </trkpt>
      <trkpt lat="58.22103" lon="-6.74776">
        <ele>37</ele>
        <time>2021-03-20T18:42:37Z</time>
      </trkpt>
      <trkpt lat="58.2212" lon="-6.74826">
        <ele>36</ele>
        <time>2021-03-20T18:42:41Z</time>
      </trkpt>
      <trkpt lat="58.22124" lon="-6.74846">
        <ele>35.56</ele>
        <time>2021-03-20T18:42:44Z</time>
      </trkpt>
      <trkpt lat="58.22133" lon="-6.74974">
        <ele>34.38</ele>
        <time>2021-03-20T18:42:48Z</time>
      </trkpt>
      <trkpt lat="58.22138" lon="-6.7501">
        <ele>35.31</ele>
        <time>2021-03-20T18:42:52Z</time>
      </trkpt>
      <trkpt lat="58.22147" lon="-6.75042">
        <ele>36.85</ele>
        <time>2021-03-20T18:42:55Z</time>
      </trkpt>
      <trkpt lat="58.22153" lon="-6.75101">
        <ele>38.89</ele>
        <time>2021-03-20T18:42:59Z</time>
      </trkpt>
      <trkpt lat="58.22151" lon="-6.75145">
        <ele>40.52</ele>
        <time>2021-03-20T18:43:02Z</time>
      </trkpt>
      <trkpt lat="58.22144" lon="-6.75184">
        <ele>41.2</ele>
        <time>2021-03-20T18:43:06Z</time>
      </trkpt>
      <trkpt lat="58.2214" lon="-6.75217">
        <ele>41.15</ele>
        <time>2021-03-20T18:43:09Z</time>
      </trkpt>
      <trkpt lat="58.22133" lon="-6.75244">
        <ele>40.33</ele>
        <time>2021-03-20T18:43:13Z</time>
      </trkpt>
      <trkpt lat="58.22115" lon="-6.75276">
        <ele>38.4</ele>
        <time>2021-03-20T18:43:17Z</time>
      </trkpt>
      <trkpt lat="58.22105" lon="-6.75318">
        <ele>37.55</ele>
        <time>2021-03-20T18:43:20Z</time>
      </trkpt>
      <trkpt lat="58.22099" lon="-6.75369">
        <ele>36.54</ele>
        <time>2021-03-20T18:43:24Z</time>
      </trkpt>
      <trkpt lat="58.22095" lon="-6.75446">
        <ele>33.39</ele>
        <time>2021-03-20T18:43:27Z</time>
      </trkpt>
      <trkpt lat="58.22085" lon="-6.7555">
        <ele>24.4</ele>
        <time>2021-03-20T18:43:31Z</time>
      </trkpt>
      <trkpt lat="58.22081" lon="-6.75569">
        <ele>22.6</ele>
        <time>2021-03-20T18:43:34Z</time>
      </trkpt>
      <trkpt lat="58.22123" lon="-6.75615">
        <ele>26.75</ele>
        <time>2021-03-20T18:43:38Z</time>
      </trkpt>
      <trkpt lat="58.22229" lon="-6.75757">
        <ele>29.02</ele>
        <time>2021-03-20T18:43:42Z</time>
      </trkpt>
      <trkpt lat="58.22252" lon="-6.75801">
        <ele>29.23</ele>
        <time>2021-03-20T18:43:46Z</time>
      </trkpt>
      <trkpt lat="58.22288" lon="-6.75847">
        <ele>30.21</ele>
        <time>2021-03-20T18:43:50Z</time>
      </trkpt>
      <trkpt lat="58.22337" lon="-6.75883">
        <ele>31</ele>
        <time>2021-03-20T18:43:54Z</time>
      </trkpt>
      <trkpt lat="58.22361" lon="-6.75887">
        <ele>30.99</ele>
        <time>2021-03-20T18:43:58Z</time>
      </trkpt>
      <trkpt lat="58.22388" lon="-6.75881">
        <ele>30.03</ele>
        <time>2021-03-20T18:44:01Z</time>
      </trkpt>
      <trkpt lat="58.22473" lon="-6.75854">
        <ele>24.25</ele>
        <time>2021-03-20T18:44:05Z</time>
      </trkpt>
      <trkpt lat="58.22508" lon="-6.75848">
        <ele>23.86</ele>
        <time>2021-03-20T18:44:09Z</time>
      </trkpt>
      <trkpt lat="58.22633" lon="-6.75849">
        <ele>22.12</ele>
        <time>2021-03-20T18:44:13Z</time>
      </trkpt>
      <trkpt lat="58.22682" lon="-6.75858">
        <ele>21.71</ele>
        <time>2021-03-20T18:44:17Z</time>
      </trkpt>
      <trkpt lat="58.2275" lon="-6.75876">
        <ele>24.42</ele>
        <time>2021-03-20T18:44:21Z</time>
      </trkpt>
      <trkpt lat="58.22847" lon="-6.75908">
        <ele>22.62</ele>
        <time>2021-03-20T18:44:25Z</time>
      </trkpt>
      <trkpt lat="58.22913" lon="-6.75937">
        <ele>24.43</ele>
        <time>2021-03-20T18:44:28Z</time>
      </trkpt>
      <trkpt lat="58.22995" lon="-6.75986">
        <ele>24.7</ele>
        <time>2021-03-20T18:44:32Z</time>
      </trkpt>
      <trkpt lat="58.23089" lon="-6.7605">
        <ele>27.8</ele>
        <time>2021-03-20T18:44:36Z</time>
      </trkpt>
      <trkpt lat="58.23159" lon="-6.76084">
        <ele>29.68</ele>
        <time>2021-03-20T18:44:40Z</time>
      </trkpt>
      <trkpt lat="58.23206" lon="-6.76092">
        <ele>30.03</ele>
        <time>2021-03-20T18:44:44Z</time>
      </trkpt>
      <trkpt lat="58.23364" lon="-6.7609">
        <ele>31.78</ele>
        <time>2021-03-20T18:44:48Z</time>
      </trkpt>
      <trkpt lat="58.23554" lon="-6.76043">
        <ele>35.94</ele>
        <time>2021-03-20T18:44:52Z</time>
      </trkpt>
      <trkpt lat="58.23681" lon="-6.76019">
        <ele>43.52</ele>
        <time>2021-03-20T18:44:55Z</time>
      </trkpt>
      <trkpt lat="58.23805" lon="-6.76027">
        <ele>42.13</ele>
        <time>2021-03-20T18:44:59Z</time>
      </trkpt>
      <trkpt lat="58.23891" lon="-6.76054">
        <ele>37.19</ele>
        <time>2021-03-20T18:45:03Z</time>
      </trkpt>
      <trkpt lat="58.24016" lon="-6.76128">
        <ele>34.41</ele>
        <time>2021-03-20T18:45:07Z</time>
      </trkpt>
      <trkpt lat="58.24121" lon="-6.76172">
        <ele>32.44</ele>
        <time>2021-03-20T18:45:11Z</time>
      </trkpt>
      <trkpt lat="58.24183" lon="-6.76231">
        <ele>31.58</ele>
        <time>2021-03-20T18:45:15Z</time>
      </trkpt>
      <trkpt lat="58.24214" lon="-6.76274">
        <ele>32</ele>
        <time>2021-03-20T18:45:18Z</time>
      </trkpt>
      <trkpt lat="58.24237" lon="-6.76334">
        <ele>32.54</ele>
        <time>2021-03-20T18:45:22Z</time>
      </trkpt>
      <trkpt lat="58.24266" lon="-6.76477">
        <ele>34.14</ele>
        <time>2021-03-20T18:45:26Z</time>
      </trkpt>
      <trkpt lat="58.24296" lon="-6.76535">
        <ele>35.29</ele>
        <time>2021-03-20T18:45:30Z</time>
      </trkpt>
      <trkpt lat="58.24361" lon="-6.76638">
        <ele>38.05</ele>
        <time>2021-03-20T18:45:34Z</time>
      </trkpt>
      <trkpt lat="58.24391" lon="-6.76707">
        <ele>36.73</ele>
        <time>2021-03-20T18:45:38Z</time>
      </trkpt>
      <trkpt lat="58.24418" lon="-6.7681">
        <ele>34.91</ele>
        <time>2021-03-20T18:45:42Z</time>
      </trkpt>
      <trkpt lat="58.24447" lon="-6.76896">
        <ele>33.94</ele>
        <time>2021-03-20T18:45:45Z</time>
      </trkpt>
      <trkpt lat="58.24483" lon="-6.7694">
        <ele>34.57</ele>
        <time>2021-03-20T18:45:49Z</time>
      </trkpt>
      <trkpt lat="58.24536" lon="-6.76996">
        <ele>36.35</ele>
        <time>2021-03-20T18:45:53Z</time>
      </trkpt>
      <trkpt lat="58.24609" lon="-6.77056">
        <ele>36.91</ele>
        <time>2021-03-20T18:45:57Z</time>
      </trkpt>
      <trkpt lat="58.24637" lon="-6.77084">
        <ele>39.73</ele>
        <time>2021-03-20T18:46:01Z</time>
      </trkpt>
      <trkpt lat="58.2472" lon="-6.77179">
        <ele>42.93</ele>
        <time>2021-03-20T18:46:05Z</time>
      </trkpt>
      <trkpt lat="58.2478" lon="-6.77237">
        <ele>43.06</ele>
        <time>2021-03-20T18:46:09Z</time>
      </trkpt>
      <trkpt lat="58.24842" lon="-6.77255">
        <ele>43.87</ele>
        <time>2021-03-20T18:46:12Z</time>
      </trkpt>
      <trkpt lat="58.24884" lon="-6.77253">
        <ele>44</ele>
        <time>2021-03-20T18:46:16Z</time>
      </trkpt>
      <trkpt lat="58.24966" lon="-6.77228">
        <ele>47.92</ele>
        <time>2021-03-20T18:46:20Z</time>
      </trkpt>
      <trkpt lat="58.25043" lon="-6.77222">
        <ele>51.98</ele>
        <time>2021-03-20T18:46:24Z</time>
      </trkpt>
      <trkpt lat="58.25161" lon="-6.77226">
        <ele>50.11</ele>
        <time>2021-03-20T18:46:28Z</time>
      </trkpt>
      <trkpt lat="58.25228" lon="-6.77232">
        <ele>50.19</ele>
        <time>2021-03-20T18:46:32Z</time>
      </trkpt>
      <trkpt lat="58.25228" lon="-6.77232">
        <ele>50.19</ele>
        <time>2021-03-20T18:46:32Z</time>
      </trkpt>
      <trkpt lat="58.25271" lon="-6.77235">
        <ele>50.27</ele>
        <time>2021-03-20T18:46:35Z</time>
      </trkpt>
      <trkpt lat="58.25341" lon="-6.77265">
        <ele>47.46</ele>
        <time>2021-03-20T18:46:39Z</time>
      </trkpt>
      <trkpt lat="58.25402" lon="-6.77321">
        <ele>48.06</ele>
        <time>2021-03-20T18:46:43Z</time>
      </trkpt>
      <trkpt lat="58.25486" lon="-6.77407">
        <ele>39.4</ele>
        <time>2021-03-20T18:46:46Z</time>
      </trkpt>
      <trkpt lat="58.25599" lon="-6.77514">
        <ele>36.06</ele>
        <time>2021-03-20T18:46:50Z</time>
      </trkpt>
      <trkpt lat="58.25667" lon="-6.77595">
        <ele>35.01</ele>
        <time>2021-03-20T18:46:53Z</time>
      </trkpt>
      <trkpt lat="58.25728" lon="-6.77677">
        <ele>37.38</ele>
        <time>2021-03-20T18:46:57Z</time>
      </trkpt>
      <trkpt lat="58.25796" lon="-6.77826">
        <ele>39.66</ele>
        <time>2021-03-20T18:47:01Z</time>
      </trkpt>
      <trkpt lat="58.25873" lon="-6.77958">
        <ele>37.41</ele>
        <time>2021-03-20T18:47:04Z</time>
      </trkpt>
      <trkpt lat="58.25917" lon="-6.78042">
        <ele>38.56</ele>
        <time>2021-03-20T18:47:08Z</time>
      </trkpt>
      <trkpt lat="58.25977" lon="-6.78095">
        <ele>42.59</ele>
        <time>2021-03-20T18:47:12Z</time>
      </trkpt>
      <trkpt lat="58.26047" lon="-6.78133">
        <ele>40.84</ele>
        <time>2021-03-20T18:47:15Z</time>
      </trkpt>
      <trkpt lat="58.26088" lon="-6.78152">
        <ele>40.24</ele>
        <time>2021-03-20T18:47:19Z</time>
      </trkpt>
      <trkpt lat="58.26131" lon="-6.78165">
        <ele>38.45</ele>
        <time>2021-03-20T18:47:22Z</time>
      </trkpt>
      <trkpt lat="58.26197" lon="-6.78179">
        <ele>38.22</ele>
        <time>2021-03-20T18:47:26Z</time>
      </trkpt>
      <trkpt lat="58.26258" lon="-6.78198">
        <ele>38.01</ele>
        <time>2021-03-20T18:47:30Z</time>
      </trkpt>
      <trkpt lat="58.26332" lon="-6.78232">
        <ele>38.32</ele>
        <time>2021-03-20T18:47:33Z</time>
      </trkpt>
      <trkpt lat="58.26391" lon="-6.7827">
        <ele>37.68</ele>
        <time>2021-03-20T18:47:37Z</time>
      </trkpt>
      <trkpt lat="58.26482" lon="-6.78335">
        <ele>38.97</ele>
        <time>2021-03-20T18:47:40Z</time>
      </trkpt>
      <trkpt lat="58.26518" lon="-6.78357">
        <ele>40.1</ele>
        <time>2021-03-20T18:47:44Z</time>
      </trkpt>
      <trkpt lat="58.2655" lon="-6.78371">
        <ele>39.3</ele>
        <time>2021-03-20T18:47:48Z</time>
      </trkpt>
      <trkpt lat="58.26582" lon="-6.78375">
        <ele>38.98</ele>
        <time>2021-03-20T18:47:51Z</time>
      </trkpt>
      <trkpt lat="58.26635" lon="-6.7837">
        <ele>39.33</ele>
        <time>2021-03-20T18:47:55Z</time>
      </trkpt>
      <trkpt lat="58.26667" lon="-6.78373">
        <ele>39.76</ele>
        <time>2021-03-20T18:47:59Z</time>
      </trkpt>
      <trkpt lat="58.26696" lon="-6.78385">
        <ele>39.59</ele>
        <time>2021-03-20T18:48:02Z</time>
      </trkpt>
      <trkpt lat="58.26723" lon="-6.784">
        <ele>40.22</ele>
        <time>2021-03-20T18:48:06Z</time>
      </trkpt>
      <trkpt lat="58.26834" lon="-6.78508">
        <ele>41.15</ele>
        <time>2021-03-20T18:48:09Z</time>
      </trkpt>
      <trkpt lat="58.26875" lon="-6.78543">
        <ele>42.16</ele>
        <time>2021-03-20T18:48:13Z</time>
      </trkpt>
      <trkpt lat="58.26898" lon="-6.78559">
        <ele>41.33</ele>
        <time>2021-03-20T18:48:17Z</time>
      </trkpt>
      <trkpt lat="58.26933" lon="-6.78576">
        <ele>40.13</ele>
        <time>2021-03-20T18:48:20Z</time>
      </trkpt>
      <trkpt lat="58.27001" lon="-6.78591">
        <ele>40.89</ele>
        <time>2021-03-20T18:48:24Z</time>
      </trkpt>
      <trkpt lat="58.27071" lon="-6.78595">
        <ele>39.27</ele>
        <time>2021-03-20T18:48:27Z</time>
      </trkpt>
      <trkpt lat="58.27142" lon="-6.78606">
        <ele>37.88</ele>
        <time>2021-03-20T18:48:31Z</time>
      </trkpt>
      <trkpt lat="58.27205" lon="-6.78621">
        <ele>35.89</ele>
        <time>2021-03-20T18:48:35Z</time>
      </trkpt>
      <trkpt lat="58.27224" lon="-6.78623">
        <ele>35.79</ele>
        <time>2021-03-20T18:48:38Z</time>
      </trkpt>
      <trkpt lat="58.27242" lon="-6.7862">
        <ele>37.26</ele>
        <time>2021-03-20T18:48:42Z</time>
      </trkpt>
      <trkpt lat="58.27256" lon="-6.78614">
        <ele>38.81</ele>
        <time>2021-03-20T18:48:46Z</time>
      </trkpt>
      <trkpt lat="58.2727" lon="-6.78602">
        <ele>40.85</ele>
        <time>2021-03-20T18:48:49Z</time>
      </trkpt>
      <trkpt lat="58.27314" lon="-6.78538">
        <ele>48.07</ele>
        <time>2021-03-20T18:48:53Z</time>
      </trkpt>
      <trkpt lat="58.27339" lon="-6.78508">
        <ele>48.52</ele>
        <time>2021-03-20T18:48:56Z</time>
      </trkpt>
      <trkpt lat="58.27442" lon="-6.7839">
        <ele>41.3</ele>
        <time>2021-03-20T18:49:00Z</time>
      </trkpt>
      <trkpt lat="58.27476" lon="-6.78335">
        <ele>38.91</ele>
        <time>2021-03-20T18:49:04Z</time>
      </trkpt>
      <trkpt lat="58.27496" lon="-6.78294">
        <ele>37.77</ele>
        <time>2021-03-20T18:49:07Z</time>
      </trkpt>
      <trkpt lat="58.27512" lon="-6.78251">
        <ele>36.58</ele>
        <time>2021-03-20T18:49:11Z</time>
      </trkpt>
      <trkpt lat="58.27523" lon="-6.78195">
        <ele>34.66</ele>
        <time>2021-03-20T18:49:14Z</time>
      </trkpt>
      <trkpt lat="58.27532" lon="-6.78133">
        <ele>30.43</ele>
        <time>2021-03-20T18:49:18Z</time>
      </trkpt>
      <trkpt lat="58.27548" lon="-6.78061">
        <ele>27.5</ele>
        <time>2021-03-20T18:49:22Z</time>
      </trkpt>
      <trkpt lat="58.27563" lon="-6.78008">
        <ele>27.24</ele>
        <time>2021-03-20T18:49:25Z</time>
      </trkpt>
      <trkpt lat="58.2757" lon="-6.77991">
        <ele>26.93</ele>
        <time>2021-03-20T18:49:29Z</time>
      </trkpt>
      <trkpt lat="58.27607" lon="-6.77917">
        <ele>26.32</ele>
        <time>2021-03-20T18:49:33Z</time>
      </trkpt>
      <trkpt lat="58.27611" lon="-6.77903">
        <ele>26.5</ele>
        <time>2021-03-20T18:49:36Z</time>
      </trkpt>
      <trkpt lat="58.27622" lon="-6.77849">
        <ele>27.76</ele>
        <time>2021-03-20T18:49:40Z</time>
      </trkpt>
      <trkpt lat="58.2763" lon="-6.77793">
        <ele>28.38</ele>
        <time>2021-03-20T18:49:43Z</time>
      </trkpt>
      <trkpt lat="58.27641" lon="-6.77752">
        <ele>27.93</ele>
        <time>2021-03-20T18:49:47Z</time>
      </trkpt>
      <trkpt lat="58.27653" lon="-6.77719">
        <ele>29.12</ele>
        <time>2021-03-20T18:49:51Z</time>
      </trkpt>
      <trkpt lat="58.27671" lon="-6.77687">
        <ele>30.57</ele>
        <time>2021-03-20T18:49:54Z</time>
      </trkpt>
      <trkpt lat="58.27691" lon="-6.7766">
        <ele>32.26</ele>
        <time>2021-03-20T18:49:58Z</time>
      </trkpt>
      <trkpt lat="58.27703" lon="-6.77636">
        <ele>33.19</ele>
        <time>2021-03-20T18:50:01Z</time>
      </trkpt>
      <trkpt lat="58.2772" lon="-6.77589">
        <ele>35</ele>
        <time>2021-03-20T18:50:05Z</time>
      </trkpt>
      <trkpt lat="58.27755" lon="-6.77468">
        <ele>31.68</ele>
        <time>2021-03-20T18:50:09Z</time>
      </trkpt>
      <trkpt lat="58.27764" lon="-6.77443">
        <ele>30.55</ele>
        <time>2021-03-20T18:50:12Z</time>
      </trkpt>
      <trkpt lat="58.27776" lon="-6.77422">
        <ele>30.2</ele>
        <time>2021-03-20T18:50:16Z</time>
      </trkpt>
      <trkpt lat="58.27791" lon="-6.7741">
        <ele>29.07</ele>
        <time>2021-03-20T18:50:20Z</time>
      </trkpt>
      <trkpt lat="58.27867" lon="-6.77379">
        <ele>21.58</ele>
        <time>2021-03-20T18:50:23Z</time>
      </trkpt>
      <trkpt lat="58.2788" lon="-6.77369">
        <ele>20.62</ele>
        <time>2021-03-20T18:50:27Z</time>
      </trkpt>
      <trkpt lat="58.27948" lon="-6.77293">
        <ele>19.22</ele>
        <time>2021-03-20T18:50:30Z</time>
      </trkpt>
      <trkpt lat="58.27962" lon="-6.7728">
        <ele>18.68</ele>
        <time>2021-03-20T18:50:34Z</time>
      </trkpt>
      <trkpt lat="58.28058" lon="-6.77221">
        <ele>17.71</ele>
        <time>2021-03-20T18:50:38Z</time>
      </trkpt>
      <trkpt lat="58.28075" lon="-6.77203">
        <ele>16.36</ele>
        <time>2021-03-20T18:50:41Z</time>
      </trkpt>
      <trkpt lat="58.2814" lon="-6.77064">
        <ele>17.59</ele>
        <time>2021-03-20T18:50:45Z</time>
      </trkpt>
      <trkpt lat="58.28156" lon="-6.77033">
        <ele>16.31</ele>
        <time>2021-03-20T18:50:48Z</time>
      </trkpt>
      <trkpt lat="58.28254" lon="-6.76875">
        <ele>9.53</ele>
        <time>2021-03-20T18:50:52Z</time>
      </trkpt>
      <trkpt lat="58.28288" lon="-6.76829">
        <ele>7.74</ele>
        <time>2021-03-20T18:50:56Z</time>
      </trkpt>
      <trkpt lat="58.28313" lon="-6.76778">
        <ele>11.06</ele>
        <time>2021-03-20T18:50:59Z</time>
      </trkpt>
      <trkpt lat="58.28317" lon="-6.76765">
        <ele>12.06</ele>
        <time>2021-03-20T18:51:03Z</time>
      </trkpt>
      <trkpt lat="58.28318" lon="-6.76741">
        <ele>13.05</ele>
        <time>2021-03-20T18:51:07Z</time>
      </trkpt>
      <trkpt lat="58.2831" lon="-6.76584">
        <ele>14.57</ele>
        <time>2021-03-20T18:51:10Z</time>
      </trkpt>
      <trkpt lat="58.28294" lon="-6.76383">
        <ele>16.9</ele>
        <time>2021-03-20T18:51:14Z</time>
      </trkpt>
      <trkpt lat="58.28291" lon="-6.7631">
        <ele>18.88</ele>
        <time>2021-03-20T18:51:17Z</time>
      </trkpt>
      <trkpt lat="58.28294" lon="-6.76235">
        <ele>21.32</ele>
        <time>2021-03-20T18:51:21Z</time>
      </trkpt>
      <trkpt lat="58.28297" lon="-6.76199">
        <ele>22.35</ele>
        <time>2021-03-20T18:51:25Z</time>
      </trkpt>
      <trkpt lat="58.28305" lon="-6.76132">
        <ele>23.24</ele>
        <time>2021-03-20T18:51:28Z</time>
      </trkpt>
      <trkpt lat="58.28323" lon="-6.76049">
        <ele>26.92</ele>
        <time>2021-03-20T18:51:32Z</time>
      </trkpt>
      <trkpt lat="58.28342" lon="-6.75973">
        <ele>27.97</ele>
        <time>2021-03-20T18:51:35Z</time>
      </trkpt>
      <trkpt lat="58.28383" lon="-6.75827">
        <ele>30.8</ele>
        <time>2021-03-20T18:51:39Z</time>
      </trkpt>
      <trkpt lat="58.28427" lon="-6.75654">
        <ele>33.74</ele>
        <time>2021-03-20T18:51:43Z</time>
      </trkpt>
      <trkpt lat="58.28458" lon="-6.7552">
        <ele>32.32</ele>
        <time>2021-03-20T18:51:46Z</time>
      </trkpt>
      <trkpt lat="58.28483" lon="-6.75397">
        <ele>35.25</ele>
        <time>2021-03-20T18:51:50Z</time>
      </trkpt>
      <trkpt lat="58.285" lon="-6.75292">
        <ele>36.47</ele>
        <time>2021-03-20T18:51:54Z</time>
      </trkpt>
      <trkpt lat="58.28521" lon="-6.75192">
        <ele>35.46</ele>
        <time>2021-03-20T18:51:57Z</time>
      </trkpt>
      <trkpt lat="58.28528" lon="-6.75135">
        <ele>34.86</ele>
        <time>2021-03-20T18:52:01Z</time>
      </trkpt>
      <trkpt lat="58.28532" lon="-6.75065">
        <ele>34.53</ele>
        <time>2021-03-20T18:52:04Z</time>
      </trkpt>
      <trkpt lat="58.28535" lon="-6.74959">
        <ele>37.35</ele>
        <time>2021-03-20T18:52:08Z</time>
      </trkpt>
      <trkpt lat="58.28563" lon="-6.74653">
        <ele>46.8</ele>
        <time>2021-03-20T18:52:12Z</time>
      </trkpt>
      <trkpt lat="58.28603" lon="-6.74146">
        <ele>54.7</ele>
        <time>2021-03-20T18:52:15Z</time>
      </trkpt>
      <trkpt lat="58.28608" lon="-6.74042">
        <ele>56.9</ele>
        <time>2021-03-20T18:52:19Z</time>
      </trkpt>
      <trkpt lat="58.28613" lon="-6.73984">
        <ele>57.23</ele>
        <time>2021-03-20T18:52:22Z</time>
      </trkpt>
      <trkpt lat="58.28621" lon="-6.73927">
        <ele>57.36</ele>
        <time>2021-03-20T18:52:26Z</time>
      </trkpt>
      <trkpt lat="58.28648" lon="-6.73816">
        <ele>60.65</ele>
        <time>2021-03-20T18:52:30Z</time>
      </trkpt>
      <trkpt lat="58.28655" lon="-6.73791">
        <ele>60.97</ele>
        <time>2021-03-20T18:52:33Z</time>
      </trkpt>
      <trkpt lat="58.28691" lon="-6.73692">
        <ele>59.6</ele>
        <time>2021-03-20T18:52:37Z</time>
      </trkpt>
      <trkpt lat="58.28721" lon="-6.73628">
        <ele>58.56</ele>
        <time>2021-03-20T18:52:41Z</time>
      </trkpt>
      <trkpt lat="58.28731" lon="-6.73611">
        <ele>58.32</ele>
        <time>2021-03-20T18:52:44Z</time>
      </trkpt>
      <trkpt lat="58.28767" lon="-6.73562">
        <ele>58.7</ele>
        <time>2021-03-20T18:52:48Z</time>
      </trkpt>
      <trkpt lat="58.28788" lon="-6.73544">
        <ele>60.17</ele>
        <time>2021-03-20T18:52:51Z</time>
      </trkpt>
      <trkpt lat="58.28825" lon="-6.73521">
        <ele>62.98</ele>
        <time>2021-03-20T18:52:55Z</time>
      </trkpt>
      <trkpt lat="58.28846" lon="-6.73513">
        <ele>63.99</ele>
        <time>2021-03-20T18:52:59Z</time>
      </trkpt>
      <trkpt lat="58.28941" lon="-6.73506">
        <ele>72.43</ele>
        <time>2021-03-20T18:53:02Z</time>
      </trkpt>
      <trkpt lat="58.293" lon="-6.73501">
        <ele>80.28</ele>
        <time>2021-03-20T18:53:06Z</time>
      </trkpt>
      <trkpt lat="58.29502" lon="-6.73494">
        <ele>80.6</ele>
        <time>2021-03-20T18:53:10Z</time>
      </trkpt>
      <trkpt lat="58.29519" lon="-6.7349">
        <ele>80.29</ele>
        <time>2021-03-20T18:53:13Z</time>
      </trkpt>
      <trkpt lat="58.29568" lon="-6.73457">
        <ele>79.36</ele>
        <time>2021-03-20T18:53:17Z</time>
      </trkpt>
      <trkpt lat="58.29589" lon="-6.73433">
        <ele>78.58</ele>
        <time>2021-03-20T18:53:20Z</time>
      </trkpt>
      <trkpt lat="58.29638" lon="-6.73367">
        <ele>77.21</ele>
        <time>2021-03-20T18:53:24Z</time>
      </trkpt>
      <trkpt lat="58.29655" lon="-6.7333">
        <ele>77.17</ele>
        <time>2021-03-20T18:53:28Z</time>
      </trkpt>
      <trkpt lat="58.29663" lon="-6.73297">
        <ele>77.49</ele>
        <time>2021-03-20T18:53:31Z</time>
      </trkpt>
      <trkpt lat="58.29689" lon="-6.73123">
        <ele>76.8</ele>
        <time>2021-03-20T18:53:35Z</time>
      </trkpt>
      <trkpt lat="58.29704" lon="-6.73073">
        <ele>76.83</ele>
        <time>2021-03-20T18:53:38Z</time>
      </trkpt>
      <trkpt lat="58.29769" lon="-6.72919">
        <ele>73.75</ele>
        <time>2021-03-20T18:53:42Z</time>
      </trkpt>
      <trkpt lat="58.29803" lon="-6.72855">
        <ele>73.71</ele>
        <time>2021-03-20T18:53:46Z</time>
      </trkpt>
      <trkpt lat="58.29842" lon="-6.72793">
        <ele>73.11</ele>
        <time>2021-03-20T18:53:49Z</time>
      </trkpt>
      <trkpt lat="58.29958" lon="-6.72626">
        <ele>71.5</ele>
        <time>2021-03-20T18:53:53Z</time>
      </trkpt>
      <trkpt lat="58.29994" lon="-6.72567">
        <ele>70.18</ele>
        <time>2021-03-20T18:53:57Z</time>
      </trkpt>
      <trkpt lat="58.30074" lon="-6.72412">
        <ele>70.03</ele>
        <time>2021-03-20T18:54:00Z</time>
      </trkpt>
      <trkpt lat="58.30232" lon="-6.72159">
        <ele>64.65</ele>
        <time>2021-03-20T18:54:04Z</time>
      </trkpt>
      <trkpt lat="58.30263" lon="-6.72128">
        <ele>63.9</ele>
        <time>2021-03-20T18:54:07Z</time>
      </trkpt>
      <trkpt lat="58.30293" lon="-6.7211">
        <ele>63.01</ele>
        <time>2021-03-20T18:54:11Z</time>
      </trkpt>
      <trkpt lat="58.30325" lon="-6.72098">
        <ele>62.25</ele>
        <time>2021-03-20T18:54:15Z</time>
      </trkpt>
      <trkpt lat="58.30349" lon="-6.721">
        <ele>62.04</ele>
        <time>2021-03-20T18:54:18Z</time>
      </trkpt>
      <trkpt lat="58.3038" lon="-6.72113">
        <ele>60.78</ele>
        <time>2021-03-20T18:54:22Z</time>
      </trkpt>
      <trkpt lat="58.30406" lon="-6.72129">
        <ele>60.29</ele>
        <time>2021-03-20T18:54:25Z</time>
      </trkpt>
      <trkpt lat="58.30431" lon="-6.72153">
        <ele>59.77</ele>
        <time>2021-03-20T18:54:29Z</time>
      </trkpt>
      <trkpt lat="58.30555" lon="-6.72291">
        <ele>55.56</ele>
        <time>2021-03-20T18:54:33Z</time>
      </trkpt>
      <trkpt lat="58.30623" lon="-6.72371">
        <ele>55.28</ele>
        <time>2021-03-20T18:54:36Z</time>
      </trkpt>
      <trkpt lat="58.30663" lon="-6.7241">
        <ele>54.61</ele>
        <time>2021-03-20T18:54:40Z</time>
      </trkpt>
      <trkpt lat="58.30712" lon="-6.72449">
        <ele>54.78</ele>
        <time>2021-03-20T18:54:44Z</time>
      </trkpt>
      <trkpt lat="58.30724" lon="-6.72455">
        <ele>55.26</ele>
        <time>2021-03-20T18:54:47Z</time>
      </trkpt>
      <trkpt lat="58.3075" lon="-6.72463">
        <ele>56.63</ele>
        <time>2021-03-20T18:54:51Z</time>
      </trkpt>
      <trkpt lat="58.30775" lon="-6.72467">
        <ele>57.03</ele>
        <time>2021-03-20T18:54:54Z</time>
      </trkpt>
      <trkpt lat="58.31035" lon="-6.72493">
        <ele>55.7</ele>
        <time>2021-03-20T18:54:58Z</time>
      </trkpt>
      <trkpt lat="58.31065" lon="-6.72493">
        <ele>53.49</ele>
        <time>2021-03-20T18:55:02Z</time>
      </trkpt>
      <trkpt lat="58.31085" lon="-6.7249">
        <ele>52.51</ele>
        <time>2021-03-20T18:55:05Z</time>
      </trkpt>
      <trkpt lat="58.31164" lon="-6.72453">
        <ele>43.51</ele>
        <time>2021-03-20T18:55:09Z</time>
      </trkpt>
      <trkpt lat="58.31172" lon="-6.72443">
        <ele>43.66</ele>
        <time>2021-03-20T18:55:12Z</time>
      </trkpt>
      <trkpt lat="58.3118" lon="-6.72427">
        <ele>44.27</ele>
        <time>2021-03-20T18:55:16Z</time>
      </trkpt>
      <trkpt lat="58.31187" lon="-6.72401">
        <ele>46.25</ele>
        <time>2021-03-20T18:55:20Z</time>
      </trkpt>
      <trkpt lat="58.3119" lon="-6.7235">
        <ele>49.31</ele>
        <time>2021-03-20T18:55:23Z</time>
      </trkpt>
      <trkpt lat="58.31186" lon="-6.72275">
        <ele>52.58</ele>
        <time>2021-03-20T18:55:27Z</time>
      </trkpt>
      <trkpt lat="58.31186" lon="-6.72225">
        <ele>53.21</ele>
        <time>2021-03-20T18:55:31Z</time>
      </trkpt>
      <trkpt lat="58.31194" lon="-6.72114">
        <ele>47.29</ele>
        <time>2021-03-20T18:55:34Z</time>
      </trkpt>
      <trkpt lat="58.31208" lon="-6.72058">
        <ele>45.1</ele>
        <time>2021-03-20T18:55:38Z</time>
      </trkpt>
      <trkpt lat="58.31262" lon="-6.71919">
        <ele>38</ele>
        <time>2021-03-20T18:55:41Z</time>
      </trkpt>
      <trkpt lat="58.313" lon="-6.71843">
        <ele>37</ele>
        <time>2021-03-20T18:55:45Z</time>
      </trkpt>
      <trkpt lat="58.31365" lon="-6.71723">
        <ele>35.85</ele>
        <time>2021-03-20T18:55:49Z</time>
      </trkpt>
      <trkpt lat="58.31415" lon="-6.71635">
        <ele>37.36</ele>
        <time>2021-03-20T18:55:52Z</time>
      </trkpt>
      <trkpt lat="58.31489" lon="-6.71417">
        <ele>38.8</ele>
        <time>2021-03-20T18:55:56Z</time>
      </trkpt>
      <trkpt lat="58.31492" lon="-6.71385">
        <ele>39.59</ele>
        <time>2021-03-20T18:55:59Z</time>
      </trkpt>
      <trkpt lat="58.31477" lon="-6.71289">
        <ele>39.91</ele>
        <time>2021-03-20T18:56:03Z</time>
      </trkpt>
      <trkpt lat="58.31472" lon="-6.71246">
        <ele>40.09</ele>
        <time>2021-03-20T18:56:07Z</time>
      </trkpt>
      <trkpt lat="58.31472" lon="-6.71197">
        <ele>39.98</ele>
        <time>2021-03-20T18:56:10Z</time>
      </trkpt>
      <trkpt lat="58.31485" lon="-6.7113">
        <ele>38.73</ele>
        <time>2021-03-20T18:56:14Z</time>
      </trkpt>
      <trkpt lat="58.31492" lon="-6.71078">
        <ele>38.9</ele>
        <time>2021-03-20T18:56:18Z</time>
      </trkpt>
      <trkpt lat="58.31494" lon="-6.71034">
        <ele>38.8</ele>
        <time>2021-03-20T18:56:21Z</time>
      </trkpt>
      <trkpt lat="58.31496" lon="-6.70948">
        <ele>37.47</ele>
        <time>2021-03-20T18:56:25Z</time>
      </trkpt>
      <trkpt lat="58.31502" lon="-6.70894">
        <ele>37.64</ele>
        <time>2021-03-20T18:56:28Z</time>
      </trkpt>
      <trkpt lat="58.31518" lon="-6.70837">
        <ele>37.41</ele>
        <time>2021-03-20T18:56:32Z</time>
      </trkpt>
      <trkpt lat="58.31676" lon="-6.70018">
        <ele>34</ele>
        <time>2021-03-20T18:56:36Z</time>
      </trkpt>
      <trkpt lat="58.31693" lon="-6.69962">
        <ele>34.38</ele>
        <time>2021-03-20T18:56:39Z</time>
      </trkpt>
      <trkpt lat="58.31876" lon="-6.69602">
        <ele>38</ele>
        <time>2021-03-20T18:56:43Z</time>
      </trkpt>
      <trkpt lat="58.31901" lon="-6.69544">
        <ele>36.76</ele>
        <time>2021-03-20T18:56:46Z</time>
      </trkpt>
      <trkpt lat="58.31916" lon="-6.69497">
        <ele>35.86</ele>
        <time>2021-03-20T18:56:50Z</time>
      </trkpt>
      <trkpt lat="58.31941" lon="-6.69397">
        <ele>33.28</ele>
        <time>2021-03-20T18:56:54Z</time>
      </trkpt>
      <trkpt lat="58.31964" lon="-6.69274">
        <ele>32.71</ele>
        <time>2021-03-20T18:56:57Z</time>
      </trkpt>
      <trkpt lat="58.31979" lon="-6.69213">
        <ele>32.15</ele>
        <time>2021-03-20T18:57:01Z</time>
      </trkpt>
      <trkpt lat="58.32001" lon="-6.69139">
        <ele>30.02</ele>
        <time>2021-03-20T18:57:05Z</time>
      </trkpt>
      <trkpt lat="58.32037" lon="-6.69036">
        <ele>27.65</ele>
        <time>2021-03-20T18:57:08Z</time>
      </trkpt>
      <trkpt lat="58.32076" lon="-6.6892">
        <ele>24.27</ele>
        <time>2021-03-20T18:57:12Z</time>
      </trkpt>
      <trkpt lat="58.32104" lon="-6.68844">
        <ele>22.52</ele>
        <time>2021-03-20T18:57:15Z</time>
      </trkpt>
      <trkpt lat="58.32139" lon="-6.68751">
        <ele>22</ele>
        <time>2021-03-20T18:57:19Z</time>
      </trkpt>
      <trkpt lat="58.32167" lon="-6.68702">
        <ele>21.26</ele>
        <time>2021-03-20T18:57:23Z</time>
      </trkpt>
      <trkpt lat="58.32183" lon="-6.68641">
        <ele>17.1</ele>
        <time>2021-03-20T18:57:26Z</time>
      </trkpt>
      <trkpt lat="58.32197" lon="-6.68565">
        <ele>12.65</ele>
        <time>2021-03-20T18:57:30Z</time>
      </trkpt>
      <trkpt lat="58.32208" lon="-6.68424">
        <ele>13.75</ele>
        <time>2021-03-20T18:57:33Z</time>
      </trkpt>
      <trkpt lat="58.32216" lon="-6.68394">
        <ele>14.83</ele>
        <time>2021-03-20T18:57:37Z</time>
      </trkpt>
      <trkpt lat="58.32227" lon="-6.68378">
        <ele>15</ele>
        <time>2021-03-20T18:57:41Z</time>
      </trkpt>
      <trkpt lat="58.32234" lon="-6.68371">
        <ele>15</ele>
        <time>2021-03-20T18:57:44Z</time>
      </trkpt>
      <trkpt lat="58.32263" lon="-6.68356">
        <ele>15.18</ele>
        <time>2021-03-20T18:57:48Z</time>
      </trkpt>
      <trkpt lat="58.32278" lon="-6.68344">
        <ele>15.62</ele>
        <time>2021-03-20T18:57:52Z</time>
      </trkpt>
      <trkpt lat="58.32297" lon="-6.68309">
        <ele>15.91</ele>
        <time>2021-03-20T18:57:55Z</time>
      </trkpt>
      <trkpt lat="58.32357" lon="-6.6818">
        <ele>20.8</ele>
        <time>2021-03-20T18:57:59Z</time>
      </trkpt>
      <trkpt lat="58.32367" lon="-6.68165">
        <ele>22.5</ele>
        <time>2021-03-20T18:58:02Z</time>
      </trkpt>
      <trkpt lat="58.32408" lon="-6.68117">
        <ele>26.49</ele>
        <time>2021-03-20T18:58:06Z</time>
      </trkpt>
      <trkpt lat="58.3244" lon="-6.68059">
        <ele>27.98</ele>
        <time>2021-03-20T18:58:10Z</time>
      </trkpt>
      <trkpt lat="58.32543" lon="-6.67795">
        <ele>23.61</ele>
        <time>2021-03-20T18:58:13Z</time>
      </trkpt>
      <trkpt lat="58.32575" lon="-6.67706">
        <ele>22</ele>
        <time>2021-03-20T18:58:17Z</time>
      </trkpt>
      <trkpt lat="58.32641" lon="-6.67546">
        <ele>22</ele>
        <time>2021-03-20T18:58:20Z</time>
      </trkpt>
      <trkpt lat="58.32787" lon="-6.67173">
        <ele>23.21</ele>
        <time>2021-03-20T18:58:24Z</time>
      </trkpt>
      <trkpt lat="58.328" lon="-6.67127">
        <ele>22.39</ele>
        <time>2021-03-20T18:58:28Z</time>
      </trkpt>
      <trkpt lat="58.32852" lon="-6.6681">
        <ele>19</ele>
        <time>2021-03-20T18:58:31Z</time>
      </trkpt>
      <trkpt lat="58.32904" lon="-6.66506">
        <ele>17.9</ele>
        <time>2021-03-20T18:58:35Z</time>
      </trkpt>
      <trkpt lat="58.32913" lon="-6.66437">
        <ele>18</ele>
        <time>2021-03-20T18:58:39Z</time>
      </trkpt>
      <trkpt lat="58.3294" lon="-6.66327">
        <ele>18.83</ele>
        <time>2021-03-20T18:58:42Z</time>
      </trkpt>
      <trkpt lat="58.32978" lon="-6.66185">
        <ele>22.7</ele>
        <time>2021-03-20T18:58:46Z</time>
      </trkpt>
      <trkpt lat="58.32987" lon="-6.66129">
        <ele>25.54</ele>
        <time>2021-03-20T18:58:49Z</time>
      </trkpt>
      <trkpt lat="58.32991" lon="-6.66096">
        <ele>26.33</ele>
        <time>2021-03-20T18:58:53Z</time>
      </trkpt>
      <trkpt lat="58.32997" lon="-6.66023">
        <ele>27.28</ele>
        <time>2021-03-20T18:58:57Z</time>
      </trkpt>
      <trkpt lat="58.32998" lon="-6.65992">
        <ele>28.08</ele>
        <time>2021-03-20T18:59:00Z</time>
      </trkpt>
      <trkpt lat="58.33013" lon="-6.65456">
        <ele>32.6</ele>
        <time>2021-03-20T18:59:04Z</time>
      </trkpt>
      <trkpt lat="58.33013" lon="-6.65415">
        <ele>33</ele>
        <time>2021-03-20T18:59:07Z</time>
      </trkpt>
      <trkpt lat="58.33017" lon="-6.65355">
        <ele>32.87</ele>
        <time>2021-03-20T18:59:11Z</time>
      </trkpt>
      <trkpt lat="58.33018" lon="-6.65303">
        <ele>32.31</ele>
        <time>2021-03-20T18:59:15Z</time>
      </trkpt>
      <trkpt lat="58.33023" lon="-6.65205">
        <ele>32</ele>
        <time>2021-03-20T18:59:18Z</time>
      </trkpt>
      <trkpt lat="58.33029" lon="-6.65144">
        <ele>33.03</ele>
        <time>2021-03-20T18:59:22Z</time>
      </trkpt>
      <trkpt lat="58.33035" lon="-6.65102">
        <ele>33.5</ele>
        <time>2021-03-20T18:59:26Z</time>
      </trkpt>
      <trkpt lat="58.33051" lon="-6.6503">
        <ele>33.82</ele>
        <time>2021-03-20T18:59:29Z</time>
      </trkpt>
      <trkpt lat="58.33073" lon="-6.64964">
        <ele>35.85</ele>
        <time>2021-03-20T18:59:33Z</time>
      </trkpt>
      <trkpt lat="58.33131" lon="-6.64825">
        <ele>34.91</ele>
        <time>2021-03-20T18:59:36Z</time>
      </trkpt>
      <trkpt lat="58.33149" lon="-6.64768">
        <ele>34</ele>
        <time>2021-03-20T18:59:40Z</time>
      </trkpt>
      <trkpt lat="58.33154" lon="-6.64736">
        <ele>34</ele>
        <time>2021-03-20T18:59:44Z</time>
      </trkpt>
      <trkpt lat="58.33164" lon="-6.64608">
        <ele>33.9</ele>
        <time>2021-03-20T18:59:47Z</time>
      </trkpt>
      <trkpt lat="58.33166" lon="-6.64475">
        <ele>34.96</ele>
        <time>2021-03-20T18:59:51Z</time>
      </trkpt>
      <trkpt lat="58.3316" lon="-6.64259">
        <ele>35.51</ele>
        <time>2021-03-20T18:59:54Z</time>
      </trkpt>
      <trkpt lat="58.33162" lon="-6.64096">
        <ele>33</ele>
        <time>2021-03-20T18:59:58Z</time>
      </trkpt>
      <trkpt lat="58.33153" lon="-6.63982">
        <ele>33</ele>
        <time>2021-03-20T19:00:02Z</time>
      </trkpt>
      <trkpt lat="58.33159" lon="-6.6388">
        <ele>33</ele>
        <time>2021-03-20T19:00:05Z</time>
      </trkpt>
      <trkpt lat="58.33226" lon="-6.63519">
        <ele>35.13</ele>
        <time>2021-03-20T19:00:09Z</time>
      </trkpt>
      <trkpt lat="58.33369" lon="-6.63047">
        <ele>25.69</ele>
        <time>2021-03-20T19:00:13Z</time>
      </trkpt>
      <trkpt lat="58.33402" lon="-6.62888">
        <ele>25.48</ele>
        <time>2021-03-20T19:00:16Z</time>
      </trkpt>
      <trkpt lat="58.33423" lon="-6.62748">
        <ele>25.42</ele>
        <time>2021-03-20T19:00:20Z</time>
      </trkpt>
      <trkpt lat="58.3342" lon="-6.62594">
        <ele>25.32</ele>
        <time>2021-03-20T19:00:23Z</time>
      </trkpt>
      <trkpt lat="58.33429" lon="-6.6251">
        <ele>26.97</ele>
        <time>2021-03-20T19:00:27Z</time>
      </trkpt>
      <trkpt lat="58.33448" lon="-6.62419">
        <ele>25.42</ele>
        <time>2021-03-20T19:00:31Z</time>
      </trkpt>
      <trkpt lat="58.33514" lon="-6.62184">
        <ele>18.12</ele>
        <time>2021-03-20T19:00:34Z</time>
      </trkpt>
      <trkpt lat="58.33523" lon="-6.62117">
        <ele>17.03</ele>
        <time>2021-03-20T19:00:38Z</time>
      </trkpt>
      <trkpt lat="58.33522" lon="-6.62053">
        <ele>16</ele>
        <time>2021-03-20T19:00:42Z</time>
      </trkpt>
      <trkpt lat="58.33517" lon="-6.61983">
        <ele>15.61</ele>
        <time>2021-03-20T19:00:45Z</time>
      </trkpt>
      <trkpt lat="58.33492" lon="-6.61828">
        <ele>14.28</ele>
        <time>2021-03-20T19:00:49Z</time>
      </trkpt>
      <trkpt lat="58.33467" lon="-6.61602">
        <ele>13.18</ele>
        <time>2021-03-20T19:00:52Z</time>
      </trkpt>
      <trkpt lat="58.3346" lon="-6.61454">
        <ele>11.77</ele>
        <time>2021-03-20T19:00:56Z</time>
      </trkpt>
      <trkpt lat="58.33454" lon="-6.61374">
        <ele>11.64</ele>
        <time>2021-03-20T19:01:00Z</time>
      </trkpt>
      <trkpt lat="58.33449" lon="-6.61126">
        <ele>9</ele>
        <time>2021-03-20T19:01:03Z</time>
      </trkpt>
      <trkpt lat="58.33452" lon="-6.60979">
        <ele>9</ele>
        <time>2021-03-20T19:01:07Z</time>
      </trkpt>
      <trkpt lat="58.33457" lon="-6.60862">
        <ele>8.53</ele>
        <time>2021-03-20T19:01:10Z</time>
      </trkpt>
      <trkpt lat="58.3347" lon="-6.60777">
        <ele>8</ele>
        <time>2021-03-20T19:01:14Z</time>
      </trkpt>
      <trkpt lat="58.33488" lon="-6.60703">
        <ele>6.14</ele>
        <time>2021-03-20T19:01:18Z</time>
      </trkpt>
      <trkpt lat="58.33506" lon="-6.60638">
        <ele>4.76</ele>
        <time>2021-03-20T19:01:21Z</time>
      </trkpt>
      <trkpt lat="58.33524" lon="-6.60592">
        <ele>4</ele>
        <time>2021-03-20T19:01:25Z</time>
      </trkpt>
      <trkpt lat="58.33541" lon="-6.60555">
        <ele>5.49</ele>
        <time>2021-03-20T19:01:29Z</time>
      </trkpt>
      <trkpt lat="58.33644" lon="-6.60377">
        <ele>13.2</ele>
        <time>2021-03-20T19:01:32Z</time>
      </trkpt>
      <trkpt lat="58.33668" lon="-6.60333">
        <ele>14</ele>
        <time>2021-03-20T19:01:36Z</time>
      </trkpt>
      <trkpt lat="58.33717" lon="-6.60234">
        <ele>12.89</ele>
        <time>2021-03-20T19:01:39Z</time>
      </trkpt>
      <trkpt lat="58.33887" lon="-6.59841">
        <ele>23.59</ele>
        <time>2021-03-20T19:01:43Z</time>
      </trkpt>
      <trkpt lat="58.33918" lon="-6.59756">
        <ele>26.03</ele>
        <time>2021-03-20T19:01:47Z</time>
      </trkpt>
      <trkpt lat="58.33945" lon="-6.59669">
        <ele>27.03</ele>
        <time>2021-03-20T19:01:50Z</time>
      </trkpt>
      <trkpt lat="58.33965" lon="-6.59586">
        <ele>29.48</ele>
        <time>2021-03-20T19:01:54Z</time>
      </trkpt>
      <trkpt lat="58.34067" lon="-6.59074">
        <ele>41.62</ele>
        <time>2021-03-20T19:01:57Z</time>
      </trkpt>
      <trkpt lat="58.34116" lon="-6.58852">
        <ele>43.9</ele>
        <time>2021-03-20T19:02:01Z</time>
      </trkpt>
      <trkpt lat="58.34172" lon="-6.58613">
        <ele>45.21</ele>
        <time>2021-03-20T19:02:05Z</time>
      </trkpt>
      <trkpt lat="58.3425" lon="-6.58301">
        <ele>39.83</ele>
        <time>2021-03-20T19:02:08Z</time>
      </trkpt>
      <trkpt lat="58.34286" lon="-6.58173">
        <ele>36.51</ele>
        <time>2021-03-20T19:02:12Z</time>
      </trkpt>
      <trkpt lat="58.34341" lon="-6.58">
        <ele>31.28</ele>
        <time>2021-03-20T19:02:16Z</time>
      </trkpt>
      <trkpt lat="58.3436" lon="-6.57921">
        <ele>31</ele>
        <time>2021-03-20T19:02:19Z</time>
      </trkpt>
      <trkpt lat="58.34372" lon="-6.57832">
        <ele>30.59</ele>
        <time>2021-03-20T19:02:23Z</time>
      </trkpt>
      <trkpt lat="58.34378" lon="-6.57764">
        <ele>30.39</ele>
        <time>2021-03-20T19:02:26Z</time>
      </trkpt>
      <trkpt lat="58.3438" lon="-6.5769">
        <ele>30</ele>
        <time>2021-03-20T19:02:30Z</time>
      </trkpt>
      <trkpt lat="58.34379" lon="-6.57622">
        <ele>29.41</ele>
        <time>2021-03-20T19:02:34Z</time>
      </trkpt>
      <trkpt lat="58.3437" lon="-6.57512">
        <ele>28.87</ele>
        <time>2021-03-20T19:02:37Z</time>
      </trkpt>
      <trkpt lat="58.34334" lon="-6.5725">
        <ele>31.97</ele>
        <time>2021-03-20T19:02:41Z</time>
      </trkpt>
      <trkpt lat="58.34309" lon="-6.57077">
        <ele>31.77</ele>
        <time>2021-03-20T19:02:44Z</time>
      </trkpt>
      <trkpt lat="58.34294" lon="-6.56946">
        <ele>32.4</ele>
        <time>2021-03-20T19:02:48Z</time>
      </trkpt>
      <trkpt lat="58.34289" lon="-6.56851">
        <ele>34.37</ele>
        <time>2021-03-20T19:02:52Z</time>
      </trkpt>
      <trkpt lat="58.34288" lon="-6.56727">
        <ele>37.83</ele>
        <time>2021-03-20T19:02:55Z</time>
      </trkpt>
      <trkpt lat="58.34293" lon="-6.56573">
        <ele>41.92</ele>
        <time>2021-03-20T19:02:59Z</time>
      </trkpt>
      <trkpt lat="58.34298" lon="-6.56487">
        <ele>45.2</ele>
        <time>2021-03-20T19:03:03Z</time>
      </trkpt>
      <trkpt lat="58.34309" lon="-6.5638">
        <ele>48.89</ele>
        <time>2021-03-20T19:03:06Z</time>
      </trkpt>
      <trkpt lat="58.34315" lon="-6.56346">
        <ele>48.83</ele>
        <time>2021-03-20T19:03:10Z</time>
      </trkpt>
      <trkpt lat="58.34348" lon="-6.56215">
        <ele>48.47</ele>
        <time>2021-03-20T19:03:13Z</time>
      </trkpt>
      <trkpt lat="58.34417" lon="-6.56013">
        <ele>46.99</ele>
        <time>2021-03-20T19:03:17Z</time>
      </trkpt>
      <trkpt lat="58.3458" lon="-6.5546">
        <ele>41.5</ele>
        <time>2021-03-20T19:03:21Z</time>
      </trkpt>
      <trkpt lat="58.34608" lon="-6.55351">
        <ele>40.54</ele>
        <time>2021-03-20T19:03:24Z</time>
      </trkpt>
      <trkpt lat="58.34683" lon="-6.55008">
        <ele>34.73</ele>
        <time>2021-03-20T19:03:28Z</time>
      </trkpt>
      <trkpt lat="58.34662" lon="-6.54994">
        <ele>36.67</ele>
        <time>2021-03-20T19:03:35Z</time>
      </trkpt>
      <trkpt lat="58.34662" lon="-6.54994">
        <ele>36.67</ele>
        <time>2021-03-20T19:03:35Z</time>
      </trkpt>
      <trkpt lat="58.34683" lon="-6.55008">
        <ele>34.73</ele>
        <time>2021-03-20T19:03:42Z</time>
      </trkpt>
      <trkpt lat="58.34729" lon="-6.54775">
        <ele>31.77</ele>
        <time>2021-03-20T19:03:47Z</time>
      </trkpt>
      <trkpt lat="58.34865" lon="-6.53826">
        <ele>7.87</ele>
        <time>2021-03-20T19:03:52Z</time>
      </trkpt>
      <trkpt lat="58.34907" lon="-6.53516">
        <ele>14.81</ele>
        <time>2021-03-20T19:03:57Z</time>
      </trkpt>
      <trkpt lat="58.34942" lon="-6.53171">
        <ele>17.17</ele>
        <time>2021-03-20T19:04:02Z</time>
      </trkpt>
      <trkpt lat="58.34948" lon="-6.53092">
        <ele>17.64</ele>
        <time>2021-03-20T19:04:07Z</time>
      </trkpt>
      <trkpt lat="58.34948" lon="-6.53041">
        <ele>17.61</ele>
        <time>2021-03-20T19:04:12Z</time>
      </trkpt>
      <trkpt lat="58.34946" lon="-6.52987">
        <ele>16.9</ele>
        <time>2021-03-20T19:04:17Z</time>
      </trkpt>
      <trkpt lat="58.34942" lon="-6.52948">
        <ele>16.31</ele>
        <time>2021-03-20T19:04:22Z</time>
      </trkpt>
      <trkpt lat="58.34939" lon="-6.52922">
        <ele>15.78</ele>
        <time>2021-03-20T19:04:27Z</time>
      </trkpt>
      <trkpt lat="58.34874" lon="-6.52524">
        <ele>11.93</ele>
        <time>2021-03-20T19:04:33Z</time>
      </trkpt>
      <trkpt lat="58.3486" lon="-6.52423">
        <ele>9.38</ele>
        <time>2021-03-20T19:04:38Z</time>
      </trkpt>
      <trkpt lat="58.34854" lon="-6.52302">
        <ele>7.14</ele>
        <time>2021-03-20T19:04:43Z</time>
      </trkpt>
      <trkpt lat="58.34856" lon="-6.52218">
        <ele>6</ele>
        <time>2021-03-20T19:04:48Z</time>
      </trkpt>
      <trkpt lat="58.34872" lon="-6.52067">
        <ele>6.34</ele>
        <time>2021-03-20T19:04:53Z</time>
      </trkpt>
      <trkpt lat="58.34886" lon="-6.52002">
        <ele>6.95</ele>
        <time>2021-03-20T19:04:58Z</time>
      </trkpt>
      <trkpt lat="58.34903" lon="-6.5193">
        <ele>7.51</ele>
        <time>2021-03-20T19:05:03Z</time>
      </trkpt>
      <trkpt lat="58.3491" lon="-6.51904">
        <ele>7.59</ele>
        <time>2021-03-20T19:05:08Z</time>
      </trkpt>
      <trkpt lat="58.34933" lon="-6.51925">
        <ele>7</ele>
        <time>2021-03-20T19:05:16Z</time>
      </trkpt>
      <trkpt lat="58.34955" lon="-6.51928">
        <ele>7</ele>
        <time>2021-03-20T19:05:25Z</time>
      </trkpt>
      <trkpt lat="58.34977" lon="-6.51921">
        <ele>7</ele>
        <time>2021-03-20T19:05:33Z</time>
      </trkpt>
      <trkpt lat="58.3501" lon="-6.51905">
        <ele>7.43</ele>
        <time>2021-03-20T19:05:42Z</time>
      </trkpt>
      <trkpt lat="58.35087" lon="-6.51848">
        <ele>8</ele>
        <time>2021-03-20T19:05:50Z</time>
      </trkpt>
      <trkpt lat="58.35298" lon="-6.51669">
        <ele>11.92</ele>
        <time>2021-03-20T19:05:58Z</time>
      </trkpt>
      <trkpt lat="58.35579" lon="-6.51451">
        <ele>20.63</ele>
        <time>2021-03-20T19:06:07Z</time>
      </trkpt>
      <trkpt lat="58.35661" lon="-6.514">
        <ele>20.68</ele>
        <time>2021-03-20T19:06:15Z</time>
      </trkpt>
      <trkpt lat="58.35733" lon="-6.5135">
        <ele>22.79</ele>
        <time>2021-03-20T19:06:24Z</time>
      </trkpt>
      <trkpt lat="58.35797" lon="-6.51314">
        <ele>25</ele>
        <time>2021-03-20T19:06:32Z</time>
      </trkpt>
      <trkpt lat="58.35951" lon="-6.5121">
        <ele>26.34</ele>
        <time>2021-03-20T19:06:40Z</time>
      </trkpt>
      <trkpt lat="58.35989" lon="-6.51179">
        <ele>26.83</ele>
        <time>2021-03-20T19:06:49Z</time>
      </trkpt>
      <trkpt lat="58.3619" lon="-6.50999">
        <ele>27</ele>
        <time>2021-03-20T19:06:57Z</time>
      </trkpt>
      <trkpt lat="58.36375" lon="-6.50849">
        <ele>28.22</ele>
        <time>2021-03-20T19:07:05Z</time>
      </trkpt>
      <trkpt lat="58.36523" lon="-6.50751">
        <ele>31.99</ele>
        <time>2021-03-20T19:07:14Z</time>
      </trkpt>
      <trkpt lat="58.36731" lon="-6.50658">
        <ele>39.3</ele>
        <time>2021-03-20T19:07:22Z</time>
      </trkpt>
      <trkpt lat="58.36831" lon="-6.50622">
        <ele>43.53</ele>
        <time>2021-03-20T19:07:31Z</time>
      </trkpt>
      <trkpt lat="58.37001" lon="-6.50572">
        <ele>47.39</ele>
        <time>2021-03-20T19:07:39Z</time>
      </trkpt>
      <trkpt lat="58.37152" lon="-6.50564">
        <ele>43.86</ele>
        <time>2021-03-20T19:07:47Z</time>
      </trkpt>
      <trkpt lat="58.37252" lon="-6.50567">
        <ele>44.66</ele>
        <time>2021-03-20T19:07:56Z</time>
      </trkpt>
      <trkpt lat="58.37353" lon="-6.50578">
        <ele>47.72</ele>
        <time>2021-03-20T19:08:04Z</time>
      </trkpt>
      <trkpt lat="58.37442" lon="-6.50604">
        <ele>51.91</ele>
        <time>2021-03-20T19:08:13Z</time>
      </trkpt>
      <trkpt lat="58.37548" lon="-6.50651">
        <ele>55</ele>
        <time>2021-03-20T19:08:21Z</time>
      </trkpt>
      <trkpt lat="58.37647" lon="-6.50705">
        <ele>54.74</ele>
        <time>2021-03-20T19:08:29Z</time>
      </trkpt>
      <trkpt lat="58.37706" lon="-6.50733">
        <ele>55</ele>
        <time>2021-03-20T19:08:38Z</time>
      </trkpt>
      <trkpt lat="58.37766" lon="-6.50736">
        <ele>54.2</ele>
        <time>2021-03-20T19:08:46Z</time>
      </trkpt>
      <trkpt lat="58.37819" lon="-6.50711">
        <ele>52.52</ele>
        <time>2021-03-20T19:08:55Z</time>
      </trkpt>
      <trkpt lat="58.37881" lon="-6.50653">
        <ele>53</ele>
        <time>2021-03-20T19:09:03Z</time>
      </trkpt>
      <trkpt lat="58.37938" lon="-6.50575">
        <ele>52.22</ele>
        <time>2021-03-20T19:09:11Z</time>
      </trkpt>
      <trkpt lat="58.38247" lon="-6.50176">
        <ele>58.19</ele>
        <time>2021-03-20T19:09:20Z</time>
      </trkpt>
      <trkpt lat="58.38256" lon="-6.5016">
        <ele>58.2</ele>
        <time>2021-03-20T19:09:28Z</time>
      </trkpt>
      <trkpt lat="58.38316" lon="-6.50046">
        <ele>56</ele>
        <time>2021-03-20T19:09:36Z</time>
      </trkpt>
      <trkpt lat="58.38588" lon="-6.49472">
        <ele>44.98</ele>
        <time>2021-03-20T19:09:45Z</time>
      </trkpt>
      <trkpt lat="58.38986" lon="-6.48731">
        <ele>30.81</ele>
        <time>2021-03-20T19:09:53Z</time>
      </trkpt>
      <trkpt lat="58.39025" lon="-6.48661">
        <ele>29.09</ele>
        <time>2021-03-20T19:10:02Z</time>
      </trkpt>
      <trkpt lat="58.3916" lon="-6.48398">
        <ele>22.5</ele>
        <time>2021-03-20T19:10:10Z</time>
      </trkpt>
      <trkpt lat="58.39424" lon="-6.47795">
        <ele>11.74</ele>
        <time>2021-03-20T19:10:18Z</time>
      </trkpt>
      <trkpt lat="58.39544" lon="-6.47535">
        <ele>14.18</ele>
        <time>2021-03-20T19:10:27Z</time>
      </trkpt>
      <trkpt lat="58.39596" lon="-6.47448">
        <ele>19.8</ele>
        <time>2021-03-20T19:10:35Z</time>
      </trkpt>
      <trkpt lat="58.39661" lon="-6.47359">
        <ele>23.78</ele>
        <time>2021-03-20T19:10:44Z</time>
      </trkpt>
      <trkpt lat="58.39868" lon="-6.47082">
        <ele>30.28</ele>
        <time>2021-03-20T19:10:52Z</time>
      </trkpt>
      <trkpt lat="58.39991" lon="-6.46906">
        <ele>36.06</ele>
        <time>2021-03-20T19:11:00Z</time>
      </trkpt>
      <trkpt lat="58.40055" lon="-6.46809">
        <ele>38</ele>
        <time>2021-03-20T19:11:09Z</time>
      </trkpt>
      <trkpt lat="58.40107" lon="-6.46719">
        <ele>39.83</ele>
        <time>2021-03-20T19:11:17Z</time>
      </trkpt>
      <trkpt lat="58.4017" lon="-6.46589">
        <ele>38.12</ele>
        <time>2021-03-20T19:11:25Z</time>
      </trkpt>
      <trkpt lat="58.4026" lon="-6.46392">
        <ele>37.31</ele>
        <time>2021-03-20T19:11:34Z</time>
      </trkpt>
      <trkpt lat="58.40399" lon="-6.4608">
        <ele>40.76</ele>
        <time>2021-03-20T19:11:42Z</time>
      </trkpt>
      <trkpt lat="58.40523" lon="-6.45788">
        <ele>36.27</ele>
        <time>2021-03-20T19:11:51Z</time>
      </trkpt>
      <trkpt lat="58.40564" lon="-6.457">
        <ele>34.68</ele>
        <time>2021-03-20T19:11:59Z</time>
      </trkpt>
      <trkpt lat="58.40609" lon="-6.45617">
        <ele>32.87</ele>
        <time>2021-03-20T19:12:07Z</time>
      </trkpt>
      <trkpt lat="58.40698" lon="-6.45484">
        <ele>32.86</ele>
        <time>2021-03-20T19:12:16Z</time>
      </trkpt>
      <trkpt lat="58.40733" lon="-6.45435">
        <ele>33.32</ele>
        <time>2021-03-20T19:12:24Z</time>
      </trkpt>
      <trkpt lat="58.40768" lon="-6.45379">
        <ele>34.37</ele>
        <time>2021-03-20T19:12:33Z</time>
      </trkpt>
      <trkpt lat="58.4086" lon="-6.45219">
        <ele>34</ele>
        <time>2021-03-20T19:12:41Z</time>
      </trkpt>
      <trkpt lat="58.41323" lon="-6.44366">
        <ele>35</ele>
        <time>2021-03-20T19:12:49Z</time>
      </trkpt>
      <trkpt lat="58.41435" lon="-6.4415">
        <ele>37</ele>
        <time>2021-03-20T19:12:58Z</time>
      </trkpt>
      <trkpt lat="58.4151" lon="-6.44023">
        <ele>39.46</ele>
        <time>2021-03-20T19:13:06Z</time>
      </trkpt>
      <trkpt lat="58.41541" lon="-6.43965">
        <ele>40</ele>
        <time>2021-03-20T19:13:14Z</time>
      </trkpt>
      <trkpt lat="58.41577" lon="-6.43885">
        <ele>40</ele>
        <time>2021-03-20T19:13:23Z</time>
      </trkpt>
      <trkpt lat="58.41599" lon="-6.43782">
        <ele>37.59</ele>
        <time>2021-03-20T19:13:31Z</time>
      </trkpt>
      <trkpt lat="58.4163" lon="-6.43662">
        <ele>34.65</ele>
        <time>2021-03-20T19:13:40Z</time>
      </trkpt>
      <trkpt lat="58.41711" lon="-6.43471">
        <ele>22.15</ele>
        <time>2021-03-20T19:13:48Z</time>
      </trkpt>
      <trkpt lat="58.4178" lon="-6.4332">
        <ele>25.64</ele>
        <time>2021-03-20T19:13:56Z</time>
      </trkpt>
      <trkpt lat="58.41802" lon="-6.43287">
        <ele>28.39</ele>
        <time>2021-03-20T19:14:05Z</time>
      </trkpt>
      <trkpt lat="58.41837" lon="-6.43244">
        <ele>32.37</ele>
        <time>2021-03-20T19:14:13Z</time>
      </trkpt>
      <trkpt lat="58.41913" lon="-6.4319">
        <ele>35.15</ele>
        <time>2021-03-20T19:14:22Z</time>
      </trkpt>
      <trkpt lat="58.41996" lon="-6.43102">
        <ele>38</ele>
        <time>2021-03-20T19:14:30Z</time>
      </trkpt>
      <trkpt lat="58.42133" lon="-6.4292">
        <ele>40.23</ele>
        <time>2021-03-20T19:14:38Z</time>
      </trkpt>
      <trkpt lat="58.42396" lon="-6.42456">
        <ele>40.32</ele>
        <time>2021-03-20T19:14:47Z</time>
      </trkpt>
      <trkpt lat="58.42471" lon="-6.42331">
        <ele>39.03</ele>
        <time>2021-03-20T19:14:55Z</time>
      </trkpt>
      <trkpt lat="58.4265" lon="-6.42044">
        <ele>35.6</ele>
        <time>2021-03-20T19:15:03Z</time>
      </trkpt>
      <trkpt lat="58.42717" lon="-6.41924">
        <ele>37</ele>
        <time>2021-03-20T19:15:12Z</time>
      </trkpt>
      <trkpt lat="58.42783" lon="-6.41776">
        <ele>40.06</ele>
        <time>2021-03-20T19:15:20Z</time>
      </trkpt>
      <trkpt lat="58.42925" lon="-6.41437">
        <ele>44.7</ele>
        <time>2021-03-20T19:15:29Z</time>
      </trkpt>
      <trkpt lat="58.43375" lon="-6.40289">
        <ele>49.58</ele>
        <time>2021-03-20T19:15:37Z</time>
      </trkpt>
      <trkpt lat="58.43402" lon="-6.40216">
        <ele>50</ele>
        <time>2021-03-20T19:15:45Z</time>
      </trkpt>
      <trkpt lat="58.43429" lon="-6.4013">
        <ele>48.57</ele>
        <time>2021-03-20T19:15:54Z</time>
      </trkpt>
      <trkpt lat="58.43475" lon="-6.39966">
        <ele>46.65</ele>
        <time>2021-03-20T19:16:02Z</time>
      </trkpt>
      <trkpt lat="58.43571" lon="-6.39691">
        <ele>39.87</ele>
        <time>2021-03-20T19:16:11Z</time>
      </trkpt>
      <trkpt lat="58.43611" lon="-6.39565">
        <ele>36.99</ele>
        <time>2021-03-20T19:16:19Z</time>
      </trkpt>
      <trkpt lat="58.43722" lon="-6.39186">
        <ele>30.31</ele>
        <time>2021-03-20T19:16:27Z</time>
      </trkpt>
      <trkpt lat="58.43808" lon="-6.38904">
        <ele>29.48</ele>
        <time>2021-03-20T19:16:36Z</time>
      </trkpt>
      <trkpt lat="58.43953" lon="-6.38436">
        <ele>21</ele>
        <time>2021-03-20T19:16:44Z</time>
      </trkpt>
      <trkpt lat="58.44373" lon="-6.37057">
        <ele>36.6</ele>
        <time>2021-03-20T19:16:53Z</time>
      </trkpt>
      <trkpt lat="58.44555" lon="-6.3648">
        <ele>20.03</ele>
        <time>2021-03-20T19:17:01Z</time>
      </trkpt>
      <trkpt lat="58.44665" lon="-6.36099">
        <ele>30.94</ele>
        <time>2021-03-20T19:17:09Z</time>
      </trkpt>
      <trkpt lat="58.44893" lon="-6.35353">
        <ele>47.39</ele>
        <time>2021-03-20T19:17:18Z</time>
      </trkpt>
      <trkpt lat="58.44906" lon="-6.35319">
        <ele>48</ele>
        <time>2021-03-20T19:17:26Z</time>
      </trkpt>
      <trkpt lat="58.44923" lon="-6.35284">
        <ele>47.82</ele>
        <time>2021-03-20T19:17:34Z</time>
      </trkpt>
      <trkpt lat="58.45003" lon="-6.35171">
        <ele>47.83</ele>
        <time>2021-03-20T19:17:43Z</time>
      </trkpt>
      <trkpt lat="58.45102" lon="-6.35037">
        <ele>48.31</ele>
        <time>2021-03-20T19:17:51Z</time>
      </trkpt>
      <trkpt lat="58.45137" lon="-6.34987">
        <ele>49.97</ele>
        <time>2021-03-20T19:18:00Z</time>
      </trkpt>
      <trkpt lat="58.45182" lon="-6.34916">
        <ele>50.98</ele>
        <time>2021-03-20T19:18:08Z</time>
      </trkpt>
      <trkpt lat="58.45401" lon="-6.34492">
        <ele>45.58</ele>
        <time>2021-03-20T19:18:16Z</time>
      </trkpt>
      <trkpt lat="58.45726" lon="-6.33816">
        <ele>43.87</ele>
        <time>2021-03-20T19:18:25Z</time>
      </trkpt>
      <trkpt lat="58.4584" lon="-6.33567">
        <ele>47.32</ele>
        <time>2021-03-20T19:18:33Z</time>
      </trkpt>
      <trkpt lat="58.46121" lon="-6.3273">
        <ele>44.35</ele>
        <time>2021-03-20T19:18:42Z</time>
      </trkpt>
      <trkpt lat="58.46404" lon="-6.31812">
        <ele>50.46</ele>
        <time>2021-03-20T19:18:50Z</time>
      </trkpt>
      <trkpt lat="58.46539" lon="-6.3108">
        <ele>46.51</ele>
        <time>2021-03-20T19:18:58Z</time>
      </trkpt>
      <trkpt lat="58.46556" lon="-6.30999">
        <ele>45.98</ele>
        <time>2021-03-20T19:19:07Z</time>
      </trkpt>
      <trkpt lat="58.46579" lon="-6.3085">
        <ele>41.78</ele>
        <time>2021-03-20T19:19:15Z</time>
      </trkpt>
      <trkpt lat="58.46609" lon="-6.30608">
        <ele>33.88</ele>
        <time>2021-03-20T19:19:23Z</time>
      </trkpt>
      <trkpt lat="58.46619" lon="-6.30509">
        <ele>29.33</ele>
        <time>2021-03-20T19:19:32Z</time>
      </trkpt>
      <trkpt lat="58.46625" lon="-6.30377">
        <ele>23.09</ele>
        <time>2021-03-20T19:19:40Z</time>
      </trkpt>
      <trkpt lat="58.46621" lon="-6.30266">
        <ele>21.15</ele>
        <time>2021-03-20T19:19:49Z</time>
      </trkpt>
      <trkpt lat="58.46617" lon="-6.30218">
        <ele>22.73</ele>
        <time>2021-03-20T19:19:57Z</time>
      </trkpt>
      <trkpt lat="58.46611" lon="-6.3017">
        <ele>25.81</ele>
        <time>2021-03-20T19:20:05Z</time>
      </trkpt>
      <trkpt lat="58.46562" lon="-6.29992">
        <ele>35.99</ele>
        <time>2021-03-20T19:20:14Z</time>
      </trkpt>
      <trkpt lat="58.46556" lon="-6.29949">
        <ele>38.73</ele>
        <time>2021-03-20T19:20:22Z</time>
      </trkpt>
      <trkpt lat="58.46559" lon="-6.2991">
        <ele>40.35</ele>
        <time>2021-03-20T19:20:31Z</time>
      </trkpt>
      <trkpt lat="58.46566" lon="-6.29872">
        <ele>41.76</ele>
        <time>2021-03-20T19:20:39Z</time>
      </trkpt>
      <trkpt lat="58.46602" lon="-6.29773">
        <ele>45.4</ele>
        <time>2021-03-20T19:20:47Z</time>
      </trkpt>
      <trkpt lat="58.46642" lon="-6.29681">
        <ele>48.47</ele>
        <time>2021-03-20T19:20:56Z</time>
      </trkpt>
      <trkpt lat="58.46682" lon="-6.29594">
        <ele>50</ele>
        <time>2021-03-20T19:21:04Z</time>
      </trkpt>
      <trkpt lat="58.46767" lon="-6.29424">
        <ele>49.4</ele>
        <time>2021-03-20T19:21:12Z</time>
      </trkpt>
      <trkpt lat="58.46936" lon="-6.29104">
        <ele>41</ele>
        <time>2021-03-20T19:21:21Z</time>
      </trkpt>
      <trkpt lat="58.47036" lon="-6.2892">
        <ele>36.75</ele>
        <time>2021-03-20T19:21:29Z</time>
      </trkpt>
      <trkpt lat="58.47092" lon="-6.28812">
        <ele>34</ele>
        <time>2021-03-20T19:21:38Z</time>
      </trkpt>
      <trkpt lat="58.47139" lon="-6.2872">
        <ele>32.01</ele>
        <time>2021-03-20T19:21:46Z</time>
      </trkpt>
      <trkpt lat="58.47242" lon="-6.28475">
        <ele>40.43</ele>
        <time>2021-03-20T19:21:54Z</time>
      </trkpt>
      <trkpt lat="58.4726" lon="-6.28437">
        <ele>41.35</ele>
        <time>2021-03-20T19:22:03Z</time>
      </trkpt>
      <trkpt lat="58.47304" lon="-6.28371">
        <ele>43.89</ele>
        <time>2021-03-20T19:22:11Z</time>
      </trkpt>
      <trkpt lat="58.47356" lon="-6.28306">
        <ele>46.81</ele>
        <time>2021-03-20T19:22:20Z</time>
      </trkpt>
      <trkpt lat="58.47429" lon="-6.28147">
        <ele>49.45</ele>
        <time>2021-03-20T19:22:28Z</time>
      </trkpt>
      <trkpt lat="58.47492" lon="-6.28001">
        <ele>51</ele>
        <time>2021-03-20T19:22:36Z</time>
      </trkpt>
      <trkpt lat="58.47674" lon="-6.27588">
        <ele>45.75</ele>
        <time>2021-03-20T19:22:45Z</time>
      </trkpt>
      <trkpt lat="58.47779" lon="-6.27363">
        <ele>41.95</ele>
        <time>2021-03-20T19:22:53Z</time>
      </trkpt>
      <trkpt lat="58.47861" lon="-6.27199">
        <ele>46.95</ele>
        <time>2021-03-20T19:23:01Z</time>
      </trkpt>
      <trkpt lat="58.47895" lon="-6.27123">
        <ele>48</ele>
        <time>2021-03-20T19:23:10Z</time>
      </trkpt>
      <trkpt lat="58.48041" lon="-6.26767">
        <ele>47</ele>
        <time>2021-03-20T19:23:18Z</time>
      </trkpt>
      <trkpt lat="58.48076" lon="-6.26662">
        <ele>43.83</ele>
        <time>2021-03-20T19:23:27Z</time>
      </trkpt>
      <trkpt lat="58.48106" lon="-6.26592">
        <ele>41.31</ele>
        <time>2021-03-20T19:23:35Z</time>
      </trkpt>
      <trkpt lat="58.48203" lon="-6.26403">
        <ele>36</ele>
        <time>2021-03-20T19:23:43Z</time>
      </trkpt>
      <trkpt lat="58.48312" lon="-6.26172">
        <ele>44.43</ele>
        <time>2021-03-20T19:23:52Z</time>
      </trkpt>
      <trkpt lat="58.48339" lon="-6.26093">
        <ele>46.92</ele>
        <time>2021-03-20T19:24:00Z</time>
      </trkpt>
      <trkpt lat="58.48375" lon="-6.25953">
        <ele>47.5</ele>
        <time>2021-03-20T19:24:09Z</time>
      </trkpt>
      <trkpt lat="58.48437" lon="-6.25719">
        <ele>48</ele>
        <time>2021-03-20T19:24:17Z</time>
      </trkpt>
      <trkpt lat="58.48502" lon="-6.25487">
        <ele>45</ele>
        <time>2021-03-20T19:24:25Z</time>
      </trkpt>
      <trkpt lat="58.48584" lon="-6.25217">
        <ele>41.96</ele>
        <time>2021-03-20T19:24:34Z</time>
      </trkpt>
      <trkpt lat="58.48824" lon="-6.2449">
        <ele>36.32</ele>
        <time>2021-03-20T19:24:42Z</time>
      </trkpt>
      <trkpt lat="58.4888" lon="-6.24554">
        <ele>34.33</ele>
        <time>2021-03-20T19:24:46Z</time>
      </trkpt>
      <trkpt lat="58.49118" lon="-6.24799">
        <ele>24</ele>
        <time>2021-03-20T19:24:50Z</time>
      </trkpt>
      <trkpt lat="58.4921" lon="-6.24883">
        <ele>20.88</ele>
        <time>2021-03-20T19:24:54Z</time>
      </trkpt>
      <trkpt lat="58.49297" lon="-6.25">
        <ele>22</ele>
        <time>2021-03-20T19:24:58Z</time>
      </trkpt>
      <trkpt lat="58.49467" lon="-6.25175">
        <ele>19</ele>
        <time>2021-03-20T19:25:02Z</time>
      </trkpt>
      <trkpt lat="58.49747" lon="-6.254">
        <ele>13.58</ele>
        <time>2021-03-20T19:25:06Z</time>
      </trkpt>
      <trkpt lat="58.49812" lon="-6.25458">
        <ele>13.24</ele>
        <time>2021-03-20T19:25:11Z</time>
      </trkpt>
      <trkpt lat="58.49834" lon="-6.25481">
        <ele>14</ele>
        <time>2021-03-20T19:25:15Z</time>
      </trkpt>
      <trkpt lat="58.49854" lon="-6.25513">
        <ele>14.13</ele>
        <time>2021-03-20T19:25:19Z</time>
      </trkpt>
      <trkpt lat="58.49892" lon="-6.25589">
        <ele>13.89</ele>
        <time>2021-03-20T19:25:23Z</time>
      </trkpt>
      <trkpt lat="58.49941" lon="-6.25693">
        <ele>13</ele>
        <time>2021-03-20T19:25:27Z</time>
      </trkpt>
      <trkpt lat="58.49972" lon="-6.25769">
        <ele>13.98</ele>
        <time>2021-03-20T19:25:31Z</time>
      </trkpt>
      <trkpt lat="58.50079" lon="-6.26105">
        <ele>14.68</ele>
        <time>2021-03-20T19:25:35Z</time>
      </trkpt>
      <trkpt lat="58.50095" lon="-6.26161">
        <ele>14.81</ele>
        <time>2021-03-20T19:25:39Z</time>
      </trkpt>
      <trkpt lat="58.50179" lon="-6.26422">
        <ele>22</ele>
        <time>2021-03-20T19:25:43Z</time>
      </trkpt>
      <trkpt lat="58.50191" lon="-6.26449">
        <ele>22</ele>
        <time>2021-03-20T19:25:47Z</time>
      </trkpt>
      <trkpt lat="58.50206" lon="-6.26471">
        <ele>22.83</ele>
        <time>2021-03-20T19:25:51Z</time>
      </trkpt>
      <trkpt lat="58.50224" lon="-6.26484">
        <ele>24.05</ele>
        <time>2021-03-20T19:25:55Z</time>
      </trkpt>
      <trkpt lat="58.50234" lon="-6.26486">
        <ele>24.41</ele>
        <time>2021-03-20T19:25:59Z</time>
      </trkpt>
      <trkpt lat="58.5025" lon="-6.26481">
        <ele>25.02</ele>
        <time>2021-03-20T19:26:03Z</time>
      </trkpt>
      <trkpt lat="58.50268" lon="-6.26463">
        <ele>26.05</ele>
        <time>2021-03-20T19:26:07Z</time>
      </trkpt>
      <trkpt lat="58.50261" lon="-6.26436">
        <ele>25.42</ele>
        <time>2021-03-20T19:26:08Z</time>
      </trkpt>
      <trkpt lat="58.50261" lon="-6.26436">
        <ele>25.42</ele>
        <time>2021-03-20T19:26:08Z</time>
      </trkpt>
      <trkpt lat="58.50236" lon="-6.26342">
        <ele>24.17</ele>
        <time>2021-03-20T19:26:11Z</time>
      </trkpt>
      <trkpt lat="58.50185" lon="-6.26199">
        <ele>21.67</ele>
        <time>2021-03-20T19:26:14Z</time>
      </trkpt>
      <trkpt lat="58.50173" lon="-6.26148">
        <ele>20.22</ele>
        <time>2021-03-20T19:26:17Z</time>
      </trkpt>
      <trkpt lat="58.50169" lon="-6.26127">
        <ele>19.65</ele>
        <time>2021-03-20T19:26:20Z</time>
      </trkpt>
      <trkpt lat="58.50164" lon="-6.26086">
        <ele>18.89</ele>
        <time>2021-03-20T19:26:23Z</time>
      </trkpt>
      <trkpt lat="58.50159" lon="-6.26003">
        <ele>19.88</ele>
        <time>2021-03-20T19:26:26Z</time>
      </trkpt>
      <trkpt lat="58.50149" lon="-6.25939">
        <ele>21</ele>
        <time>2021-03-20T19:26:29Z</time>
      </trkpt>
      <trkpt lat="58.50132" lon="-6.25872">
        <ele>20.73</ele>
        <time>2021-03-20T19:26:32Z</time>
      </trkpt>
      <trkpt lat="58.50106" lon="-6.25788">
        <ele>21.25</ele>
        <time>2021-03-20T19:26:35Z</time>
      </trkpt>
      <trkpt lat="58.50058" lon="-6.25492">
        <ele>18.2</ele>
        <time>2021-03-20T19:26:38Z</time>
      </trkpt>
      <trkpt lat="58.50055" lon="-6.25242">
        <ele>16.66</ele>
        <time>2021-03-20T19:26:41Z</time>
      </trkpt>
      <trkpt lat="58.50048" lon="-6.25165">
        <ele>14.74</ele>
        <time>2021-03-20T19:26:44Z</time>
      </trkpt>
      <trkpt lat="58.4999" lon="-6.24733">
        <ele>16.62</ele>
        <time>2021-03-20T19:26:47Z</time>
      </trkpt>
      <trkpt lat="58.49979" lon="-6.24563">
        <ele>22.32</ele>
        <time>2021-03-20T19:26:50Z</time>
      </trkpt>
      <trkpt lat="58.49972" lon="-6.245">
        <ele>24</ele>
        <time>2021-03-20T19:26:53Z</time>
      </trkpt>
      <trkpt lat="58.49963" lon="-6.2443">
        <ele>25</ele>
        <time>2021-03-20T19:26:56Z</time>
      </trkpt>
      <trkpt lat="58.4993" lon="-6.24228">
        <ele>27.81</ele>
        <time>2021-03-20T19:26:59Z</time>
      </trkpt>
      <trkpt lat="58.49892" lon="-6.24025">
        <ele>29.96</ele>
        <time>2021-03-20T19:27:02Z</time>
      </trkpt>
      <trkpt lat="58.49877" lon="-6.23976">
        <ele>31.42</ele>
        <time>2021-03-20T19:27:05Z</time>
      </trkpt>
      <trkpt lat="58.4987" lon="-6.23961">
        <ele>31.93</ele>
        <time>2021-03-20T19:27:08Z</time>
      </trkpt>
      <trkpt lat="58.49835" lon="-6.23923">
        <ele>34.69</ele>
        <time>2021-03-20T19:27:11Z</time>
      </trkpt>
      <trkpt lat="58.49824" lon="-6.23908">
        <ele>35.49</ele>
        <time>2021-03-20T19:27:14Z</time>
      </trkpt>
      <trkpt lat="58.49812" lon="-6.23881">
        <ele>36.5</ele>
        <time>2021-03-20T19:27:16Z</time>
      </trkpt>
      <trkpt lat="58.49784" lon="-6.23799">
        <ele>38.72</ele>
        <time>2021-03-20T19:27:19Z</time>
      </trkpt>
      <trkpt lat="58.49769" lon="-6.23721">
        <ele>39.06</ele>
        <time>2021-03-20T19:27:22Z</time>
      </trkpt>
      <trkpt lat="58.49761" lon="-6.23694">
        <ele>38.15</ele>
        <time>2021-03-20T19:27:25Z</time>
      </trkpt>
      <trkpt lat="58.49751" lon="-6.23673">
        <ele>37.05</ele>
        <time>2021-03-20T19:27:28Z</time>
      </trkpt>
      <trkpt lat="58.49607" lon="-6.23456">
        <ele>33.29</ele>
        <time>2021-03-20T19:27:31Z</time>
      </trkpt>
      <trkpt lat="58.49556" lon="-6.23394">
        <ele>30.85</ele>
        <time>2021-03-20T19:27:34Z</time>
      </trkpt>
      <trkpt lat="58.4952" lon="-6.23367">
        <ele>25.87</ele>
        <time>2021-03-20T19:27:37Z</time>
      </trkpt>
      <trkpt lat="58.49478" lon="-6.23343">
        <ele>21.26</ele>
        <time>2021-03-20T19:27:40Z</time>
      </trkpt>
      <trkpt lat="58.49365" lon="-6.23286">
        <ele>13.15</ele>
        <time>2021-03-20T19:27:43Z</time>
      </trkpt>
      <trkpt lat="58.49229" lon="-6.23229">
        <ele>15.19</ele>
        <time>2021-03-20T19:27:46Z</time>
      </trkpt>
      <trkpt lat="58.49175" lon="-6.23199">
        <ele>16</ele>
        <time>2021-03-20T19:27:49Z</time>
      </trkpt>
      <trkpt lat="58.49039" lon="-6.23596">
        <ele>20.45</ele>
        <time>2021-03-20T19:28:08Z</time>
      </trkpt>
      <trkpt lat="58.49039" lon="-6.23596">
        <ele>20.45</ele>
        <time>2021-03-20T19:28:08Z</time>
      </trkpt>
      <trkpt lat="58.48973" lon="-6.23791">
        <ele>23.47</ele>
        <time>2021-03-20T19:28:16Z</time>
      </trkpt>
      <trkpt lat="58.48958" lon="-6.23836">
        <ele>24.59</ele>
        <time>2021-03-20T19:28:24Z</time>
      </trkpt>
      <trkpt lat="58.48946" lon="-6.23883">
        <ele>25.83</ele>
        <time>2021-03-20T19:28:31Z</time>
      </trkpt>
      <trkpt lat="58.48939" lon="-6.23928">
        <ele>27.6</ele>
        <time>2021-03-20T19:28:39Z</time>
      </trkpt>
      <trkpt lat="58.48937" lon="-6.23959">
        <ele>28.95</ele>
        <time>2021-03-20T19:28:47Z</time>
      </trkpt>
      <trkpt lat="58.48941" lon="-6.24032">
        <ele>31.43</ele>
        <time>2021-03-20T19:28:54Z</time>
      </trkpt>
      <trkpt lat="58.48944" lon="-6.24063">
        <ele>32.31</ele>
        <time>2021-03-20T19:29:02Z</time>
      </trkpt>
      <trkpt lat="58.48942" lon="-6.24107">
        <ele>33.07</ele>
        <time>2021-03-20T19:29:09Z</time>
      </trkpt>
      <trkpt lat="58.48935" lon="-6.24149">
        <ele>33</ele>
        <time>2021-03-20T19:29:17Z</time>
      </trkpt>
      <trkpt lat="58.48856" lon="-6.24394">
        <ele>35.17</ele>
        <time>2021-03-20T19:29:25Z</time>
      </trkpt>
      <trkpt lat="58.48584" lon="-6.25217">
        <ele>41.96</ele>
        <time>2021-03-20T19:29:32Z</time>
      </trkpt>
      <trkpt lat="58.48502" lon="-6.25487">
        <ele>45</ele>
        <time>2021-03-20T19:29:40Z</time>
      </trkpt>
      <trkpt lat="58.48437" lon="-6.25719">
        <ele>48</ele>
        <time>2021-03-20T19:29:48Z</time>
      </trkpt>
      <trkpt lat="58.48375" lon="-6.25953">
        <ele>47.5</ele>
        <time>2021-03-20T19:29:55Z</time>
      </trkpt>
      <trkpt lat="58.48339" lon="-6.26093">
        <ele>46.92</ele>
        <time>2021-03-20T19:30:03Z</time>
      </trkpt>
      <trkpt lat="58.48312" lon="-6.26172">
        <ele>44.43</ele>
        <time>2021-03-20T19:30:11Z</time>
      </trkpt>
      <trkpt lat="58.48203" lon="-6.26403">
        <ele>36</ele>
        <time>2021-03-20T19:30:18Z</time>
      </trkpt>
      <trkpt lat="58.48106" lon="-6.26592">
        <ele>41.31</ele>
        <time>2021-03-20T19:30:26Z</time>
      </trkpt>
      <trkpt lat="58.48076" lon="-6.26662">
        <ele>43.83</ele>
        <time>2021-03-20T19:30:33Z</time>
      </trkpt>
      <trkpt lat="58.48041" lon="-6.26767">
        <ele>47</ele>
        <time>2021-03-20T19:30:41Z</time>
      </trkpt>
      <trkpt lat="58.47895" lon="-6.27123">
        <ele>48</ele>
        <time>2021-03-20T19:30:49Z</time>
      </trkpt>
      <trkpt lat="58.47861" lon="-6.27199">
        <ele>46.95</ele>
        <time>2021-03-20T19:30:56Z</time>
      </trkpt>
      <trkpt lat="58.47779" lon="-6.27363">
        <ele>41.95</ele>
        <time>2021-03-20T19:31:04Z</time>
      </trkpt>
      <trkpt lat="58.47674" lon="-6.27588">
        <ele>45.75</ele>
        <time>2021-03-20T19:31:12Z</time>
      </trkpt>
      <trkpt lat="58.47492" lon="-6.28001">
        <ele>51</ele>
        <time>2021-03-20T19:31:19Z</time>
      </trkpt>
      <trkpt lat="58.47429" lon="-6.28147">
        <ele>49.45</ele>
        <time>2021-03-20T19:31:27Z</time>
      </trkpt>
      <trkpt lat="58.47356" lon="-6.28306">
        <ele>46.81</ele>
        <time>2021-03-20T19:31:34Z</time>
      </trkpt>
      <trkpt lat="58.47304" lon="-6.28371">
        <ele>43.89</ele>
        <time>2021-03-20T19:31:42Z</time>
      </trkpt>
      <trkpt lat="58.4726" lon="-6.28437">
        <ele>41.35</ele>
        <time>2021-03-20T19:31:50Z</time>
      </trkpt>
      <trkpt lat="58.47242" lon="-6.28475">
        <ele>40.43</ele>
        <time>2021-03-20T19:31:57Z</time>
      </trkpt>
      <trkpt lat="58.47139" lon="-6.2872">
        <ele>32.01</ele>
        <time>2021-03-20T19:32:05Z</time>
      </trkpt>
      <trkpt lat="58.47092" lon="-6.28812">
        <ele>34</ele>
        <time>2021-03-20T19:32:13Z</time>
      </trkpt>
      <trkpt lat="58.47036" lon="-6.2892">
        <ele>36.75</ele>
        <time>2021-03-20T19:32:20Z</time>
      </trkpt>
      <trkpt lat="58.46936" lon="-6.29104">
        <ele>41</ele>
        <time>2021-03-20T19:32:28Z</time>
      </trkpt>
      <trkpt lat="58.46767" lon="-6.29424">
        <ele>49.4</ele>
        <time>2021-03-20T19:32:36Z</time>
      </trkpt>
      <trkpt lat="58.46682" lon="-6.29594">
        <ele>50</ele>
        <time>2021-03-20T19:32:43Z</time>
      </trkpt>
      <trkpt lat="58.46642" lon="-6.29681">
        <ele>48.47</ele>
        <time>2021-03-20T19:32:51Z</time>
      </trkpt>
      <trkpt lat="58.46602" lon="-6.29773">
        <ele>45.4</ele>
        <time>2021-03-20T19:32:58Z</time>
      </trkpt>
      <trkpt lat="58.46566" lon="-6.29872">
        <ele>41.76</ele>
        <time>2021-03-20T19:33:06Z</time>
      </trkpt>
      <trkpt lat="58.46559" lon="-6.2991">
        <ele>40.35</ele>
        <time>2021-03-20T19:33:14Z</time>
      </trkpt>
      <trkpt lat="58.46556" lon="-6.29949">
        <ele>38.73</ele>
        <time>2021-03-20T19:33:21Z</time>
      </trkpt>
      <trkpt lat="58.46562" lon="-6.29992">
        <ele>35.99</ele>
        <time>2021-03-20T19:33:29Z</time>
      </trkpt>
      <trkpt lat="58.46611" lon="-6.3017">
        <ele>25.81</ele>
        <time>2021-03-20T19:33:37Z</time>
      </trkpt>
      <trkpt lat="58.46617" lon="-6.30218">
        <ele>22.73</ele>
        <time>2021-03-20T19:33:44Z</time>
      </trkpt>
      <trkpt lat="58.46621" lon="-6.30266">
        <ele>21.15</ele>
        <time>2021-03-20T19:33:52Z</time>
      </trkpt>
      <trkpt lat="58.46625" lon="-6.30377">
        <ele>23.09</ele>
        <time>2021-03-20T19:34:00Z</time>
      </trkpt>
      <trkpt lat="58.46619" lon="-6.30509">
        <ele>29.33</ele>
        <time>2021-03-20T19:34:07Z</time>
      </trkpt>
      <trkpt lat="58.46609" lon="-6.30608">
        <ele>33.88</ele>
        <time>2021-03-20T19:34:15Z</time>
      </trkpt>
      <trkpt lat="58.46579" lon="-6.3085">
        <ele>41.78</ele>
        <time>2021-03-20T19:34:22Z</time>
      </trkpt>
      <trkpt lat="58.46556" lon="-6.30999">
        <ele>45.98</ele>
        <time>2021-03-20T19:34:30Z</time>
      </trkpt>
      <trkpt lat="58.46539" lon="-6.3108">
        <ele>46.51</ele>
        <time>2021-03-20T19:34:38Z</time>
      </trkpt>
      <trkpt lat="58.46404" lon="-6.31812">
        <ele>50.46</ele>
        <time>2021-03-20T19:34:45Z</time>
      </trkpt>
      <trkpt lat="58.46121" lon="-6.3273">
        <ele>44.35</ele>
        <time>2021-03-20T19:34:53Z</time>
      </trkpt>
      <trkpt lat="58.4584" lon="-6.33567">
        <ele>47.32</ele>
        <time>2021-03-20T19:35:01Z</time>
      </trkpt>
      <trkpt lat="58.45726" lon="-6.33816">
        <ele>43.87</ele>
        <time>2021-03-20T19:35:08Z</time>
      </trkpt>
      <trkpt lat="58.45401" lon="-6.34492">
        <ele>45.58</ele>
        <time>2021-03-20T19:35:16Z</time>
      </trkpt>
      <trkpt lat="58.45182" lon="-6.34916">
        <ele>50.98</ele>
        <time>2021-03-20T19:35:23Z</time>
      </trkpt>
      <trkpt lat="58.45137" lon="-6.34987">
        <ele>49.97</ele>
        <time>2021-03-20T19:35:31Z</time>
      </trkpt>
      <trkpt lat="58.45102" lon="-6.35037">
        <ele>48.31</ele>
        <time>2021-03-20T19:35:39Z</time>
      </trkpt>
      <trkpt lat="58.45003" lon="-6.35171">
        <ele>47.83</ele>
        <time>2021-03-20T19:35:46Z</time>
      </trkpt>
      <trkpt lat="58.44923" lon="-6.35284">
        <ele>47.82</ele>
        <time>2021-03-20T19:35:54Z</time>
      </trkpt>
      <trkpt lat="58.44906" lon="-6.35319">
        <ele>48</ele>
        <time>2021-03-20T19:36:02Z</time>
      </trkpt>
      <trkpt lat="58.44893" lon="-6.35353">
        <ele>47.39</ele>
        <time>2021-03-20T19:36:09Z</time>
      </trkpt>
      <trkpt lat="58.44665" lon="-6.36099">
        <ele>30.94</ele>
        <time>2021-03-20T19:36:17Z</time>
      </trkpt>
      <trkpt lat="58.44555" lon="-6.3648">
        <ele>20.03</ele>
        <time>2021-03-20T19:36:25Z</time>
      </trkpt>
      <trkpt lat="58.44373" lon="-6.37057">
        <ele>36.6</ele>
        <time>2021-03-20T19:36:32Z</time>
      </trkpt>
      <trkpt lat="58.43953" lon="-6.38436">
        <ele>21</ele>
        <time>2021-03-20T19:36:40Z</time>
      </trkpt>
      <trkpt lat="58.43808" lon="-6.38904">
        <ele>29.48</ele>
        <time>2021-03-20T19:36:47Z</time>
      </trkpt>
      <trkpt lat="58.43722" lon="-6.39186">
        <ele>30.31</ele>
        <time>2021-03-20T19:36:55Z</time>
      </trkpt>
      <trkpt lat="58.43611" lon="-6.39565">
        <ele>36.99</ele>
        <time>2021-03-20T19:37:03Z</time>
      </trkpt>
      <trkpt lat="58.43571" lon="-6.39691">
        <ele>39.87</ele>
        <time>2021-03-20T19:37:10Z</time>
      </trkpt>
      <trkpt lat="58.43475" lon="-6.39966">
        <ele>46.65</ele>
        <time>2021-03-20T19:37:18Z</time>
      </trkpt>
      <trkpt lat="58.43429" lon="-6.4013">
        <ele>48.57</ele>
        <time>2021-03-20T19:37:26Z</time>
      </trkpt>
      <trkpt lat="58.43402" lon="-6.40216">
        <ele>50</ele>
        <time>2021-03-20T19:37:33Z</time>
      </trkpt>
      <trkpt lat="58.43375" lon="-6.40289">
        <ele>49.58</ele>
        <time>2021-03-20T19:37:41Z</time>
      </trkpt>
      <trkpt lat="58.42925" lon="-6.41437">
        <ele>44.7</ele>
        <time>2021-03-20T19:37:48Z</time>
      </trkpt>
      <trkpt lat="58.42783" lon="-6.41776">
        <ele>40.06</ele>
        <time>2021-03-20T19:37:56Z</time>
      </trkpt>
      <trkpt lat="58.42717" lon="-6.41924">
        <ele>37</ele>
        <time>2021-03-20T19:38:04Z</time>
      </trkpt>
      <trkpt lat="58.4265" lon="-6.42044">
        <ele>35.6</ele>
        <time>2021-03-20T19:38:11Z</time>
      </trkpt>
      <trkpt lat="58.42471" lon="-6.42331">
        <ele>39.03</ele>
        <time>2021-03-20T19:38:19Z</time>
      </trkpt>
      <trkpt lat="58.42396" lon="-6.42456">
        <ele>40.32</ele>
        <time>2021-03-20T19:38:27Z</time>
      </trkpt>
      <trkpt lat="58.42133" lon="-6.4292">
        <ele>40.23</ele>
        <time>2021-03-20T19:38:34Z</time>
      </trkpt>
      <trkpt lat="58.41996" lon="-6.43102">
        <ele>38</ele>
        <time>2021-03-20T19:38:42Z</time>
      </trkpt>
      <trkpt lat="58.41913" lon="-6.4319">
        <ele>35.15</ele>
        <time>2021-03-20T19:38:50Z</time>
      </trkpt>
      <trkpt lat="58.41837" lon="-6.43244">
        <ele>32.37</ele>
        <time>2021-03-20T19:38:57Z</time>
      </trkpt>
      <trkpt lat="58.41802" lon="-6.43287">
        <ele>28.39</ele>
        <time>2021-03-20T19:39:05Z</time>
      </trkpt>
      <trkpt lat="58.4178" lon="-6.4332">
        <ele>25.64</ele>
        <time>2021-03-20T19:39:12Z</time>
      </trkpt>
      <trkpt lat="58.41711" lon="-6.43471">
        <ele>22.15</ele>
        <time>2021-03-20T19:39:20Z</time>
      </trkpt>
      <trkpt lat="58.4163" lon="-6.43662">
        <ele>34.65</ele>
        <time>2021-03-20T19:39:28Z</time>
      </trkpt>
      <trkpt lat="58.41599" lon="-6.43782">
        <ele>37.59</ele>
        <time>2021-03-20T19:39:35Z</time>
      </trkpt>
      <trkpt lat="58.41577" lon="-6.43885">
        <ele>40</ele>
        <time>2021-03-20T19:39:43Z</time>
      </trkpt>
      <trkpt lat="58.41541" lon="-6.43965">
        <ele>40</ele>
        <time>2021-03-20T19:39:51Z</time>
      </trkpt>
      <trkpt lat="58.4151" lon="-6.44023">
        <ele>39.46</ele>
        <time>2021-03-20T19:39:58Z</time>
      </trkpt>
      <trkpt lat="58.41435" lon="-6.4415">
        <ele>37</ele>
        <time>2021-03-20T19:40:06Z</time>
      </trkpt>
      <trkpt lat="58.41323" lon="-6.44366">
        <ele>35</ele>
        <time>2021-03-20T19:40:14Z</time>
      </trkpt>
      <trkpt lat="58.4086" lon="-6.45219">
        <ele>34</ele>
        <time>2021-03-20T19:40:21Z</time>
      </trkpt>
      <trkpt lat="58.40768" lon="-6.45379">
        <ele>34.37</ele>
        <time>2021-03-20T19:40:29Z</time>
      </trkpt>
      <trkpt lat="58.40733" lon="-6.45435">
        <ele>33.32</ele>
        <time>2021-03-20T19:40:36Z</time>
      </trkpt>
      <trkpt lat="58.40698" lon="-6.45484">
        <ele>32.86</ele>
        <time>2021-03-20T19:40:44Z</time>
      </trkpt>
      <trkpt lat="58.40609" lon="-6.45617">
        <ele>32.87</ele>
        <time>2021-03-20T19:40:52Z</time>
      </trkpt>
      <trkpt lat="58.40564" lon="-6.457">
        <ele>34.68</ele>
        <time>2021-03-20T19:40:59Z</time>
      </trkpt>
      <trkpt lat="58.40523" lon="-6.45788">
        <ele>36.27</ele>
        <time>2021-03-20T19:41:07Z</time>
      </trkpt>
      <trkpt lat="58.40399" lon="-6.4608">
        <ele>40.76</ele>
        <time>2021-03-20T19:41:15Z</time>
      </trkpt>
      <trkpt lat="58.4026" lon="-6.46392">
        <ele>37.31</ele>
        <time>2021-03-20T19:41:22Z</time>
      </trkpt>
      <trkpt lat="58.4017" lon="-6.46589">
        <ele>38.12</ele>
        <time>2021-03-20T19:41:30Z</time>
      </trkpt>
      <trkpt lat="58.40107" lon="-6.46719">
        <ele>39.83</ele>
        <time>2021-03-20T19:41:37Z</time>
      </trkpt>
      <trkpt lat="58.40055" lon="-6.46809">
        <ele>38</ele>
        <time>2021-03-20T19:41:45Z</time>
      </trkpt>
      <trkpt lat="58.39991" lon="-6.46906">
        <ele>36.06</ele>
        <time>2021-03-20T19:41:53Z</time>
      </trkpt>
      <trkpt lat="58.39868" lon="-6.47082">
        <ele>30.28</ele>
        <time>2021-03-20T19:42:00Z</time>
      </trkpt>
      <trkpt lat="58.39661" lon="-6.47359">
        <ele>23.78</ele>
        <time>2021-03-20T19:42:08Z</time>
      </trkpt>
      <trkpt lat="58.39596" lon="-6.47448">
        <ele>19.8</ele>
        <time>2021-03-20T19:42:16Z</time>
      </trkpt>
      <trkpt lat="58.39544" lon="-6.47535">
        <ele>14.18</ele>
        <time>2021-03-20T19:42:23Z</time>
      </trkpt>
      <trkpt lat="58.39424" lon="-6.47795">
        <ele>11.74</ele>
        <time>2021-03-20T19:42:31Z</time>
      </trkpt>
      <trkpt lat="58.3916" lon="-6.48398">
        <ele>22.5</ele>
        <time>2021-03-20T19:42:39Z</time>
      </trkpt>
      <trkpt lat="58.39025" lon="-6.48661">
        <ele>29.09</ele>
        <time>2021-03-20T19:42:46Z</time>
      </trkpt>
      <trkpt lat="58.38986" lon="-6.48731">
        <ele>30.81</ele>
        <time>2021-03-20T19:42:54Z</time>
      </trkpt>
      <trkpt lat="58.38588" lon="-6.49472">
        <ele>44.98</ele>
        <time>2021-03-20T19:43:01Z</time>
      </trkpt>
      <trkpt lat="58.38316" lon="-6.50046">
        <ele>56</ele>
        <time>2021-03-20T19:43:09Z</time>
      </trkpt>
      <trkpt lat="58.38256" lon="-6.5016">
        <ele>58.2</ele>
        <time>2021-03-20T19:43:17Z</time>
      </trkpt>
      <trkpt lat="58.38247" lon="-6.50176">
        <ele>58.19</ele>
        <time>2021-03-20T19:43:24Z</time>
      </trkpt>
      <trkpt lat="58.37938" lon="-6.50575">
        <ele>52.22</ele>
        <time>2021-03-20T19:43:32Z</time>
      </trkpt>
      <trkpt lat="58.37881" lon="-6.50653">
        <ele>53</ele>
        <time>2021-03-20T19:43:40Z</time>
      </trkpt>
      <trkpt lat="58.37819" lon="-6.50711">
        <ele>52.52</ele>
        <time>2021-03-20T19:43:47Z</time>
      </trkpt>
      <trkpt lat="58.37766" lon="-6.50736">
        <ele>54.2</ele>
        <time>2021-03-20T19:43:55Z</time>
      </trkpt>
      <trkpt lat="58.37706" lon="-6.50733">
        <ele>55</ele>
        <time>2021-03-20T19:44:03Z</time>
      </trkpt>
      <trkpt lat="58.37647" lon="-6.50705">
        <ele>54.74</ele>
        <time>2021-03-20T19:44:10Z</time>
      </trkpt>
      <trkpt lat="58.37548" lon="-6.50651">
        <ele>55</ele>
        <time>2021-03-20T19:44:18Z</time>
      </trkpt>
      <trkpt lat="58.37442" lon="-6.50604">
        <ele>51.91</ele>
        <time>2021-03-20T19:44:25Z</time>
      </trkpt>
      <trkpt lat="58.37353" lon="-6.50578">
        <ele>47.72</ele>
        <time>2021-03-20T19:44:33Z</time>
      </trkpt>
      <trkpt lat="58.37252" lon="-6.50567">
        <ele>44.66</ele>
        <time>2021-03-20T19:44:41Z</time>
      </trkpt>
      <trkpt lat="58.37152" lon="-6.50564">
        <ele>43.86</ele>
        <time>2021-03-20T19:44:48Z</time>
      </trkpt>
      <trkpt lat="58.37001" lon="-6.50572">
        <ele>47.39</ele>
        <time>2021-03-20T19:44:56Z</time>
      </trkpt>
      <trkpt lat="58.36831" lon="-6.50622">
        <ele>43.53</ele>
        <time>2021-03-20T19:45:04Z</time>
      </trkpt>
      <trkpt lat="58.36731" lon="-6.50658">
        <ele>39.3</ele>
        <time>2021-03-20T19:45:11Z</time>
      </trkpt>
      <trkpt lat="58.36523" lon="-6.50751">
        <ele>31.99</ele>
        <time>2021-03-20T19:45:19Z</time>
      </trkpt>
      <trkpt lat="58.36375" lon="-6.50849">
        <ele>28.22</ele>
        <time>2021-03-20T19:45:26Z</time>
      </trkpt>
      <trkpt lat="58.3619" lon="-6.50999">
        <ele>27</ele>
        <time>2021-03-20T19:45:34Z</time>
      </trkpt>
      <trkpt lat="58.35989" lon="-6.51179">
        <ele>26.83</ele>
        <time>2021-03-20T19:45:42Z</time>
      </trkpt>
      <trkpt lat="58.35951" lon="-6.5121">
        <ele>26.34</ele>
        <time>2021-03-20T19:45:49Z</time>
      </trkpt>
      <trkpt lat="58.35797" lon="-6.51314">
        <ele>25</ele>
        <time>2021-03-20T19:45:57Z</time>
      </trkpt>
      <trkpt lat="58.35733" lon="-6.5135">
        <ele>22.79</ele>
        <time>2021-03-20T19:46:05Z</time>
      </trkpt>
      <trkpt lat="58.35661" lon="-6.514">
        <ele>20.68</ele>
        <time>2021-03-20T19:46:12Z</time>
      </trkpt>
      <trkpt lat="58.35579" lon="-6.51451">
        <ele>20.63</ele>
        <time>2021-03-20T19:46:20Z</time>
      </trkpt>
      <trkpt lat="58.35298" lon="-6.51669">
        <ele>11.92</ele>
        <time>2021-03-20T19:46:28Z</time>
      </trkpt>
      <trkpt lat="58.35087" lon="-6.51848">
        <ele>8</ele>
        <time>2021-03-20T19:46:35Z</time>
      </trkpt>
      <trkpt lat="58.3501" lon="-6.51905">
        <ele>7.43</ele>
        <time>2021-03-20T19:46:43Z</time>
      </trkpt>
      <trkpt lat="58.34977" lon="-6.51921">
        <ele>7</ele>
        <time>2021-03-20T19:46:50Z</time>
      </trkpt>
      <trkpt lat="58.34955" lon="-6.51928">
        <ele>7</ele>
        <time>2021-03-20T19:46:58Z</time>
      </trkpt>
      <trkpt lat="58.34933" lon="-6.51925">
        <ele>7</ele>
        <time>2021-03-20T19:47:06Z</time>
      </trkpt>
      <trkpt lat="58.3491" lon="-6.51904">
        <ele>7.59</ele>
        <time>2021-03-20T19:47:13Z</time>
      </trkpt>
      <trkpt lat="58.349" lon="-6.51889">
        <ele>7.99</ele>
        <time>2021-03-20T19:47:21Z</time>
      </trkpt>
      <trkpt lat="58.34768" lon="-6.51635">
        <ele>10.05</ele>
        <time>2021-03-20T19:47:29Z</time>
      </trkpt>
      <trkpt lat="58.34697" lon="-6.51507">
        <ele>12</ele>
        <time>2021-03-20T19:47:36Z</time>
      </trkpt>
      <trkpt lat="58.34537" lon="-6.51204">
        <ele>14.33</ele>
        <time>2021-03-20T19:47:44Z</time>
      </trkpt>
      <trkpt lat="58.34439" lon="-6.51009">
        <ele>15.12</ele>
        <time>2021-03-20T19:47:52Z</time>
      </trkpt>
      <trkpt lat="58.34304" lon="-6.50756">
        <ele>20.27</ele>
        <time>2021-03-20T19:47:59Z</time>
      </trkpt>
      <trkpt lat="58.34238" lon="-6.50624">
        <ele>18.91</ele>
        <time>2021-03-20T19:48:07Z</time>
      </trkpt>
      <trkpt lat="58.34125" lon="-6.50392">
        <ele>19.95</ele>
        <time>2021-03-20T19:48:14Z</time>
      </trkpt>
      <trkpt lat="58.3382" lon="-6.49793">
        <ele>31.43</ele>
        <time>2021-03-20T19:48:22Z</time>
      </trkpt>
      <trkpt lat="58.33775" lon="-6.49696">
        <ele>32.75</ele>
        <time>2021-03-20T19:48:30Z</time>
      </trkpt>
      <trkpt lat="58.33641" lon="-6.49383">
        <ele>36.28</ele>
        <time>2021-03-20T19:48:37Z</time>
      </trkpt>
      <trkpt lat="58.33555" lon="-6.49177">
        <ele>37.61</ele>
        <time>2021-03-20T19:48:45Z</time>
      </trkpt>
      <trkpt lat="58.3347" lon="-6.48967">
        <ele>39.18</ele>
        <time>2021-03-20T19:48:53Z</time>
      </trkpt>
      <trkpt lat="58.33354" lon="-6.48702">
        <ele>44.45</ele>
        <time>2021-03-20T19:49:00Z</time>
      </trkpt>
      <trkpt lat="58.33112" lon="-6.48132">
        <ele>37.09</ele>
        <time>2021-03-20T19:49:08Z</time>
      </trkpt>
      <trkpt lat="58.33011" lon="-6.47862">
        <ele>38.97</ele>
        <time>2021-03-20T19:49:15Z</time>
      </trkpt>
      <trkpt lat="58.32903" lon="-6.47534">
        <ele>46</ele>
        <time>2021-03-20T19:49:23Z</time>
      </trkpt>
      <trkpt lat="58.32866" lon="-6.47445">
        <ele>47.16</ele>
        <time>2021-03-20T19:49:31Z</time>
      </trkpt>
      <trkpt lat="58.32764" lon="-6.47262">
        <ele>47.79</ele>
        <time>2021-03-20T19:49:38Z</time>
      </trkpt>
      <trkpt lat="58.32515" lon="-6.46875">
        <ele>49.61</ele>
        <time>2021-03-20T19:49:46Z</time>
      </trkpt>
      <trkpt lat="58.32375" lon="-6.46675">
        <ele>48.72</ele>
        <time>2021-03-20T19:49:54Z</time>
      </trkpt>
      <trkpt lat="58.32271" lon="-6.46559">
        <ele>44.61</ele>
        <time>2021-03-20T19:50:01Z</time>
      </trkpt>
      <trkpt lat="58.32058" lon="-6.46349">
        <ele>47.91</ele>
        <time>2021-03-20T19:50:09Z</time>
      </trkpt>
      <trkpt lat="58.31631" lon="-6.45977">
        <ele>49.25</ele>
        <time>2021-03-20T19:50:17Z</time>
      </trkpt>
      <trkpt lat="58.31188" lon="-6.456">
        <ele>61.4</ele>
        <time>2021-03-20T19:50:24Z</time>
      </trkpt>
      <trkpt lat="58.30974" lon="-6.4543">
        <ele>63.57</ele>
        <time>2021-03-20T19:50:32Z</time>
      </trkpt>
      <trkpt lat="58.30802" lon="-6.45307">
        <ele>62.83</ele>
        <time>2021-03-20T19:50:39Z</time>
      </trkpt>
      <trkpt lat="58.30708" lon="-6.45244">
        <ele>64.42</ele>
        <time>2021-03-20T19:50:47Z</time>
      </trkpt>
      <trkpt lat="58.30303" lon="-6.44995">
        <ele>74.37</ele>
        <time>2021-03-20T19:50:55Z</time>
      </trkpt>
      <trkpt lat="58.29959" lon="-6.44802">
        <ele>68.66</ele>
        <time>2021-03-20T19:51:02Z</time>
      </trkpt>
      <trkpt lat="58.29216" lon="-6.44393">
        <ele>78.74</ele>
        <time>2021-03-20T19:51:10Z</time>
      </trkpt>
      <trkpt lat="58.28994" lon="-6.44264">
        <ele>81.29</ele>
        <time>2021-03-20T19:51:18Z</time>
      </trkpt>
      <trkpt lat="58.28692" lon="-6.44062">
        <ele>73.92</ele>
        <time>2021-03-20T19:51:25Z</time>
      </trkpt>
      <trkpt lat="58.28522" lon="-6.4396">
        <ele>75.22</ele>
        <time>2021-03-20T19:51:33Z</time>
      </trkpt>
      <trkpt lat="58.28459" lon="-6.43926">
        <ele>79.94</ele>
        <time>2021-03-20T19:51:40Z</time>
      </trkpt>
      <trkpt lat="58.28316" lon="-6.4387">
        <ele>82.62</ele>
        <time>2021-03-20T19:51:48Z</time>
      </trkpt>
      <trkpt lat="58.27623" lon="-6.43575">
        <ele>92.71</ele>
        <time>2021-03-20T19:51:56Z</time>
      </trkpt>
      <trkpt lat="58.27408" lon="-6.43486">
        <ele>95.93</ele>
        <time>2021-03-20T19:52:03Z</time>
      </trkpt>
      <trkpt lat="58.27217" lon="-6.43413">
        <ele>107.18</ele>
        <time>2021-03-20T19:52:11Z</time>
      </trkpt>
      <trkpt lat="58.27081" lon="-6.43344">
        <ele>109.61</ele>
        <time>2021-03-20T19:52:19Z</time>
      </trkpt>
      <trkpt lat="58.26962" lon="-6.43271">
        <ele>107.64</ele>
        <time>2021-03-20T19:52:26Z</time>
      </trkpt>
      <trkpt lat="58.2667" lon="-6.43056">
        <ele>100</ele>
        <time>2021-03-20T19:52:34Z</time>
      </trkpt>
      <trkpt lat="58.26568" lon="-6.42967">
        <ele>96.24</ele>
        <time>2021-03-20T19:52:42Z</time>
      </trkpt>
      <trkpt lat="58.26501" lon="-6.429">
        <ele>94.39</ele>
        <time>2021-03-20T19:52:49Z</time>
      </trkpt>
      <trkpt lat="58.26466" lon="-6.42853">
        <ele>93.94</ele>
        <time>2021-03-20T19:52:57Z</time>
      </trkpt>
      <trkpt lat="58.26431" lon="-6.42794">
        <ele>93.09</ele>
        <time>2021-03-20T19:53:04Z</time>
      </trkpt>
      <trkpt lat="58.26399" lon="-6.42734">
        <ele>92.06</ele>
        <time>2021-03-20T19:53:12Z</time>
      </trkpt>
      <trkpt lat="58.26367" lon="-6.42663">
        <ele>91.79</ele>
        <time>2021-03-20T19:53:20Z</time>
      </trkpt>
      <trkpt lat="58.26335" lon="-6.42568">
        <ele>91.96</ele>
        <time>2021-03-20T19:53:27Z</time>
      </trkpt>
      <trkpt lat="58.26297" lon="-6.42405">
        <ele>92.32</ele>
        <time>2021-03-20T19:53:35Z</time>
      </trkpt>
      <trkpt lat="58.26271" lon="-6.42342">
        <ele>93.16</ele>
        <time>2021-03-20T19:53:43Z</time>
      </trkpt>
      <trkpt lat="58.26252" lon="-6.42302">
        <ele>93.92</ele>
        <time>2021-03-20T19:53:50Z</time>
      </trkpt>
      <trkpt lat="58.2622" lon="-6.42243">
        <ele>93</ele>
        <time>2021-03-20T19:53:58Z</time>
      </trkpt>
      <trkpt lat="58.26081" lon="-6.4203">
        <ele>94</ele>
        <time>2021-03-20T19:54:06Z</time>
      </trkpt>
      <trkpt lat="58.26041" lon="-6.41974">
        <ele>93.03</ele>
        <time>2021-03-20T19:54:13Z</time>
      </trkpt>
      <trkpt lat="58.25999" lon="-6.41929">
        <ele>93</ele>
        <time>2021-03-20T19:54:21Z</time>
      </trkpt>
      <trkpt lat="58.25955" lon="-6.41895">
        <ele>92.08</ele>
        <time>2021-03-20T19:54:28Z</time>
      </trkpt>
      <trkpt lat="58.2588" lon="-6.41825">
        <ele>94.31</ele>
        <time>2021-03-20T19:54:36Z</time>
      </trkpt>
      <trkpt lat="58.25867" lon="-6.41804">
        <ele>94.77</ele>
        <time>2021-03-20T19:54:44Z</time>
      </trkpt>
      <trkpt lat="58.25842" lon="-6.41758">
        <ele>95</ele>
        <time>2021-03-20T19:54:51Z</time>
      </trkpt>
      <trkpt lat="58.2563" lon="-6.41329">
        <ele>91.83</ele>
        <time>2021-03-20T19:54:59Z</time>
      </trkpt>
      <trkpt lat="58.25595" lon="-6.41275">
        <ele>90.57</ele>
        <time>2021-03-20T19:55:07Z</time>
      </trkpt>
      <trkpt lat="58.2558" lon="-6.41256">
        <ele>91.24</ele>
        <time>2021-03-20T19:55:14Z</time>
      </trkpt>
      <trkpt lat="58.25547" lon="-6.41226">
        <ele>92.44</ele>
        <time>2021-03-20T19:55:22Z</time>
      </trkpt>
      <trkpt lat="58.25527" lon="-6.41215">
        <ele>92.74</ele>
        <time>2021-03-20T19:55:29Z</time>
      </trkpt>
      <trkpt lat="58.25502" lon="-6.4121">
        <ele>92.97</ele>
        <time>2021-03-20T19:55:37Z</time>
      </trkpt>
      <trkpt lat="58.25374" lon="-6.41206">
        <ele>95.53</ele>
        <time>2021-03-20T19:55:45Z</time>
      </trkpt>
      <trkpt lat="58.25303" lon="-6.41207">
        <ele>93.91</ele>
        <time>2021-03-20T19:55:52Z</time>
      </trkpt>
      <trkpt lat="58.25236" lon="-6.41203">
        <ele>94.5</ele>
        <time>2021-03-20T19:56:00Z</time>
      </trkpt>
      <trkpt lat="58.25192" lon="-6.41194">
        <ele>94.92</ele>
        <time>2021-03-20T19:56:08Z</time>
      </trkpt>
      <trkpt lat="58.25039" lon="-6.41119">
        <ele>87.24</ele>
        <time>2021-03-20T19:56:15Z</time>
      </trkpt>
      <trkpt lat="58.25003" lon="-6.41096">
        <ele>86.1</ele>
        <time>2021-03-20T19:56:23Z</time>
      </trkpt>
      <trkpt lat="58.24984" lon="-6.41077">
        <ele>85</ele>
        <time>2021-03-20T19:56:31Z</time>
      </trkpt>
      <trkpt lat="58.24914" lon="-6.4099">
        <ele>82.75</ele>
        <time>2021-03-20T19:56:38Z</time>
      </trkpt>
      <trkpt lat="58.24892" lon="-6.40954">
        <ele>80.36</ele>
        <time>2021-03-20T19:56:46Z</time>
      </trkpt>
      <trkpt lat="58.24883" lon="-6.40932">
        <ele>79.15</ele>
        <time>2021-03-20T19:56:53Z</time>
      </trkpt>
      <trkpt lat="58.24869" lon="-6.40881">
        <ele>76.19</ele>
        <time>2021-03-20T19:57:01Z</time>
      </trkpt>
      <trkpt lat="58.24864" lon="-6.40851">
        <ele>75.47</ele>
        <time>2021-03-20T19:57:09Z</time>
      </trkpt>
      <trkpt lat="58.24848" lon="-6.40717">
        <ele>72.86</ele>
        <time>2021-03-20T19:57:16Z</time>
      </trkpt>
      <trkpt lat="58.24831" lon="-6.40441">
        <ele>65.69</ele>
        <time>2021-03-20T19:57:24Z</time>
      </trkpt>
      <trkpt lat="58.24819" lon="-6.40117">
        <ele>57.21</ele>
        <time>2021-03-20T19:57:32Z</time>
      </trkpt>
      <trkpt lat="58.24813" lon="-6.40048">
        <ele>56.72</ele>
        <time>2021-03-20T19:57:39Z</time>
      </trkpt>
      <trkpt lat="58.24803" lon="-6.39993">
        <ele>56.21</ele>
        <time>2021-03-20T19:57:47Z</time>
      </trkpt>
      <trkpt lat="58.24791" lon="-6.39947">
        <ele>56.56</ele>
        <time>2021-03-20T19:57:55Z</time>
      </trkpt>
      <trkpt lat="58.24781" lon="-6.39885">
        <ele>57.66</ele>
        <time>2021-03-20T19:58:02Z</time>
      </trkpt>
      <trkpt lat="58.24761" lon="-6.39699">
        <ele>57.84</ele>
        <time>2021-03-20T19:58:10Z</time>
      </trkpt>
      <trkpt lat="58.24754" lon="-6.39667">
        <ele>57.55</ele>
        <time>2021-03-20T19:58:17Z</time>
      </trkpt>
      <trkpt lat="58.24748" lon="-6.39644">
        <ele>57.37</ele>
        <time>2021-03-20T19:58:25Z</time>
      </trkpt>
      <trkpt lat="58.24735" lon="-6.39616">
        <ele>57.27</ele>
        <time>2021-03-20T19:58:33Z</time>
      </trkpt>
      <trkpt lat="58.24721" lon="-6.39592">
        <ele>58.04</ele>
        <time>2021-03-20T19:58:40Z</time>
      </trkpt>
      <trkpt lat="58.24515" lon="-6.39234">
        <ele>62.8</ele>
        <time>2021-03-20T19:58:48Z</time>
      </trkpt>
      <trkpt lat="58.24491" lon="-6.39205">
        <ele>62.83</ele>
        <time>2021-03-20T19:58:56Z</time>
      </trkpt>
      <trkpt lat="58.24256" lon="-6.39073">
        <ele>57.9</ele>
        <time>2021-03-20T19:59:03Z</time>
      </trkpt>
      <trkpt lat="58.24105" lon="-6.38983">
        <ele>56.05</ele>
        <time>2021-03-20T19:59:11Z</time>
      </trkpt>
      <trkpt lat="58.24015" lon="-6.38897">
        <ele>51.5</ele>
        <time>2021-03-20T19:59:18Z</time>
      </trkpt>
      <trkpt lat="58.23992" lon="-6.38869">
        <ele>50.89</ele>
        <time>2021-03-20T19:59:26Z</time>
      </trkpt>
      <trkpt lat="58.23963" lon="-6.38828">
        <ele>48.94</ele>
        <time>2021-03-20T19:59:34Z</time>
      </trkpt>
      <trkpt lat="58.23943" lon="-6.38806">
        <ele>48.11</ele>
        <time>2021-03-20T19:59:41Z</time>
      </trkpt>
      <trkpt lat="58.23924" lon="-6.38793">
        <ele>47.86</ele>
        <time>2021-03-20T19:59:49Z</time>
      </trkpt>
      <trkpt lat="58.23902" lon="-6.38785">
        <ele>48.07</ele>
        <time>2021-03-20T19:59:57Z</time>
      </trkpt>
      <trkpt lat="58.23848" lon="-6.38779">
        <ele>47.66</ele>
        <time>2021-03-20T20:00:04Z</time>
      </trkpt>
      <trkpt lat="58.23798" lon="-6.38787">
        <ele>47.64</ele>
        <time>2021-03-20T20:00:12Z</time>
      </trkpt>
      <trkpt lat="58.23726" lon="-6.38804">
        <ele>47.07</ele>
        <time>2021-03-20T20:00:20Z</time>
      </trkpt>
      <trkpt lat="58.23628" lon="-6.38863">
        <ele>44.39</ele>
        <time>2021-03-20T20:00:27Z</time>
      </trkpt>
      <trkpt lat="58.23597" lon="-6.38887">
        <ele>43.85</ele>
        <time>2021-03-20T20:00:35Z</time>
      </trkpt>
      <trkpt lat="58.2357" lon="-6.38923">
        <ele>44.44</ele>
        <time>2021-03-20T20:00:42Z</time>
      </trkpt>
      <trkpt lat="58.23476" lon="-6.39029">
        <ele>41.27</ele>
        <time>2021-03-20T20:00:50Z</time>
      </trkpt>
      <trkpt lat="58.23463" lon="-6.3904">
        <ele>40.78</ele>
        <time>2021-03-20T20:00:58Z</time>
      </trkpt>
      <trkpt lat="58.23451" lon="-6.39047">
        <ele>40.12</ele>
        <time>2021-03-20T20:01:05Z</time>
      </trkpt>
      <trkpt lat="58.23438" lon="-6.39049">
        <ele>39.77</ele>
        <time>2021-03-20T20:01:13Z</time>
      </trkpt>
      <trkpt lat="58.23354" lon="-6.39031">
        <ele>37.35</ele>
        <time>2021-03-20T20:01:21Z</time>
      </trkpt>
      <trkpt lat="58.23288" lon="-6.39023">
        <ele>36.12</ele>
        <time>2021-03-20T20:01:28Z</time>
      </trkpt>
      <trkpt lat="58.23183" lon="-6.39026">
        <ele>34.99</ele>
        <time>2021-03-20T20:01:36Z</time>
      </trkpt>
      <trkpt lat="58.23118" lon="-6.3902">
        <ele>30.23</ele>
        <time>2021-03-20T20:01:44Z</time>
      </trkpt>
      <trkpt lat="58.23073" lon="-6.39002">
        <ele>27.68</ele>
        <time>2021-03-20T20:01:51Z</time>
      </trkpt>
      <trkpt lat="58.23048" lon="-6.38985">
        <ele>26.03</ele>
        <time>2021-03-20T20:01:59Z</time>
      </trkpt>
      <trkpt lat="58.2301" lon="-6.38949">
        <ele>23.74</ele>
        <time>2021-03-20T20:02:06Z</time>
      </trkpt>
      <trkpt lat="58.22986" lon="-6.38936">
        <ele>21.31</ele>
        <time>2021-03-20T20:02:14Z</time>
      </trkpt>
      <trkpt lat="58.22967" lon="-6.38933">
        <ele>19.59</ele>
        <time>2021-03-20T20:02:22Z</time>
      </trkpt>
      <trkpt lat="58.22907" lon="-6.38941">
        <ele>15.27</ele>
        <time>2021-03-20T20:02:29Z</time>
      </trkpt>
      <trkpt lat="58.22889" lon="-6.38943">
        <ele>14.02</ele>
        <time>2021-03-20T20:02:37Z</time>
      </trkpt>
      <trkpt lat="58.22813" lon="-6.38945">
        <ele>13.74</ele>
        <time>2021-03-20T20:02:45Z</time>
      </trkpt>
      <trkpt lat="58.22799" lon="-6.38942">
        <ele>14.13</ele>
        <time>2021-03-20T20:02:52Z</time>
      </trkpt>
      <trkpt lat="58.22783" lon="-6.38931">
        <ele>14.32</ele>
        <time>2021-03-20T20:03:00Z</time>
      </trkpt>
      <trkpt lat="58.2277" lon="-6.38915">
        <ele>14.2</ele>
        <time>2021-03-20T20:03:07Z</time>
      </trkpt>
      <trkpt lat="58.22751" lon="-6.38885">
        <ele>13.83</ele>
        <time>2021-03-20T20:03:15Z</time>
      </trkpt>
      <trkpt lat="58.22639" lon="-6.38688">
        <ele>8.99</ele>
        <time>2021-03-20T20:03:23Z</time>
      </trkpt>
      <trkpt lat="58.22622" lon="-6.38664">
        <ele>8.38</ele>
        <time>2021-03-20T20:03:30Z</time>
      </trkpt>
      <trkpt lat="58.22601" lon="-6.38653">
        <ele>7.64</ele>
        <time>2021-03-20T20:03:38Z</time>
      </trkpt>
      <trkpt lat="58.22431" lon="-6.38604">
        <ele>7</ele>
        <time>2021-03-20T20:03:46Z</time>
      </trkpt>
      <trkpt lat="58.22391" lon="-6.38597">
        <ele>7.91</ele>
        <time>2021-03-20T20:03:53Z</time>
      </trkpt>
      <trkpt lat="58.22155" lon="-6.38618">
        <ele>17.66</ele>
        <time>2021-03-20T20:04:01Z</time>
      </trkpt>
      <trkpt lat="58.21953" lon="-6.38624">
        <ele>13</ele>
        <time>2021-03-20T20:04:09Z</time>
      </trkpt>
      <trkpt lat="58.21953" lon="-6.38618">
        <ele>13</ele>
        <time>2021-03-20T20:04:17Z</time>
      </trkpt>
      <trkpt lat="58.2195" lon="-6.38606">
        <ele>13</ele>
        <time>2021-03-20T20:04:26Z</time>
      </trkpt>
      <trkpt lat="58.21944" lon="-6.386">
        <ele>12.99</ele>
        <time>2021-03-20T20:04:34Z</time>
      </trkpt>
      <trkpt lat="58.21944" lon="-6.38574">
        <ele>12.65</ele>
        <time>2021-03-20T20:04:42Z</time>
      </trkpt>
      <trkpt lat="58.21922" lon="-6.38439">
        <ele>13</ele>
        <time>2021-03-20T20:04:51Z</time>
      </trkpt>
      <trkpt lat="58.21847" lon="-6.38">
        <ele>14.04</ele>
        <time>2021-03-20T20:04:59Z</time>
      </trkpt>
      <trkpt lat="58.21836" lon="-6.37928">
        <ele>15.92</ele>
        <time>2021-03-20T20:05:08Z</time>
      </trkpt>
      <trkpt lat="58.21807" lon="-6.37779">
        <ele>18</ele>
        <time>2021-03-20T20:05:16Z</time>
      </trkpt>
      <trkpt lat="58.21791" lon="-6.37725">
        <ele>17.04</ele>
        <time>2021-03-20T20:05:24Z</time>
      </trkpt>
      <trkpt lat="58.21725" lon="-6.37577">
        <ele>15.76</ele>
        <time>2021-03-20T20:05:33Z</time>
      </trkpt>
      <trkpt lat="58.21675" lon="-6.37458">
        <ele>13.84</ele>
        <time>2021-03-20T20:05:41Z</time>
      </trkpt>
      <trkpt lat="58.21623" lon="-6.37345">
        <ele>17.13</ele>
        <time>2021-03-20T20:05:50Z</time>
      </trkpt>
      <trkpt lat="58.21573" lon="-6.37256">
        <ele>21.37</ele>
        <time>2021-03-20T20:05:58Z</time>
      </trkpt>
      <trkpt lat="58.21515" lon="-6.37351">
        <ele>23.44</ele>
        <time>2021-03-20T20:06:05Z</time>
      </trkpt>
      <trkpt lat="58.21468" lon="-6.37434">
        <ele>26</ele>
        <time>2021-03-20T20:06:12Z</time>
      </trkpt>
      <trkpt lat="58.2151" lon="-6.37503">
        <ele>23.53</ele>
        <time>2021-03-20T20:06:23Z</time>
      </trkpt>
      <trkpt lat="58.21533" lon="-6.37466">
        <ele>22.66</ele>
        <time>2021-03-20T20:06:27Z</time>
      </trkpt>
      <trkpt lat="58.21538" lon="-6.37468">
        <ele>22.3</ele>
        <time>2021-03-20T20:06:32Z</time>
      </trkpt>
      <trkpt lat="58.21567" lon="-6.37525">
        <ele>21.02</ele>
        <time>2021-03-20T20:06:37Z</time>
      </trkpt>
    </trkseg>
  </trk>
</gpx>